<?xml version="1.0" encoding="UTF-8" standalone="no" ?>
<gpx xmlns="http://www.topografix.com/GPX/1/1" xmlns:xsi="http://www.w3.org/2001/XMLSchema-instance" xsi:schemaLocation="http://www.topografix.com/GPX/1/1 http://www.topografix.com/GPX/1/1/gpx.xsd" version="1.1" creator="VisuGPX - https://www.visugpx.com">
  <metadata>
    <name>Mervent-Vouvant 29-12-2012</name>
    <desc><![CDATA[Rando VTT perso Mervent-Vouvant]]></desc>
  </metadata>
  <trk>
    <name><![CDATA[Vouvant-2012-12-29-01]]></name>
    <trkseg>
      <trkpt lat="46.57169" lon="-0.77041">
        <ele>74.9</ele>
        <time>2012-12-29T08:58:05Z</time>
      </trkpt>
      <trkpt lat="46.57172" lon="-0.77031">
        <ele>76</ele>
        <time>2012-12-29T08:58:37Z</time>
      </trkpt>
      <trkpt lat="46.57176" lon="-0.77029">
        <ele>77.3</ele>
        <time>2012-12-29T08:58:41Z</time>
      </trkpt>
      <trkpt lat="46.57171" lon="-0.77033">
        <ele>77</ele>
        <time>2012-12-29T08:58:47Z</time>
      </trkpt>
      <trkpt lat="46.57174" lon="-0.77043">
        <ele>75.9</ele>
        <time>2012-12-29T08:59:53Z</time>
      </trkpt>
      <trkpt lat="46.57178" lon="-0.77034">
        <ele>76.2</ele>
        <time>2012-12-29T09:00:17Z</time>
      </trkpt>
      <trkpt lat="46.57182" lon="-0.77033">
        <ele>76</ele>
        <time>2012-12-29T09:00:19Z</time>
      </trkpt>
      <trkpt lat="46.57187" lon="-0.77028">
        <ele>76.3</ele>
        <time>2012-12-29T09:00:23Z</time>
      </trkpt>
      <trkpt lat="46.57189" lon="-0.77024">
        <ele>76.6</ele>
        <time>2012-12-29T09:00:25Z</time>
      </trkpt>
      <trkpt lat="46.57197" lon="-0.77007">
        <ele>77.5</ele>
        <time>2012-12-29T09:00:34Z</time>
      </trkpt>
      <trkpt lat="46.572" lon="-0.76998">
        <ele>77.3</ele>
        <time>2012-12-29T09:00:38Z</time>
      </trkpt>
      <trkpt lat="46.57204" lon="-0.76991">
        <ele>77.6</ele>
        <time>2012-12-29T09:00:41Z</time>
      </trkpt>
      <trkpt lat="46.57209" lon="-0.7698">
        <ele>77.9</ele>
        <time>2012-12-29T09:00:44Z</time>
      </trkpt>
      <trkpt lat="46.57212" lon="-0.76972">
        <ele>77.5</ele>
        <time>2012-12-29T09:00:46Z</time>
      </trkpt>
      <trkpt lat="46.57216" lon="-0.76964">
        <ele>77.7</ele>
        <time>2012-12-29T09:00:48Z</time>
      </trkpt>
      <trkpt lat="46.57221" lon="-0.76954">
        <ele>77.3</ele>
        <time>2012-12-29T09:00:50Z</time>
      </trkpt>
      <trkpt lat="46.57224" lon="-0.76944">
        <ele>76.7</ele>
        <time>2012-12-29T09:00:52Z</time>
      </trkpt>
      <trkpt lat="46.57227" lon="-0.76933">
        <ele>76.5</ele>
        <time>2012-12-29T09:00:54Z</time>
      </trkpt>
      <trkpt lat="46.57228" lon="-0.76926">
        <ele>76.5</ele>
        <time>2012-12-29T09:00:55Z</time>
      </trkpt>
      <trkpt lat="46.57229" lon="-0.76912">
        <ele>76.1</ele>
        <time>2012-12-29T09:00:57Z</time>
      </trkpt>
      <trkpt lat="46.57228" lon="-0.76899">
        <ele>75.5</ele>
        <time>2012-12-29T09:00:59Z</time>
      </trkpt>
      <trkpt lat="46.57225" lon="-0.76891">
        <ele>74.8</ele>
        <time>2012-12-29T09:01:01Z</time>
      </trkpt>
      <trkpt lat="46.5722" lon="-0.76884">
        <ele>74.2</ele>
        <time>2012-12-29T09:01:03Z</time>
      </trkpt>
      <trkpt lat="46.57209" lon="-0.76871">
        <ele>72.8</ele>
        <time>2012-12-29T09:01:07Z</time>
      </trkpt>
      <trkpt lat="46.57199" lon="-0.76858">
        <ele>72</ele>
        <time>2012-12-29T09:01:10Z</time>
      </trkpt>
      <trkpt lat="46.57195" lon="-0.76853">
        <ele>71.7</ele>
        <time>2012-12-29T09:01:11Z</time>
      </trkpt>
      <trkpt lat="46.57192" lon="-0.76848">
        <ele>71.5</ele>
        <time>2012-12-29T09:01:12Z</time>
      </trkpt>
      <trkpt lat="46.57188" lon="-0.76843">
        <ele>71.2</ele>
        <time>2012-12-29T09:01:13Z</time>
      </trkpt>
      <trkpt lat="46.57185" lon="-0.76837">
        <ele>71</ele>
        <time>2012-12-29T09:01:14Z</time>
      </trkpt>
      <trkpt lat="46.57182" lon="-0.7683">
        <ele>70.8</ele>
        <time>2012-12-29T09:01:15Z</time>
      </trkpt>
      <trkpt lat="46.5718" lon="-0.76823">
        <ele>70.4</ele>
        <time>2012-12-29T09:01:16Z</time>
      </trkpt>
      <trkpt lat="46.57179" lon="-0.76816">
        <ele>70</ele>
        <time>2012-12-29T09:01:17Z</time>
      </trkpt>
      <trkpt lat="46.57179" lon="-0.76808">
        <ele>69.7</ele>
        <time>2012-12-29T09:01:18Z</time>
      </trkpt>
      <trkpt lat="46.57178" lon="-0.768">
        <ele>69.6</ele>
        <time>2012-12-29T09:01:19Z</time>
      </trkpt>
      <trkpt lat="46.5718" lon="-0.76785">
        <ele>69.5</ele>
        <time>2012-12-29T09:01:21Z</time>
      </trkpt>
      <trkpt lat="46.57185" lon="-0.76751">
        <ele>66.3</ele>
        <time>2012-12-29T09:01:25Z</time>
      </trkpt>
      <trkpt lat="46.57189" lon="-0.76731">
        <ele>66.3</ele>
        <time>2012-12-29T09:01:27Z</time>
      </trkpt>
      <trkpt lat="46.57195" lon="-0.76698">
        <ele>65.1</ele>
        <time>2012-12-29T09:01:30Z</time>
      </trkpt>
      <trkpt lat="46.57202" lon="-0.7666">
        <ele>65</ele>
        <time>2012-12-29T09:01:34Z</time>
      </trkpt>
      <trkpt lat="46.57204" lon="-0.76642">
        <ele>64.2</ele>
        <time>2012-12-29T09:01:36Z</time>
      </trkpt>
      <trkpt lat="46.57209" lon="-0.76611">
        <ele>63.4</ele>
        <time>2012-12-29T09:01:40Z</time>
      </trkpt>
      <trkpt lat="46.57211" lon="-0.76597">
        <ele>63.2</ele>
        <time>2012-12-29T09:01:42Z</time>
      </trkpt>
      <trkpt lat="46.57213" lon="-0.76584">
        <ele>63</ele>
        <time>2012-12-29T09:01:44Z</time>
      </trkpt>
      <trkpt lat="46.57215" lon="-0.76566">
        <ele>63.9</ele>
        <time>2012-12-29T09:01:47Z</time>
      </trkpt>
      <trkpt lat="46.57217" lon="-0.76549">
        <ele>64.8</ele>
        <time>2012-12-29T09:01:50Z</time>
      </trkpt>
      <trkpt lat="46.57217" lon="-0.76539">
        <ele>64.9</ele>
        <time>2012-12-29T09:01:52Z</time>
      </trkpt>
      <trkpt lat="46.57219" lon="-0.76519">
        <ele>67</ele>
        <time>2012-12-29T09:01:56Z</time>
      </trkpt>
      <trkpt lat="46.57219" lon="-0.76509">
        <ele>66.5</ele>
        <time>2012-12-29T09:01:58Z</time>
      </trkpt>
      <trkpt lat="46.57218" lon="-0.765">
        <ele>66.3</ele>
        <time>2012-12-29T09:02:00Z</time>
      </trkpt>
      <trkpt lat="46.57218" lon="-0.76491">
        <ele>67</ele>
        <time>2012-12-29T09:02:02Z</time>
      </trkpt>
      <trkpt lat="46.57218" lon="-0.76482">
        <ele>67.5</ele>
        <time>2012-12-29T09:02:04Z</time>
      </trkpt>
      <trkpt lat="46.57216" lon="-0.76464">
        <ele>68.8</ele>
        <time>2012-12-29T09:02:08Z</time>
      </trkpt>
      <trkpt lat="46.57215" lon="-0.76455">
        <ele>69.6</ele>
        <time>2012-12-29T09:02:10Z</time>
      </trkpt>
      <trkpt lat="46.57212" lon="-0.76443">
        <ele>70.6</ele>
        <time>2012-12-29T09:02:13Z</time>
      </trkpt>
      <trkpt lat="46.57208" lon="-0.76423">
        <ele>71.3</ele>
        <time>2012-12-29T09:02:18Z</time>
      </trkpt>
      <trkpt lat="46.57205" lon="-0.76411">
        <ele>71.5</ele>
        <time>2012-12-29T09:02:21Z</time>
      </trkpt>
      <trkpt lat="46.57202" lon="-0.76399">
        <ele>72</ele>
        <time>2012-12-29T09:02:24Z</time>
      </trkpt>
      <trkpt lat="46.572" lon="-0.76391">
        <ele>72.1</ele>
        <time>2012-12-29T09:02:26Z</time>
      </trkpt>
      <trkpt lat="46.57198" lon="-0.76384">
        <ele>72.2</ele>
        <time>2012-12-29T09:02:28Z</time>
      </trkpt>
      <trkpt lat="46.57194" lon="-0.76368">
        <ele>73.9</ele>
        <time>2012-12-29T09:02:32Z</time>
      </trkpt>
      <trkpt lat="46.57192" lon="-0.76361">
        <ele>74.2</ele>
        <time>2012-12-29T09:02:34Z</time>
      </trkpt>
      <trkpt lat="46.5719" lon="-0.76354">
        <ele>74.5</ele>
        <time>2012-12-29T09:02:36Z</time>
      </trkpt>
      <trkpt lat="46.57188" lon="-0.76346">
        <ele>74.8</ele>
        <time>2012-12-29T09:02:38Z</time>
      </trkpt>
      <trkpt lat="46.57184" lon="-0.76335">
        <ele>75.6</ele>
        <time>2012-12-29T09:02:41Z</time>
      </trkpt>
      <trkpt lat="46.57183" lon="-0.76325">
        <ele>76.6</ele>
        <time>2012-12-29T09:02:44Z</time>
      </trkpt>
      <trkpt lat="46.57181" lon="-0.76317">
        <ele>77</ele>
        <time>2012-12-29T09:02:46Z</time>
      </trkpt>
      <trkpt lat="46.57181" lon="-0.7631">
        <ele>77.2</ele>
        <time>2012-12-29T09:02:48Z</time>
      </trkpt>
      <trkpt lat="46.5718" lon="-0.76303">
        <ele>77.6</ele>
        <time>2012-12-29T09:02:50Z</time>
      </trkpt>
      <trkpt lat="46.5718" lon="-0.76296">
        <ele>77.7</ele>
        <time>2012-12-29T09:02:52Z</time>
      </trkpt>
      <trkpt lat="46.5718" lon="-0.76289">
        <ele>77.7</ele>
        <time>2012-12-29T09:02:54Z</time>
      </trkpt>
      <trkpt lat="46.5718" lon="-0.76272">
        <ele>79.2</ele>
        <time>2012-12-29T09:02:59Z</time>
      </trkpt>
      <trkpt lat="46.57181" lon="-0.76261">
        <ele>80</ele>
        <time>2012-12-29T09:03:02Z</time>
      </trkpt>
      <trkpt lat="46.57182" lon="-0.76254">
        <ele>80.6</ele>
        <time>2012-12-29T09:03:04Z</time>
      </trkpt>
      <trkpt lat="46.57183" lon="-0.76247">
        <ele>81</ele>
        <time>2012-12-29T09:03:06Z</time>
      </trkpt>
      <trkpt lat="46.57184" lon="-0.7624">
        <ele>80.9</ele>
        <time>2012-12-29T09:03:08Z</time>
      </trkpt>
      <trkpt lat="46.57184" lon="-0.76236">
        <ele>80.7</ele>
        <time>2012-12-29T09:03:09Z</time>
      </trkpt>
      <trkpt lat="46.57185" lon="-0.76229">
        <ele>81</ele>
        <time>2012-12-29T09:03:11Z</time>
      </trkpt>
      <trkpt lat="46.57186" lon="-0.76219">
        <ele>81.8</ele>
        <time>2012-12-29T09:03:14Z</time>
      </trkpt>
      <trkpt lat="46.57186" lon="-0.76212">
        <ele>82</ele>
        <time>2012-12-29T09:03:16Z</time>
      </trkpt>
      <trkpt lat="46.57186" lon="-0.76201">
        <ele>82.6</ele>
        <time>2012-12-29T09:03:19Z</time>
      </trkpt>
      <trkpt lat="46.57185" lon="-0.76194">
        <ele>82.9</ele>
        <time>2012-12-29T09:03:21Z</time>
      </trkpt>
      <trkpt lat="46.57184" lon="-0.76188">
        <ele>83.1</ele>
        <time>2012-12-29T09:03:23Z</time>
      </trkpt>
      <trkpt lat="46.57181" lon="-0.76178">
        <ele>83.6</ele>
        <time>2012-12-29T09:03:26Z</time>
      </trkpt>
      <trkpt lat="46.57177" lon="-0.76168">
        <ele>83.9</ele>
        <time>2012-12-29T09:03:29Z</time>
      </trkpt>
      <trkpt lat="46.57174" lon="-0.76163">
        <ele>84.4</ele>
        <time>2012-12-29T09:03:31Z</time>
      </trkpt>
      <trkpt lat="46.57168" lon="-0.76157">
        <ele>84</ele>
        <time>2012-12-29T09:03:34Z</time>
      </trkpt>
      <trkpt lat="46.57162" lon="-0.76153">
        <ele>84.8</ele>
        <time>2012-12-29T09:03:37Z</time>
      </trkpt>
      <trkpt lat="46.57158" lon="-0.76151">
        <ele>85.4</ele>
        <time>2012-12-29T09:03:39Z</time>
      </trkpt>
      <trkpt lat="46.57156" lon="-0.76149">
        <ele>85.8</ele>
        <time>2012-12-29T09:03:40Z</time>
      </trkpt>
      <trkpt lat="46.57147" lon="-0.76146">
        <ele>87.1</ele>
        <time>2012-12-29T09:03:44Z</time>
      </trkpt>
      <trkpt lat="46.57136" lon="-0.76143">
        <ele>87.9</ele>
        <time>2012-12-29T09:03:48Z</time>
      </trkpt>
      <trkpt lat="46.57126" lon="-0.76142">
        <ele>87.1</ele>
        <time>2012-12-29T09:03:52Z</time>
      </trkpt>
      <trkpt lat="46.57115" lon="-0.76142">
        <ele>88</ele>
        <time>2012-12-29T09:03:56Z</time>
      </trkpt>
      <trkpt lat="46.57105" lon="-0.76142">
        <ele>88.6</ele>
        <time>2012-12-29T09:04:00Z</time>
      </trkpt>
      <trkpt lat="46.571" lon="-0.76143">
        <ele>88.9</ele>
        <time>2012-12-29T09:04:02Z</time>
      </trkpt>
      <trkpt lat="46.57087" lon="-0.76146">
        <ele>90.2</ele>
        <time>2012-12-29T09:04:07Z</time>
      </trkpt>
      <trkpt lat="46.57082" lon="-0.76147">
        <ele>90.5</ele>
        <time>2012-12-29T09:04:09Z</time>
      </trkpt>
      <trkpt lat="46.57079" lon="-0.76148">
        <ele>90.5</ele>
        <time>2012-12-29T09:04:10Z</time>
      </trkpt>
      <trkpt lat="46.57072" lon="-0.7615">
        <ele>92</ele>
        <time>2012-12-29T09:04:13Z</time>
      </trkpt>
      <trkpt lat="46.57062" lon="-0.76152">
        <ele>92.3</ele>
        <time>2012-12-29T09:04:17Z</time>
      </trkpt>
      <trkpt lat="46.57056" lon="-0.76153">
        <ele>92.6</ele>
        <time>2012-12-29T09:04:19Z</time>
      </trkpt>
      <trkpt lat="46.57049" lon="-0.76154">
        <ele>91.8</ele>
        <time>2012-12-29T09:04:22Z</time>
      </trkpt>
      <trkpt lat="46.57042" lon="-0.76157">
        <ele>93.1</ele>
        <time>2012-12-29T09:04:25Z</time>
      </trkpt>
      <trkpt lat="46.57037" lon="-0.76158">
        <ele>94.1</ele>
        <time>2012-12-29T09:04:27Z</time>
      </trkpt>
      <trkpt lat="46.57032" lon="-0.76159">
        <ele>94.4</ele>
        <time>2012-12-29T09:04:29Z</time>
      </trkpt>
      <trkpt lat="46.57022" lon="-0.7616">
        <ele>95.4</ele>
        <time>2012-12-29T09:04:33Z</time>
      </trkpt>
      <trkpt lat="46.57017" lon="-0.76162">
        <ele>95.6</ele>
        <time>2012-12-29T09:04:35Z</time>
      </trkpt>
      <trkpt lat="46.57012" lon="-0.76163">
        <ele>96</ele>
        <time>2012-12-29T09:04:37Z</time>
      </trkpt>
      <trkpt lat="46.57004" lon="-0.76165">
        <ele>96.5</ele>
        <time>2012-12-29T09:04:40Z</time>
      </trkpt>
      <trkpt lat="46.56995" lon="-0.76168">
        <ele>96.8</ele>
        <time>2012-12-29T09:04:44Z</time>
      </trkpt>
      <trkpt lat="46.5699" lon="-0.76169">
        <ele>96.9</ele>
        <time>2012-12-29T09:04:46Z</time>
      </trkpt>
      <trkpt lat="46.56981" lon="-0.76172">
        <ele>97.7</ele>
        <time>2012-12-29T09:04:50Z</time>
      </trkpt>
      <trkpt lat="46.56971" lon="-0.76175">
        <ele>98.4</ele>
        <time>2012-12-29T09:04:54Z</time>
      </trkpt>
      <trkpt lat="46.56966" lon="-0.76177">
        <ele>98.7</ele>
        <time>2012-12-29T09:04:56Z</time>
      </trkpt>
      <trkpt lat="46.56958" lon="-0.76181">
        <ele>98.7</ele>
        <time>2012-12-29T09:04:59Z</time>
      </trkpt>
      <trkpt lat="46.5695" lon="-0.76185">
        <ele>98.4</ele>
        <time>2012-12-29T09:05:02Z</time>
      </trkpt>
      <trkpt lat="46.56937" lon="-0.7619">
        <ele>98.5</ele>
        <time>2012-12-29T09:05:06Z</time>
      </trkpt>
      <trkpt lat="46.56934" lon="-0.76192">
        <ele>98.5</ele>
        <time>2012-12-29T09:05:07Z</time>
      </trkpt>
      <trkpt lat="46.56927" lon="-0.76195">
        <ele>98.5</ele>
        <time>2012-12-29T09:05:09Z</time>
      </trkpt>
      <trkpt lat="46.56924" lon="-0.76197">
        <ele>98.4</ele>
        <time>2012-12-29T09:05:10Z</time>
      </trkpt>
      <trkpt lat="46.56917" lon="-0.76198">
        <ele>97.9</ele>
        <time>2012-12-29T09:05:12Z</time>
      </trkpt>
      <trkpt lat="46.5691" lon="-0.76195">
        <ele>97.3</ele>
        <time>2012-12-29T09:05:14Z</time>
      </trkpt>
      <trkpt lat="46.56904" lon="-0.76191">
        <ele>98</ele>
        <time>2012-12-29T09:05:16Z</time>
      </trkpt>
      <trkpt lat="46.569" lon="-0.76189">
        <ele>98.2</ele>
        <time>2012-12-29T09:05:17Z</time>
      </trkpt>
      <trkpt lat="46.56891" lon="-0.76186">
        <ele>98.2</ele>
        <time>2012-12-29T09:05:19Z</time>
      </trkpt>
      <trkpt lat="46.56873" lon="-0.76178">
        <ele>98.2</ele>
        <time>2012-12-29T09:05:23Z</time>
      </trkpt>
      <trkpt lat="46.56868" lon="-0.76177">
        <ele>98.3</ele>
        <time>2012-12-29T09:05:24Z</time>
      </trkpt>
      <trkpt lat="46.56859" lon="-0.76173">
        <ele>97.6</ele>
        <time>2012-12-29T09:05:26Z</time>
      </trkpt>
      <trkpt lat="46.56849" lon="-0.76169">
        <ele>97</ele>
        <time>2012-12-29T09:05:28Z</time>
      </trkpt>
      <trkpt lat="46.5683" lon="-0.76161">
        <ele>96.5</ele>
        <time>2012-12-29T09:05:32Z</time>
      </trkpt>
      <trkpt lat="46.5682" lon="-0.76157">
        <ele>96.5</ele>
        <time>2012-12-29T09:05:34Z</time>
      </trkpt>
      <trkpt lat="46.56811" lon="-0.76154">
        <ele>95.8</ele>
        <time>2012-12-29T09:05:36Z</time>
      </trkpt>
      <trkpt lat="46.56801" lon="-0.7615">
        <ele>95</ele>
        <time>2012-12-29T09:05:38Z</time>
      </trkpt>
      <trkpt lat="46.56786" lon="-0.76144">
        <ele>94</ele>
        <time>2012-12-29T09:05:41Z</time>
      </trkpt>
      <trkpt lat="46.56776" lon="-0.7614">
        <ele>93.8</ele>
        <time>2012-12-29T09:05:43Z</time>
      </trkpt>
      <trkpt lat="46.56762" lon="-0.76135">
        <ele>93.9</ele>
        <time>2012-12-29T09:05:46Z</time>
      </trkpt>
      <trkpt lat="46.56747" lon="-0.76129">
        <ele>93.6</ele>
        <time>2012-12-29T09:05:49Z</time>
      </trkpt>
      <trkpt lat="46.56737" lon="-0.76124">
        <ele>93.7</ele>
        <time>2012-12-29T09:05:51Z</time>
      </trkpt>
      <trkpt lat="46.56723" lon="-0.76116">
        <ele>93.2</ele>
        <time>2012-12-29T09:05:54Z</time>
      </trkpt>
      <trkpt lat="46.56714" lon="-0.7611">
        <ele>92.7</ele>
        <time>2012-12-29T09:05:56Z</time>
      </trkpt>
      <trkpt lat="46.5671" lon="-0.76107">
        <ele>92.6</ele>
        <time>2012-12-29T09:05:57Z</time>
      </trkpt>
      <trkpt lat="46.56706" lon="-0.76104">
        <ele>92.5</ele>
        <time>2012-12-29T09:05:58Z</time>
      </trkpt>
      <trkpt lat="46.56688" lon="-0.76092">
        <ele>92.6</ele>
        <time>2012-12-29T09:06:02Z</time>
      </trkpt>
      <trkpt lat="46.5668" lon="-0.76086">
        <ele>93</ele>
        <time>2012-12-29T09:06:04Z</time>
      </trkpt>
      <trkpt lat="46.56665" lon="-0.76074">
        <ele>92.2</ele>
        <time>2012-12-29T09:06:08Z</time>
      </trkpt>
      <trkpt lat="46.56656" lon="-0.76068">
        <ele>92.3</ele>
        <time>2012-12-29T09:06:10Z</time>
      </trkpt>
      <trkpt lat="46.56644" lon="-0.7606">
        <ele>92.8</ele>
        <time>2012-12-29T09:06:13Z</time>
      </trkpt>
      <trkpt lat="46.56637" lon="-0.76054">
        <ele>92.9</ele>
        <time>2012-12-29T09:06:15Z</time>
      </trkpt>
      <trkpt lat="46.56626" lon="-0.76047">
        <ele>92.5</ele>
        <time>2012-12-29T09:06:18Z</time>
      </trkpt>
      <trkpt lat="46.56615" lon="-0.76039">
        <ele>93</ele>
        <time>2012-12-29T09:06:21Z</time>
      </trkpt>
      <trkpt lat="46.56604" lon="-0.76032">
        <ele>93</ele>
        <time>2012-12-29T09:06:24Z</time>
      </trkpt>
      <trkpt lat="46.56592" lon="-0.76022">
        <ele>94.4</ele>
        <time>2012-12-29T09:06:28Z</time>
      </trkpt>
      <trkpt lat="46.56588" lon="-0.7602">
        <ele>94.7</ele>
        <time>2012-12-29T09:06:29Z</time>
      </trkpt>
      <trkpt lat="46.56579" lon="-0.76015">
        <ele>95</ele>
        <time>2012-12-29T09:06:32Z</time>
      </trkpt>
      <trkpt lat="46.56573" lon="-0.7601">
        <ele>94.8</ele>
        <time>2012-12-29T09:06:34Z</time>
      </trkpt>
      <trkpt lat="46.5657" lon="-0.76008">
        <ele>95</ele>
        <time>2012-12-29T09:06:35Z</time>
      </trkpt>
      <trkpt lat="46.56562" lon="-0.76002">
        <ele>95.9</ele>
        <time>2012-12-29T09:06:38Z</time>
      </trkpt>
      <trkpt lat="46.56548" lon="-0.75992">
        <ele>96.6</ele>
        <time>2012-12-29T09:06:43Z</time>
      </trkpt>
      <trkpt lat="46.56542" lon="-0.75989">
        <ele>96.9</ele>
        <time>2012-12-29T09:06:45Z</time>
      </trkpt>
      <trkpt lat="46.56539" lon="-0.75987">
        <ele>97.1</ele>
        <time>2012-12-29T09:06:46Z</time>
      </trkpt>
      <trkpt lat="46.56526" lon="-0.75976">
        <ele>97.1</ele>
        <time>2012-12-29T09:06:51Z</time>
      </trkpt>
      <trkpt lat="46.56515" lon="-0.75969">
        <ele>98</ele>
        <time>2012-12-29T09:06:55Z</time>
      </trkpt>
      <trkpt lat="46.56502" lon="-0.75959">
        <ele>98.8</ele>
        <time>2012-12-29T09:07:00Z</time>
      </trkpt>
      <trkpt lat="46.56488" lon="-0.7595">
        <ele>100.1</ele>
        <time>2012-12-29T09:07:05Z</time>
      </trkpt>
      <trkpt lat="46.56475" lon="-0.7594">
        <ele>100.1</ele>
        <time>2012-12-29T09:07:10Z</time>
      </trkpt>
      <trkpt lat="46.56464" lon="-0.75932">
        <ele>101.2</ele>
        <time>2012-12-29T09:07:14Z</time>
      </trkpt>
      <trkpt lat="46.56459" lon="-0.75928">
        <ele>101.4</ele>
        <time>2012-12-29T09:07:16Z</time>
      </trkpt>
      <trkpt lat="46.56453" lon="-0.75924">
        <ele>101.5</ele>
        <time>2012-12-29T09:07:18Z</time>
      </trkpt>
      <trkpt lat="46.56445" lon="-0.75919">
        <ele>101.2</ele>
        <time>2012-12-29T09:07:21Z</time>
      </trkpt>
      <trkpt lat="46.56434" lon="-0.75911">
        <ele>101.1</ele>
        <time>2012-12-29T09:07:25Z</time>
      </trkpt>
      <trkpt lat="46.56429" lon="-0.75907">
        <ele>101.6</ele>
        <time>2012-12-29T09:07:27Z</time>
      </trkpt>
      <trkpt lat="46.56423" lon="-0.75904">
        <ele>101.7</ele>
        <time>2012-12-29T09:07:29Z</time>
      </trkpt>
      <trkpt lat="46.56418" lon="-0.75899">
        <ele>101.6</ele>
        <time>2012-12-29T09:07:31Z</time>
      </trkpt>
      <trkpt lat="46.56412" lon="-0.75896">
        <ele>101.5</ele>
        <time>2012-12-29T09:07:33Z</time>
      </trkpt>
      <trkpt lat="46.56404" lon="-0.7589">
        <ele>102.3</ele>
        <time>2012-12-29T09:07:36Z</time>
      </trkpt>
      <trkpt lat="46.56399" lon="-0.75886">
        <ele>103.5</ele>
        <time>2012-12-29T09:07:38Z</time>
      </trkpt>
      <trkpt lat="46.56391" lon="-0.7588">
        <ele>102.8</ele>
        <time>2012-12-29T09:07:41Z</time>
      </trkpt>
      <trkpt lat="46.56379" lon="-0.75872">
        <ele>101.6</ele>
        <time>2012-12-29T09:07:45Z</time>
      </trkpt>
      <trkpt lat="46.56373" lon="-0.75869">
        <ele>101.4</ele>
        <time>2012-12-29T09:07:47Z</time>
      </trkpt>
      <trkpt lat="46.56366" lon="-0.75864">
        <ele>102</ele>
        <time>2012-12-29T09:07:49Z</time>
      </trkpt>
      <trkpt lat="46.56362" lon="-0.75862">
        <ele>102.5</ele>
        <time>2012-12-29T09:07:50Z</time>
      </trkpt>
      <trkpt lat="46.56355" lon="-0.75857">
        <ele>102.9</ele>
        <time>2012-12-29T09:07:52Z</time>
      </trkpt>
      <trkpt lat="46.56349" lon="-0.75852">
        <ele>103.1</ele>
        <time>2012-12-29T09:07:54Z</time>
      </trkpt>
      <trkpt lat="46.56342" lon="-0.75847">
        <ele>103.2</ele>
        <time>2012-12-29T09:07:56Z</time>
      </trkpt>
      <trkpt lat="46.56329" lon="-0.75837">
        <ele>103.6</ele>
        <time>2012-12-29T09:08:00Z</time>
      </trkpt>
      <trkpt lat="46.56315" lon="-0.75828">
        <ele>102.9</ele>
        <time>2012-12-29T09:08:04Z</time>
      </trkpt>
      <trkpt lat="46.56301" lon="-0.75819">
        <ele>102.5</ele>
        <time>2012-12-29T09:08:08Z</time>
      </trkpt>
      <trkpt lat="46.56294" lon="-0.75814">
        <ele>102.2</ele>
        <time>2012-12-29T09:08:10Z</time>
      </trkpt>
      <trkpt lat="46.5629" lon="-0.75812">
        <ele>102.4</ele>
        <time>2012-12-29T09:08:11Z</time>
      </trkpt>
      <trkpt lat="46.56277" lon="-0.75801">
        <ele>103.2</ele>
        <time>2012-12-29T09:08:15Z</time>
      </trkpt>
      <trkpt lat="46.5627" lon="-0.75796">
        <ele>102.9</ele>
        <time>2012-12-29T09:08:17Z</time>
      </trkpt>
      <trkpt lat="46.5626" lon="-0.75787">
        <ele>102.5</ele>
        <time>2012-12-29T09:08:20Z</time>
      </trkpt>
      <trkpt lat="46.56249" lon="-0.75777">
        <ele>102.7</ele>
        <time>2012-12-29T09:08:23Z</time>
      </trkpt>
      <trkpt lat="46.56242" lon="-0.75769">
        <ele>103.3</ele>
        <time>2012-12-29T09:08:25Z</time>
      </trkpt>
      <trkpt lat="46.56239" lon="-0.75765">
        <ele>103.5</ele>
        <time>2012-12-29T09:08:26Z</time>
      </trkpt>
      <trkpt lat="46.56226" lon="-0.75748">
        <ele>103.6</ele>
        <time>2012-12-29T09:08:30Z</time>
      </trkpt>
      <trkpt lat="46.56223" lon="-0.75744">
        <ele>103.4</ele>
        <time>2012-12-29T09:08:31Z</time>
      </trkpt>
      <trkpt lat="46.56218" lon="-0.75735">
        <ele>103.1</ele>
        <time>2012-12-29T09:08:33Z</time>
      </trkpt>
      <trkpt lat="46.56213" lon="-0.75725">
        <ele>102.9</ele>
        <time>2012-12-29T09:08:35Z</time>
      </trkpt>
      <trkpt lat="46.56208" lon="-0.75716">
        <ele>103.8</ele>
        <time>2012-12-29T09:08:37Z</time>
      </trkpt>
      <trkpt lat="46.56206" lon="-0.75711">
        <ele>104.1</ele>
        <time>2012-12-29T09:08:38Z</time>
      </trkpt>
      <trkpt lat="46.56201" lon="-0.75702">
        <ele>104.4</ele>
        <time>2012-12-29T09:08:40Z</time>
      </trkpt>
      <trkpt lat="46.56193" lon="-0.75684">
        <ele>104.3</ele>
        <time>2012-12-29T09:08:44Z</time>
      </trkpt>
      <trkpt lat="46.56191" lon="-0.75679">
        <ele>104.2</ele>
        <time>2012-12-29T09:08:45Z</time>
      </trkpt>
      <trkpt lat="46.56182" lon="-0.75659">
        <ele>103.8</ele>
        <time>2012-12-29T09:08:49Z</time>
      </trkpt>
      <trkpt lat="46.56175" lon="-0.75643">
        <ele>103.5</ele>
        <time>2012-12-29T09:08:52Z</time>
      </trkpt>
      <trkpt lat="46.5617" lon="-0.75633">
        <ele>103.8</ele>
        <time>2012-12-29T09:08:54Z</time>
      </trkpt>
      <trkpt lat="46.56165" lon="-0.75622">
        <ele>104.1</ele>
        <time>2012-12-29T09:08:56Z</time>
      </trkpt>
      <trkpt lat="46.56154" lon="-0.75602">
        <ele>104.1</ele>
        <time>2012-12-29T09:09:00Z</time>
      </trkpt>
      <trkpt lat="46.56148" lon="-0.75592">
        <ele>103.8</ele>
        <time>2012-12-29T09:09:02Z</time>
      </trkpt>
      <trkpt lat="46.56145" lon="-0.75587">
        <ele>103.6</ele>
        <time>2012-12-29T09:09:03Z</time>
      </trkpt>
      <trkpt lat="46.56142" lon="-0.75582">
        <ele>103.4</ele>
        <time>2012-12-29T09:09:04Z</time>
      </trkpt>
      <trkpt lat="46.56137" lon="-0.75571">
        <ele>102.9</ele>
        <time>2012-12-29T09:09:06Z</time>
      </trkpt>
      <trkpt lat="46.56134" lon="-0.75566">
        <ele>102.7</ele>
        <time>2012-12-29T09:09:07Z</time>
      </trkpt>
      <trkpt lat="46.56131" lon="-0.75561">
        <ele>102.7</ele>
        <time>2012-12-29T09:09:08Z</time>
      </trkpt>
      <trkpt lat="46.56122" lon="-0.75545">
        <ele>102.8</ele>
        <time>2012-12-29T09:09:11Z</time>
      </trkpt>
      <trkpt lat="46.56116" lon="-0.75535">
        <ele>102.3</ele>
        <time>2012-12-29T09:09:13Z</time>
      </trkpt>
      <trkpt lat="46.56109" lon="-0.75525">
        <ele>102</ele>
        <time>2012-12-29T09:09:15Z</time>
      </trkpt>
      <trkpt lat="46.561" lon="-0.75508">
        <ele>101.6</ele>
        <time>2012-12-29T09:09:18Z</time>
      </trkpt>
      <trkpt lat="46.56097" lon="-0.75502">
        <ele>101.4</ele>
        <time>2012-12-29T09:09:19Z</time>
      </trkpt>
      <trkpt lat="46.56087" lon="-0.75485">
        <ele>100</ele>
        <time>2012-12-29T09:09:22Z</time>
      </trkpt>
      <trkpt lat="46.56081" lon="-0.75474">
        <ele>99.8</ele>
        <time>2012-12-29T09:09:24Z</time>
      </trkpt>
      <trkpt lat="46.56077" lon="-0.75468">
        <ele>99.9</ele>
        <time>2012-12-29T09:09:25Z</time>
      </trkpt>
      <trkpt lat="46.56071" lon="-0.75457">
        <ele>100.1</ele>
        <time>2012-12-29T09:09:27Z</time>
      </trkpt>
      <trkpt lat="46.56058" lon="-0.75434">
        <ele>98.9</ele>
        <time>2012-12-29T09:09:31Z</time>
      </trkpt>
      <trkpt lat="46.56055" lon="-0.75429">
        <ele>98.9</ele>
        <time>2012-12-29T09:09:32Z</time>
      </trkpt>
      <trkpt lat="46.56051" lon="-0.75423">
        <ele>98.9</ele>
        <time>2012-12-29T09:09:33Z</time>
      </trkpt>
      <trkpt lat="46.56038" lon="-0.75399">
        <ele>98.6</ele>
        <time>2012-12-29T09:09:37Z</time>
      </trkpt>
      <trkpt lat="46.56031" lon="-0.75387">
        <ele>98.8</ele>
        <time>2012-12-29T09:09:39Z</time>
      </trkpt>
      <trkpt lat="46.56018" lon="-0.75362">
        <ele>99.1</ele>
        <time>2012-12-29T09:09:43Z</time>
      </trkpt>
      <trkpt lat="46.56011" lon="-0.7535">
        <ele>99.4</ele>
        <time>2012-12-29T09:09:45Z</time>
      </trkpt>
      <trkpt lat="46.55997" lon="-0.75326">
        <ele>98.7</ele>
        <time>2012-12-29T09:09:49Z</time>
      </trkpt>
      <trkpt lat="46.55986" lon="-0.7531">
        <ele>97.9</ele>
        <time>2012-12-29T09:09:52Z</time>
      </trkpt>
      <trkpt lat="46.55972" lon="-0.75289">
        <ele>97.5</ele>
        <time>2012-12-29T09:09:56Z</time>
      </trkpt>
      <trkpt lat="46.55968" lon="-0.75283">
        <ele>97.5</ele>
        <time>2012-12-29T09:09:57Z</time>
      </trkpt>
      <trkpt lat="46.55954" lon="-0.75263">
        <ele>97</ele>
        <time>2012-12-29T09:10:01Z</time>
      </trkpt>
      <trkpt lat="46.5594" lon="-0.75243">
        <ele>97.2</ele>
        <time>2012-12-29T09:10:05Z</time>
      </trkpt>
      <trkpt lat="46.5593" lon="-0.75228">
        <ele>96.9</ele>
        <time>2012-12-29T09:10:08Z</time>
      </trkpt>
      <trkpt lat="46.55919" lon="-0.75213">
        <ele>97.2</ele>
        <time>2012-12-29T09:10:11Z</time>
      </trkpt>
      <trkpt lat="46.55905" lon="-0.75193">
        <ele>96.6</ele>
        <time>2012-12-29T09:10:15Z</time>
      </trkpt>
      <trkpt lat="46.55902" lon="-0.75188">
        <ele>96.7</ele>
        <time>2012-12-29T09:10:16Z</time>
      </trkpt>
      <trkpt lat="46.55887" lon="-0.75168">
        <ele>96.7</ele>
        <time>2012-12-29T09:10:20Z</time>
      </trkpt>
      <trkpt lat="46.55884" lon="-0.75163">
        <ele>96.7</ele>
        <time>2012-12-29T09:10:21Z</time>
      </trkpt>
      <trkpt lat="46.55873" lon="-0.75147">
        <ele>96.9</ele>
        <time>2012-12-29T09:10:24Z</time>
      </trkpt>
      <trkpt lat="46.55866" lon="-0.75137">
        <ele>96.7</ele>
        <time>2012-12-29T09:10:26Z</time>
      </trkpt>
      <trkpt lat="46.55859" lon="-0.75127">
        <ele>96.6</ele>
        <time>2012-12-29T09:10:28Z</time>
      </trkpt>
      <trkpt lat="46.55846" lon="-0.75107">
        <ele>96.3</ele>
        <time>2012-12-29T09:10:32Z</time>
      </trkpt>
      <trkpt lat="46.55832" lon="-0.75088">
        <ele>96.2</ele>
        <time>2012-12-29T09:10:36Z</time>
      </trkpt>
      <trkpt lat="46.55818" lon="-0.75069">
        <ele>95.9</ele>
        <time>2012-12-29T09:10:40Z</time>
      </trkpt>
      <trkpt lat="46.55811" lon="-0.75059">
        <ele>96</ele>
        <time>2012-12-29T09:10:42Z</time>
      </trkpt>
      <trkpt lat="46.55798" lon="-0.7504">
        <ele>95.8</ele>
        <time>2012-12-29T09:10:46Z</time>
      </trkpt>
      <trkpt lat="46.55795" lon="-0.75035">
        <ele>95.6</ele>
        <time>2012-12-29T09:10:47Z</time>
      </trkpt>
      <trkpt lat="46.55788" lon="-0.75026">
        <ele>95.2</ele>
        <time>2012-12-29T09:10:49Z</time>
      </trkpt>
      <trkpt lat="46.55778" lon="-0.75012">
        <ele>95.5</ele>
        <time>2012-12-29T09:10:52Z</time>
      </trkpt>
      <trkpt lat="46.55775" lon="-0.75007">
        <ele>95.6</ele>
        <time>2012-12-29T09:10:53Z</time>
      </trkpt>
      <trkpt lat="46.55765" lon="-0.74994">
        <ele>95.4</ele>
        <time>2012-12-29T09:10:56Z</time>
      </trkpt>
      <trkpt lat="46.55761" lon="-0.74989">
        <ele>95.5</ele>
        <time>2012-12-29T09:10:57Z</time>
      </trkpt>
      <trkpt lat="46.55755" lon="-0.74979">
        <ele>95.7</ele>
        <time>2012-12-29T09:10:59Z</time>
      </trkpt>
      <trkpt lat="46.55748" lon="-0.7497">
        <ele>95.5</ele>
        <time>2012-12-29T09:11:01Z</time>
      </trkpt>
      <trkpt lat="46.55738" lon="-0.74956">
        <ele>96</ele>
        <time>2012-12-29T09:11:04Z</time>
      </trkpt>
      <trkpt lat="46.55731" lon="-0.74947">
        <ele>95.7</ele>
        <time>2012-12-29T09:11:06Z</time>
      </trkpt>
      <trkpt lat="46.5572" lon="-0.74932">
        <ele>94.9</ele>
        <time>2012-12-29T09:11:09Z</time>
      </trkpt>
      <trkpt lat="46.55704" lon="-0.74911">
        <ele>93.8</ele>
        <time>2012-12-29T09:11:13Z</time>
      </trkpt>
      <trkpt lat="46.55696" lon="-0.749">
        <ele>93.5</ele>
        <time>2012-12-29T09:11:15Z</time>
      </trkpt>
      <trkpt lat="46.55692" lon="-0.74894">
        <ele>93.2</ele>
        <time>2012-12-29T09:11:16Z</time>
      </trkpt>
      <trkpt lat="46.55674" lon="-0.74871">
        <ele>93.1</ele>
        <time>2012-12-29T09:11:20Z</time>
      </trkpt>
      <trkpt lat="46.55654" lon="-0.74847">
        <ele>91.4</ele>
        <time>2012-12-29T09:11:24Z</time>
      </trkpt>
      <trkpt lat="46.55638" lon="-0.74827">
        <ele>90.8</ele>
        <time>2012-12-29T09:11:27Z</time>
      </trkpt>
      <trkpt lat="46.55627" lon="-0.74814">
        <ele>90.4</ele>
        <time>2012-12-29T09:11:29Z</time>
      </trkpt>
      <trkpt lat="46.55606" lon="-0.74787">
        <ele>88.8</ele>
        <time>2012-12-29T09:11:33Z</time>
      </trkpt>
      <trkpt lat="46.55589" lon="-0.74767">
        <ele>87.3</ele>
        <time>2012-12-29T09:11:36Z</time>
      </trkpt>
      <trkpt lat="46.55568" lon="-0.74739">
        <ele>85.6</ele>
        <time>2012-12-29T09:11:40Z</time>
      </trkpt>
      <trkpt lat="46.55558" lon="-0.74726">
        <ele>85.6</ele>
        <time>2012-12-29T09:11:42Z</time>
      </trkpt>
      <trkpt lat="46.55537" lon="-0.74699">
        <ele>84.8</ele>
        <time>2012-12-29T09:11:46Z</time>
      </trkpt>
      <trkpt lat="46.55531" lon="-0.74693">
        <ele>84.5</ele>
        <time>2012-12-29T09:11:47Z</time>
      </trkpt>
      <trkpt lat="46.55511" lon="-0.74667">
        <ele>82.5</ele>
        <time>2012-12-29T09:11:51Z</time>
      </trkpt>
      <trkpt lat="46.55495" lon="-0.74647">
        <ele>81.2</ele>
        <time>2012-12-29T09:11:54Z</time>
      </trkpt>
      <trkpt lat="46.55485" lon="-0.74635">
        <ele>80.5</ele>
        <time>2012-12-29T09:11:56Z</time>
      </trkpt>
      <trkpt lat="46.55468" lon="-0.74614">
        <ele>79.5</ele>
        <time>2012-12-29T09:11:59Z</time>
      </trkpt>
      <trkpt lat="46.55463" lon="-0.74607">
        <ele>79.2</ele>
        <time>2012-12-29T09:12:00Z</time>
      </trkpt>
      <trkpt lat="46.55441" lon="-0.7458">
        <ele>77.6</ele>
        <time>2012-12-29T09:12:04Z</time>
      </trkpt>
      <trkpt lat="46.55431" lon="-0.74567">
        <ele>76.6</ele>
        <time>2012-12-29T09:12:06Z</time>
      </trkpt>
      <trkpt lat="46.55421" lon="-0.74554">
        <ele>76</ele>
        <time>2012-12-29T09:12:08Z</time>
      </trkpt>
      <trkpt lat="46.55402" lon="-0.74529">
        <ele>74.9</ele>
        <time>2012-12-29T09:12:12Z</time>
      </trkpt>
      <trkpt lat="46.55397" lon="-0.74522">
        <ele>74.8</ele>
        <time>2012-12-29T09:12:13Z</time>
      </trkpt>
      <trkpt lat="46.55387" lon="-0.7451">
        <ele>74.5</ele>
        <time>2012-12-29T09:12:15Z</time>
      </trkpt>
      <trkpt lat="46.55373" lon="-0.74493">
        <ele>73.9</ele>
        <time>2012-12-29T09:12:18Z</time>
      </trkpt>
      <trkpt lat="46.55357" lon="-0.74474">
        <ele>72.7</ele>
        <time>2012-12-29T09:12:22Z</time>
      </trkpt>
      <trkpt lat="46.5535" lon="-0.74464">
        <ele>71.6</ele>
        <time>2012-12-29T09:12:24Z</time>
      </trkpt>
      <trkpt lat="46.55335" lon="-0.74445">
        <ele>70.2</ele>
        <time>2012-12-29T09:12:28Z</time>
      </trkpt>
      <trkpt lat="46.55327" lon="-0.74435">
        <ele>69.6</ele>
        <time>2012-12-29T09:12:30Z</time>
      </trkpt>
      <trkpt lat="46.55319" lon="-0.74425">
        <ele>69.3</ele>
        <time>2012-12-29T09:12:32Z</time>
      </trkpt>
      <trkpt lat="46.55311" lon="-0.74415">
        <ele>68.6</ele>
        <time>2012-12-29T09:12:34Z</time>
      </trkpt>
      <trkpt lat="46.55306" lon="-0.74405">
        <ele>68.5</ele>
        <time>2012-12-29T09:12:36Z</time>
      </trkpt>
      <trkpt lat="46.55307" lon="-0.74397">
        <ele>68.5</ele>
        <time>2012-12-29T09:12:38Z</time>
      </trkpt>
      <trkpt lat="46.55312" lon="-0.74388">
        <ele>67.5</ele>
        <time>2012-12-29T09:12:40Z</time>
      </trkpt>
      <trkpt lat="46.55314" lon="-0.74383">
        <ele>67.2</ele>
        <time>2012-12-29T09:12:41Z</time>
      </trkpt>
      <trkpt lat="46.55318" lon="-0.74375">
        <ele>66.8</ele>
        <time>2012-12-29T09:12:43Z</time>
      </trkpt>
      <trkpt lat="46.55326" lon="-0.74362">
        <ele>66.7</ele>
        <time>2012-12-29T09:12:47Z</time>
      </trkpt>
      <trkpt lat="46.55328" lon="-0.74358">
        <ele>66.7</ele>
        <time>2012-12-29T09:12:48Z</time>
      </trkpt>
      <trkpt lat="46.55335" lon="-0.74353">
        <ele>66.7</ele>
        <time>2012-12-29T09:12:50Z</time>
      </trkpt>
      <trkpt lat="46.55342" lon="-0.74348">
        <ele>66.3</ele>
        <time>2012-12-29T09:12:53Z</time>
      </trkpt>
      <trkpt lat="46.55347" lon="-0.74343">
        <ele>66</ele>
        <time>2012-12-29T09:12:55Z</time>
      </trkpt>
      <trkpt lat="46.55354" lon="-0.74338">
        <ele>66.2</ele>
        <time>2012-12-29T09:12:59Z</time>
      </trkpt>
      <trkpt lat="46.55356" lon="-0.74337">
        <ele>66.4</ele>
        <time>2012-12-29T09:13:00Z</time>
      </trkpt>
      <trkpt lat="46.55361" lon="-0.74336">
        <ele>66.2</ele>
        <time>2012-12-29T09:13:02Z</time>
      </trkpt>
      <trkpt lat="46.55364" lon="-0.74336">
        <ele>66.2</ele>
        <time>2012-12-29T09:13:03Z</time>
      </trkpt>
      <trkpt lat="46.55369" lon="-0.74334">
        <ele>66.4</ele>
        <time>2012-12-29T09:13:05Z</time>
      </trkpt>
      <trkpt lat="46.55374" lon="-0.74333">
        <ele>66.7</ele>
        <time>2012-12-29T09:13:07Z</time>
      </trkpt>
      <trkpt lat="46.55379" lon="-0.74332">
        <ele>65.9</ele>
        <time>2012-12-29T09:13:09Z</time>
      </trkpt>
      <trkpt lat="46.55383" lon="-0.7433">
        <ele>65.9</ele>
        <time>2012-12-29T09:13:11Z</time>
      </trkpt>
      <trkpt lat="46.55386" lon="-0.7433">
        <ele>66.2</ele>
        <time>2012-12-29T09:13:12Z</time>
      </trkpt>
      <trkpt lat="46.55391" lon="-0.7433">
        <ele>66.4</ele>
        <time>2012-12-29T09:13:14Z</time>
      </trkpt>
      <trkpt lat="46.55395" lon="-0.74329">
        <ele>66.4</ele>
        <time>2012-12-29T09:13:16Z</time>
      </trkpt>
      <trkpt lat="46.554" lon="-0.74327">
        <ele>67</ele>
        <time>2012-12-29T09:13:18Z</time>
      </trkpt>
      <trkpt lat="46.55405" lon="-0.74327">
        <ele>67.3</ele>
        <time>2012-12-29T09:13:20Z</time>
      </trkpt>
      <trkpt lat="46.55422" lon="-0.74323">
        <ele>67.6</ele>
        <time>2012-12-29T09:13:36Z</time>
      </trkpt>
      <trkpt lat="46.5543" lon="-0.74324">
        <ele>67.2</ele>
        <time>2012-12-29T09:13:50Z</time>
      </trkpt>
      <trkpt lat="46.55435" lon="-0.74325">
        <ele>67.5</ele>
        <time>2012-12-29T09:14:00Z</time>
      </trkpt>
      <trkpt lat="46.55438" lon="-0.7432">
        <ele>67.3</ele>
        <time>2012-12-29T09:14:22Z</time>
      </trkpt>
      <trkpt lat="46.55441" lon="-0.74309">
        <ele>68</ele>
        <time>2012-12-29T09:15:27Z</time>
      </trkpt>
      <trkpt lat="46.55434" lon="-0.74302">
        <ele>69.2</ele>
        <time>2012-12-29T09:15:33Z</time>
      </trkpt>
      <trkpt lat="46.55427" lon="-0.74296">
        <ele>70.3</ele>
        <time>2012-12-29T09:15:40Z</time>
      </trkpt>
      <trkpt lat="46.55436" lon="-0.74306">
        <ele>68.6</ele>
        <time>2012-12-29T09:16:01Z</time>
      </trkpt>
      <trkpt lat="46.55443" lon="-0.74301">
        <ele>69.2</ele>
        <time>2012-12-29T09:16:08Z</time>
      </trkpt>
      <trkpt lat="46.55447" lon="-0.74293">
        <ele>71.1</ele>
        <time>2012-12-29T09:16:14Z</time>
      </trkpt>
      <trkpt lat="46.55453" lon="-0.74285">
        <ele>71.8</ele>
        <time>2012-12-29T09:16:20Z</time>
      </trkpt>
      <trkpt lat="46.55457" lon="-0.74281">
        <ele>72.7</ele>
        <time>2012-12-29T09:16:23Z</time>
      </trkpt>
      <trkpt lat="46.55463" lon="-0.74277">
        <ele>73.2</ele>
        <time>2012-12-29T09:16:27Z</time>
      </trkpt>
      <trkpt lat="46.55468" lon="-0.74272">
        <ele>73.8</ele>
        <time>2012-12-29T09:16:31Z</time>
      </trkpt>
      <trkpt lat="46.55473" lon="-0.74269">
        <ele>74.3</ele>
        <time>2012-12-29T09:16:35Z</time>
      </trkpt>
      <trkpt lat="46.55481" lon="-0.74265">
        <ele>75</ele>
        <time>2012-12-29T09:16:39Z</time>
      </trkpt>
      <trkpt lat="46.55487" lon="-0.74263">
        <ele>75.5</ele>
        <time>2012-12-29T09:16:41Z</time>
      </trkpt>
      <trkpt lat="46.55492" lon="-0.74261">
        <ele>75.9</ele>
        <time>2012-12-29T09:16:43Z</time>
      </trkpt>
      <trkpt lat="46.55505" lon="-0.74252">
        <ele>76.1</ele>
        <time>2012-12-29T09:16:48Z</time>
      </trkpt>
      <trkpt lat="46.55509" lon="-0.74251">
        <ele>76</ele>
        <time>2012-12-29T09:16:50Z</time>
      </trkpt>
      <trkpt lat="46.5551" lon="-0.74251">
        <ele>75.2</ele>
        <time>2012-12-29T09:17:16Z</time>
      </trkpt>
      <trkpt lat="46.55504" lon="-0.74256">
        <ele>75.4</ele>
        <time>2012-12-29T09:17:19Z</time>
      </trkpt>
      <trkpt lat="46.55499" lon="-0.74259">
        <ele>75.6</ele>
        <time>2012-12-29T09:17:21Z</time>
      </trkpt>
      <trkpt lat="46.55485" lon="-0.74266">
        <ele>75.2</ele>
        <time>2012-12-29T09:17:26Z</time>
      </trkpt>
      <trkpt lat="46.55476" lon="-0.74271">
        <ele>74.9</ele>
        <time>2012-12-29T09:17:30Z</time>
      </trkpt>
      <trkpt lat="46.55471" lon="-0.74275">
        <ele>74.9</ele>
        <time>2012-12-29T09:17:33Z</time>
      </trkpt>
      <trkpt lat="46.55477" lon="-0.7427">
        <ele>75.3</ele>
        <time>2012-12-29T09:18:03Z</time>
      </trkpt>
      <trkpt lat="46.55482" lon="-0.74268">
        <ele>75.3</ele>
        <time>2012-12-29T09:18:05Z</time>
      </trkpt>
      <trkpt lat="46.55492" lon="-0.74263">
        <ele>75</ele>
        <time>2012-12-29T09:18:09Z</time>
      </trkpt>
      <trkpt lat="46.55497" lon="-0.74261">
        <ele>74.9</ele>
        <time>2012-12-29T09:18:11Z</time>
      </trkpt>
      <trkpt lat="46.55502" lon="-0.74259">
        <ele>74.7</ele>
        <time>2012-12-29T09:18:13Z</time>
      </trkpt>
      <trkpt lat="46.55502" lon="-0.74258">
        <ele>76</ele>
        <time>2012-12-29T09:18:35Z</time>
      </trkpt>
      <trkpt lat="46.55495" lon="-0.74261">
        <ele>76.3</ele>
        <time>2012-12-29T09:18:38Z</time>
      </trkpt>
      <trkpt lat="46.55488" lon="-0.74264">
        <ele>75.2</ele>
        <time>2012-12-29T09:18:48Z</time>
      </trkpt>
      <trkpt lat="46.55483" lon="-0.74266">
        <ele>75.8</ele>
        <time>2012-12-29T09:18:50Z</time>
      </trkpt>
      <trkpt lat="46.5548" lon="-0.74267">
        <ele>76</ele>
        <time>2012-12-29T09:18:51Z</time>
      </trkpt>
      <trkpt lat="46.55475" lon="-0.7427">
        <ele>75.2</ele>
        <time>2012-12-29T09:18:53Z</time>
      </trkpt>
      <trkpt lat="46.55472" lon="-0.74272">
        <ele>74.9</ele>
        <time>2012-12-29T09:18:54Z</time>
      </trkpt>
      <trkpt lat="46.55466" lon="-0.74278">
        <ele>74.5</ele>
        <time>2012-12-29T09:18:56Z</time>
      </trkpt>
      <trkpt lat="46.55459" lon="-0.74286">
        <ele>74.2</ele>
        <time>2012-12-29T09:18:58Z</time>
      </trkpt>
      <trkpt lat="46.55454" lon="-0.74293">
        <ele>73.6</ele>
        <time>2012-12-29T09:19:00Z</time>
      </trkpt>
      <trkpt lat="46.55452" lon="-0.74302">
        <ele>72.8</ele>
        <time>2012-12-29T09:19:02Z</time>
      </trkpt>
      <trkpt lat="46.55445" lon="-0.74305">
        <ele>70.1</ele>
        <time>2012-12-29T09:19:06Z</time>
      </trkpt>
      <trkpt lat="46.55433" lon="-0.74297">
        <ele>68.9</ele>
        <time>2012-12-29T09:19:11Z</time>
      </trkpt>
      <trkpt lat="46.55427" lon="-0.74291">
        <ele>69</ele>
        <time>2012-12-29T09:19:14Z</time>
      </trkpt>
      <trkpt lat="46.55422" lon="-0.74285">
        <ele>69.3</ele>
        <time>2012-12-29T09:19:17Z</time>
      </trkpt>
      <trkpt lat="46.55418" lon="-0.74276">
        <ele>69.5</ele>
        <time>2012-12-29T09:19:21Z</time>
      </trkpt>
      <trkpt lat="46.55418" lon="-0.74264">
        <ele>69.7</ele>
        <time>2012-12-29T09:19:27Z</time>
      </trkpt>
      <trkpt lat="46.55421" lon="-0.74254">
        <ele>70.2</ele>
        <time>2012-12-29T09:19:31Z</time>
      </trkpt>
      <trkpt lat="46.55425" lon="-0.74239">
        <ele>71.2</ele>
        <time>2012-12-29T09:19:37Z</time>
      </trkpt>
      <trkpt lat="46.55428" lon="-0.74231">
        <ele>72.6</ele>
        <time>2012-12-29T09:19:40Z</time>
      </trkpt>
      <trkpt lat="46.55433" lon="-0.74224">
        <ele>73</ele>
        <time>2012-12-29T09:19:43Z</time>
      </trkpt>
      <trkpt lat="46.55439" lon="-0.74219">
        <ele>72.7</ele>
        <time>2012-12-29T09:19:46Z</time>
      </trkpt>
      <trkpt lat="46.55446" lon="-0.74216">
        <ele>73.1</ele>
        <time>2012-12-29T09:19:50Z</time>
      </trkpt>
      <trkpt lat="46.55449" lon="-0.74214">
        <ele>73.5</ele>
        <time>2012-12-29T09:19:52Z</time>
      </trkpt>
      <trkpt lat="46.55455" lon="-0.74211">
        <ele>73.5</ele>
        <time>2012-12-29T09:19:55Z</time>
      </trkpt>
      <trkpt lat="46.5546" lon="-0.74206">
        <ele>72.7</ele>
        <time>2012-12-29T09:19:57Z</time>
      </trkpt>
      <trkpt lat="46.55466" lon="-0.742">
        <ele>72.4</ele>
        <time>2012-12-29T09:19:59Z</time>
      </trkpt>
      <trkpt lat="46.55472" lon="-0.74193">
        <ele>72.4</ele>
        <time>2012-12-29T09:20:01Z</time>
      </trkpt>
      <trkpt lat="46.55475" lon="-0.74191">
        <ele>72.4</ele>
        <time>2012-12-29T09:20:02Z</time>
      </trkpt>
      <trkpt lat="46.5548" lon="-0.74188">
        <ele>71.4</ele>
        <time>2012-12-29T09:20:04Z</time>
      </trkpt>
      <trkpt lat="46.5549" lon="-0.74183">
        <ele>71.3</ele>
        <time>2012-12-29T09:20:08Z</time>
      </trkpt>
      <trkpt lat="46.55495" lon="-0.74176">
        <ele>71.4</ele>
        <time>2012-12-29T09:20:11Z</time>
      </trkpt>
      <trkpt lat="46.55495" lon="-0.74167">
        <ele>71.5</ele>
        <time>2012-12-29T09:20:15Z</time>
      </trkpt>
      <trkpt lat="46.55492" lon="-0.74159">
        <ele>70.9</ele>
        <time>2012-12-29T09:20:18Z</time>
      </trkpt>
      <trkpt lat="46.55497" lon="-0.74144">
        <ele>69.5</ele>
        <time>2012-12-29T09:20:24Z</time>
      </trkpt>
      <trkpt lat="46.55494" lon="-0.74132">
        <ele>70.3</ele>
        <time>2012-12-29T09:20:32Z</time>
      </trkpt>
      <trkpt lat="46.55493" lon="-0.74126">
        <ele>70.9</ele>
        <time>2012-12-29T09:20:37Z</time>
      </trkpt>
      <trkpt lat="46.55491" lon="-0.7412">
        <ele>72.1</ele>
        <time>2012-12-29T09:20:43Z</time>
      </trkpt>
      <trkpt lat="46.55489" lon="-0.74109">
        <ele>74.2</ele>
        <time>2012-12-29T09:20:56Z</time>
      </trkpt>
      <trkpt lat="46.55483" lon="-0.74102">
        <ele>75.5</ele>
        <time>2012-12-29T09:21:04Z</time>
      </trkpt>
      <trkpt lat="46.5548" lon="-0.74097">
        <ele>75.8</ele>
        <time>2012-12-29T09:21:07Z</time>
      </trkpt>
      <trkpt lat="46.55475" lon="-0.7409">
        <ele>75.4</ele>
        <time>2012-12-29T09:21:12Z</time>
      </trkpt>
      <trkpt lat="46.55476" lon="-0.74079">
        <ele>75.7</ele>
        <time>2012-12-29T09:21:17Z</time>
      </trkpt>
      <trkpt lat="46.55475" lon="-0.74069">
        <ele>76.3</ele>
        <time>2012-12-29T09:21:21Z</time>
      </trkpt>
      <trkpt lat="46.55476" lon="-0.74058">
        <ele>76.9</ele>
        <time>2012-12-29T09:21:25Z</time>
      </trkpt>
      <trkpt lat="46.55481" lon="-0.74039">
        <ele>77.1</ele>
        <time>2012-12-29T09:21:33Z</time>
      </trkpt>
      <trkpt lat="46.55483" lon="-0.74036">
        <ele>77.1</ele>
        <time>2012-12-29T09:21:35Z</time>
      </trkpt>
      <trkpt lat="46.55485" lon="-0.74029">
        <ele>77.5</ele>
        <time>2012-12-29T09:21:45Z</time>
      </trkpt>
      <trkpt lat="46.5549" lon="-0.74023">
        <ele>77.7</ele>
        <time>2012-12-29T09:21:49Z</time>
      </trkpt>
      <trkpt lat="46.55494" lon="-0.7402">
        <ele>77.7</ele>
        <time>2012-12-29T09:21:51Z</time>
      </trkpt>
      <trkpt lat="46.55498" lon="-0.74016">
        <ele>77.7</ele>
        <time>2012-12-29T09:21:53Z</time>
      </trkpt>
      <trkpt lat="46.555" lon="-0.74013">
        <ele>77.4</ele>
        <time>2012-12-29T09:21:54Z</time>
      </trkpt>
      <trkpt lat="46.55504" lon="-0.74008">
        <ele>77</ele>
        <time>2012-12-29T09:21:56Z</time>
      </trkpt>
      <trkpt lat="46.55508" lon="-0.73999">
        <ele>77</ele>
        <time>2012-12-29T09:22:00Z</time>
      </trkpt>
      <trkpt lat="46.55511" lon="-0.73989">
        <ele>76.8</ele>
        <time>2012-12-29T09:22:04Z</time>
      </trkpt>
      <trkpt lat="46.55511" lon="-0.7398">
        <ele>76.6</ele>
        <time>2012-12-29T09:22:08Z</time>
      </trkpt>
      <trkpt lat="46.55509" lon="-0.73974">
        <ele>77.1</ele>
        <time>2012-12-29T09:22:11Z</time>
      </trkpt>
      <trkpt lat="46.55502" lon="-0.73977">
        <ele>77</ele>
        <time>2012-12-29T09:22:30Z</time>
      </trkpt>
      <trkpt lat="46.55498" lon="-0.73985">
        <ele>75.9</ele>
        <time>2012-12-29T09:22:35Z</time>
      </trkpt>
      <trkpt lat="46.55489" lon="-0.74003">
        <ele>77.1</ele>
        <time>2012-12-29T09:22:43Z</time>
      </trkpt>
      <trkpt lat="46.55486" lon="-0.74008">
        <ele>77</ele>
        <time>2012-12-29T09:22:45Z</time>
      </trkpt>
      <trkpt lat="46.55482" lon="-0.74016">
        <ele>77.1</ele>
        <time>2012-12-29T09:22:48Z</time>
      </trkpt>
      <trkpt lat="46.55474" lon="-0.74018">
        <ele>76.8</ele>
        <time>2012-12-29T09:22:52Z</time>
      </trkpt>
      <trkpt lat="46.55468" lon="-0.74017">
        <ele>76.4</ele>
        <time>2012-12-29T09:22:54Z</time>
      </trkpt>
      <trkpt lat="46.55461" lon="-0.74015">
        <ele>76.2</ele>
        <time>2012-12-29T09:22:56Z</time>
      </trkpt>
      <trkpt lat="46.55454" lon="-0.7401">
        <ele>76.1</ele>
        <time>2012-12-29T09:22:58Z</time>
      </trkpt>
      <trkpt lat="46.55449" lon="-0.74005">
        <ele>76.1</ele>
        <time>2012-12-29T09:23:00Z</time>
      </trkpt>
      <trkpt lat="46.55445" lon="-0.74001">
        <ele>76.3</ele>
        <time>2012-12-29T09:23:02Z</time>
      </trkpt>
      <trkpt lat="46.5544" lon="-0.74">
        <ele>76.4</ele>
        <time>2012-12-29T09:23:04Z</time>
      </trkpt>
      <trkpt lat="46.55435" lon="-0.73994">
        <ele>75.3</ele>
        <time>2012-12-29T09:23:06Z</time>
      </trkpt>
      <trkpt lat="46.55431" lon="-0.73987">
        <ele>74.4</ele>
        <time>2012-12-29T09:23:08Z</time>
      </trkpt>
      <trkpt lat="46.55426" lon="-0.73981">
        <ele>73.6</ele>
        <time>2012-12-29T09:23:10Z</time>
      </trkpt>
      <trkpt lat="46.55424" lon="-0.73977">
        <ele>73.5</ele>
        <time>2012-12-29T09:23:11Z</time>
      </trkpt>
      <trkpt lat="46.55416" lon="-0.73968">
        <ele>73.5</ele>
        <time>2012-12-29T09:23:14Z</time>
      </trkpt>
      <trkpt lat="46.55412" lon="-0.73961">
        <ele>73.9</ele>
        <time>2012-12-29T09:23:16Z</time>
      </trkpt>
      <trkpt lat="46.55408" lon="-0.73953">
        <ele>73</ele>
        <time>2012-12-29T09:23:18Z</time>
      </trkpt>
      <trkpt lat="46.55405" lon="-0.73949">
        <ele>72.8</ele>
        <time>2012-12-29T09:23:19Z</time>
      </trkpt>
      <trkpt lat="46.55401" lon="-0.73943">
        <ele>72.8</ele>
        <time>2012-12-29T09:23:21Z</time>
      </trkpt>
      <trkpt lat="46.55399" lon="-0.7394">
        <ele>72.9</ele>
        <time>2012-12-29T09:23:22Z</time>
      </trkpt>
      <trkpt lat="46.55393" lon="-0.7393">
        <ele>73</ele>
        <time>2012-12-29T09:23:25Z</time>
      </trkpt>
      <trkpt lat="46.5539" lon="-0.73924">
        <ele>73.3</ele>
        <time>2012-12-29T09:23:27Z</time>
      </trkpt>
      <trkpt lat="46.55386" lon="-0.73917">
        <ele>73.9</ele>
        <time>2012-12-29T09:23:29Z</time>
      </trkpt>
      <trkpt lat="46.55385" lon="-0.73912">
        <ele>73.5</ele>
        <time>2012-12-29T09:23:30Z</time>
      </trkpt>
      <trkpt lat="46.55381" lon="-0.73904">
        <ele>73.1</ele>
        <time>2012-12-29T09:23:32Z</time>
      </trkpt>
      <trkpt lat="46.55378" lon="-0.73895">
        <ele>73.3</ele>
        <time>2012-12-29T09:23:34Z</time>
      </trkpt>
      <trkpt lat="46.55373" lon="-0.73879">
        <ele>73.5</ele>
        <time>2012-12-29T09:23:38Z</time>
      </trkpt>
      <trkpt lat="46.55371" lon="-0.73872">
        <ele>73.8</ele>
        <time>2012-12-29T09:23:40Z</time>
      </trkpt>
      <trkpt lat="46.5537" lon="-0.73864">
        <ele>74.1</ele>
        <time>2012-12-29T09:23:42Z</time>
      </trkpt>
      <trkpt lat="46.55368" lon="-0.73858">
        <ele>73.8</ele>
        <time>2012-12-29T09:23:47Z</time>
      </trkpt>
      <trkpt lat="46.55361" lon="-0.7385">
        <ele>74</ele>
        <time>2012-12-29T09:24:04Z</time>
      </trkpt>
      <trkpt lat="46.55354" lon="-0.73846">
        <ele>74.3</ele>
        <time>2012-12-29T09:24:41Z</time>
      </trkpt>
      <trkpt lat="46.55352" lon="-0.73836">
        <ele>73.6</ele>
        <time>2012-12-29T09:24:46Z</time>
      </trkpt>
      <trkpt lat="46.55349" lon="-0.7383">
        <ele>74.5</ele>
        <time>2012-12-29T09:24:49Z</time>
      </trkpt>
      <trkpt lat="46.55347" lon="-0.73822">
        <ele>75.3</ele>
        <time>2012-12-29T09:24:52Z</time>
      </trkpt>
      <trkpt lat="46.55342" lon="-0.73812">
        <ele>75.6</ele>
        <time>2012-12-29T09:24:56Z</time>
      </trkpt>
      <trkpt lat="46.55337" lon="-0.73794">
        <ele>76</ele>
        <time>2012-12-29T09:25:02Z</time>
      </trkpt>
      <trkpt lat="46.55332" lon="-0.73781">
        <ele>76.8</ele>
        <time>2012-12-29T09:25:06Z</time>
      </trkpt>
      <trkpt lat="46.55329" lon="-0.73769">
        <ele>77.4</ele>
        <time>2012-12-29T09:25:09Z</time>
      </trkpt>
      <trkpt lat="46.55327" lon="-0.73762">
        <ele>77.3</ele>
        <time>2012-12-29T09:25:11Z</time>
      </trkpt>
      <trkpt lat="46.55326" lon="-0.73755">
        <ele>77.9</ele>
        <time>2012-12-29T09:25:13Z</time>
      </trkpt>
      <trkpt lat="46.55324" lon="-0.73749">
        <ele>78.2</ele>
        <time>2012-12-29T09:25:15Z</time>
      </trkpt>
      <trkpt lat="46.55323" lon="-0.73745">
        <ele>77.9</ele>
        <time>2012-12-29T09:25:16Z</time>
      </trkpt>
      <trkpt lat="46.55317" lon="-0.73722">
        <ele>78.2</ele>
        <time>2012-12-29T09:25:22Z</time>
      </trkpt>
      <trkpt lat="46.55316" lon="-0.73714">
        <ele>78</ele>
        <time>2012-12-29T09:25:24Z</time>
      </trkpt>
      <trkpt lat="46.55314" lon="-0.73706">
        <ele>78.4</ele>
        <time>2012-12-29T09:25:26Z</time>
      </trkpt>
      <trkpt lat="46.55312" lon="-0.73699">
        <ele>78.9</ele>
        <time>2012-12-29T09:25:28Z</time>
      </trkpt>
      <trkpt lat="46.55305" lon="-0.73681">
        <ele>78.6</ele>
        <time>2012-12-29T09:25:32Z</time>
      </trkpt>
      <trkpt lat="46.55301" lon="-0.73671">
        <ele>78.2</ele>
        <time>2012-12-29T09:25:34Z</time>
      </trkpt>
      <trkpt lat="46.55296" lon="-0.73662">
        <ele>77.3</ele>
        <time>2012-12-29T09:25:36Z</time>
      </trkpt>
      <trkpt lat="46.55291" lon="-0.73657">
        <ele>76.9</ele>
        <time>2012-12-29T09:25:38Z</time>
      </trkpt>
      <trkpt lat="46.55288" lon="-0.73652">
        <ele>76.7</ele>
        <time>2012-12-29T09:25:40Z</time>
      </trkpt>
      <trkpt lat="46.55284" lon="-0.73643">
        <ele>74.5</ele>
        <time>2012-12-29T09:25:48Z</time>
      </trkpt>
      <trkpt lat="46.55277" lon="-0.73628">
        <ele>74.5</ele>
        <time>2012-12-29T09:26:02Z</time>
      </trkpt>
      <trkpt lat="46.55272" lon="-0.7362">
        <ele>75.5</ele>
        <time>2012-12-29T09:26:10Z</time>
      </trkpt>
      <trkpt lat="46.55267" lon="-0.73614">
        <ele>75.7</ele>
        <time>2012-12-29T09:26:14Z</time>
      </trkpt>
      <trkpt lat="46.55261" lon="-0.7361">
        <ele>75.6</ele>
        <time>2012-12-29T09:26:18Z</time>
      </trkpt>
      <trkpt lat="46.55258" lon="-0.73607">
        <ele>76.1</ele>
        <time>2012-12-29T09:26:20Z</time>
      </trkpt>
      <trkpt lat="46.55252" lon="-0.73602">
        <ele>77.4</ele>
        <time>2012-12-29T09:26:24Z</time>
      </trkpt>
      <trkpt lat="46.55246" lon="-0.73595">
        <ele>77.5</ele>
        <time>2012-12-29T09:26:28Z</time>
      </trkpt>
      <trkpt lat="46.55241" lon="-0.73588">
        <ele>77.8</ele>
        <time>2012-12-29T09:26:32Z</time>
      </trkpt>
      <trkpt lat="46.55236" lon="-0.7358">
        <ele>77.9</ele>
        <time>2012-12-29T09:26:36Z</time>
      </trkpt>
      <trkpt lat="46.55233" lon="-0.73572">
        <ele>78.7</ele>
        <time>2012-12-29T09:26:40Z</time>
      </trkpt>
      <trkpt lat="46.55231" lon="-0.73562">
        <ele>78.8</ele>
        <time>2012-12-29T09:26:45Z</time>
      </trkpt>
      <trkpt lat="46.55229" lon="-0.73556">
        <ele>79.9</ele>
        <time>2012-12-29T09:26:51Z</time>
      </trkpt>
      <trkpt lat="46.55227" lon="-0.73548">
        <ele>79.9</ele>
        <time>2012-12-29T09:26:55Z</time>
      </trkpt>
      <trkpt lat="46.55226" lon="-0.73542">
        <ele>79.8</ele>
        <time>2012-12-29T09:26:57Z</time>
      </trkpt>
      <trkpt lat="46.55225" lon="-0.73535">
        <ele>79.6</ele>
        <time>2012-12-29T09:26:59Z</time>
      </trkpt>
      <trkpt lat="46.55224" lon="-0.73528">
        <ele>79.9</ele>
        <time>2012-12-29T09:27:01Z</time>
      </trkpt>
      <trkpt lat="46.55219" lon="-0.73513">
        <ele>80.4</ele>
        <time>2012-12-29T09:27:06Z</time>
      </trkpt>
      <trkpt lat="46.55216" lon="-0.73506">
        <ele>80.1</ele>
        <time>2012-12-29T09:27:08Z</time>
      </trkpt>
      <trkpt lat="46.55211" lon="-0.73497">
        <ele>79.6</ele>
        <time>2012-12-29T09:27:11Z</time>
      </trkpt>
      <trkpt lat="46.55205" lon="-0.7349">
        <ele>79.4</ele>
        <time>2012-12-29T09:27:13Z</time>
      </trkpt>
      <trkpt lat="46.55197" lon="-0.73482">
        <ele>79.4</ele>
        <time>2012-12-29T09:27:15Z</time>
      </trkpt>
      <trkpt lat="46.55194" lon="-0.73477">
        <ele>79.4</ele>
        <time>2012-12-29T09:27:16Z</time>
      </trkpt>
      <trkpt lat="46.55189" lon="-0.73467">
        <ele>78.4</ele>
        <time>2012-12-29T09:27:18Z</time>
      </trkpt>
      <trkpt lat="46.55186" lon="-0.73456">
        <ele>77.7</ele>
        <time>2012-12-29T09:27:20Z</time>
      </trkpt>
      <trkpt lat="46.55185" lon="-0.73447">
        <ele>77.1</ele>
        <time>2012-12-29T09:27:22Z</time>
      </trkpt>
      <trkpt lat="46.55184" lon="-0.73437">
        <ele>77.6</ele>
        <time>2012-12-29T09:27:24Z</time>
      </trkpt>
      <trkpt lat="46.55184" lon="-0.73429">
        <ele>77.9</ele>
        <time>2012-12-29T09:27:26Z</time>
      </trkpt>
      <trkpt lat="46.55182" lon="-0.73416">
        <ele>78</ele>
        <time>2012-12-29T09:27:29Z</time>
      </trkpt>
      <trkpt lat="46.55182" lon="-0.73406">
        <ele>78.7</ele>
        <time>2012-12-29T09:27:32Z</time>
      </trkpt>
      <trkpt lat="46.55179" lon="-0.73395">
        <ele>76.9</ele>
        <time>2012-12-29T09:27:43Z</time>
      </trkpt>
      <trkpt lat="46.55178" lon="-0.73388">
        <ele>77.5</ele>
        <time>2012-12-29T09:27:58Z</time>
      </trkpt>
      <trkpt lat="46.55176" lon="-0.73379">
        <ele>77.9</ele>
        <time>2012-12-29T09:28:09Z</time>
      </trkpt>
      <trkpt lat="46.55176" lon="-0.73373">
        <ele>78</ele>
        <time>2012-12-29T09:28:11Z</time>
      </trkpt>
      <trkpt lat="46.55176" lon="-0.73365">
        <ele>78.1</ele>
        <time>2012-12-29T09:28:13Z</time>
      </trkpt>
      <trkpt lat="46.55176" lon="-0.73358">
        <ele>77.5</ele>
        <time>2012-12-29T09:28:15Z</time>
      </trkpt>
      <trkpt lat="46.55175" lon="-0.73352">
        <ele>77.7</ele>
        <time>2012-12-29T09:28:17Z</time>
      </trkpt>
      <trkpt lat="46.55175" lon="-0.7334">
        <ele>78.5</ele>
        <time>2012-12-29T09:28:20Z</time>
      </trkpt>
      <trkpt lat="46.55174" lon="-0.73321">
        <ele>78.9</ele>
        <time>2012-12-29T09:28:24Z</time>
      </trkpt>
      <trkpt lat="46.55173" lon="-0.73312">
        <ele>79</ele>
        <time>2012-12-29T09:28:26Z</time>
      </trkpt>
      <trkpt lat="46.55173" lon="-0.73308">
        <ele>78.4</ele>
        <time>2012-12-29T09:28:27Z</time>
      </trkpt>
      <trkpt lat="46.55172" lon="-0.73291">
        <ele>78.1</ele>
        <time>2012-12-29T09:28:31Z</time>
      </trkpt>
      <trkpt lat="46.55171" lon="-0.73274">
        <ele>79.4</ele>
        <time>2012-12-29T09:28:35Z</time>
      </trkpt>
      <trkpt lat="46.55169" lon="-0.73262">
        <ele>79.7</ele>
        <time>2012-12-29T09:28:38Z</time>
      </trkpt>
      <trkpt lat="46.55169" lon="-0.73258">
        <ele>79.8</ele>
        <time>2012-12-29T09:28:39Z</time>
      </trkpt>
      <trkpt lat="46.55168" lon="-0.73251">
        <ele>80.6</ele>
        <time>2012-12-29T09:28:41Z</time>
      </trkpt>
      <trkpt lat="46.55167" lon="-0.73244">
        <ele>81.3</ele>
        <time>2012-12-29T09:28:43Z</time>
      </trkpt>
      <trkpt lat="46.55166" lon="-0.7324">
        <ele>81.6</ele>
        <time>2012-12-29T09:28:44Z</time>
      </trkpt>
      <trkpt lat="46.55165" lon="-0.73221">
        <ele>82.7</ele>
        <time>2012-12-29T09:28:49Z</time>
      </trkpt>
      <trkpt lat="46.55166" lon="-0.73213">
        <ele>82.9</ele>
        <time>2012-12-29T09:28:51Z</time>
      </trkpt>
      <trkpt lat="46.55168" lon="-0.73196">
        <ele>83.7</ele>
        <time>2012-12-29T09:28:55Z</time>
      </trkpt>
      <trkpt lat="46.5517" lon="-0.73188">
        <ele>83.5</ele>
        <time>2012-12-29T09:28:57Z</time>
      </trkpt>
      <trkpt lat="46.55173" lon="-0.7317">
        <ele>83.1</ele>
        <time>2012-12-29T09:29:00Z</time>
      </trkpt>
      <trkpt lat="46.55174" lon="-0.73154">
        <ele>83</ele>
        <time>2012-12-29T09:29:02Z</time>
      </trkpt>
      <trkpt lat="46.55176" lon="-0.73147">
        <ele>82.9</ele>
        <time>2012-12-29T09:29:03Z</time>
      </trkpt>
      <trkpt lat="46.55177" lon="-0.73141">
        <ele>82.9</ele>
        <time>2012-12-29T09:29:04Z</time>
      </trkpt>
      <trkpt lat="46.55181" lon="-0.73131">
        <ele>82.2</ele>
        <time>2012-12-29T09:29:06Z</time>
      </trkpt>
      <trkpt lat="46.55185" lon="-0.73123">
        <ele>81.4</ele>
        <time>2012-12-29T09:29:08Z</time>
      </trkpt>
      <trkpt lat="46.55186" lon="-0.73117">
        <ele>80.6</ele>
        <time>2012-12-29T09:29:10Z</time>
      </trkpt>
      <trkpt lat="46.55187" lon="-0.7311">
        <ele>80.5</ele>
        <time>2012-12-29T09:29:12Z</time>
      </trkpt>
      <trkpt lat="46.55189" lon="-0.73094">
        <ele>80.8</ele>
        <time>2012-12-29T09:29:16Z</time>
      </trkpt>
      <trkpt lat="46.55192" lon="-0.73078">
        <ele>80.5</ele>
        <time>2012-12-29T09:29:20Z</time>
      </trkpt>
      <trkpt lat="46.55193" lon="-0.7307">
        <ele>81.1</ele>
        <time>2012-12-29T09:29:22Z</time>
      </trkpt>
      <trkpt lat="46.55194" lon="-0.73063">
        <ele>81.3</ele>
        <time>2012-12-29T09:29:24Z</time>
      </trkpt>
      <trkpt lat="46.55194" lon="-0.73057">
        <ele>81.5</ele>
        <time>2012-12-29T09:29:26Z</time>
      </trkpt>
      <trkpt lat="46.55194" lon="-0.7305">
        <ele>81.6</ele>
        <time>2012-12-29T09:29:28Z</time>
      </trkpt>
      <trkpt lat="46.55194" lon="-0.73043">
        <ele>81.8</ele>
        <time>2012-12-29T09:29:30Z</time>
      </trkpt>
      <trkpt lat="46.55195" lon="-0.73036">
        <ele>81.2</ele>
        <time>2012-12-29T09:29:32Z</time>
      </trkpt>
      <trkpt lat="46.55197" lon="-0.73025">
        <ele>82</ele>
        <time>2012-12-29T09:29:37Z</time>
      </trkpt>
      <trkpt lat="46.55204" lon="-0.73009">
        <ele>82</ele>
        <time>2012-12-29T09:29:43Z</time>
      </trkpt>
      <trkpt lat="46.55206" lon="-0.73004">
        <ele>82.5</ele>
        <time>2012-12-29T09:29:45Z</time>
      </trkpt>
      <trkpt lat="46.55212" lon="-0.72992">
        <ele>83.4</ele>
        <time>2012-12-29T09:29:49Z</time>
      </trkpt>
      <trkpt lat="46.55216" lon="-0.72984">
        <ele>83</ele>
        <time>2012-12-29T09:29:52Z</time>
      </trkpt>
      <trkpt lat="46.55218" lon="-0.72981">
        <ele>83.4</ele>
        <time>2012-12-29T09:29:53Z</time>
      </trkpt>
      <trkpt lat="46.55221" lon="-0.72976">
        <ele>83.9</ele>
        <time>2012-12-29T09:29:55Z</time>
      </trkpt>
      <trkpt lat="46.55224" lon="-0.7297">
        <ele>84</ele>
        <time>2012-12-29T09:29:57Z</time>
      </trkpt>
      <trkpt lat="46.55229" lon="-0.72963">
        <ele>83.7</ele>
        <time>2012-12-29T09:30:00Z</time>
      </trkpt>
      <trkpt lat="46.55233" lon="-0.72958">
        <ele>83.3</ele>
        <time>2012-12-29T09:30:02Z</time>
      </trkpt>
      <trkpt lat="46.55237" lon="-0.72952">
        <ele>84.1</ele>
        <time>2012-12-29T09:30:04Z</time>
      </trkpt>
      <trkpt lat="46.55239" lon="-0.72949">
        <ele>84.4</ele>
        <time>2012-12-29T09:30:05Z</time>
      </trkpt>
      <trkpt lat="46.55242" lon="-0.72944">
        <ele>84</ele>
        <time>2012-12-29T09:30:07Z</time>
      </trkpt>
      <trkpt lat="46.55246" lon="-0.72938">
        <ele>83.9</ele>
        <time>2012-12-29T09:30:09Z</time>
      </trkpt>
      <trkpt lat="46.55253" lon="-0.7293">
        <ele>84.2</ele>
        <time>2012-12-29T09:30:12Z</time>
      </trkpt>
      <trkpt lat="46.55256" lon="-0.72924">
        <ele>84.7</ele>
        <time>2012-12-29T09:30:14Z</time>
      </trkpt>
      <trkpt lat="46.55257" lon="-0.72921">
        <ele>85.3</ele>
        <time>2012-12-29T09:30:15Z</time>
      </trkpt>
      <trkpt lat="46.55262" lon="-0.72913">
        <ele>86.5</ele>
        <time>2012-12-29T09:30:18Z</time>
      </trkpt>
      <trkpt lat="46.55265" lon="-0.72908">
        <ele>85.7</ele>
        <time>2012-12-29T09:30:20Z</time>
      </trkpt>
      <trkpt lat="46.55274" lon="-0.72893">
        <ele>86.2</ele>
        <time>2012-12-29T09:30:26Z</time>
      </trkpt>
      <trkpt lat="46.55279" lon="-0.72883">
        <ele>85.6</ele>
        <time>2012-12-29T09:30:30Z</time>
      </trkpt>
      <trkpt lat="46.55282" lon="-0.72878">
        <ele>86.5</ele>
        <time>2012-12-29T09:30:32Z</time>
      </trkpt>
      <trkpt lat="46.55286" lon="-0.72869">
        <ele>87.3</ele>
        <time>2012-12-29T09:30:35Z</time>
      </trkpt>
      <trkpt lat="46.55289" lon="-0.72863">
        <ele>87.7</ele>
        <time>2012-12-29T09:30:37Z</time>
      </trkpt>
      <trkpt lat="46.55296" lon="-0.72852">
        <ele>87.8</ele>
        <time>2012-12-29T09:30:41Z</time>
      </trkpt>
      <trkpt lat="46.553" lon="-0.72848">
        <ele>88</ele>
        <time>2012-12-29T09:30:43Z</time>
      </trkpt>
      <trkpt lat="46.55309" lon="-0.72837">
        <ele>89.2</ele>
        <time>2012-12-29T09:30:48Z</time>
      </trkpt>
      <trkpt lat="46.55313" lon="-0.72832">
        <ele>89.7</ele>
        <time>2012-12-29T09:30:50Z</time>
      </trkpt>
      <trkpt lat="46.55322" lon="-0.72812">
        <ele>89.5</ele>
        <time>2012-12-29T09:30:56Z</time>
      </trkpt>
      <trkpt lat="46.55327" lon="-0.72807">
        <ele>89.2</ele>
        <time>2012-12-29T09:30:58Z</time>
      </trkpt>
      <trkpt lat="46.55331" lon="-0.72802">
        <ele>89</ele>
        <time>2012-12-29T09:31:00Z</time>
      </trkpt>
      <trkpt lat="46.55335" lon="-0.72795">
        <ele>88.8</ele>
        <time>2012-12-29T09:31:02Z</time>
      </trkpt>
      <trkpt lat="46.55338" lon="-0.72792">
        <ele>89.1</ele>
        <time>2012-12-29T09:31:03Z</time>
      </trkpt>
      <trkpt lat="46.55343" lon="-0.72787">
        <ele>89.5</ele>
        <time>2012-12-29T09:31:05Z</time>
      </trkpt>
      <trkpt lat="46.55348" lon="-0.72782">
        <ele>89.3</ele>
        <time>2012-12-29T09:31:07Z</time>
      </trkpt>
      <trkpt lat="46.55352" lon="-0.72776">
        <ele>89</ele>
        <time>2012-12-29T09:31:09Z</time>
      </trkpt>
      <trkpt lat="46.55356" lon="-0.72772">
        <ele>88.3</ele>
        <time>2012-12-29T09:31:11Z</time>
      </trkpt>
      <trkpt lat="46.55361" lon="-0.72764">
        <ele>88</ele>
        <time>2012-12-29T09:31:13Z</time>
      </trkpt>
      <trkpt lat="46.55362" lon="-0.72759">
        <ele>87.9</ele>
        <time>2012-12-29T09:31:15Z</time>
      </trkpt>
      <trkpt lat="46.55365" lon="-0.72753">
        <ele>88.7</ele>
        <time>2012-12-29T09:31:17Z</time>
      </trkpt>
      <trkpt lat="46.55369" lon="-0.72744">
        <ele>90.2</ele>
        <time>2012-12-29T09:31:21Z</time>
      </trkpt>
      <trkpt lat="46.55372" lon="-0.7274">
        <ele>90.7</ele>
        <time>2012-12-29T09:31:23Z</time>
      </trkpt>
      <trkpt lat="46.55377" lon="-0.72732">
        <ele>91.1</ele>
        <time>2012-12-29T09:31:27Z</time>
      </trkpt>
      <trkpt lat="46.55382" lon="-0.72723">
        <ele>90.7</ele>
        <time>2012-12-29T09:31:31Z</time>
      </trkpt>
      <trkpt lat="46.55393" lon="-0.72709">
        <ele>89.7</ele>
        <time>2012-12-29T09:31:38Z</time>
      </trkpt>
      <trkpt lat="46.55397" lon="-0.72702">
        <ele>90.5</ele>
        <time>2012-12-29T09:31:41Z</time>
      </trkpt>
      <trkpt lat="46.55402" lon="-0.72694">
        <ele>92</ele>
        <time>2012-12-29T09:31:44Z</time>
      </trkpt>
      <trkpt lat="46.55405" lon="-0.72688">
        <ele>91.8</ele>
        <time>2012-12-29T09:31:46Z</time>
      </trkpt>
      <trkpt lat="46.55411" lon="-0.7268">
        <ele>92.1</ele>
        <time>2012-12-29T09:31:49Z</time>
      </trkpt>
      <trkpt lat="46.55419" lon="-0.72666">
        <ele>93.6</ele>
        <time>2012-12-29T09:31:55Z</time>
      </trkpt>
      <trkpt lat="46.55422" lon="-0.72662">
        <ele>93.4</ele>
        <time>2012-12-29T09:32:02Z</time>
      </trkpt>
      <trkpt lat="46.55425" lon="-0.72652">
        <ele>93.8</ele>
        <time>2012-12-29T09:33:23Z</time>
      </trkpt>
      <trkpt lat="46.55432" lon="-0.72641">
        <ele>93.4</ele>
        <time>2012-12-29T09:33:28Z</time>
      </trkpt>
      <trkpt lat="46.55437" lon="-0.72633">
        <ele>93.7</ele>
        <time>2012-12-29T09:33:31Z</time>
      </trkpt>
      <trkpt lat="46.55441" lon="-0.72627">
        <ele>94.1</ele>
        <time>2012-12-29T09:33:33Z</time>
      </trkpt>
      <trkpt lat="46.55443" lon="-0.72625">
        <ele>94.2</ele>
        <time>2012-12-29T09:33:34Z</time>
      </trkpt>
      <trkpt lat="46.55448" lon="-0.72616">
        <ele>94.2</ele>
        <time>2012-12-29T09:33:37Z</time>
      </trkpt>
      <trkpt lat="46.55452" lon="-0.72611">
        <ele>94.1</ele>
        <time>2012-12-29T09:33:39Z</time>
      </trkpt>
      <trkpt lat="46.55457" lon="-0.72602">
        <ele>94.1</ele>
        <time>2012-12-29T09:33:42Z</time>
      </trkpt>
      <trkpt lat="46.55465" lon="-0.72591">
        <ele>93.9</ele>
        <time>2012-12-29T09:33:46Z</time>
      </trkpt>
      <trkpt lat="46.55473" lon="-0.7258">
        <ele>94.8</ele>
        <time>2012-12-29T09:33:50Z</time>
      </trkpt>
      <trkpt lat="46.55477" lon="-0.72574">
        <ele>95.3</ele>
        <time>2012-12-29T09:33:52Z</time>
      </trkpt>
      <trkpt lat="46.55483" lon="-0.72566">
        <ele>95.1</ele>
        <time>2012-12-29T09:33:55Z</time>
      </trkpt>
      <trkpt lat="46.55489" lon="-0.72559">
        <ele>94.9</ele>
        <time>2012-12-29T09:33:59Z</time>
      </trkpt>
      <trkpt lat="46.55493" lon="-0.72553">
        <ele>94.8</ele>
        <time>2012-12-29T09:34:01Z</time>
      </trkpt>
      <trkpt lat="46.55495" lon="-0.72546">
        <ele>95.4</ele>
        <time>2012-12-29T09:34:03Z</time>
      </trkpt>
      <trkpt lat="46.55499" lon="-0.72537">
        <ele>95.8</ele>
        <time>2012-12-29T09:34:06Z</time>
      </trkpt>
      <trkpt lat="46.55503" lon="-0.72533">
        <ele>96</ele>
        <time>2012-12-29T09:34:08Z</time>
      </trkpt>
      <trkpt lat="46.55507" lon="-0.72529">
        <ele>95.4</ele>
        <time>2012-12-29T09:34:10Z</time>
      </trkpt>
      <trkpt lat="46.55509" lon="-0.72526">
        <ele>95.3</ele>
        <time>2012-12-29T09:34:11Z</time>
      </trkpt>
      <trkpt lat="46.55512" lon="-0.72521">
        <ele>95</ele>
        <time>2012-12-29T09:34:13Z</time>
      </trkpt>
      <trkpt lat="46.55514" lon="-0.72515">
        <ele>94.9</ele>
        <time>2012-12-29T09:34:15Z</time>
      </trkpt>
      <trkpt lat="46.55518" lon="-0.7251">
        <ele>94.8</ele>
        <time>2012-12-29T09:34:17Z</time>
      </trkpt>
      <trkpt lat="46.55523" lon="-0.72501">
        <ele>95.7</ele>
        <time>2012-12-29T09:34:20Z</time>
      </trkpt>
      <trkpt lat="46.55531" lon="-0.7249">
        <ele>95.2</ele>
        <time>2012-12-29T09:34:25Z</time>
      </trkpt>
      <trkpt lat="46.55537" lon="-0.72486">
        <ele>95.8</ele>
        <time>2012-12-29T09:34:33Z</time>
      </trkpt>
      <trkpt lat="46.5554" lon="-0.72488">
        <ele>96</ele>
        <time>2012-12-29T09:34:36Z</time>
      </trkpt>
      <trkpt lat="46.5555" lon="-0.72499">
        <ele>95.3</ele>
        <time>2012-12-29T09:34:42Z</time>
      </trkpt>
      <trkpt lat="46.55555" lon="-0.72503">
        <ele>95.4</ele>
        <time>2012-12-29T09:34:44Z</time>
      </trkpt>
      <trkpt lat="46.55559" lon="-0.72507">
        <ele>95.6</ele>
        <time>2012-12-29T09:34:46Z</time>
      </trkpt>
      <trkpt lat="46.55563" lon="-0.72511">
        <ele>95.3</ele>
        <time>2012-12-29T09:34:48Z</time>
      </trkpt>
      <trkpt lat="46.55567" lon="-0.72516">
        <ele>95.2</ele>
        <time>2012-12-29T09:34:50Z</time>
      </trkpt>
      <trkpt lat="46.55571" lon="-0.72522">
        <ele>95.1</ele>
        <time>2012-12-29T09:34:52Z</time>
      </trkpt>
      <trkpt lat="46.55576" lon="-0.72528">
        <ele>95.5</ele>
        <time>2012-12-29T09:34:54Z</time>
      </trkpt>
      <trkpt lat="46.55582" lon="-0.72536">
        <ele>95.2</ele>
        <time>2012-12-29T09:34:57Z</time>
      </trkpt>
      <trkpt lat="46.55587" lon="-0.72542">
        <ele>95</ele>
        <time>2012-12-29T09:34:59Z</time>
      </trkpt>
      <trkpt lat="46.5559" lon="-0.72545">
        <ele>94.9</ele>
        <time>2012-12-29T09:35:00Z</time>
      </trkpt>
      <trkpt lat="46.55597" lon="-0.72552">
        <ele>94.8</ele>
        <time>2012-12-29T09:35:03Z</time>
      </trkpt>
      <trkpt lat="46.55602" lon="-0.72558">
        <ele>95</ele>
        <time>2012-12-29T09:35:05Z</time>
      </trkpt>
      <trkpt lat="46.55609" lon="-0.72567">
        <ele>95.5</ele>
        <time>2012-12-29T09:35:08Z</time>
      </trkpt>
      <trkpt lat="46.55614" lon="-0.72573">
        <ele>95.9</ele>
        <time>2012-12-29T09:35:10Z</time>
      </trkpt>
      <trkpt lat="46.55624" lon="-0.72588">
        <ele>95.5</ele>
        <time>2012-12-29T09:35:15Z</time>
      </trkpt>
      <trkpt lat="46.55628" lon="-0.72592">
        <ele>95.3</ele>
        <time>2012-12-29T09:35:17Z</time>
      </trkpt>
      <trkpt lat="46.55633" lon="-0.72596">
        <ele>95.7</ele>
        <time>2012-12-29T09:35:19Z</time>
      </trkpt>
      <trkpt lat="46.55637" lon="-0.72601">
        <ele>96.3</ele>
        <time>2012-12-29T09:35:21Z</time>
      </trkpt>
      <trkpt lat="46.55643" lon="-0.72608">
        <ele>95.7</ele>
        <time>2012-12-29T09:35:24Z</time>
      </trkpt>
      <trkpt lat="46.55649" lon="-0.72615">
        <ele>96.9</ele>
        <time>2012-12-29T09:35:27Z</time>
      </trkpt>
      <trkpt lat="46.55654" lon="-0.72619">
        <ele>97.8</ele>
        <time>2012-12-29T09:35:29Z</time>
      </trkpt>
      <trkpt lat="46.55658" lon="-0.72625">
        <ele>98.1</ele>
        <time>2012-12-29T09:35:31Z</time>
      </trkpt>
      <trkpt lat="46.5566" lon="-0.72631">
        <ele>98.2</ele>
        <time>2012-12-29T09:35:33Z</time>
      </trkpt>
      <trkpt lat="46.5566" lon="-0.7264">
        <ele>99.1</ele>
        <time>2012-12-29T09:35:36Z</time>
      </trkpt>
      <trkpt lat="46.55658" lon="-0.72648">
        <ele>99.2</ele>
        <time>2012-12-29T09:35:38Z</time>
      </trkpt>
      <trkpt lat="46.55655" lon="-0.72655">
        <ele>98.9</ele>
        <time>2012-12-29T09:35:40Z</time>
      </trkpt>
      <trkpt lat="46.55653" lon="-0.72659">
        <ele>98.4</ele>
        <time>2012-12-29T09:35:41Z</time>
      </trkpt>
      <trkpt lat="46.55649" lon="-0.72668">
        <ele>97.8</ele>
        <time>2012-12-29T09:35:43Z</time>
      </trkpt>
      <trkpt lat="46.55644" lon="-0.72677">
        <ele>97.9</ele>
        <time>2012-12-29T09:35:45Z</time>
      </trkpt>
      <trkpt lat="46.55638" lon="-0.72687">
        <ele>97.6</ele>
        <time>2012-12-29T09:35:47Z</time>
      </trkpt>
      <trkpt lat="46.55632" lon="-0.72697">
        <ele>97.2</ele>
        <time>2012-12-29T09:35:49Z</time>
      </trkpt>
      <trkpt lat="46.55618" lon="-0.72719">
        <ele>97.6</ele>
        <time>2012-12-29T09:35:53Z</time>
      </trkpt>
      <trkpt lat="46.55611" lon="-0.7273">
        <ele>97.9</ele>
        <time>2012-12-29T09:35:55Z</time>
      </trkpt>
      <trkpt lat="46.55604" lon="-0.72742">
        <ele>97.6</ele>
        <time>2012-12-29T09:35:57Z</time>
      </trkpt>
      <trkpt lat="46.55593" lon="-0.72759">
        <ele>96.9</ele>
        <time>2012-12-29T09:36:00Z</time>
      </trkpt>
      <trkpt lat="46.55578" lon="-0.72783">
        <ele>96.2</ele>
        <time>2012-12-29T09:36:04Z</time>
      </trkpt>
      <trkpt lat="46.55568" lon="-0.72799">
        <ele>96.1</ele>
        <time>2012-12-29T09:36:07Z</time>
      </trkpt>
      <trkpt lat="46.55561" lon="-0.7281">
        <ele>96.4</ele>
        <time>2012-12-29T09:36:09Z</time>
      </trkpt>
      <trkpt lat="46.55558" lon="-0.72815">
        <ele>96</ele>
        <time>2012-12-29T09:36:10Z</time>
      </trkpt>
      <trkpt lat="46.55547" lon="-0.72831">
        <ele>95.4</ele>
        <time>2012-12-29T09:36:13Z</time>
      </trkpt>
      <trkpt lat="46.55541" lon="-0.72841">
        <ele>95.3</ele>
        <time>2012-12-29T09:36:15Z</time>
      </trkpt>
      <trkpt lat="46.55535" lon="-0.72851">
        <ele>94.8</ele>
        <time>2012-12-29T09:36:17Z</time>
      </trkpt>
      <trkpt lat="46.55526" lon="-0.72867">
        <ele>94.1</ele>
        <time>2012-12-29T09:36:20Z</time>
      </trkpt>
      <trkpt lat="46.55522" lon="-0.72872">
        <ele>93.9</ele>
        <time>2012-12-29T09:36:21Z</time>
      </trkpt>
      <trkpt lat="46.55513" lon="-0.72888">
        <ele>93.8</ele>
        <time>2012-12-29T09:36:24Z</time>
      </trkpt>
      <trkpt lat="46.55506" lon="-0.72898">
        <ele>93.8</ele>
        <time>2012-12-29T09:36:26Z</time>
      </trkpt>
      <trkpt lat="46.55499" lon="-0.72907">
        <ele>93.8</ele>
        <time>2012-12-29T09:36:28Z</time>
      </trkpt>
      <trkpt lat="46.55495" lon="-0.72912">
        <ele>93.8</ele>
        <time>2012-12-29T09:36:29Z</time>
      </trkpt>
      <trkpt lat="46.55492" lon="-0.72918">
        <ele>93.8</ele>
        <time>2012-12-29T09:36:30Z</time>
      </trkpt>
      <trkpt lat="46.55489" lon="-0.72923">
        <ele>93.9</ele>
        <time>2012-12-29T09:36:31Z</time>
      </trkpt>
      <trkpt lat="46.55483" lon="-0.72934">
        <ele>93.6</ele>
        <time>2012-12-29T09:36:33Z</time>
      </trkpt>
      <trkpt lat="46.5548" lon="-0.72939">
        <ele>93.5</ele>
        <time>2012-12-29T09:36:34Z</time>
      </trkpt>
      <trkpt lat="46.55474" lon="-0.7295">
        <ele>93.7</ele>
        <time>2012-12-29T09:36:36Z</time>
      </trkpt>
      <trkpt lat="46.55461" lon="-0.72972">
        <ele>93.2</ele>
        <time>2012-12-29T09:36:40Z</time>
      </trkpt>
      <trkpt lat="46.55458" lon="-0.72977">
        <ele>93.1</ele>
        <time>2012-12-29T09:36:41Z</time>
      </trkpt>
      <trkpt lat="46.55448" lon="-0.72993">
        <ele>92.5</ele>
        <time>2012-12-29T09:36:44Z</time>
      </trkpt>
      <trkpt lat="46.55441" lon="-0.73005">
        <ele>92.4</ele>
        <time>2012-12-29T09:36:46Z</time>
      </trkpt>
      <trkpt lat="46.55437" lon="-0.7301">
        <ele>92.4</ele>
        <time>2012-12-29T09:36:47Z</time>
      </trkpt>
      <trkpt lat="46.5543" lon="-0.73021">
        <ele>92</ele>
        <time>2012-12-29T09:36:49Z</time>
      </trkpt>
      <trkpt lat="46.55418" lon="-0.73038">
        <ele>91.7</ele>
        <time>2012-12-29T09:36:52Z</time>
      </trkpt>
      <trkpt lat="46.55415" lon="-0.73044">
        <ele>91.6</ele>
        <time>2012-12-29T09:36:53Z</time>
      </trkpt>
      <trkpt lat="46.55409" lon="-0.73054">
        <ele>91.4</ele>
        <time>2012-12-29T09:36:55Z</time>
      </trkpt>
      <trkpt lat="46.55406" lon="-0.73059">
        <ele>91.4</ele>
        <time>2012-12-29T09:36:56Z</time>
      </trkpt>
      <trkpt lat="46.55402" lon="-0.73064">
        <ele>91.3</ele>
        <time>2012-12-29T09:36:57Z</time>
      </trkpt>
      <trkpt lat="46.55392" lon="-0.73081">
        <ele>90.5</ele>
        <time>2012-12-29T09:37:00Z</time>
      </trkpt>
      <trkpt lat="46.55386" lon="-0.73092">
        <ele>90.7</ele>
        <time>2012-12-29T09:37:02Z</time>
      </trkpt>
      <trkpt lat="46.55371" lon="-0.73116">
        <ele>90.4</ele>
        <time>2012-12-29T09:37:06Z</time>
      </trkpt>
      <trkpt lat="46.55368" lon="-0.73121">
        <ele>90.2</ele>
        <time>2012-12-29T09:37:07Z</time>
      </trkpt>
      <trkpt lat="46.55361" lon="-0.73133">
        <ele>90</ele>
        <time>2012-12-29T09:37:09Z</time>
      </trkpt>
      <trkpt lat="46.55353" lon="-0.73143">
        <ele>89.9</ele>
        <time>2012-12-29T09:37:11Z</time>
      </trkpt>
      <trkpt lat="46.55349" lon="-0.73149">
        <ele>89.9</ele>
        <time>2012-12-29T09:37:12Z</time>
      </trkpt>
      <trkpt lat="46.55346" lon="-0.73154">
        <ele>89.9</ele>
        <time>2012-12-29T09:37:13Z</time>
      </trkpt>
      <trkpt lat="46.55336" lon="-0.7317">
        <ele>89.4</ele>
        <time>2012-12-29T09:37:16Z</time>
      </trkpt>
      <trkpt lat="46.55328" lon="-0.73181">
        <ele>89.4</ele>
        <time>2012-12-29T09:37:18Z</time>
      </trkpt>
      <trkpt lat="46.55324" lon="-0.73187">
        <ele>89.4</ele>
        <time>2012-12-29T09:37:19Z</time>
      </trkpt>
      <trkpt lat="46.55321" lon="-0.73194">
        <ele>89.2</ele>
        <time>2012-12-29T09:37:20Z</time>
      </trkpt>
      <trkpt lat="46.5532" lon="-0.73201">
        <ele>89.1</ele>
        <time>2012-12-29T09:37:21Z</time>
      </trkpt>
      <trkpt lat="46.55321" lon="-0.73208">
        <ele>89</ele>
        <time>2012-12-29T09:37:22Z</time>
      </trkpt>
      <trkpt lat="46.55323" lon="-0.73214">
        <ele>88.8</ele>
        <time>2012-12-29T09:37:23Z</time>
      </trkpt>
      <trkpt lat="46.55328" lon="-0.73225">
        <ele>88.6</ele>
        <time>2012-12-29T09:37:25Z</time>
      </trkpt>
      <trkpt lat="46.55337" lon="-0.7324">
        <ele>88.9</ele>
        <time>2012-12-29T09:37:28Z</time>
      </trkpt>
      <trkpt lat="46.5534" lon="-0.73245">
        <ele>89</ele>
        <time>2012-12-29T09:37:29Z</time>
      </trkpt>
      <trkpt lat="46.55344" lon="-0.73249">
        <ele>89.1</ele>
        <time>2012-12-29T09:37:30Z</time>
      </trkpt>
      <trkpt lat="46.55347" lon="-0.73254">
        <ele>89.1</ele>
        <time>2012-12-29T09:37:31Z</time>
      </trkpt>
      <trkpt lat="46.55351" lon="-0.73259">
        <ele>89.2</ele>
        <time>2012-12-29T09:37:32Z</time>
      </trkpt>
      <trkpt lat="46.55358" lon="-0.73269">
        <ele>88.3</ele>
        <time>2012-12-29T09:37:34Z</time>
      </trkpt>
      <trkpt lat="46.55362" lon="-0.73275">
        <ele>88</ele>
        <time>2012-12-29T09:37:35Z</time>
      </trkpt>
      <trkpt lat="46.55378" lon="-0.73299">
        <ele>87.7</ele>
        <time>2012-12-29T09:37:39Z</time>
      </trkpt>
      <trkpt lat="46.55382" lon="-0.73304">
        <ele>87.6</ele>
        <time>2012-12-29T09:37:40Z</time>
      </trkpt>
      <trkpt lat="46.55388" lon="-0.7331">
        <ele>87.5</ele>
        <time>2012-12-29T09:37:41Z</time>
      </trkpt>
      <trkpt lat="46.554" lon="-0.73322">
        <ele>87.3</ele>
        <time>2012-12-29T09:37:43Z</time>
      </trkpt>
      <trkpt lat="46.55412" lon="-0.73335">
        <ele>87.2</ele>
        <time>2012-12-29T09:37:45Z</time>
      </trkpt>
      <trkpt lat="46.55417" lon="-0.73342">
        <ele>86.6</ele>
        <time>2012-12-29T09:37:46Z</time>
      </trkpt>
      <trkpt lat="46.55422" lon="-0.73348">
        <ele>86.1</ele>
        <time>2012-12-29T09:37:47Z</time>
      </trkpt>
      <trkpt lat="46.55436" lon="-0.73368">
        <ele>85.5</ele>
        <time>2012-12-29T09:37:50Z</time>
      </trkpt>
      <trkpt lat="46.55446" lon="-0.73383">
        <ele>85.2</ele>
        <time>2012-12-29T09:37:53Z</time>
      </trkpt>
      <trkpt lat="46.55458" lon="-0.73403">
        <ele>85</ele>
        <time>2012-12-29T09:37:57Z</time>
      </trkpt>
      <trkpt lat="46.55467" lon="-0.73418">
        <ele>86.1</ele>
        <time>2012-12-29T09:38:00Z</time>
      </trkpt>
      <trkpt lat="46.55479" lon="-0.73434">
        <ele>87.2</ele>
        <time>2012-12-29T09:38:04Z</time>
      </trkpt>
      <trkpt lat="46.55491" lon="-0.73452">
        <ele>88.3</ele>
        <time>2012-12-29T09:38:08Z</time>
      </trkpt>
      <trkpt lat="46.55502" lon="-0.73464">
        <ele>89.1</ele>
        <time>2012-12-29T09:38:11Z</time>
      </trkpt>
      <trkpt lat="46.55516" lon="-0.73481">
        <ele>89.4</ele>
        <time>2012-12-29T09:38:15Z</time>
      </trkpt>
      <trkpt lat="46.55519" lon="-0.73485">
        <ele>89.4</ele>
        <time>2012-12-29T09:38:16Z</time>
      </trkpt>
      <trkpt lat="46.55529" lon="-0.73499">
        <ele>90</ele>
        <time>2012-12-29T09:38:19Z</time>
      </trkpt>
      <trkpt lat="46.55536" lon="-0.73508">
        <ele>90.6</ele>
        <time>2012-12-29T09:38:21Z</time>
      </trkpt>
      <trkpt lat="46.55546" lon="-0.73522">
        <ele>91.1</ele>
        <time>2012-12-29T09:38:24Z</time>
      </trkpt>
      <trkpt lat="46.55553" lon="-0.73531">
        <ele>91</ele>
        <time>2012-12-29T09:38:26Z</time>
      </trkpt>
      <trkpt lat="46.55557" lon="-0.73535">
        <ele>90.6</ele>
        <time>2012-12-29T09:38:27Z</time>
      </trkpt>
      <trkpt lat="46.55561" lon="-0.7354">
        <ele>90.4</ele>
        <time>2012-12-29T09:38:28Z</time>
      </trkpt>
      <trkpt lat="46.55574" lon="-0.73558">
        <ele>90.4</ele>
        <time>2012-12-29T09:38:32Z</time>
      </trkpt>
      <trkpt lat="46.55578" lon="-0.73563">
        <ele>90.3</ele>
        <time>2012-12-29T09:38:33Z</time>
      </trkpt>
      <trkpt lat="46.55592" lon="-0.73577">
        <ele>89.9</ele>
        <time>2012-12-29T09:38:37Z</time>
      </trkpt>
      <trkpt lat="46.55599" lon="-0.73578">
        <ele>89.8</ele>
        <time>2012-12-29T09:38:39Z</time>
      </trkpt>
      <trkpt lat="46.55604" lon="-0.73576">
        <ele>90</ele>
        <time>2012-12-29T09:38:41Z</time>
      </trkpt>
      <trkpt lat="46.5561" lon="-0.73569">
        <ele>90.6</ele>
        <time>2012-12-29T09:38:44Z</time>
      </trkpt>
      <trkpt lat="46.55616" lon="-0.73557">
        <ele>90.6</ele>
        <time>2012-12-29T09:38:48Z</time>
      </trkpt>
      <trkpt lat="46.55627" lon="-0.73542">
        <ele>91.1</ele>
        <time>2012-12-29T09:38:53Z</time>
      </trkpt>
      <trkpt lat="46.55637" lon="-0.73525">
        <ele>91.5</ele>
        <time>2012-12-29T09:38:58Z</time>
      </trkpt>
      <trkpt lat="46.55645" lon="-0.73513">
        <ele>91</ele>
        <time>2012-12-29T09:39:02Z</time>
      </trkpt>
      <trkpt lat="46.55647" lon="-0.73509">
        <ele>91</ele>
        <time>2012-12-29T09:39:03Z</time>
      </trkpt>
      <trkpt lat="46.5565" lon="-0.73504">
        <ele>90.9</ele>
        <time>2012-12-29T09:39:05Z</time>
      </trkpt>
      <trkpt lat="46.55658" lon="-0.73491">
        <ele>91.1</ele>
        <time>2012-12-29T09:39:09Z</time>
      </trkpt>
      <trkpt lat="46.55662" lon="-0.73484">
        <ele>91.5</ele>
        <time>2012-12-29T09:39:11Z</time>
      </trkpt>
      <trkpt lat="46.55667" lon="-0.73477">
        <ele>91.9</ele>
        <time>2012-12-29T09:39:13Z</time>
      </trkpt>
      <trkpt lat="46.55674" lon="-0.73467">
        <ele>92.2</ele>
        <time>2012-12-29T09:39:16Z</time>
      </trkpt>
      <trkpt lat="46.55683" lon="-0.73454">
        <ele>92.6</ele>
        <time>2012-12-29T09:39:20Z</time>
      </trkpt>
      <trkpt lat="46.55685" lon="-0.7345">
        <ele>92.6</ele>
        <time>2012-12-29T09:39:21Z</time>
      </trkpt>
      <trkpt lat="46.55693" lon="-0.73436">
        <ele>92.6</ele>
        <time>2012-12-29T09:39:25Z</time>
      </trkpt>
      <trkpt lat="46.557" lon="-0.73422">
        <ele>93.1</ele>
        <time>2012-12-29T09:39:29Z</time>
      </trkpt>
      <trkpt lat="46.55704" lon="-0.73415">
        <ele>93.7</ele>
        <time>2012-12-29T09:39:31Z</time>
      </trkpt>
      <trkpt lat="46.55712" lon="-0.73402">
        <ele>94.2</ele>
        <time>2012-12-29T09:39:35Z</time>
      </trkpt>
      <trkpt lat="46.55717" lon="-0.73395">
        <ele>94.1</ele>
        <time>2012-12-29T09:39:37Z</time>
      </trkpt>
      <trkpt lat="46.55721" lon="-0.73388">
        <ele>94.1</ele>
        <time>2012-12-29T09:39:39Z</time>
      </trkpt>
      <trkpt lat="46.55724" lon="-0.73385">
        <ele>94</ele>
        <time>2012-12-29T09:39:40Z</time>
      </trkpt>
      <trkpt lat="46.55729" lon="-0.73379">
        <ele>93.9</ele>
        <time>2012-12-29T09:39:42Z</time>
      </trkpt>
      <trkpt lat="46.55734" lon="-0.73372">
        <ele>94.2</ele>
        <time>2012-12-29T09:39:44Z</time>
      </trkpt>
      <trkpt lat="46.55737" lon="-0.73369">
        <ele>94.4</ele>
        <time>2012-12-29T09:39:45Z</time>
      </trkpt>
      <trkpt lat="46.55741" lon="-0.73362">
        <ele>94.5</ele>
        <time>2012-12-29T09:39:47Z</time>
      </trkpt>
      <trkpt lat="46.55746" lon="-0.73357">
        <ele>94.4</ele>
        <time>2012-12-29T09:39:49Z</time>
      </trkpt>
      <trkpt lat="46.5575" lon="-0.7335">
        <ele>94.6</ele>
        <time>2012-12-29T09:39:51Z</time>
      </trkpt>
      <trkpt lat="46.55755" lon="-0.7334">
        <ele>94.5</ele>
        <time>2012-12-29T09:39:54Z</time>
      </trkpt>
      <trkpt lat="46.55757" lon="-0.73333">
        <ele>94.7</ele>
        <time>2012-12-29T09:39:56Z</time>
      </trkpt>
      <trkpt lat="46.55763" lon="-0.73327">
        <ele>95.2</ele>
        <time>2012-12-29T09:39:59Z</time>
      </trkpt>
      <trkpt lat="46.5577" lon="-0.7333">
        <ele>95.7</ele>
        <time>2012-12-29T09:40:03Z</time>
      </trkpt>
      <trkpt lat="46.55781" lon="-0.73342">
        <ele>95.6</ele>
        <time>2012-12-29T09:40:08Z</time>
      </trkpt>
      <trkpt lat="46.55786" lon="-0.73347">
        <ele>94.8</ele>
        <time>2012-12-29T09:40:10Z</time>
      </trkpt>
      <trkpt lat="46.55789" lon="-0.7335">
        <ele>94.6</ele>
        <time>2012-12-29T09:40:11Z</time>
      </trkpt>
      <trkpt lat="46.55795" lon="-0.73355">
        <ele>94.5</ele>
        <time>2012-12-29T09:40:13Z</time>
      </trkpt>
      <trkpt lat="46.558" lon="-0.73361">
        <ele>94.4</ele>
        <time>2012-12-29T09:40:15Z</time>
      </trkpt>
      <trkpt lat="46.55806" lon="-0.73367">
        <ele>94.1</ele>
        <time>2012-12-29T09:40:17Z</time>
      </trkpt>
      <trkpt lat="46.55809" lon="-0.73369">
        <ele>94</ele>
        <time>2012-12-29T09:40:18Z</time>
      </trkpt>
      <trkpt lat="46.55814" lon="-0.73373">
        <ele>93.5</ele>
        <time>2012-12-29T09:40:20Z</time>
      </trkpt>
      <trkpt lat="46.55821" lon="-0.73381">
        <ele>93.3</ele>
        <time>2012-12-29T09:40:24Z</time>
      </trkpt>
      <trkpt lat="46.55828" lon="-0.73388">
        <ele>94.1</ele>
        <time>2012-12-29T09:40:27Z</time>
      </trkpt>
      <trkpt lat="46.55837" lon="-0.73401">
        <ele>93.6</ele>
        <time>2012-12-29T09:40:32Z</time>
      </trkpt>
      <trkpt lat="46.55843" lon="-0.73406">
        <ele>93.2</ele>
        <time>2012-12-29T09:40:34Z</time>
      </trkpt>
      <trkpt lat="46.55848" lon="-0.73413">
        <ele>93.3</ele>
        <time>2012-12-29T09:40:36Z</time>
      </trkpt>
      <trkpt lat="46.55854" lon="-0.73417">
        <ele>93.4</ele>
        <time>2012-12-29T09:40:38Z</time>
      </trkpt>
      <trkpt lat="46.5586" lon="-0.73422">
        <ele>93.5</ele>
        <time>2012-12-29T09:40:40Z</time>
      </trkpt>
      <trkpt lat="46.55865" lon="-0.73428">
        <ele>94.3</ele>
        <time>2012-12-29T09:40:42Z</time>
      </trkpt>
      <trkpt lat="46.55868" lon="-0.73431">
        <ele>94.6</ele>
        <time>2012-12-29T09:40:43Z</time>
      </trkpt>
      <trkpt lat="46.55878" lon="-0.73443">
        <ele>94.9</ele>
        <time>2012-12-29T09:40:47Z</time>
      </trkpt>
      <trkpt lat="46.55883" lon="-0.7345">
        <ele>94.9</ele>
        <time>2012-12-29T09:40:49Z</time>
      </trkpt>
      <trkpt lat="46.55888" lon="-0.73458">
        <ele>95</ele>
        <time>2012-12-29T09:40:51Z</time>
      </trkpt>
      <trkpt lat="46.5589" lon="-0.73461">
        <ele>95</ele>
        <time>2012-12-29T09:40:52Z</time>
      </trkpt>
      <trkpt lat="46.55895" lon="-0.73467">
        <ele>95</ele>
        <time>2012-12-29T09:40:54Z</time>
      </trkpt>
      <trkpt lat="46.55899" lon="-0.73473">
        <ele>94.8</ele>
        <time>2012-12-29T09:40:56Z</time>
      </trkpt>
      <trkpt lat="46.559" lon="-0.73477">
        <ele>94.7</ele>
        <time>2012-12-29T09:40:57Z</time>
      </trkpt>
      <trkpt lat="46.55906" lon="-0.73486">
        <ele>94.3</ele>
        <time>2012-12-29T09:41:00Z</time>
      </trkpt>
      <trkpt lat="46.55913" lon="-0.73499">
        <ele>93.7</ele>
        <time>2012-12-29T09:41:04Z</time>
      </trkpt>
      <trkpt lat="46.55917" lon="-0.73507">
        <ele>93.6</ele>
        <time>2012-12-29T09:41:06Z</time>
      </trkpt>
      <trkpt lat="46.55922" lon="-0.73512">
        <ele>92.7</ele>
        <time>2012-12-29T09:41:09Z</time>
      </trkpt>
      <trkpt lat="46.55929" lon="-0.73507">
        <ele>91.1</ele>
        <time>2012-12-29T09:41:13Z</time>
      </trkpt>
      <trkpt lat="46.55932" lon="-0.73503">
        <ele>90.9</ele>
        <time>2012-12-29T09:41:15Z</time>
      </trkpt>
      <trkpt lat="46.5594" lon="-0.73493">
        <ele>91.1</ele>
        <time>2012-12-29T09:41:19Z</time>
      </trkpt>
      <trkpt lat="46.55945" lon="-0.73487">
        <ele>91.4</ele>
        <time>2012-12-29T09:41:21Z</time>
      </trkpt>
      <trkpt lat="46.55949" lon="-0.73484">
        <ele>91.5</ele>
        <time>2012-12-29T09:41:22Z</time>
      </trkpt>
      <trkpt lat="46.55955" lon="-0.73477">
        <ele>90.4</ele>
        <time>2012-12-29T09:41:24Z</time>
      </trkpt>
      <trkpt lat="46.55964" lon="-0.73465">
        <ele>89.9</ele>
        <time>2012-12-29T09:41:28Z</time>
      </trkpt>
      <trkpt lat="46.55968" lon="-0.73462">
        <ele>89.7</ele>
        <time>2012-12-29T09:41:33Z</time>
      </trkpt>
      <trkpt lat="46.55975" lon="-0.73459">
        <ele>89.6</ele>
        <time>2012-12-29T09:43:29Z</time>
      </trkpt>
      <trkpt lat="46.55984" lon="-0.73442">
        <ele>89</ele>
        <time>2012-12-29T09:43:37Z</time>
      </trkpt>
      <trkpt lat="46.55986" lon="-0.73438">
        <ele>89</ele>
        <time>2012-12-29T09:43:39Z</time>
      </trkpt>
      <trkpt lat="46.5599" lon="-0.73431">
        <ele>89.2</ele>
        <time>2012-12-29T09:43:41Z</time>
      </trkpt>
      <trkpt lat="46.55996" lon="-0.73424">
        <ele>88.7</ele>
        <time>2012-12-29T09:43:43Z</time>
      </trkpt>
      <trkpt lat="46.56006" lon="-0.73416">
        <ele>87.9</ele>
        <time>2012-12-29T09:43:46Z</time>
      </trkpt>
      <trkpt lat="46.56021" lon="-0.73401">
        <ele>86.7</ele>
        <time>2012-12-29T09:43:52Z</time>
      </trkpt>
      <trkpt lat="46.56026" lon="-0.73397">
        <ele>86.9</ele>
        <time>2012-12-29T09:43:54Z</time>
      </trkpt>
      <trkpt lat="46.56031" lon="-0.73393">
        <ele>86.9</ele>
        <time>2012-12-29T09:43:56Z</time>
      </trkpt>
      <trkpt lat="46.56035" lon="-0.73391">
        <ele>86.9</ele>
        <time>2012-12-29T09:43:57Z</time>
      </trkpt>
      <trkpt lat="46.56041" lon="-0.73389">
        <ele>86.7</ele>
        <time>2012-12-29T09:43:59Z</time>
      </trkpt>
      <trkpt lat="46.56049" lon="-0.73385">
        <ele>86.4</ele>
        <time>2012-12-29T09:44:01Z</time>
      </trkpt>
      <trkpt lat="46.56054" lon="-0.73381">
        <ele>85.9</ele>
        <time>2012-12-29T09:44:02Z</time>
      </trkpt>
      <trkpt lat="46.56066" lon="-0.73372">
        <ele>85.2</ele>
        <time>2012-12-29T09:44:04Z</time>
      </trkpt>
      <trkpt lat="46.56071" lon="-0.73367">
        <ele>84.3</ele>
        <time>2012-12-29T09:44:05Z</time>
      </trkpt>
      <trkpt lat="46.56079" lon="-0.73358">
        <ele>83.1</ele>
        <time>2012-12-29T09:44:07Z</time>
      </trkpt>
      <trkpt lat="46.56083" lon="-0.73354">
        <ele>82.7</ele>
        <time>2012-12-29T09:44:08Z</time>
      </trkpt>
      <trkpt lat="46.56088" lon="-0.73349">
        <ele>81.7</ele>
        <time>2012-12-29T09:44:10Z</time>
      </trkpt>
      <trkpt lat="46.56094" lon="-0.73343">
        <ele>81.5</ele>
        <time>2012-12-29T09:44:12Z</time>
      </trkpt>
      <trkpt lat="46.56099" lon="-0.73338">
        <ele>81.6</ele>
        <time>2012-12-29T09:44:14Z</time>
      </trkpt>
      <trkpt lat="46.56106" lon="-0.73329">
        <ele>81.7</ele>
        <time>2012-12-29T09:44:17Z</time>
      </trkpt>
      <trkpt lat="46.56111" lon="-0.73325">
        <ele>81.8</ele>
        <time>2012-12-29T09:44:19Z</time>
      </trkpt>
      <trkpt lat="46.56124" lon="-0.73318">
        <ele>81.9</ele>
        <time>2012-12-29T09:44:23Z</time>
      </trkpt>
      <trkpt lat="46.56132" lon="-0.73313">
        <ele>81.9</ele>
        <time>2012-12-29T09:44:26Z</time>
      </trkpt>
      <trkpt lat="46.56136" lon="-0.7331">
        <ele>82</ele>
        <time>2012-12-29T09:44:28Z</time>
      </trkpt>
      <trkpt lat="46.56142" lon="-0.73309">
        <ele>81.9</ele>
        <time>2012-12-29T09:44:31Z</time>
      </trkpt>
      <trkpt lat="46.56147" lon="-0.73313">
        <ele>81.9</ele>
        <time>2012-12-29T09:44:34Z</time>
      </trkpt>
      <trkpt lat="46.56149" lon="-0.73318">
        <ele>81.9</ele>
        <time>2012-12-29T09:44:36Z</time>
      </trkpt>
      <trkpt lat="46.56154" lon="-0.73326">
        <ele>82.3</ele>
        <time>2012-12-29T09:44:39Z</time>
      </trkpt>
      <trkpt lat="46.5616" lon="-0.73324">
        <ele>81.2</ele>
        <time>2012-12-29T09:44:50Z</time>
      </trkpt>
      <trkpt lat="46.56159" lon="-0.73318">
        <ele>81.2</ele>
        <time>2012-12-29T09:44:53Z</time>
      </trkpt>
      <trkpt lat="46.56161" lon="-0.73307">
        <ele>81.1</ele>
        <time>2012-12-29T09:44:56Z</time>
      </trkpt>
      <trkpt lat="46.56162" lon="-0.73303">
        <ele>81.2</ele>
        <time>2012-12-29T09:44:57Z</time>
      </trkpt>
      <trkpt lat="46.56166" lon="-0.73296">
        <ele>81.5</ele>
        <time>2012-12-29T09:44:59Z</time>
      </trkpt>
      <trkpt lat="46.56175" lon="-0.73277">
        <ele>82.3</ele>
        <time>2012-12-29T09:45:05Z</time>
      </trkpt>
      <trkpt lat="46.56178" lon="-0.73271">
        <ele>82.9</ele>
        <time>2012-12-29T09:45:07Z</time>
      </trkpt>
      <trkpt lat="46.56182" lon="-0.73265">
        <ele>83.2</ele>
        <time>2012-12-29T09:45:09Z</time>
      </trkpt>
      <trkpt lat="46.56187" lon="-0.7326">
        <ele>83.4</ele>
        <time>2012-12-29T09:45:11Z</time>
      </trkpt>
      <trkpt lat="46.56194" lon="-0.73256">
        <ele>83.3</ele>
        <time>2012-12-29T09:45:14Z</time>
      </trkpt>
      <trkpt lat="46.56206" lon="-0.73249">
        <ele>83.3</ele>
        <time>2012-12-29T09:45:19Z</time>
      </trkpt>
      <trkpt lat="46.56209" lon="-0.73247">
        <ele>83.5</ele>
        <time>2012-12-29T09:45:20Z</time>
      </trkpt>
      <trkpt lat="46.56222" lon="-0.73241">
        <ele>83.4</ele>
        <time>2012-12-29T09:45:24Z</time>
      </trkpt>
      <trkpt lat="46.56225" lon="-0.73239">
        <ele>83.7</ele>
        <time>2012-12-29T09:45:25Z</time>
      </trkpt>
      <trkpt lat="46.56238" lon="-0.73233">
        <ele>84.1</ele>
        <time>2012-12-29T09:45:29Z</time>
      </trkpt>
      <trkpt lat="46.56241" lon="-0.73232">
        <ele>84.1</ele>
        <time>2012-12-29T09:45:30Z</time>
      </trkpt>
      <trkpt lat="46.56254" lon="-0.73225">
        <ele>85</ele>
        <time>2012-12-29T09:45:34Z</time>
      </trkpt>
      <trkpt lat="46.56257" lon="-0.73223">
        <ele>85.2</ele>
        <time>2012-12-29T09:45:35Z</time>
      </trkpt>
      <trkpt lat="46.56264" lon="-0.7322">
        <ele>85.5</ele>
        <time>2012-12-29T09:45:37Z</time>
      </trkpt>
      <trkpt lat="46.56267" lon="-0.73218">
        <ele>85.5</ele>
        <time>2012-12-29T09:45:38Z</time>
      </trkpt>
      <trkpt lat="46.56278" lon="-0.7321">
        <ele>86.6</ele>
        <time>2012-12-29T09:45:42Z</time>
      </trkpt>
      <trkpt lat="46.56283" lon="-0.73207">
        <ele>87.2</ele>
        <time>2012-12-29T09:45:44Z</time>
      </trkpt>
      <trkpt lat="46.56296" lon="-0.732">
        <ele>88.1</ele>
        <time>2012-12-29T09:45:49Z</time>
      </trkpt>
      <trkpt lat="46.56307" lon="-0.73196">
        <ele>87.6</ele>
        <time>2012-12-29T09:45:53Z</time>
      </trkpt>
      <trkpt lat="46.56317" lon="-0.73194">
        <ele>88.7</ele>
        <time>2012-12-29T09:45:56Z</time>
      </trkpt>
      <trkpt lat="46.56323" lon="-0.73193">
        <ele>88.5</ele>
        <time>2012-12-29T09:45:58Z</time>
      </trkpt>
      <trkpt lat="46.56328" lon="-0.73193">
        <ele>88.6</ele>
        <time>2012-12-29T09:46:00Z</time>
      </trkpt>
      <trkpt lat="46.56335" lon="-0.73193">
        <ele>88.8</ele>
        <time>2012-12-29T09:46:02Z</time>
      </trkpt>
      <trkpt lat="46.56341" lon="-0.7319">
        <ele>89.3</ele>
        <time>2012-12-29T09:46:04Z</time>
      </trkpt>
      <trkpt lat="46.56349" lon="-0.73188">
        <ele>89.5</ele>
        <time>2012-12-29T09:46:06Z</time>
      </trkpt>
      <trkpt lat="46.56352" lon="-0.73186">
        <ele>89.5</ele>
        <time>2012-12-29T09:46:07Z</time>
      </trkpt>
      <trkpt lat="46.5636" lon="-0.73182">
        <ele>89.4</ele>
        <time>2012-12-29T09:46:09Z</time>
      </trkpt>
      <trkpt lat="46.56373" lon="-0.73176">
        <ele>90.7</ele>
        <time>2012-12-29T09:46:12Z</time>
      </trkpt>
      <trkpt lat="46.56388" lon="-0.7317">
        <ele>91.5</ele>
        <time>2012-12-29T09:46:16Z</time>
      </trkpt>
      <trkpt lat="46.56396" lon="-0.73167">
        <ele>92</ele>
        <time>2012-12-29T09:46:18Z</time>
      </trkpt>
      <trkpt lat="46.56403" lon="-0.73162">
        <ele>92.8</ele>
        <time>2012-12-29T09:46:20Z</time>
      </trkpt>
      <trkpt lat="46.56409" lon="-0.73159">
        <ele>93.3</ele>
        <time>2012-12-29T09:46:22Z</time>
      </trkpt>
      <trkpt lat="46.56417" lon="-0.73153">
        <ele>93.6</ele>
        <time>2012-12-29T09:46:24Z</time>
      </trkpt>
      <trkpt lat="46.56432" lon="-0.7314">
        <ele>93.3</ele>
        <time>2012-12-29T09:46:28Z</time>
      </trkpt>
      <trkpt lat="46.56438" lon="-0.73133">
        <ele>93.7</ele>
        <time>2012-12-29T09:46:30Z</time>
      </trkpt>
      <trkpt lat="46.56448" lon="-0.73122">
        <ele>94.3</ele>
        <time>2012-12-29T09:46:33Z</time>
      </trkpt>
      <trkpt lat="46.56461" lon="-0.73109">
        <ele>94</ele>
        <time>2012-12-29T09:46:37Z</time>
      </trkpt>
      <trkpt lat="46.56468" lon="-0.73104">
        <ele>94.8</ele>
        <time>2012-12-29T09:46:39Z</time>
      </trkpt>
      <trkpt lat="46.56474" lon="-0.73101">
        <ele>95.8</ele>
        <time>2012-12-29T09:46:41Z</time>
      </trkpt>
      <trkpt lat="46.56481" lon="-0.73099">
        <ele>95.9</ele>
        <time>2012-12-29T09:46:43Z</time>
      </trkpt>
      <trkpt lat="46.56484" lon="-0.73098">
        <ele>95.9</ele>
        <time>2012-12-29T09:46:44Z</time>
      </trkpt>
      <trkpt lat="46.565" lon="-0.73093">
        <ele>96.5</ele>
        <time>2012-12-29T09:46:48Z</time>
      </trkpt>
      <trkpt lat="46.56509" lon="-0.73089">
        <ele>97</ele>
        <time>2012-12-29T09:46:50Z</time>
      </trkpt>
      <trkpt lat="46.56513" lon="-0.73087">
        <ele>96.8</ele>
        <time>2012-12-29T09:46:51Z</time>
      </trkpt>
      <trkpt lat="46.56521" lon="-0.73081">
        <ele>96.6</ele>
        <time>2012-12-29T09:46:53Z</time>
      </trkpt>
      <trkpt lat="46.56535" lon="-0.73072">
        <ele>96.5</ele>
        <time>2012-12-29T09:46:57Z</time>
      </trkpt>
      <trkpt lat="46.56542" lon="-0.73067">
        <ele>96.3</ele>
        <time>2012-12-29T09:46:59Z</time>
      </trkpt>
      <trkpt lat="46.56546" lon="-0.73064">
        <ele>96.3</ele>
        <time>2012-12-29T09:47:00Z</time>
      </trkpt>
      <trkpt lat="46.56553" lon="-0.73061">
        <ele>96.6</ele>
        <time>2012-12-29T09:47:02Z</time>
      </trkpt>
      <trkpt lat="46.5656" lon="-0.73058">
        <ele>96.7</ele>
        <time>2012-12-29T09:47:04Z</time>
      </trkpt>
      <trkpt lat="46.56578" lon="-0.73057">
        <ele>96.8</ele>
        <time>2012-12-29T09:47:08Z</time>
      </trkpt>
      <trkpt lat="46.56587" lon="-0.73057">
        <ele>96.9</ele>
        <time>2012-12-29T09:47:10Z</time>
      </trkpt>
      <trkpt lat="46.56594" lon="-0.73058">
        <ele>97.2</ele>
        <time>2012-12-29T09:47:12Z</time>
      </trkpt>
      <trkpt lat="46.56602" lon="-0.73059">
        <ele>97.3</ele>
        <time>2012-12-29T09:47:14Z</time>
      </trkpt>
      <trkpt lat="46.56611" lon="-0.73059">
        <ele>97.2</ele>
        <time>2012-12-29T09:47:16Z</time>
      </trkpt>
      <trkpt lat="46.56619" lon="-0.73058">
        <ele>97.1</ele>
        <time>2012-12-29T09:47:18Z</time>
      </trkpt>
      <trkpt lat="46.56635" lon="-0.73056">
        <ele>98</ele>
        <time>2012-12-29T09:47:22Z</time>
      </trkpt>
      <trkpt lat="46.56639" lon="-0.73056">
        <ele>97.9</ele>
        <time>2012-12-29T09:47:23Z</time>
      </trkpt>
      <trkpt lat="46.56647" lon="-0.73055">
        <ele>97.7</ele>
        <time>2012-12-29T09:47:25Z</time>
      </trkpt>
      <trkpt lat="46.56656" lon="-0.73053">
        <ele>97.7</ele>
        <time>2012-12-29T09:47:27Z</time>
      </trkpt>
      <trkpt lat="46.56671" lon="-0.73047">
        <ele>98.8</ele>
        <time>2012-12-29T09:47:31Z</time>
      </trkpt>
      <trkpt lat="46.56679" lon="-0.73043">
        <ele>99.6</ele>
        <time>2012-12-29T09:47:33Z</time>
      </trkpt>
      <trkpt lat="46.56692" lon="-0.73035">
        <ele>100.8</ele>
        <time>2012-12-29T09:47:36Z</time>
      </trkpt>
      <trkpt lat="46.56696" lon="-0.73032">
        <ele>101.2</ele>
        <time>2012-12-29T09:47:37Z</time>
      </trkpt>
      <trkpt lat="46.56707" lon="-0.73022">
        <ele>101.7</ele>
        <time>2012-12-29T09:47:40Z</time>
      </trkpt>
      <trkpt lat="46.56715" lon="-0.73016">
        <ele>101.5</ele>
        <time>2012-12-29T09:47:42Z</time>
      </trkpt>
      <trkpt lat="46.56722" lon="-0.73011">
        <ele>101.1</ele>
        <time>2012-12-29T09:47:44Z</time>
      </trkpt>
      <trkpt lat="46.56729" lon="-0.73005">
        <ele>101.1</ele>
        <time>2012-12-29T09:47:46Z</time>
      </trkpt>
      <trkpt lat="46.56737" lon="-0.73">
        <ele>101.1</ele>
        <time>2012-12-29T09:47:48Z</time>
      </trkpt>
      <trkpt lat="46.56749" lon="-0.72993">
        <ele>101.1</ele>
        <time>2012-12-29T09:47:51Z</time>
      </trkpt>
      <trkpt lat="46.56763" lon="-0.72983">
        <ele>101.3</ele>
        <time>2012-12-29T09:47:55Z</time>
      </trkpt>
      <trkpt lat="46.5677" lon="-0.72978">
        <ele>101.3</ele>
        <time>2012-12-29T09:47:57Z</time>
      </trkpt>
      <trkpt lat="46.56778" lon="-0.72971">
        <ele>101.8</ele>
        <time>2012-12-29T09:47:59Z</time>
      </trkpt>
      <trkpt lat="46.56782" lon="-0.72967">
        <ele>101.9</ele>
        <time>2012-12-29T09:48:00Z</time>
      </trkpt>
      <trkpt lat="46.56789" lon="-0.72959">
        <ele>101.7</ele>
        <time>2012-12-29T09:48:02Z</time>
      </trkpt>
      <trkpt lat="46.56796" lon="-0.72952">
        <ele>101.2</ele>
        <time>2012-12-29T09:48:04Z</time>
      </trkpt>
      <trkpt lat="46.56802" lon="-0.72947">
        <ele>101.8</ele>
        <time>2012-12-29T09:48:06Z</time>
      </trkpt>
      <trkpt lat="46.56806" lon="-0.72944">
        <ele>101.9</ele>
        <time>2012-12-29T09:48:07Z</time>
      </trkpt>
      <trkpt lat="46.56813" lon="-0.72942">
        <ele>102.1</ele>
        <time>2012-12-29T09:48:09Z</time>
      </trkpt>
      <trkpt lat="46.56822" lon="-0.7294">
        <ele>101.9</ele>
        <time>2012-12-29T09:48:11Z</time>
      </trkpt>
      <trkpt lat="46.5683" lon="-0.72938">
        <ele>101.5</ele>
        <time>2012-12-29T09:48:13Z</time>
      </trkpt>
      <trkpt lat="46.56839" lon="-0.72935">
        <ele>102</ele>
        <time>2012-12-29T09:48:15Z</time>
      </trkpt>
      <trkpt lat="46.56849" lon="-0.72934">
        <ele>102.3</ele>
        <time>2012-12-29T09:48:17Z</time>
      </trkpt>
      <trkpt lat="46.56859" lon="-0.72932">
        <ele>102.8</ele>
        <time>2012-12-29T09:48:19Z</time>
      </trkpt>
      <trkpt lat="46.56871" lon="-0.72929">
        <ele>103.2</ele>
        <time>2012-12-29T09:48:22Z</time>
      </trkpt>
      <trkpt lat="46.56874" lon="-0.72927">
        <ele>103.3</ele>
        <time>2012-12-29T09:48:23Z</time>
      </trkpt>
      <trkpt lat="46.56889" lon="-0.7292">
        <ele>103.2</ele>
        <time>2012-12-29T09:48:27Z</time>
      </trkpt>
      <trkpt lat="46.56893" lon="-0.72918">
        <ele>103.1</ele>
        <time>2012-12-29T09:48:28Z</time>
      </trkpt>
      <trkpt lat="46.56901" lon="-0.72914">
        <ele>103.5</ele>
        <time>2012-12-29T09:48:30Z</time>
      </trkpt>
      <trkpt lat="46.56909" lon="-0.7291">
        <ele>104</ele>
        <time>2012-12-29T09:48:32Z</time>
      </trkpt>
      <trkpt lat="46.56917" lon="-0.72907">
        <ele>103.8</ele>
        <time>2012-12-29T09:48:34Z</time>
      </trkpt>
      <trkpt lat="46.56921" lon="-0.72905">
        <ele>103.5</ele>
        <time>2012-12-29T09:48:35Z</time>
      </trkpt>
      <trkpt lat="46.56929" lon="-0.72902">
        <ele>103.8</ele>
        <time>2012-12-29T09:48:37Z</time>
      </trkpt>
      <trkpt lat="46.56936" lon="-0.72901">
        <ele>104.5</ele>
        <time>2012-12-29T09:48:39Z</time>
      </trkpt>
      <trkpt lat="46.5694" lon="-0.72901">
        <ele>104.6</ele>
        <time>2012-12-29T09:48:40Z</time>
      </trkpt>
      <trkpt lat="46.56949" lon="-0.72902">
        <ele>104.8</ele>
        <time>2012-12-29T09:48:42Z</time>
      </trkpt>
      <trkpt lat="46.56958" lon="-0.72903">
        <ele>105</ele>
        <time>2012-12-29T09:48:44Z</time>
      </trkpt>
      <trkpt lat="46.56962" lon="-0.72903">
        <ele>105.1</ele>
        <time>2012-12-29T09:48:45Z</time>
      </trkpt>
      <trkpt lat="46.56971" lon="-0.72902">
        <ele>105.3</ele>
        <time>2012-12-29T09:48:47Z</time>
      </trkpt>
      <trkpt lat="46.56979" lon="-0.72902">
        <ele>105.5</ele>
        <time>2012-12-29T09:48:49Z</time>
      </trkpt>
      <trkpt lat="46.56986" lon="-0.72901">
        <ele>105.6</ele>
        <time>2012-12-29T09:48:51Z</time>
      </trkpt>
      <trkpt lat="46.56994" lon="-0.72898">
        <ele>105.6</ele>
        <time>2012-12-29T09:48:53Z</time>
      </trkpt>
      <trkpt lat="46.56998" lon="-0.72897">
        <ele>105.6</ele>
        <time>2012-12-29T09:48:54Z</time>
      </trkpt>
      <trkpt lat="46.57005" lon="-0.72892">
        <ele>106.3</ele>
        <time>2012-12-29T09:48:56Z</time>
      </trkpt>
      <trkpt lat="46.57013" lon="-0.72886">
        <ele>107.1</ele>
        <time>2012-12-29T09:48:58Z</time>
      </trkpt>
      <trkpt lat="46.57017" lon="-0.72884">
        <ele>107</ele>
        <time>2012-12-29T09:48:59Z</time>
      </trkpt>
      <trkpt lat="46.57022" lon="-0.72881">
        <ele>106.8</ele>
        <time>2012-12-29T09:49:00Z</time>
      </trkpt>
      <trkpt lat="46.57026" lon="-0.72878">
        <ele>106.7</ele>
        <time>2012-12-29T09:49:01Z</time>
      </trkpt>
      <trkpt lat="46.57042" lon="-0.72861">
        <ele>106.8</ele>
        <time>2012-12-29T09:49:05Z</time>
      </trkpt>
      <trkpt lat="46.57046" lon="-0.72857">
        <ele>106.9</ele>
        <time>2012-12-29T09:49:06Z</time>
      </trkpt>
      <trkpt lat="46.57062" lon="-0.7284">
        <ele>107.7</ele>
        <time>2012-12-29T09:49:10Z</time>
      </trkpt>
      <trkpt lat="46.57074" lon="-0.72828">
        <ele>108.2</ele>
        <time>2012-12-29T09:49:13Z</time>
      </trkpt>
      <trkpt lat="46.57078" lon="-0.72825">
        <ele>108.4</ele>
        <time>2012-12-29T09:49:14Z</time>
      </trkpt>
      <trkpt lat="46.57082" lon="-0.72823">
        <ele>108.1</ele>
        <time>2012-12-29T09:49:15Z</time>
      </trkpt>
      <trkpt lat="46.57091" lon="-0.72819">
        <ele>107.9</ele>
        <time>2012-12-29T09:49:17Z</time>
      </trkpt>
      <trkpt lat="46.57098" lon="-0.72816">
        <ele>107.9</ele>
        <time>2012-12-29T09:49:19Z</time>
      </trkpt>
      <trkpt lat="46.5711" lon="-0.72813">
        <ele>107.9</ele>
        <time>2012-12-29T09:49:22Z</time>
      </trkpt>
      <trkpt lat="46.57124" lon="-0.7281">
        <ele>109</ele>
        <time>2012-12-29T09:49:26Z</time>
      </trkpt>
      <trkpt lat="46.5713" lon="-0.72807">
        <ele>109.7</ele>
        <time>2012-12-29T09:49:28Z</time>
      </trkpt>
      <trkpt lat="46.57135" lon="-0.72798">
        <ele>110.2</ele>
        <time>2012-12-29T09:49:30Z</time>
      </trkpt>
      <trkpt lat="46.57136" lon="-0.72793">
        <ele>110.4</ele>
        <time>2012-12-29T09:49:31Z</time>
      </trkpt>
      <trkpt lat="46.57136" lon="-0.72783">
        <ele>110.6</ele>
        <time>2012-12-29T09:49:33Z</time>
      </trkpt>
      <trkpt lat="46.57137" lon="-0.72773">
        <ele>110.2</ele>
        <time>2012-12-29T09:49:35Z</time>
      </trkpt>
      <trkpt lat="46.57139" lon="-0.72762">
        <ele>110.2</ele>
        <time>2012-12-29T09:49:37Z</time>
      </trkpt>
      <trkpt lat="46.57139" lon="-0.72757">
        <ele>110.3</ele>
        <time>2012-12-29T09:49:38Z</time>
      </trkpt>
      <trkpt lat="46.57139" lon="-0.72745">
        <ele>110.5</ele>
        <time>2012-12-29T09:49:40Z</time>
      </trkpt>
      <trkpt lat="46.5714" lon="-0.72721">
        <ele>111.4</ele>
        <time>2012-12-29T09:49:44Z</time>
      </trkpt>
      <trkpt lat="46.5714" lon="-0.72715">
        <ele>111.5</ele>
        <time>2012-12-29T09:49:45Z</time>
      </trkpt>
      <trkpt lat="46.57141" lon="-0.72704">
        <ele>111.8</ele>
        <time>2012-12-29T09:49:47Z</time>
      </trkpt>
      <trkpt lat="46.57143" lon="-0.7268">
        <ele>112.4</ele>
        <time>2012-12-29T09:49:51Z</time>
      </trkpt>
      <trkpt lat="46.57143" lon="-0.72663">
        <ele>112.5</ele>
        <time>2012-12-29T09:49:54Z</time>
      </trkpt>
      <trkpt lat="46.57144" lon="-0.72651">
        <ele>113</ele>
        <time>2012-12-29T09:49:56Z</time>
      </trkpt>
      <trkpt lat="46.57145" lon="-0.7264">
        <ele>113.7</ele>
        <time>2012-12-29T09:49:58Z</time>
      </trkpt>
      <trkpt lat="46.57145" lon="-0.72634">
        <ele>113.9</ele>
        <time>2012-12-29T09:49:59Z</time>
      </trkpt>
      <trkpt lat="46.57146" lon="-0.72623">
        <ele>114.2</ele>
        <time>2012-12-29T09:50:01Z</time>
      </trkpt>
      <trkpt lat="46.57147" lon="-0.72599">
        <ele>114.7</ele>
        <time>2012-12-29T09:50:05Z</time>
      </trkpt>
      <trkpt lat="46.57146" lon="-0.72587">
        <ele>114</ele>
        <time>2012-12-29T09:50:07Z</time>
      </trkpt>
      <trkpt lat="46.57145" lon="-0.72569">
        <ele>113.5</ele>
        <time>2012-12-29T09:50:10Z</time>
      </trkpt>
      <trkpt lat="46.57145" lon="-0.72552">
        <ele>113.4</ele>
        <time>2012-12-29T09:50:13Z</time>
      </trkpt>
      <trkpt lat="46.57145" lon="-0.7254">
        <ele>113.3</ele>
        <time>2012-12-29T09:50:15Z</time>
      </trkpt>
      <trkpt lat="46.57144" lon="-0.72528">
        <ele>114.3</ele>
        <time>2012-12-29T09:50:17Z</time>
      </trkpt>
      <trkpt lat="46.57144" lon="-0.72516">
        <ele>115</ele>
        <time>2012-12-29T09:50:19Z</time>
      </trkpt>
      <trkpt lat="46.57143" lon="-0.72504">
        <ele>115.6</ele>
        <time>2012-12-29T09:50:21Z</time>
      </trkpt>
      <trkpt lat="46.57143" lon="-0.72498">
        <ele>115.4</ele>
        <time>2012-12-29T09:50:22Z</time>
      </trkpt>
      <trkpt lat="46.57143" lon="-0.72485">
        <ele>115.2</ele>
        <time>2012-12-29T09:50:24Z</time>
      </trkpt>
      <trkpt lat="46.57142" lon="-0.72457">
        <ele>114.8</ele>
        <time>2012-12-29T09:50:28Z</time>
      </trkpt>
      <trkpt lat="46.57142" lon="-0.7245">
        <ele>114.8</ele>
        <time>2012-12-29T09:50:29Z</time>
      </trkpt>
      <trkpt lat="46.57141" lon="-0.72443">
        <ele>114.9</ele>
        <time>2012-12-29T09:50:30Z</time>
      </trkpt>
      <trkpt lat="46.57141" lon="-0.7243">
        <ele>114.9</ele>
        <time>2012-12-29T09:50:32Z</time>
      </trkpt>
      <trkpt lat="46.57141" lon="-0.72423">
        <ele>114.8</ele>
        <time>2012-12-29T09:50:33Z</time>
      </trkpt>
      <trkpt lat="46.5714" lon="-0.724">
        <ele>114.9</ele>
        <time>2012-12-29T09:50:37Z</time>
      </trkpt>
      <trkpt lat="46.5714" lon="-0.72388">
        <ele>115.5</ele>
        <time>2012-12-29T09:50:39Z</time>
      </trkpt>
      <trkpt lat="46.57139" lon="-0.72376">
        <ele>116</ele>
        <time>2012-12-29T09:50:41Z</time>
      </trkpt>
      <trkpt lat="46.57139" lon="-0.72371">
        <ele>116.3</ele>
        <time>2012-12-29T09:50:42Z</time>
      </trkpt>
      <trkpt lat="46.57136" lon="-0.72347">
        <ele>117.3</ele>
        <time>2012-12-29T09:50:46Z</time>
      </trkpt>
      <trkpt lat="46.57135" lon="-0.72336">
        <ele>117.7</ele>
        <time>2012-12-29T09:50:48Z</time>
      </trkpt>
      <trkpt lat="46.57133" lon="-0.72324">
        <ele>117.9</ele>
        <time>2012-12-29T09:50:50Z</time>
      </trkpt>
      <trkpt lat="46.57131" lon="-0.72313">
        <ele>118.7</ele>
        <time>2012-12-29T09:50:52Z</time>
      </trkpt>
      <trkpt lat="46.5713" lon="-0.72301">
        <ele>119.3</ele>
        <time>2012-12-29T09:50:54Z</time>
      </trkpt>
      <trkpt lat="46.57128" lon="-0.72295">
        <ele>119.5</ele>
        <time>2012-12-29T09:50:55Z</time>
      </trkpt>
      <trkpt lat="46.57123" lon="-0.72273">
        <ele>118.2</ele>
        <time>2012-12-29T09:50:59Z</time>
      </trkpt>
      <trkpt lat="46.5712" lon="-0.72256">
        <ele>119.8</ele>
        <time>2012-12-29T09:51:02Z</time>
      </trkpt>
      <trkpt lat="46.57115" lon="-0.72233">
        <ele>120.4</ele>
        <time>2012-12-29T09:51:06Z</time>
      </trkpt>
      <trkpt lat="46.57113" lon="-0.72228">
        <ele>120.4</ele>
        <time>2012-12-29T09:51:07Z</time>
      </trkpt>
      <trkpt lat="46.57111" lon="-0.7221">
        <ele>119.9</ele>
        <time>2012-12-29T09:51:10Z</time>
      </trkpt>
      <trkpt lat="46.57108" lon="-0.72186">
        <ele>119</ele>
        <time>2012-12-29T09:51:14Z</time>
      </trkpt>
      <trkpt lat="46.57106" lon="-0.72161">
        <ele>119.4</ele>
        <time>2012-12-29T09:51:18Z</time>
      </trkpt>
      <trkpt lat="46.57106" lon="-0.72149">
        <ele>119.8</ele>
        <time>2012-12-29T09:51:20Z</time>
      </trkpt>
      <trkpt lat="46.57103" lon="-0.72124">
        <ele>120.1</ele>
        <time>2012-12-29T09:51:24Z</time>
      </trkpt>
      <trkpt lat="46.57102" lon="-0.72105">
        <ele>120.5</ele>
        <time>2012-12-29T09:51:27Z</time>
      </trkpt>
      <trkpt lat="46.57101" lon="-0.72091">
        <ele>120.4</ele>
        <time>2012-12-29T09:51:29Z</time>
      </trkpt>
      <trkpt lat="46.57097" lon="-0.72066">
        <ele>120</ele>
        <time>2012-12-29T09:51:33Z</time>
      </trkpt>
      <trkpt lat="46.57093" lon="-0.72041">
        <ele>119.6</ele>
        <time>2012-12-29T09:51:37Z</time>
      </trkpt>
      <trkpt lat="46.57092" lon="-0.72035">
        <ele>119.6</ele>
        <time>2012-12-29T09:51:38Z</time>
      </trkpt>
      <trkpt lat="46.57087" lon="-0.72011">
        <ele>118.2</ele>
        <time>2012-12-29T09:51:42Z</time>
      </trkpt>
      <trkpt lat="46.57081" lon="-0.71987">
        <ele>117.9</ele>
        <time>2012-12-29T09:51:46Z</time>
      </trkpt>
      <trkpt lat="46.5708" lon="-0.71981">
        <ele>117.8</ele>
        <time>2012-12-29T09:51:47Z</time>
      </trkpt>
      <trkpt lat="46.57076" lon="-0.71969">
        <ele>118.1</ele>
        <time>2012-12-29T09:51:49Z</time>
      </trkpt>
      <trkpt lat="46.57071" lon="-0.71952">
        <ele>118.7</ele>
        <time>2012-12-29T09:51:52Z</time>
      </trkpt>
      <trkpt lat="46.57066" lon="-0.71934">
        <ele>118.7</ele>
        <time>2012-12-29T09:51:55Z</time>
      </trkpt>
      <trkpt lat="46.57062" lon="-0.71924">
        <ele>118.4</ele>
        <time>2012-12-29T09:51:57Z</time>
      </trkpt>
      <trkpt lat="46.57057" lon="-0.71913">
        <ele>118.8</ele>
        <time>2012-12-29T09:51:59Z</time>
      </trkpt>
      <trkpt lat="46.57056" lon="-0.71907">
        <ele>119</ele>
        <time>2012-12-29T09:52:00Z</time>
      </trkpt>
      <trkpt lat="46.57054" lon="-0.71895">
        <ele>118.1</ele>
        <time>2012-12-29T09:52:02Z</time>
      </trkpt>
      <trkpt lat="46.57052" lon="-0.71889">
        <ele>117.9</ele>
        <time>2012-12-29T09:52:03Z</time>
      </trkpt>
      <trkpt lat="46.57049" lon="-0.71877">
        <ele>118.2</ele>
        <time>2012-12-29T09:52:05Z</time>
      </trkpt>
      <trkpt lat="46.57047" lon="-0.71871">
        <ele>118.2</ele>
        <time>2012-12-29T09:52:06Z</time>
      </trkpt>
      <trkpt lat="46.57044" lon="-0.7186">
        <ele>118.3</ele>
        <time>2012-12-29T09:52:08Z</time>
      </trkpt>
      <trkpt lat="46.57041" lon="-0.71847">
        <ele>118.3</ele>
        <time>2012-12-29T09:52:10Z</time>
      </trkpt>
      <trkpt lat="46.57038" lon="-0.71835">
        <ele>118.6</ele>
        <time>2012-12-29T09:52:12Z</time>
      </trkpt>
      <trkpt lat="46.57037" lon="-0.71829">
        <ele>118.7</ele>
        <time>2012-12-29T09:52:13Z</time>
      </trkpt>
      <trkpt lat="46.57034" lon="-0.71818">
        <ele>119</ele>
        <time>2012-12-29T09:52:15Z</time>
      </trkpt>
      <trkpt lat="46.57031" lon="-0.71806">
        <ele>119.2</ele>
        <time>2012-12-29T09:52:17Z</time>
      </trkpt>
      <trkpt lat="46.5703" lon="-0.71799">
        <ele>119.3</ele>
        <time>2012-12-29T09:52:18Z</time>
      </trkpt>
      <trkpt lat="46.57027" lon="-0.71788">
        <ele>119.3</ele>
        <time>2012-12-29T09:52:20Z</time>
      </trkpt>
      <trkpt lat="46.57025" lon="-0.71776">
        <ele>119.1</ele>
        <time>2012-12-29T09:52:22Z</time>
      </trkpt>
      <trkpt lat="46.57019" lon="-0.7175">
        <ele>120.5</ele>
        <time>2012-12-29T09:52:26Z</time>
      </trkpt>
      <trkpt lat="46.57014" lon="-0.71727">
        <ele>119.9</ele>
        <time>2012-12-29T09:52:30Z</time>
      </trkpt>
      <trkpt lat="46.57011" lon="-0.71718">
        <ele>119.5</ele>
        <time>2012-12-29T09:52:32Z</time>
      </trkpt>
      <trkpt lat="46.57007" lon="-0.71709">
        <ele>120.1</ele>
        <time>2012-12-29T09:52:34Z</time>
      </trkpt>
      <trkpt lat="46.57004" lon="-0.71699">
        <ele>120.4</ele>
        <time>2012-12-29T09:52:36Z</time>
      </trkpt>
      <trkpt lat="46.56998" lon="-0.71683">
        <ele>120.5</ele>
        <time>2012-12-29T09:52:39Z</time>
      </trkpt>
      <trkpt lat="46.5699" lon="-0.7166">
        <ele>119.8</ele>
        <time>2012-12-29T09:52:43Z</time>
      </trkpt>
      <trkpt lat="46.56988" lon="-0.71655">
        <ele>119.6</ele>
        <time>2012-12-29T09:52:44Z</time>
      </trkpt>
      <trkpt lat="46.56984" lon="-0.71643">
        <ele>119.7</ele>
        <time>2012-12-29T09:52:46Z</time>
      </trkpt>
      <trkpt lat="46.56979" lon="-0.71631">
        <ele>120</ele>
        <time>2012-12-29T09:52:48Z</time>
      </trkpt>
      <trkpt lat="46.56973" lon="-0.71614">
        <ele>120.3</ele>
        <time>2012-12-29T09:52:51Z</time>
      </trkpt>
      <trkpt lat="46.5697" lon="-0.71602">
        <ele>120.8</ele>
        <time>2012-12-29T09:52:53Z</time>
      </trkpt>
      <trkpt lat="46.56968" lon="-0.71591">
        <ele>121.6</ele>
        <time>2012-12-29T09:52:55Z</time>
      </trkpt>
      <trkpt lat="46.56964" lon="-0.71568">
        <ele>121.8</ele>
        <time>2012-12-29T09:52:59Z</time>
      </trkpt>
      <trkpt lat="46.56962" lon="-0.71545">
        <ele>122.2</ele>
        <time>2012-12-29T09:53:03Z</time>
      </trkpt>
      <trkpt lat="46.5696" lon="-0.71536">
        <ele>122.4</ele>
        <time>2012-12-29T09:53:05Z</time>
      </trkpt>
      <trkpt lat="46.5696" lon="-0.71526">
        <ele>122.4</ele>
        <time>2012-12-29T09:53:07Z</time>
      </trkpt>
      <trkpt lat="46.5696" lon="-0.71522">
        <ele>122.6</ele>
        <time>2012-12-29T09:53:08Z</time>
      </trkpt>
      <trkpt lat="46.56958" lon="-0.71513">
        <ele>122.7</ele>
        <time>2012-12-29T09:53:10Z</time>
      </trkpt>
      <trkpt lat="46.56955" lon="-0.71505">
        <ele>123</ele>
        <time>2012-12-29T09:53:12Z</time>
      </trkpt>
      <trkpt lat="46.56954" lon="-0.71498">
        <ele>123.2</ele>
        <time>2012-12-29T09:53:14Z</time>
      </trkpt>
      <trkpt lat="46.56953" lon="-0.7149">
        <ele>123.4</ele>
        <time>2012-12-29T09:53:16Z</time>
      </trkpt>
      <trkpt lat="46.56952" lon="-0.71476">
        <ele>123.7</ele>
        <time>2012-12-29T09:53:19Z</time>
      </trkpt>
      <trkpt lat="46.5695" lon="-0.71464">
        <ele>123.6</ele>
        <time>2012-12-29T09:53:22Z</time>
      </trkpt>
      <trkpt lat="46.56949" lon="-0.71456">
        <ele>123.6</ele>
        <time>2012-12-29T09:53:24Z</time>
      </trkpt>
      <trkpt lat="46.56946" lon="-0.71448">
        <ele>123.8</ele>
        <time>2012-12-29T09:53:26Z</time>
      </trkpt>
      <trkpt lat="46.56945" lon="-0.71444">
        <ele>123.9</ele>
        <time>2012-12-29T09:53:27Z</time>
      </trkpt>
      <trkpt lat="46.56942" lon="-0.71434">
        <ele>124</ele>
        <time>2012-12-29T09:53:29Z</time>
      </trkpt>
      <trkpt lat="46.56941" lon="-0.71428">
        <ele>124.2</ele>
        <time>2012-12-29T09:53:30Z</time>
      </trkpt>
      <trkpt lat="46.56938" lon="-0.71419">
        <ele>124.5</ele>
        <time>2012-12-29T09:53:32Z</time>
      </trkpt>
      <trkpt lat="46.56936" lon="-0.71409">
        <ele>124.4</ele>
        <time>2012-12-29T09:53:34Z</time>
      </trkpt>
      <trkpt lat="46.56933" lon="-0.71399">
        <ele>124.1</ele>
        <time>2012-12-29T09:53:36Z</time>
      </trkpt>
      <trkpt lat="46.56929" lon="-0.71385">
        <ele>124.7</ele>
        <time>2012-12-29T09:53:39Z</time>
      </trkpt>
      <trkpt lat="46.56926" lon="-0.71374">
        <ele>124</ele>
        <time>2012-12-29T09:53:41Z</time>
      </trkpt>
      <trkpt lat="46.56924" lon="-0.71369">
        <ele>123.8</ele>
        <time>2012-12-29T09:53:42Z</time>
      </trkpt>
      <trkpt lat="46.56922" lon="-0.71358">
        <ele>124.1</ele>
        <time>2012-12-29T09:53:44Z</time>
      </trkpt>
      <trkpt lat="46.5692" lon="-0.71352">
        <ele>124.1</ele>
        <time>2012-12-29T09:53:45Z</time>
      </trkpt>
      <trkpt lat="46.56917" lon="-0.71341">
        <ele>124.4</ele>
        <time>2012-12-29T09:53:47Z</time>
      </trkpt>
      <trkpt lat="46.56914" lon="-0.7133">
        <ele>124.7</ele>
        <time>2012-12-29T09:53:49Z</time>
      </trkpt>
      <trkpt lat="46.56912" lon="-0.71325">
        <ele>124.8</ele>
        <time>2012-12-29T09:53:50Z</time>
      </trkpt>
      <trkpt lat="46.5691" lon="-0.71314">
        <ele>124.9</ele>
        <time>2012-12-29T09:53:52Z</time>
      </trkpt>
      <trkpt lat="46.56906" lon="-0.71296">
        <ele>126.1</ele>
        <time>2012-12-29T09:53:55Z</time>
      </trkpt>
      <trkpt lat="46.56902" lon="-0.71278">
        <ele>126.9</ele>
        <time>2012-12-29T09:53:58Z</time>
      </trkpt>
      <trkpt lat="46.56897" lon="-0.71253">
        <ele>126.6</ele>
        <time>2012-12-29T09:54:02Z</time>
      </trkpt>
      <trkpt lat="46.56893" lon="-0.71242">
        <ele>126.3</ele>
        <time>2012-12-29T09:54:04Z</time>
      </trkpt>
      <trkpt lat="46.56892" lon="-0.71237">
        <ele>126.1</ele>
        <time>2012-12-29T09:54:05Z</time>
      </trkpt>
      <trkpt lat="46.56886" lon="-0.71214">
        <ele>125.8</ele>
        <time>2012-12-29T09:54:09Z</time>
      </trkpt>
      <trkpt lat="46.56884" lon="-0.71208">
        <ele>125.9</ele>
        <time>2012-12-29T09:54:10Z</time>
      </trkpt>
      <trkpt lat="46.56881" lon="-0.71197">
        <ele>126.4</ele>
        <time>2012-12-29T09:54:12Z</time>
      </trkpt>
      <trkpt lat="46.56879" lon="-0.71191">
        <ele>126.7</ele>
        <time>2012-12-29T09:54:13Z</time>
      </trkpt>
      <trkpt lat="46.56877" lon="-0.71179">
        <ele>126.6</ele>
        <time>2012-12-29T09:54:15Z</time>
      </trkpt>
      <trkpt lat="46.56875" lon="-0.71167">
        <ele>126.2</ele>
        <time>2012-12-29T09:54:17Z</time>
      </trkpt>
      <trkpt lat="46.56873" lon="-0.71154">
        <ele>126.3</ele>
        <time>2012-12-29T09:54:19Z</time>
      </trkpt>
      <trkpt lat="46.5687" lon="-0.7113">
        <ele>126.1</ele>
        <time>2012-12-29T09:54:23Z</time>
      </trkpt>
      <trkpt lat="46.56869" lon="-0.71118">
        <ele>126.2</ele>
        <time>2012-12-29T09:54:25Z</time>
      </trkpt>
      <trkpt lat="46.56864" lon="-0.711">
        <ele>126.3</ele>
        <time>2012-12-29T09:54:28Z</time>
      </trkpt>
      <trkpt lat="46.56858" lon="-0.71075">
        <ele>126.6</ele>
        <time>2012-12-29T09:54:32Z</time>
      </trkpt>
      <trkpt lat="46.56852" lon="-0.71049">
        <ele>126.2</ele>
        <time>2012-12-29T09:54:36Z</time>
      </trkpt>
      <trkpt lat="46.5685" lon="-0.71043">
        <ele>126.3</ele>
        <time>2012-12-29T09:54:37Z</time>
      </trkpt>
      <trkpt lat="46.56842" lon="-0.7102">
        <ele>126.5</ele>
        <time>2012-12-29T09:54:41Z</time>
      </trkpt>
      <trkpt lat="46.56839" lon="-0.71008">
        <ele>126.5</ele>
        <time>2012-12-29T09:54:43Z</time>
      </trkpt>
      <trkpt lat="46.56836" lon="-0.70996">
        <ele>127.1</ele>
        <time>2012-12-29T09:54:45Z</time>
      </trkpt>
      <trkpt lat="46.56834" lon="-0.70982">
        <ele>126.8</ele>
        <time>2012-12-29T09:54:47Z</time>
      </trkpt>
      <trkpt lat="46.56831" lon="-0.70955">
        <ele>125.8</ele>
        <time>2012-12-29T09:54:51Z</time>
      </trkpt>
      <trkpt lat="46.56831" lon="-0.70934">
        <ele>126.1</ele>
        <time>2012-12-29T09:54:54Z</time>
      </trkpt>
      <trkpt lat="46.56832" lon="-0.70922">
        <ele>126.4</ele>
        <time>2012-12-29T09:54:56Z</time>
      </trkpt>
      <trkpt lat="46.56832" lon="-0.7091">
        <ele>125.9</ele>
        <time>2012-12-29T09:54:58Z</time>
      </trkpt>
      <trkpt lat="46.56832" lon="-0.70896">
        <ele>126.3</ele>
        <time>2012-12-29T09:55:00Z</time>
      </trkpt>
      <trkpt lat="46.56832" lon="-0.70884">
        <ele>127</ele>
        <time>2012-12-29T09:55:02Z</time>
      </trkpt>
      <trkpt lat="46.56831" lon="-0.70865">
        <ele>127.7</ele>
        <time>2012-12-29T09:55:05Z</time>
      </trkpt>
      <trkpt lat="46.56831" lon="-0.70851">
        <ele>127</ele>
        <time>2012-12-29T09:55:07Z</time>
      </trkpt>
      <trkpt lat="46.5683" lon="-0.70838">
        <ele>126.9</ele>
        <time>2012-12-29T09:55:09Z</time>
      </trkpt>
      <trkpt lat="46.56827" lon="-0.70813">
        <ele>126.9</ele>
        <time>2012-12-29T09:55:13Z</time>
      </trkpt>
      <trkpt lat="46.56825" lon="-0.70799">
        <ele>126.5</ele>
        <time>2012-12-29T09:55:15Z</time>
      </trkpt>
      <trkpt lat="46.56824" lon="-0.70792">
        <ele>126.6</ele>
        <time>2012-12-29T09:55:16Z</time>
      </trkpt>
      <trkpt lat="46.56824" lon="-0.70777">
        <ele>126.7</ele>
        <time>2012-12-29T09:55:18Z</time>
      </trkpt>
      <trkpt lat="46.56823" lon="-0.70771">
        <ele>126.5</ele>
        <time>2012-12-29T09:55:19Z</time>
      </trkpt>
      <trkpt lat="46.56823" lon="-0.70756">
        <ele>126.2</ele>
        <time>2012-12-29T09:55:21Z</time>
      </trkpt>
      <trkpt lat="46.56823" lon="-0.70749">
        <ele>126.2</ele>
        <time>2012-12-29T09:55:22Z</time>
      </trkpt>
      <trkpt lat="46.56823" lon="-0.70734">
        <ele>126.2</ele>
        <time>2012-12-29T09:55:24Z</time>
      </trkpt>
      <trkpt lat="46.56823" lon="-0.70726">
        <ele>125.6</ele>
        <time>2012-12-29T09:55:25Z</time>
      </trkpt>
      <trkpt lat="46.56821" lon="-0.7071">
        <ele>125</ele>
        <time>2012-12-29T09:55:27Z</time>
      </trkpt>
      <trkpt lat="46.5682" lon="-0.70702">
        <ele>124.7</ele>
        <time>2012-12-29T09:55:28Z</time>
      </trkpt>
      <trkpt lat="46.56817" lon="-0.70686">
        <ele>125</ele>
        <time>2012-12-29T09:55:30Z</time>
      </trkpt>
      <trkpt lat="46.56816" lon="-0.70678">
        <ele>125</ele>
        <time>2012-12-29T09:55:31Z</time>
      </trkpt>
      <trkpt lat="46.56815" lon="-0.7067">
        <ele>125.1</ele>
        <time>2012-12-29T09:55:32Z</time>
      </trkpt>
      <trkpt lat="46.56812" lon="-0.70646">
        <ele>124.8</ele>
        <time>2012-12-29T09:55:35Z</time>
      </trkpt>
      <trkpt lat="46.5681" lon="-0.7063">
        <ele>124.4</ele>
        <time>2012-12-29T09:55:37Z</time>
      </trkpt>
      <trkpt lat="46.5681" lon="-0.70598">
        <ele>125.1</ele>
        <time>2012-12-29T09:55:41Z</time>
      </trkpt>
      <trkpt lat="46.56811" lon="-0.70576">
        <ele>125.7</ele>
        <time>2012-12-29T09:55:44Z</time>
      </trkpt>
      <trkpt lat="46.5681" lon="-0.70561">
        <ele>126.1</ele>
        <time>2012-12-29T09:55:46Z</time>
      </trkpt>
      <trkpt lat="46.5681" lon="-0.70554">
        <ele>126.3</ele>
        <time>2012-12-29T09:55:47Z</time>
      </trkpt>
      <trkpt lat="46.5681" lon="-0.70546">
        <ele>126.1</ele>
        <time>2012-12-29T09:55:48Z</time>
      </trkpt>
      <trkpt lat="46.5681" lon="-0.70539">
        <ele>126</ele>
        <time>2012-12-29T09:55:49Z</time>
      </trkpt>
      <trkpt lat="46.56811" lon="-0.70533">
        <ele>125.9</ele>
        <time>2012-12-29T09:55:50Z</time>
      </trkpt>
      <trkpt lat="46.56811" lon="-0.70507">
        <ele>125.6</ele>
        <time>2012-12-29T09:55:54Z</time>
      </trkpt>
      <trkpt lat="46.56811" lon="-0.70497">
        <ele>126</ele>
        <time>2012-12-29T09:55:56Z</time>
      </trkpt>
      <trkpt lat="46.5681" lon="-0.70487">
        <ele>126.1</ele>
        <time>2012-12-29T09:55:59Z</time>
      </trkpt>
      <trkpt lat="46.56811" lon="-0.70475">
        <ele>127.3</ele>
        <time>2012-12-29T09:56:09Z</time>
      </trkpt>
      <trkpt lat="46.56812" lon="-0.70469">
        <ele>125.8</ele>
        <time>2012-12-29T09:56:51Z</time>
      </trkpt>
      <trkpt lat="46.56815" lon="-0.7046">
        <ele>125.4</ele>
        <time>2012-12-29T09:57:35Z</time>
      </trkpt>
      <trkpt lat="46.56813" lon="-0.70449">
        <ele>126.7</ele>
        <time>2012-12-29T09:57:38Z</time>
      </trkpt>
      <trkpt lat="46.56813" lon="-0.7044">
        <ele>127.2</ele>
        <time>2012-12-29T09:57:40Z</time>
      </trkpt>
      <trkpt lat="46.56812" lon="-0.70431">
        <ele>127.4</ele>
        <time>2012-12-29T09:57:42Z</time>
      </trkpt>
      <trkpt lat="46.56811" lon="-0.70422">
        <ele>127</ele>
        <time>2012-12-29T09:57:44Z</time>
      </trkpt>
      <trkpt lat="46.56811" lon="-0.70413">
        <ele>127.2</ele>
        <time>2012-12-29T09:57:46Z</time>
      </trkpt>
      <trkpt lat="46.56812" lon="-0.70409">
        <ele>127.4</ele>
        <time>2012-12-29T09:57:47Z</time>
      </trkpt>
      <trkpt lat="46.56812" lon="-0.70395">
        <ele>127.1</ele>
        <time>2012-12-29T09:57:50Z</time>
      </trkpt>
      <trkpt lat="46.56813" lon="-0.70388">
        <ele>126.9</ele>
        <time>2012-12-29T09:57:52Z</time>
      </trkpt>
      <trkpt lat="46.56816" lon="-0.70369">
        <ele>126.2</ele>
        <time>2012-12-29T09:58:04Z</time>
      </trkpt>
      <trkpt lat="46.56839" lon="-0.70332">
        <ele>126.2</ele>
        <time>2012-12-29T09:58:05Z</time>
      </trkpt>
      <trkpt lat="46.56834" lon="-0.70355">
        <ele>126.1</ele>
        <time>2012-12-29T09:58:06Z</time>
      </trkpt>
      <trkpt lat="46.56831" lon="-0.7036">
        <ele>126.1</ele>
        <time>2012-12-29T09:58:07Z</time>
      </trkpt>
      <trkpt lat="46.56825" lon="-0.70369">
        <ele>126.1</ele>
        <time>2012-12-29T09:58:08Z</time>
      </trkpt>
      <trkpt lat="46.56825" lon="-0.70381">
        <ele>126</ele>
        <time>2012-12-29T09:58:21Z</time>
      </trkpt>
      <trkpt lat="46.56824" lon="-0.70369">
        <ele>126</ele>
        <time>2012-12-29T09:58:34Z</time>
      </trkpt>
      <trkpt lat="46.56824" lon="-0.70353">
        <ele>126.1</ele>
        <time>2012-12-29T09:58:38Z</time>
      </trkpt>
      <trkpt lat="46.56826" lon="-0.70345">
        <ele>126.2</ele>
        <time>2012-12-29T09:58:40Z</time>
      </trkpt>
      <trkpt lat="46.56827" lon="-0.70335">
        <ele>126.2</ele>
        <time>2012-12-29T09:58:42Z</time>
      </trkpt>
      <trkpt lat="46.56828" lon="-0.7033">
        <ele>126.2</ele>
        <time>2012-12-29T09:58:43Z</time>
      </trkpt>
      <trkpt lat="46.56827" lon="-0.70316">
        <ele>126.1</ele>
        <time>2012-12-29T09:58:46Z</time>
      </trkpt>
      <trkpt lat="46.56826" lon="-0.70306">
        <ele>126.1</ele>
        <time>2012-12-29T09:58:48Z</time>
      </trkpt>
      <trkpt lat="46.56823" lon="-0.70286">
        <ele>127.4</ele>
        <time>2012-12-29T09:58:52Z</time>
      </trkpt>
      <trkpt lat="46.56821" lon="-0.70275">
        <ele>127.3</ele>
        <time>2012-12-29T09:58:54Z</time>
      </trkpt>
      <trkpt lat="46.56819" lon="-0.70266">
        <ele>127.2</ele>
        <time>2012-12-29T09:58:56Z</time>
      </trkpt>
      <trkpt lat="46.56815" lon="-0.70244">
        <ele>127.7</ele>
        <time>2012-12-29T09:59:00Z</time>
      </trkpt>
      <trkpt lat="46.56812" lon="-0.70233">
        <ele>128</ele>
        <time>2012-12-29T09:59:02Z</time>
      </trkpt>
      <trkpt lat="46.56811" lon="-0.70223">
        <ele>128</ele>
        <time>2012-12-29T09:59:04Z</time>
      </trkpt>
      <trkpt lat="46.5681" lon="-0.70218">
        <ele>128.1</ele>
        <time>2012-12-29T09:59:05Z</time>
      </trkpt>
      <trkpt lat="46.56805" lon="-0.702">
        <ele>127.6</ele>
        <time>2012-12-29T09:59:09Z</time>
      </trkpt>
      <trkpt lat="46.56802" lon="-0.70189">
        <ele>127.7</ele>
        <time>2012-12-29T09:59:11Z</time>
      </trkpt>
      <trkpt lat="46.568" lon="-0.70184">
        <ele>127.7</ele>
        <time>2012-12-29T09:59:12Z</time>
      </trkpt>
      <trkpt lat="46.56794" lon="-0.70163">
        <ele>128</ele>
        <time>2012-12-29T09:59:16Z</time>
      </trkpt>
      <trkpt lat="46.56788" lon="-0.70142">
        <ele>128</ele>
        <time>2012-12-29T09:59:20Z</time>
      </trkpt>
      <trkpt lat="46.56784" lon="-0.70131">
        <ele>128.3</ele>
        <time>2012-12-29T09:59:22Z</time>
      </trkpt>
      <trkpt lat="46.56781" lon="-0.70121">
        <ele>128.5</ele>
        <time>2012-12-29T09:59:24Z</time>
      </trkpt>
      <trkpt lat="46.56778" lon="-0.7011">
        <ele>128.5</ele>
        <time>2012-12-29T09:59:26Z</time>
      </trkpt>
      <trkpt lat="46.56774" lon="-0.701">
        <ele>128.3</ele>
        <time>2012-12-29T09:59:28Z</time>
      </trkpt>
      <trkpt lat="46.5677" lon="-0.7009">
        <ele>128</ele>
        <time>2012-12-29T09:59:30Z</time>
      </trkpt>
      <trkpt lat="46.56761" lon="-0.70068">
        <ele>127.5</ele>
        <time>2012-12-29T09:59:34Z</time>
      </trkpt>
      <trkpt lat="46.56756" lon="-0.7005">
        <ele>126.9</ele>
        <time>2012-12-29T09:59:37Z</time>
      </trkpt>
      <trkpt lat="46.56752" lon="-0.7004">
        <ele>127</ele>
        <time>2012-12-29T09:59:39Z</time>
      </trkpt>
      <trkpt lat="46.56751" lon="-0.70035">
        <ele>127</ele>
        <time>2012-12-29T09:59:40Z</time>
      </trkpt>
      <trkpt lat="46.56747" lon="-0.70023">
        <ele>127.2</ele>
        <time>2012-12-29T09:59:42Z</time>
      </trkpt>
      <trkpt lat="46.56746" lon="-0.70016">
        <ele>127.3</ele>
        <time>2012-12-29T09:59:43Z</time>
      </trkpt>
      <trkpt lat="46.56742" lon="-0.70005">
        <ele>126.8</ele>
        <time>2012-12-29T09:59:45Z</time>
      </trkpt>
      <trkpt lat="46.56739" lon="-0.69995">
        <ele>126.8</ele>
        <time>2012-12-29T09:59:47Z</time>
      </trkpt>
      <trkpt lat="46.56736" lon="-0.69983">
        <ele>127.1</ele>
        <time>2012-12-29T09:59:49Z</time>
      </trkpt>
      <trkpt lat="46.56733" lon="-0.69971">
        <ele>127.3</ele>
        <time>2012-12-29T09:59:51Z</time>
      </trkpt>
      <trkpt lat="46.5673" lon="-0.69959">
        <ele>127.5</ele>
        <time>2012-12-29T09:59:53Z</time>
      </trkpt>
      <trkpt lat="46.56725" lon="-0.69935">
        <ele>128</ele>
        <time>2012-12-29T09:59:57Z</time>
      </trkpt>
      <trkpt lat="46.56724" lon="-0.69929">
        <ele>128.2</ele>
        <time>2012-12-29T09:59:58Z</time>
      </trkpt>
      <trkpt lat="46.5672" lon="-0.69917">
        <ele>128.2</ele>
        <time>2012-12-29T10:00:00Z</time>
      </trkpt>
      <trkpt lat="46.56718" lon="-0.69906">
        <ele>127.9</ele>
        <time>2012-12-29T10:00:02Z</time>
      </trkpt>
      <trkpt lat="46.56715" lon="-0.69894">
        <ele>128.4</ele>
        <time>2012-12-29T10:00:04Z</time>
      </trkpt>
      <trkpt lat="46.56713" lon="-0.69888">
        <ele>128.6</ele>
        <time>2012-12-29T10:00:05Z</time>
      </trkpt>
      <trkpt lat="46.5671" lon="-0.69875">
        <ele>128</ele>
        <time>2012-12-29T10:00:07Z</time>
      </trkpt>
      <trkpt lat="46.56705" lon="-0.69851">
        <ele>128.1</ele>
        <time>2012-12-29T10:00:11Z</time>
      </trkpt>
      <trkpt lat="46.56704" lon="-0.69845">
        <ele>128.2</ele>
        <time>2012-12-29T10:00:12Z</time>
      </trkpt>
      <trkpt lat="46.56701" lon="-0.69833">
        <ele>128</ele>
        <time>2012-12-29T10:00:14Z</time>
      </trkpt>
      <trkpt lat="46.56698" lon="-0.69821">
        <ele>127.9</ele>
        <time>2012-12-29T10:00:16Z</time>
      </trkpt>
      <trkpt lat="46.56694" lon="-0.69795">
        <ele>128.5</ele>
        <time>2012-12-29T10:00:20Z</time>
      </trkpt>
      <trkpt lat="46.56691" lon="-0.69775">
        <ele>128.7</ele>
        <time>2012-12-29T10:00:23Z</time>
      </trkpt>
      <trkpt lat="46.56688" lon="-0.69762">
        <ele>128.6</ele>
        <time>2012-12-29T10:00:25Z</time>
      </trkpt>
      <trkpt lat="46.56685" lon="-0.69736">
        <ele>128.6</ele>
        <time>2012-12-29T10:00:29Z</time>
      </trkpt>
      <trkpt lat="46.56683" lon="-0.6973">
        <ele>128.7</ele>
        <time>2012-12-29T10:00:30Z</time>
      </trkpt>
      <trkpt lat="46.56682" lon="-0.69717">
        <ele>128.5</ele>
        <time>2012-12-29T10:00:32Z</time>
      </trkpt>
      <trkpt lat="46.56681" lon="-0.69711">
        <ele>128.3</ele>
        <time>2012-12-29T10:00:33Z</time>
      </trkpt>
      <trkpt lat="46.56678" lon="-0.69699">
        <ele>128.1</ele>
        <time>2012-12-29T10:00:35Z</time>
      </trkpt>
      <trkpt lat="46.56677" lon="-0.69693">
        <ele>128.1</ele>
        <time>2012-12-29T10:00:36Z</time>
      </trkpt>
      <trkpt lat="46.56673" lon="-0.69669">
        <ele>128.6</ele>
        <time>2012-12-29T10:00:40Z</time>
      </trkpt>
      <trkpt lat="46.56672" lon="-0.69664">
        <ele>128.7</ele>
        <time>2012-12-29T10:00:41Z</time>
      </trkpt>
      <trkpt lat="46.5667" lon="-0.69651">
        <ele>129</ele>
        <time>2012-12-29T10:00:43Z</time>
      </trkpt>
      <trkpt lat="46.56668" lon="-0.69639">
        <ele>129.6</ele>
        <time>2012-12-29T10:00:45Z</time>
      </trkpt>
      <trkpt lat="46.56667" lon="-0.69626">
        <ele>129.9</ele>
        <time>2012-12-29T10:00:47Z</time>
      </trkpt>
      <trkpt lat="46.56667" lon="-0.69619">
        <ele>129.7</ele>
        <time>2012-12-29T10:00:48Z</time>
      </trkpt>
      <trkpt lat="46.56666" lon="-0.69593">
        <ele>129.6</ele>
        <time>2012-12-29T10:00:52Z</time>
      </trkpt>
      <trkpt lat="46.56666" lon="-0.69586">
        <ele>129.7</ele>
        <time>2012-12-29T10:00:53Z</time>
      </trkpt>
      <trkpt lat="46.56666" lon="-0.6956">
        <ele>130.1</ele>
        <time>2012-12-29T10:00:57Z</time>
      </trkpt>
      <trkpt lat="46.56667" lon="-0.69547">
        <ele>129.9</ele>
        <time>2012-12-29T10:00:59Z</time>
      </trkpt>
      <trkpt lat="46.56667" lon="-0.69533">
        <ele>130.1</ele>
        <time>2012-12-29T10:01:01Z</time>
      </trkpt>
      <trkpt lat="46.56667" lon="-0.69521">
        <ele>130.3</ele>
        <time>2012-12-29T10:01:03Z</time>
      </trkpt>
      <trkpt lat="46.56667" lon="-0.69514">
        <ele>130.3</ele>
        <time>2012-12-29T10:01:04Z</time>
      </trkpt>
      <trkpt lat="46.56667" lon="-0.69501">
        <ele>130.4</ele>
        <time>2012-12-29T10:01:06Z</time>
      </trkpt>
      <trkpt lat="46.56668" lon="-0.69489">
        <ele>130.9</ele>
        <time>2012-12-29T10:01:08Z</time>
      </trkpt>
      <trkpt lat="46.56668" lon="-0.69476">
        <ele>131.1</ele>
        <time>2012-12-29T10:01:10Z</time>
      </trkpt>
      <trkpt lat="46.56667" lon="-0.69451">
        <ele>131.4</ele>
        <time>2012-12-29T10:01:14Z</time>
      </trkpt>
      <trkpt lat="46.56667" lon="-0.69445">
        <ele>131.5</ele>
        <time>2012-12-29T10:01:15Z</time>
      </trkpt>
      <trkpt lat="46.56666" lon="-0.69432">
        <ele>131.7</ele>
        <time>2012-12-29T10:01:17Z</time>
      </trkpt>
      <trkpt lat="46.56665" lon="-0.69419">
        <ele>131.8</ele>
        <time>2012-12-29T10:01:19Z</time>
      </trkpt>
      <trkpt lat="46.56665" lon="-0.69412">
        <ele>131.7</ele>
        <time>2012-12-29T10:01:20Z</time>
      </trkpt>
      <trkpt lat="46.56664" lon="-0.69399">
        <ele>131.7</ele>
        <time>2012-12-29T10:01:22Z</time>
      </trkpt>
      <trkpt lat="46.56662" lon="-0.69373">
        <ele>131.9</ele>
        <time>2012-12-29T10:01:26Z</time>
      </trkpt>
      <trkpt lat="46.56661" lon="-0.69366">
        <ele>131.9</ele>
        <time>2012-12-29T10:01:27Z</time>
      </trkpt>
      <trkpt lat="46.5666" lon="-0.6936">
        <ele>131.9</ele>
        <time>2012-12-29T10:01:28Z</time>
      </trkpt>
      <trkpt lat="46.56656" lon="-0.69334">
        <ele>132.5</ele>
        <time>2012-12-29T10:01:32Z</time>
      </trkpt>
      <trkpt lat="46.56654" lon="-0.69321">
        <ele>132.1</ele>
        <time>2012-12-29T10:01:34Z</time>
      </trkpt>
      <trkpt lat="46.56653" lon="-0.69315">
        <ele>132</ele>
        <time>2012-12-29T10:01:35Z</time>
      </trkpt>
      <trkpt lat="46.5665" lon="-0.69302">
        <ele>131.3</ele>
        <time>2012-12-29T10:01:37Z</time>
      </trkpt>
      <trkpt lat="46.5665" lon="-0.69295">
        <ele>131.1</ele>
        <time>2012-12-29T10:01:38Z</time>
      </trkpt>
      <trkpt lat="46.56648" lon="-0.69288">
        <ele>131.3</ele>
        <time>2012-12-29T10:01:39Z</time>
      </trkpt>
      <trkpt lat="46.56647" lon="-0.69282">
        <ele>131.5</ele>
        <time>2012-12-29T10:01:40Z</time>
      </trkpt>
      <trkpt lat="46.56646" lon="-0.69275">
        <ele>131.7</ele>
        <time>2012-12-29T10:01:41Z</time>
      </trkpt>
      <trkpt lat="46.56645" lon="-0.69268">
        <ele>131.3</ele>
        <time>2012-12-29T10:01:42Z</time>
      </trkpt>
      <trkpt lat="46.56641" lon="-0.69249">
        <ele>131.2</ele>
        <time>2012-12-29T10:01:45Z</time>
      </trkpt>
      <trkpt lat="46.56638" lon="-0.6923">
        <ele>131.7</ele>
        <time>2012-12-29T10:01:49Z</time>
      </trkpt>
      <trkpt lat="46.56637" lon="-0.69222">
        <ele>131.5</ele>
        <time>2012-12-29T10:01:51Z</time>
      </trkpt>
      <trkpt lat="46.56635" lon="-0.69217">
        <ele>131.1</ele>
        <time>2012-12-29T10:01:53Z</time>
      </trkpt>
      <trkpt lat="46.5662" lon="-0.69215">
        <ele>131.1</ele>
        <time>2012-12-29T10:02:04Z</time>
      </trkpt>
      <trkpt lat="46.56614" lon="-0.69215">
        <ele>131.3</ele>
        <time>2012-12-29T10:02:06Z</time>
      </trkpt>
      <trkpt lat="46.5661" lon="-0.69214">
        <ele>131.2</ele>
        <time>2012-12-29T10:02:08Z</time>
      </trkpt>
      <trkpt lat="46.56604" lon="-0.69215">
        <ele>131.2</ele>
        <time>2012-12-29T10:02:10Z</time>
      </trkpt>
      <trkpt lat="46.56599" lon="-0.69215">
        <ele>131.4</ele>
        <time>2012-12-29T10:02:12Z</time>
      </trkpt>
      <trkpt lat="46.56585" lon="-0.69215">
        <ele>130.7</ele>
        <time>2012-12-29T10:02:16Z</time>
      </trkpt>
      <trkpt lat="46.56578" lon="-0.69215">
        <ele>130.9</ele>
        <time>2012-12-29T10:02:18Z</time>
      </trkpt>
      <trkpt lat="46.56574" lon="-0.69215">
        <ele>130.9</ele>
        <time>2012-12-29T10:02:19Z</time>
      </trkpt>
      <trkpt lat="46.56566" lon="-0.69215">
        <ele>131.7</ele>
        <time>2012-12-29T10:02:21Z</time>
      </trkpt>
      <trkpt lat="46.56562" lon="-0.69215">
        <ele>131.9</ele>
        <time>2012-12-29T10:02:22Z</time>
      </trkpt>
      <trkpt lat="46.5654" lon="-0.69217">
        <ele>129.6</ele>
        <time>2012-12-29T10:02:26Z</time>
      </trkpt>
      <trkpt lat="46.56528" lon="-0.6922">
        <ele>129.5</ele>
        <time>2012-12-29T10:02:28Z</time>
      </trkpt>
      <trkpt lat="46.56522" lon="-0.6922">
        <ele>129.5</ele>
        <time>2012-12-29T10:02:29Z</time>
      </trkpt>
      <trkpt lat="46.56509" lon="-0.69221">
        <ele>129</ele>
        <time>2012-12-29T10:02:31Z</time>
      </trkpt>
      <trkpt lat="46.56502" lon="-0.69222">
        <ele>128.8</ele>
        <time>2012-12-29T10:02:32Z</time>
      </trkpt>
      <trkpt lat="46.5648" lon="-0.69223">
        <ele>126.7</ele>
        <time>2012-12-29T10:02:35Z</time>
      </trkpt>
      <trkpt lat="46.56465" lon="-0.69225">
        <ele>126.1</ele>
        <time>2012-12-29T10:02:37Z</time>
      </trkpt>
      <trkpt lat="46.56439" lon="-0.69228">
        <ele>123.9</ele>
        <time>2012-12-29T10:02:41Z</time>
      </trkpt>
      <trkpt lat="46.56434" lon="-0.6923">
        <ele>123.6</ele>
        <time>2012-12-29T10:02:42Z</time>
      </trkpt>
      <trkpt lat="46.5643" lon="-0.69235">
        <ele>122.1</ele>
        <time>2012-12-29T10:02:44Z</time>
      </trkpt>
      <trkpt lat="46.56428" lon="-0.69242">
        <ele>121.6</ele>
        <time>2012-12-29T10:02:46Z</time>
      </trkpt>
      <trkpt lat="46.56427" lon="-0.69249">
        <ele>121.7</ele>
        <time>2012-12-29T10:02:48Z</time>
      </trkpt>
      <trkpt lat="46.56426" lon="-0.69253">
        <ele>121.5</ele>
        <time>2012-12-29T10:02:49Z</time>
      </trkpt>
      <trkpt lat="46.56426" lon="-0.6926">
        <ele>121.2</ele>
        <time>2012-12-29T10:02:51Z</time>
      </trkpt>
      <trkpt lat="46.56425" lon="-0.69276">
        <ele>122.1</ele>
        <time>2012-12-29T10:02:55Z</time>
      </trkpt>
      <trkpt lat="46.56424" lon="-0.69281">
        <ele>122.2</ele>
        <time>2012-12-29T10:02:56Z</time>
      </trkpt>
      <trkpt lat="46.56424" lon="-0.6929">
        <ele>122</ele>
        <time>2012-12-29T10:02:58Z</time>
      </trkpt>
      <trkpt lat="46.56424" lon="-0.69295">
        <ele>121.6</ele>
        <time>2012-12-29T10:02:59Z</time>
      </trkpt>
      <trkpt lat="46.56424" lon="-0.69308">
        <ele>121.2</ele>
        <time>2012-12-29T10:03:02Z</time>
      </trkpt>
      <trkpt lat="46.56424" lon="-0.69316">
        <ele>121.2</ele>
        <time>2012-12-29T10:03:04Z</time>
      </trkpt>
      <trkpt lat="46.56425" lon="-0.69333">
        <ele>122.2</ele>
        <time>2012-12-29T10:03:08Z</time>
      </trkpt>
      <trkpt lat="46.56424" lon="-0.69338">
        <ele>122.3</ele>
        <time>2012-12-29T10:03:09Z</time>
      </trkpt>
      <trkpt lat="46.56424" lon="-0.69347">
        <ele>122.7</ele>
        <time>2012-12-29T10:03:11Z</time>
      </trkpt>
      <trkpt lat="46.56424" lon="-0.69356">
        <ele>123.1</ele>
        <time>2012-12-29T10:03:13Z</time>
      </trkpt>
      <trkpt lat="46.56422" lon="-0.69365">
        <ele>123.4</ele>
        <time>2012-12-29T10:03:15Z</time>
      </trkpt>
      <trkpt lat="46.56417" lon="-0.69373">
        <ele>123.6</ele>
        <time>2012-12-29T10:03:17Z</time>
      </trkpt>
      <trkpt lat="46.56409" lon="-0.69382">
        <ele>122.7</ele>
        <time>2012-12-29T10:03:20Z</time>
      </trkpt>
      <trkpt lat="46.56406" lon="-0.69388">
        <ele>123.1</ele>
        <time>2012-12-29T10:03:22Z</time>
      </trkpt>
      <trkpt lat="46.564" lon="-0.69396">
        <ele>123.3</ele>
        <time>2012-12-29T10:03:25Z</time>
      </trkpt>
      <trkpt lat="46.56398" lon="-0.69412">
        <ele>124.1</ele>
        <time>2012-12-29T10:03:29Z</time>
      </trkpt>
      <trkpt lat="46.56397" lon="-0.69417">
        <ele>123.9</ele>
        <time>2012-12-29T10:03:30Z</time>
      </trkpt>
      <trkpt lat="46.56396" lon="-0.69427">
        <ele>123.6</ele>
        <time>2012-12-29T10:03:32Z</time>
      </trkpt>
      <trkpt lat="46.56395" lon="-0.69436">
        <ele>123.4</ele>
        <time>2012-12-29T10:03:34Z</time>
      </trkpt>
      <trkpt lat="46.56393" lon="-0.69445">
        <ele>123.3</ele>
        <time>2012-12-29T10:03:37Z</time>
      </trkpt>
      <trkpt lat="46.56391" lon="-0.69451">
        <ele>123.2</ele>
        <time>2012-12-29T10:03:39Z</time>
      </trkpt>
      <trkpt lat="46.56388" lon="-0.6946">
        <ele>123.7</ele>
        <time>2012-12-29T10:03:41Z</time>
      </trkpt>
      <trkpt lat="46.56387" lon="-0.69466">
        <ele>123.8</ele>
        <time>2012-12-29T10:03:42Z</time>
      </trkpt>
      <trkpt lat="46.56385" lon="-0.69479">
        <ele>123.3</ele>
        <time>2012-12-29T10:03:45Z</time>
      </trkpt>
      <trkpt lat="46.56382" lon="-0.69489">
        <ele>123.2</ele>
        <time>2012-12-29T10:03:47Z</time>
      </trkpt>
      <trkpt lat="46.56379" lon="-0.695">
        <ele>123.1</ele>
        <time>2012-12-29T10:03:49Z</time>
      </trkpt>
      <trkpt lat="46.56376" lon="-0.69512">
        <ele>122.6</ele>
        <time>2012-12-29T10:03:51Z</time>
      </trkpt>
      <trkpt lat="46.56374" lon="-0.69518">
        <ele>122.5</ele>
        <time>2012-12-29T10:03:52Z</time>
      </trkpt>
      <trkpt lat="46.56371" lon="-0.69532">
        <ele>123</ele>
        <time>2012-12-29T10:03:54Z</time>
      </trkpt>
      <trkpt lat="46.56368" lon="-0.69543">
        <ele>123.1</ele>
        <time>2012-12-29T10:03:56Z</time>
      </trkpt>
      <trkpt lat="46.56366" lon="-0.6955">
        <ele>123.1</ele>
        <time>2012-12-29T10:03:57Z</time>
      </trkpt>
      <trkpt lat="46.56362" lon="-0.69562">
        <ele>122.8</ele>
        <time>2012-12-29T10:03:59Z</time>
      </trkpt>
      <trkpt lat="46.5636" lon="-0.69568">
        <ele>122.5</ele>
        <time>2012-12-29T10:04:00Z</time>
      </trkpt>
      <trkpt lat="46.56347" lon="-0.69586">
        <ele>121.6</ele>
        <time>2012-12-29T10:04:04Z</time>
      </trkpt>
      <trkpt lat="46.56342" lon="-0.69595">
        <ele>121.4</ele>
        <time>2012-12-29T10:04:07Z</time>
      </trkpt>
      <trkpt lat="46.56339" lon="-0.696">
        <ele>121.4</ele>
        <time>2012-12-29T10:04:09Z</time>
      </trkpt>
      <trkpt lat="46.56333" lon="-0.69606">
        <ele>121.3</ele>
        <time>2012-12-29T10:04:12Z</time>
      </trkpt>
      <trkpt lat="46.56327" lon="-0.69615">
        <ele>121.6</ele>
        <time>2012-12-29T10:04:17Z</time>
      </trkpt>
      <trkpt lat="46.56321" lon="-0.69621">
        <ele>121.6</ele>
        <time>2012-12-29T10:04:21Z</time>
      </trkpt>
      <trkpt lat="46.56318" lon="-0.69626">
        <ele>121.5</ele>
        <time>2012-12-29T10:04:23Z</time>
      </trkpt>
      <trkpt lat="46.56314" lon="-0.69632">
        <ele>120.3</ele>
        <time>2012-12-29T10:04:26Z</time>
      </trkpt>
      <trkpt lat="46.5631" lon="-0.69641">
        <ele>120.2</ele>
        <time>2012-12-29T10:04:29Z</time>
      </trkpt>
      <trkpt lat="46.56302" lon="-0.69655">
        <ele>120.7</ele>
        <time>2012-12-29T10:04:34Z</time>
      </trkpt>
      <trkpt lat="46.56299" lon="-0.69659">
        <ele>120.5</ele>
        <time>2012-12-29T10:04:36Z</time>
      </trkpt>
      <trkpt lat="46.56292" lon="-0.69664">
        <ele>120.6</ele>
        <time>2012-12-29T10:04:40Z</time>
      </trkpt>
      <trkpt lat="46.56285" lon="-0.69669">
        <ele>120.4</ele>
        <time>2012-12-29T10:04:44Z</time>
      </trkpt>
      <trkpt lat="46.56277" lon="-0.69673">
        <ele>120.9</ele>
        <time>2012-12-29T10:04:48Z</time>
      </trkpt>
      <trkpt lat="46.56272" lon="-0.69675">
        <ele>120.2</ele>
        <time>2012-12-29T10:04:51Z</time>
      </trkpt>
      <trkpt lat="46.56267" lon="-0.69676">
        <ele>120</ele>
        <time>2012-12-29T10:04:53Z</time>
      </trkpt>
      <trkpt lat="46.56261" lon="-0.69679">
        <ele>120</ele>
        <time>2012-12-29T10:04:56Z</time>
      </trkpt>
      <trkpt lat="46.56254" lon="-0.69684">
        <ele>120.7</ele>
        <time>2012-12-29T10:04:59Z</time>
      </trkpt>
      <trkpt lat="46.5625" lon="-0.69689">
        <ele>121</ele>
        <time>2012-12-29T10:05:01Z</time>
      </trkpt>
      <trkpt lat="46.56244" lon="-0.69694">
        <ele>121</ele>
        <time>2012-12-29T10:05:04Z</time>
      </trkpt>
      <trkpt lat="46.56236" lon="-0.69698">
        <ele>120.5</ele>
        <time>2012-12-29T10:05:08Z</time>
      </trkpt>
      <trkpt lat="46.56228" lon="-0.69699">
        <ele>121.2</ele>
        <time>2012-12-29T10:05:12Z</time>
      </trkpt>
      <trkpt lat="46.56224" lon="-0.697">
        <ele>121.7</ele>
        <time>2012-12-29T10:05:14Z</time>
      </trkpt>
      <trkpt lat="46.56219" lon="-0.697">
        <ele>121.8</ele>
        <time>2012-12-29T10:05:16Z</time>
      </trkpt>
      <trkpt lat="46.56207" lon="-0.69701">
        <ele>120.8</ele>
        <time>2012-12-29T10:05:22Z</time>
      </trkpt>
      <trkpt lat="46.56196" lon="-0.69703">
        <ele>121.3</ele>
        <time>2012-12-29T10:05:26Z</time>
      </trkpt>
      <trkpt lat="46.56193" lon="-0.69703">
        <ele>121.4</ele>
        <time>2012-12-29T10:05:27Z</time>
      </trkpt>
      <trkpt lat="46.56185" lon="-0.69704">
        <ele>121.5</ele>
        <time>2012-12-29T10:05:31Z</time>
      </trkpt>
      <trkpt lat="46.56171" lon="-0.69698">
        <ele>121.6</ele>
        <time>2012-12-29T10:05:39Z</time>
      </trkpt>
      <trkpt lat="46.56168" lon="-0.69698">
        <ele>121.3</ele>
        <time>2012-12-29T10:05:41Z</time>
      </trkpt>
      <trkpt lat="46.56162" lon="-0.69695">
        <ele>120.4</ele>
        <time>2012-12-29T10:05:45Z</time>
      </trkpt>
      <trkpt lat="46.56147" lon="-0.69692">
        <ele>121.1</ele>
        <time>2012-12-29T10:05:53Z</time>
      </trkpt>
      <trkpt lat="46.5614" lon="-0.69689">
        <ele>121.5</ele>
        <time>2012-12-29T10:05:57Z</time>
      </trkpt>
      <trkpt lat="46.56134" lon="-0.69685">
        <ele>121.6</ele>
        <time>2012-12-29T10:06:00Z</time>
      </trkpt>
      <trkpt lat="46.56128" lon="-0.69681">
        <ele>121.5</ele>
        <time>2012-12-29T10:06:03Z</time>
      </trkpt>
      <trkpt lat="46.56123" lon="-0.69681">
        <ele>120.4</ele>
        <time>2012-12-29T10:06:06Z</time>
      </trkpt>
      <trkpt lat="46.56113" lon="-0.69676">
        <ele>120.3</ele>
        <time>2012-12-29T10:06:12Z</time>
      </trkpt>
      <trkpt lat="46.56106" lon="-0.69672">
        <ele>121.3</ele>
        <time>2012-12-29T10:06:16Z</time>
      </trkpt>
      <trkpt lat="46.56099" lon="-0.69665">
        <ele>121</ele>
        <time>2012-12-29T10:06:20Z</time>
      </trkpt>
      <trkpt lat="46.56096" lon="-0.69662">
        <ele>120.5</ele>
        <time>2012-12-29T10:06:22Z</time>
      </trkpt>
      <trkpt lat="46.5609" lon="-0.69659">
        <ele>120.2</ele>
        <time>2012-12-29T10:06:26Z</time>
      </trkpt>
      <trkpt lat="46.56076" lon="-0.69648">
        <ele>119.6</ele>
        <time>2012-12-29T10:06:34Z</time>
      </trkpt>
      <trkpt lat="46.56071" lon="-0.69641">
        <ele>119.8</ele>
        <time>2012-12-29T10:06:37Z</time>
      </trkpt>
      <trkpt lat="46.56065" lon="-0.69633">
        <ele>119.8</ele>
        <time>2012-12-29T10:06:40Z</time>
      </trkpt>
      <trkpt lat="46.56059" lon="-0.69628">
        <ele>119.3</ele>
        <time>2012-12-29T10:06:44Z</time>
      </trkpt>
      <trkpt lat="46.56056" lon="-0.69624">
        <ele>119.6</ele>
        <time>2012-12-29T10:06:54Z</time>
      </trkpt>
      <trkpt lat="46.56053" lon="-0.69618">
        <ele>119.3</ele>
        <time>2012-12-29T10:07:08Z</time>
      </trkpt>
      <trkpt lat="46.56042" lon="-0.69604">
        <ele>119.1</ele>
        <time>2012-12-29T10:07:26Z</time>
      </trkpt>
      <trkpt lat="46.56038" lon="-0.69602">
        <ele>119.1</ele>
        <time>2012-12-29T10:07:28Z</time>
      </trkpt>
      <trkpt lat="46.56032" lon="-0.69599">
        <ele>119.6</ele>
        <time>2012-12-29T10:07:31Z</time>
      </trkpt>
      <trkpt lat="46.56026" lon="-0.69596">
        <ele>119.7</ele>
        <time>2012-12-29T10:07:33Z</time>
      </trkpt>
      <trkpt lat="46.56021" lon="-0.69593">
        <ele>119.5</ele>
        <time>2012-12-29T10:07:35Z</time>
      </trkpt>
      <trkpt lat="46.56012" lon="-0.69587">
        <ele>119.2</ele>
        <time>2012-12-29T10:07:38Z</time>
      </trkpt>
      <trkpt lat="46.56" lon="-0.6958">
        <ele>118.8</ele>
        <time>2012-12-29T10:07:42Z</time>
      </trkpt>
      <trkpt lat="46.55994" lon="-0.69577">
        <ele>118.8</ele>
        <time>2012-12-29T10:07:44Z</time>
      </trkpt>
      <trkpt lat="46.55986" lon="-0.69573">
        <ele>118.5</ele>
        <time>2012-12-29T10:07:46Z</time>
      </trkpt>
      <trkpt lat="46.55979" lon="-0.6957">
        <ele>118.3</ele>
        <time>2012-12-29T10:07:48Z</time>
      </trkpt>
      <trkpt lat="46.55975" lon="-0.69568">
        <ele>118.1</ele>
        <time>2012-12-29T10:07:49Z</time>
      </trkpt>
      <trkpt lat="46.55959" lon="-0.6956">
        <ele>117.4</ele>
        <time>2012-12-29T10:07:53Z</time>
      </trkpt>
      <trkpt lat="46.55942" lon="-0.69551">
        <ele>116.7</ele>
        <time>2012-12-29T10:07:57Z</time>
      </trkpt>
      <trkpt lat="46.55937" lon="-0.69548">
        <ele>116.6</ele>
        <time>2012-12-29T10:07:58Z</time>
      </trkpt>
      <trkpt lat="46.55933" lon="-0.69547">
        <ele>116.8</ele>
        <time>2012-12-29T10:07:59Z</time>
      </trkpt>
      <trkpt lat="46.55925" lon="-0.69547">
        <ele>117.1</ele>
        <time>2012-12-29T10:08:01Z</time>
      </trkpt>
      <trkpt lat="46.55921" lon="-0.69547">
        <ele>116.7</ele>
        <time>2012-12-29T10:08:02Z</time>
      </trkpt>
      <trkpt lat="46.55914" lon="-0.69546">
        <ele>116.2</ele>
        <time>2012-12-29T10:08:04Z</time>
      </trkpt>
      <trkpt lat="46.55911" lon="-0.69545">
        <ele>116.1</ele>
        <time>2012-12-29T10:08:05Z</time>
      </trkpt>
      <trkpt lat="46.55896" lon="-0.69541">
        <ele>115.6</ele>
        <time>2012-12-29T10:08:09Z</time>
      </trkpt>
      <trkpt lat="46.55888" lon="-0.69538">
        <ele>115.6</ele>
        <time>2012-12-29T10:08:11Z</time>
      </trkpt>
      <trkpt lat="46.55885" lon="-0.69535">
        <ele>115.6</ele>
        <time>2012-12-29T10:08:12Z</time>
      </trkpt>
      <trkpt lat="46.55877" lon="-0.69531">
        <ele>115.4</ele>
        <time>2012-12-29T10:08:14Z</time>
      </trkpt>
      <trkpt lat="46.55871" lon="-0.69528">
        <ele>115</ele>
        <time>2012-12-29T10:08:16Z</time>
      </trkpt>
      <trkpt lat="46.55865" lon="-0.69527">
        <ele>114.3</ele>
        <time>2012-12-29T10:08:18Z</time>
      </trkpt>
      <trkpt lat="46.55852" lon="-0.69525">
        <ele>113.2</ele>
        <time>2012-12-29T10:08:23Z</time>
      </trkpt>
      <trkpt lat="46.55847" lon="-0.69524">
        <ele>113.4</ele>
        <time>2012-12-29T10:08:25Z</time>
      </trkpt>
      <trkpt lat="46.55842" lon="-0.69523">
        <ele>113.5</ele>
        <time>2012-12-29T10:08:27Z</time>
      </trkpt>
      <trkpt lat="46.55837" lon="-0.69521">
        <ele>113.4</ele>
        <time>2012-12-29T10:08:29Z</time>
      </trkpt>
      <trkpt lat="46.55833" lon="-0.69519">
        <ele>113.5</ele>
        <time>2012-12-29T10:08:31Z</time>
      </trkpt>
      <trkpt lat="46.55823" lon="-0.69517">
        <ele>113</ele>
        <time>2012-12-29T10:08:35Z</time>
      </trkpt>
      <trkpt lat="46.55818" lon="-0.69515">
        <ele>113.2</ele>
        <time>2012-12-29T10:08:37Z</time>
      </trkpt>
      <trkpt lat="46.55814" lon="-0.69515">
        <ele>113.7</ele>
        <time>2012-12-29T10:08:39Z</time>
      </trkpt>
      <trkpt lat="46.55809" lon="-0.69514">
        <ele>112.7</ele>
        <time>2012-12-29T10:08:41Z</time>
      </trkpt>
      <trkpt lat="46.55799" lon="-0.6951">
        <ele>112.5</ele>
        <time>2012-12-29T10:08:45Z</time>
      </trkpt>
      <trkpt lat="46.55791" lon="-0.69511">
        <ele>112.8</ele>
        <time>2012-12-29T10:08:48Z</time>
      </trkpt>
      <trkpt lat="46.55783" lon="-0.6951">
        <ele>112.3</ele>
        <time>2012-12-29T10:08:51Z</time>
      </trkpt>
      <trkpt lat="46.55778" lon="-0.69509">
        <ele>112.1</ele>
        <time>2012-12-29T10:08:53Z</time>
      </trkpt>
      <trkpt lat="46.55768" lon="-0.69508">
        <ele>112.4</ele>
        <time>2012-12-29T10:08:57Z</time>
      </trkpt>
      <trkpt lat="46.55751" lon="-0.69506">
        <ele>111.1</ele>
        <time>2012-12-29T10:09:05Z</time>
      </trkpt>
      <trkpt lat="46.55744" lon="-0.69507">
        <ele>111.4</ele>
        <time>2012-12-29T10:09:08Z</time>
      </trkpt>
      <trkpt lat="46.55741" lon="-0.69508">
        <ele>111.7</ele>
        <time>2012-12-29T10:09:09Z</time>
      </trkpt>
      <trkpt lat="46.55737" lon="-0.6951">
        <ele>112.1</ele>
        <time>2012-12-29T10:09:11Z</time>
      </trkpt>
      <trkpt lat="46.5573" lon="-0.69513">
        <ele>111.7</ele>
        <time>2012-12-29T10:09:14Z</time>
      </trkpt>
      <trkpt lat="46.55723" lon="-0.69512">
        <ele>111.3</ele>
        <time>2012-12-29T10:09:17Z</time>
      </trkpt>
      <trkpt lat="46.55716" lon="-0.6951">
        <ele>111.5</ele>
        <time>2012-12-29T10:09:20Z</time>
      </trkpt>
      <trkpt lat="46.55714" lon="-0.69507">
        <ele>111.2</ele>
        <time>2012-12-29T10:09:22Z</time>
      </trkpt>
      <trkpt lat="46.5571" lon="-0.69499">
        <ele>110.8</ele>
        <time>2012-12-29T10:09:26Z</time>
      </trkpt>
      <trkpt lat="46.55708" lon="-0.69488">
        <ele>110.7</ele>
        <time>2012-12-29T10:09:33Z</time>
      </trkpt>
      <trkpt lat="46.55705" lon="-0.69476">
        <ele>110</ele>
        <time>2012-12-29T10:10:14Z</time>
      </trkpt>
      <trkpt lat="46.55705" lon="-0.69476">
        <ele>109.4</ele>
        <time>2012-12-29T10:11:12Z</time>
      </trkpt>
      <trkpt lat="46.55709" lon="-0.69474">
        <ele>110.1</ele>
        <time>2012-12-29T10:11:30Z</time>
      </trkpt>
      <trkpt lat="46.55709" lon="-0.69476">
        <ele>110.6</ele>
        <time>2012-12-29T10:12:37Z</time>
      </trkpt>
      <trkpt lat="46.55707" lon="-0.69482">
        <ele>111.3</ele>
        <time>2012-12-29T10:13:49Z</time>
      </trkpt>
      <trkpt lat="46.557" lon="-0.69478">
        <ele>111</ele>
        <time>2012-12-29T10:14:01Z</time>
      </trkpt>
      <trkpt lat="46.55697" lon="-0.69475">
        <ele>110.8</ele>
        <time>2012-12-29T10:14:03Z</time>
      </trkpt>
      <trkpt lat="46.55694" lon="-0.69476">
        <ele>110.3</ele>
        <time>2012-12-29T10:14:33Z</time>
      </trkpt>
      <trkpt lat="46.557" lon="-0.69483">
        <ele>110.7</ele>
        <time>2012-12-29T10:14:37Z</time>
      </trkpt>
      <trkpt lat="46.55703" lon="-0.69492">
        <ele>110.7</ele>
        <time>2012-12-29T10:14:41Z</time>
      </trkpt>
      <trkpt lat="46.55704" lon="-0.69504">
        <ele>111.2</ele>
        <time>2012-12-29T10:14:46Z</time>
      </trkpt>
      <trkpt lat="46.55702" lon="-0.69512">
        <ele>111</ele>
        <time>2012-12-29T10:14:50Z</time>
      </trkpt>
      <trkpt lat="46.55698" lon="-0.69519">
        <ele>111.6</ele>
        <time>2012-12-29T10:14:55Z</time>
      </trkpt>
      <trkpt lat="46.5569" lon="-0.69525">
        <ele>111.1</ele>
        <time>2012-12-29T10:15:08Z</time>
      </trkpt>
      <trkpt lat="46.55686" lon="-0.69526">
        <ele>111.3</ele>
        <time>2012-12-29T10:15:13Z</time>
      </trkpt>
      <trkpt lat="46.5568" lon="-0.69529">
        <ele>111.9</ele>
        <time>2012-12-29T10:15:16Z</time>
      </trkpt>
      <trkpt lat="46.55676" lon="-0.69533">
        <ele>111.8</ele>
        <time>2012-12-29T10:15:18Z</time>
      </trkpt>
      <trkpt lat="46.55671" lon="-0.69539">
        <ele>111.1</ele>
        <time>2012-12-29T10:15:21Z</time>
      </trkpt>
      <trkpt lat="46.55668" lon="-0.6955">
        <ele>111.2</ele>
        <time>2012-12-29T10:15:25Z</time>
      </trkpt>
      <trkpt lat="46.55667" lon="-0.6956">
        <ele>111.6</ele>
        <time>2012-12-29T10:15:28Z</time>
      </trkpt>
      <trkpt lat="46.55667" lon="-0.69574">
        <ele>111.5</ele>
        <time>2012-12-29T10:15:32Z</time>
      </trkpt>
      <trkpt lat="46.55666" lon="-0.69578">
        <ele>111.5</ele>
        <time>2012-12-29T10:15:33Z</time>
      </trkpt>
      <trkpt lat="46.55664" lon="-0.69599">
        <ele>111</ele>
        <time>2012-12-29T10:15:38Z</time>
      </trkpt>
      <trkpt lat="46.55665" lon="-0.69608">
        <ele>110.8</ele>
        <time>2012-12-29T10:15:40Z</time>
      </trkpt>
      <trkpt lat="46.55666" lon="-0.6962">
        <ele>111.5</ele>
        <time>2012-12-29T10:15:43Z</time>
      </trkpt>
      <trkpt lat="46.55665" lon="-0.69629">
        <ele>111.5</ele>
        <time>2012-12-29T10:15:45Z</time>
      </trkpt>
      <trkpt lat="46.55666" lon="-0.69637">
        <ele>111.5</ele>
        <time>2012-12-29T10:15:47Z</time>
      </trkpt>
      <trkpt lat="46.55666" lon="-0.69647">
        <ele>110.8</ele>
        <time>2012-12-29T10:15:49Z</time>
      </trkpt>
      <trkpt lat="46.55666" lon="-0.69655">
        <ele>111</ele>
        <time>2012-12-29T10:15:51Z</time>
      </trkpt>
      <trkpt lat="46.55664" lon="-0.69665">
        <ele>111.4</ele>
        <time>2012-12-29T10:15:53Z</time>
      </trkpt>
      <trkpt lat="46.55664" lon="-0.69676">
        <ele>111.7</ele>
        <time>2012-12-29T10:15:55Z</time>
      </trkpt>
      <trkpt lat="46.55665" lon="-0.69685">
        <ele>111.4</ele>
        <time>2012-12-29T10:15:57Z</time>
      </trkpt>
      <trkpt lat="46.55663" lon="-0.69694">
        <ele>110.9</ele>
        <time>2012-12-29T10:15:59Z</time>
      </trkpt>
      <trkpt lat="46.55661" lon="-0.69699">
        <ele>110.7</ele>
        <time>2012-12-29T10:16:00Z</time>
      </trkpt>
      <trkpt lat="46.5566" lon="-0.69709">
        <ele>110.4</ele>
        <time>2012-12-29T10:16:02Z</time>
      </trkpt>
      <trkpt lat="46.5566" lon="-0.69715">
        <ele>110.3</ele>
        <time>2012-12-29T10:16:03Z</time>
      </trkpt>
      <trkpt lat="46.55659" lon="-0.69726">
        <ele>110.5</ele>
        <time>2012-12-29T10:16:05Z</time>
      </trkpt>
      <trkpt lat="46.55655" lon="-0.69747">
        <ele>110.9</ele>
        <time>2012-12-29T10:16:09Z</time>
      </trkpt>
      <trkpt lat="46.55654" lon="-0.69758">
        <ele>110.7</ele>
        <time>2012-12-29T10:16:11Z</time>
      </trkpt>
      <trkpt lat="46.55653" lon="-0.69769">
        <ele>110.7</ele>
        <time>2012-12-29T10:16:13Z</time>
      </trkpt>
      <trkpt lat="46.55651" lon="-0.69781">
        <ele>110.7</ele>
        <time>2012-12-29T10:16:15Z</time>
      </trkpt>
      <trkpt lat="46.55649" lon="-0.69787">
        <ele>110.7</ele>
        <time>2012-12-29T10:16:16Z</time>
      </trkpt>
      <trkpt lat="46.55646" lon="-0.69798">
        <ele>110.4</ele>
        <time>2012-12-29T10:16:18Z</time>
      </trkpt>
      <trkpt lat="46.55646" lon="-0.69804">
        <ele>110.3</ele>
        <time>2012-12-29T10:16:19Z</time>
      </trkpt>
      <trkpt lat="46.55646" lon="-0.69815">
        <ele>110.5</ele>
        <time>2012-12-29T10:16:21Z</time>
      </trkpt>
      <trkpt lat="46.55645" lon="-0.69821">
        <ele>110.5</ele>
        <time>2012-12-29T10:16:22Z</time>
      </trkpt>
      <trkpt lat="46.55644" lon="-0.69832">
        <ele>110.1</ele>
        <time>2012-12-29T10:16:24Z</time>
      </trkpt>
      <trkpt lat="46.55644" lon="-0.69838">
        <ele>110</ele>
        <time>2012-12-29T10:16:25Z</time>
      </trkpt>
      <trkpt lat="46.55643" lon="-0.6985">
        <ele>110.3</ele>
        <time>2012-12-29T10:16:27Z</time>
      </trkpt>
      <trkpt lat="46.55641" lon="-0.69863">
        <ele>110.2</ele>
        <time>2012-12-29T10:16:29Z</time>
      </trkpt>
      <trkpt lat="46.5564" lon="-0.69876">
        <ele>109.9</ele>
        <time>2012-12-29T10:16:31Z</time>
      </trkpt>
      <trkpt lat="46.55639" lon="-0.69882">
        <ele>109.5</ele>
        <time>2012-12-29T10:16:32Z</time>
      </trkpt>
      <trkpt lat="46.55638" lon="-0.69889">
        <ele>109.1</ele>
        <time>2012-12-29T10:16:33Z</time>
      </trkpt>
      <trkpt lat="46.55638" lon="-0.69897">
        <ele>108.9</ele>
        <time>2012-12-29T10:16:34Z</time>
      </trkpt>
      <trkpt lat="46.55638" lon="-0.69911">
        <ele>108.6</ele>
        <time>2012-12-29T10:16:36Z</time>
      </trkpt>
      <trkpt lat="46.55638" lon="-0.69918">
        <ele>108.5</ele>
        <time>2012-12-29T10:16:37Z</time>
      </trkpt>
      <trkpt lat="46.55636" lon="-0.69927">
        <ele>108.5</ele>
        <time>2012-12-29T10:16:38Z</time>
      </trkpt>
      <trkpt lat="46.55634" lon="-0.69934">
        <ele>108.3</ele>
        <time>2012-12-29T10:16:39Z</time>
      </trkpt>
      <trkpt lat="46.55634" lon="-0.69946">
        <ele>108.1</ele>
        <time>2012-12-29T10:16:41Z</time>
      </trkpt>
      <trkpt lat="46.55633" lon="-0.69952">
        <ele>107.7</ele>
        <time>2012-12-29T10:16:42Z</time>
      </trkpt>
      <trkpt lat="46.5563" lon="-0.69963">
        <ele>107.3</ele>
        <time>2012-12-29T10:16:44Z</time>
      </trkpt>
      <trkpt lat="46.55627" lon="-0.69971">
        <ele>106.9</ele>
        <time>2012-12-29T10:16:46Z</time>
      </trkpt>
      <trkpt lat="46.55624" lon="-0.69983">
        <ele>105.4</ele>
        <time>2012-12-29T10:16:50Z</time>
      </trkpt>
      <trkpt lat="46.55624" lon="-0.69995">
        <ele>104.9</ele>
        <time>2012-12-29T10:16:54Z</time>
      </trkpt>
      <trkpt lat="46.55624" lon="-0.70002">
        <ele>105.2</ele>
        <time>2012-12-29T10:16:56Z</time>
      </trkpt>
      <trkpt lat="46.55625" lon="-0.70011">
        <ele>105.6</ele>
        <time>2012-12-29T10:16:59Z</time>
      </trkpt>
      <trkpt lat="46.55624" lon="-0.70017">
        <ele>105.8</ele>
        <time>2012-12-29T10:17:01Z</time>
      </trkpt>
      <trkpt lat="46.55623" lon="-0.7003">
        <ele>105.7</ele>
        <time>2012-12-29T10:17:05Z</time>
      </trkpt>
      <trkpt lat="46.55623" lon="-0.70037">
        <ele>105.7</ele>
        <time>2012-12-29T10:17:07Z</time>
      </trkpt>
      <trkpt lat="46.55622" lon="-0.70043">
        <ele>106.2</ele>
        <time>2012-12-29T10:17:09Z</time>
      </trkpt>
      <trkpt lat="46.55622" lon="-0.7005">
        <ele>106.7</ele>
        <time>2012-12-29T10:17:11Z</time>
      </trkpt>
      <trkpt lat="46.55621" lon="-0.70056">
        <ele>107.2</ele>
        <time>2012-12-29T10:17:13Z</time>
      </trkpt>
      <trkpt lat="46.55616" lon="-0.70071">
        <ele>107.4</ele>
        <time>2012-12-29T10:17:18Z</time>
      </trkpt>
      <trkpt lat="46.55614" lon="-0.70084">
        <ele>108</ele>
        <time>2012-12-29T10:17:22Z</time>
      </trkpt>
      <trkpt lat="46.55612" lon="-0.70091">
        <ele>108</ele>
        <time>2012-12-29T10:17:24Z</time>
      </trkpt>
      <trkpt lat="46.55611" lon="-0.70102">
        <ele>108</ele>
        <time>2012-12-29T10:17:27Z</time>
      </trkpt>
      <trkpt lat="46.5561" lon="-0.70109">
        <ele>108.1</ele>
        <time>2012-12-29T10:17:29Z</time>
      </trkpt>
      <trkpt lat="46.55609" lon="-0.70117">
        <ele>108.1</ele>
        <time>2012-12-29T10:17:31Z</time>
      </trkpt>
      <trkpt lat="46.55607" lon="-0.70125">
        <ele>108.4</ele>
        <time>2012-12-29T10:17:33Z</time>
      </trkpt>
      <trkpt lat="46.55602" lon="-0.70134">
        <ele>108.4</ele>
        <time>2012-12-29T10:17:36Z</time>
      </trkpt>
      <trkpt lat="46.556" lon="-0.70146">
        <ele>108</ele>
        <time>2012-12-29T10:17:40Z</time>
      </trkpt>
      <trkpt lat="46.55598" lon="-0.70153">
        <ele>108.2</ele>
        <time>2012-12-29T10:17:42Z</time>
      </trkpt>
      <trkpt lat="46.55595" lon="-0.70159">
        <ele>108.4</ele>
        <time>2012-12-29T10:17:44Z</time>
      </trkpt>
      <trkpt lat="46.55594" lon="-0.70162">
        <ele>108.5</ele>
        <time>2012-12-29T10:17:45Z</time>
      </trkpt>
      <trkpt lat="46.55594" lon="-0.70169">
        <ele>107.9</ele>
        <time>2012-12-29T10:17:47Z</time>
      </trkpt>
      <trkpt lat="46.55593" lon="-0.70177">
        <ele>107.8</ele>
        <time>2012-12-29T10:17:49Z</time>
      </trkpt>
      <trkpt lat="46.55592" lon="-0.70183">
        <ele>108</ele>
        <time>2012-12-29T10:17:51Z</time>
      </trkpt>
      <trkpt lat="46.55591" lon="-0.70191">
        <ele>107.9</ele>
        <time>2012-12-29T10:17:53Z</time>
      </trkpt>
      <trkpt lat="46.55591" lon="-0.70195">
        <ele>107.9</ele>
        <time>2012-12-29T10:17:54Z</time>
      </trkpt>
      <trkpt lat="46.55591" lon="-0.70204">
        <ele>107.3</ele>
        <time>2012-12-29T10:17:56Z</time>
      </trkpt>
      <trkpt lat="46.5559" lon="-0.70213">
        <ele>107</ele>
        <time>2012-12-29T10:17:58Z</time>
      </trkpt>
      <trkpt lat="46.55588" lon="-0.70221">
        <ele>107.6</ele>
        <time>2012-12-29T10:18:00Z</time>
      </trkpt>
      <trkpt lat="46.55585" lon="-0.70236">
        <ele>107.1</ele>
        <time>2012-12-29T10:18:03Z</time>
      </trkpt>
      <trkpt lat="46.55581" lon="-0.70247">
        <ele>107</ele>
        <time>2012-12-29T10:18:05Z</time>
      </trkpt>
      <trkpt lat="46.55579" lon="-0.70253">
        <ele>107</ele>
        <time>2012-12-29T10:18:06Z</time>
      </trkpt>
      <trkpt lat="46.55576" lon="-0.70261">
        <ele>107</ele>
        <time>2012-12-29T10:18:07Z</time>
      </trkpt>
      <trkpt lat="46.55574" lon="-0.70268">
        <ele>106.8</ele>
        <time>2012-12-29T10:18:08Z</time>
      </trkpt>
      <trkpt lat="46.55572" lon="-0.70275">
        <ele>106.6</ele>
        <time>2012-12-29T10:18:09Z</time>
      </trkpt>
      <trkpt lat="46.55571" lon="-0.70282">
        <ele>106.4</ele>
        <time>2012-12-29T10:18:10Z</time>
      </trkpt>
      <trkpt lat="46.5557" lon="-0.7029">
        <ele>105.8</ele>
        <time>2012-12-29T10:18:11Z</time>
      </trkpt>
      <trkpt lat="46.55569" lon="-0.70298">
        <ele>105.3</ele>
        <time>2012-12-29T10:18:12Z</time>
      </trkpt>
      <trkpt lat="46.55568" lon="-0.70305">
        <ele>105</ele>
        <time>2012-12-29T10:18:13Z</time>
      </trkpt>
      <trkpt lat="46.55565" lon="-0.70317">
        <ele>104.5</ele>
        <time>2012-12-29T10:18:15Z</time>
      </trkpt>
      <trkpt lat="46.55559" lon="-0.70327">
        <ele>105</ele>
        <time>2012-12-29T10:18:18Z</time>
      </trkpt>
      <trkpt lat="46.55558" lon="-0.70336">
        <ele>106</ele>
        <time>2012-12-29T10:18:20Z</time>
      </trkpt>
      <trkpt lat="46.55556" lon="-0.70345">
        <ele>104.8</ele>
        <time>2012-12-29T10:18:22Z</time>
      </trkpt>
      <trkpt lat="46.55554" lon="-0.70353">
        <ele>104.3</ele>
        <time>2012-12-29T10:18:25Z</time>
      </trkpt>
      <trkpt lat="46.55551" lon="-0.70357">
        <ele>103.7</ele>
        <time>2012-12-29T10:18:28Z</time>
      </trkpt>
      <trkpt lat="46.55547" lon="-0.70367">
        <ele>103.5</ele>
        <time>2012-12-29T10:18:32Z</time>
      </trkpt>
      <trkpt lat="46.55546" lon="-0.70374">
        <ele>103.7</ele>
        <time>2012-12-29T10:18:34Z</time>
      </trkpt>
      <trkpt lat="46.55544" lon="-0.70384">
        <ele>104.6</ele>
        <time>2012-12-29T10:18:38Z</time>
      </trkpt>
      <trkpt lat="46.55539" lon="-0.70394">
        <ele>103.8</ele>
        <time>2012-12-29T10:18:42Z</time>
      </trkpt>
      <trkpt lat="46.55531" lon="-0.7041">
        <ele>104.8</ele>
        <time>2012-12-29T10:18:57Z</time>
      </trkpt>
      <trkpt lat="46.55528" lon="-0.70421">
        <ele>105</ele>
        <time>2012-12-29T10:19:21Z</time>
      </trkpt>
      <trkpt lat="46.55526" lon="-0.70427">
        <ele>105.8</ele>
        <time>2012-12-29T10:19:37Z</time>
      </trkpt>
      <trkpt lat="46.55521" lon="-0.70434">
        <ele>105.2</ele>
        <time>2012-12-29T10:19:47Z</time>
      </trkpt>
      <trkpt lat="46.55516" lon="-0.70442">
        <ele>104.6</ele>
        <time>2012-12-29T10:19:52Z</time>
      </trkpt>
      <trkpt lat="46.55514" lon="-0.70452">
        <ele>104.1</ele>
        <time>2012-12-29T10:19:56Z</time>
      </trkpt>
      <trkpt lat="46.55511" lon="-0.70458">
        <ele>104.6</ele>
        <time>2012-12-29T10:19:59Z</time>
      </trkpt>
      <trkpt lat="46.55509" lon="-0.70469">
        <ele>104.9</ele>
        <time>2012-12-29T10:20:03Z</time>
      </trkpt>
      <trkpt lat="46.55507" lon="-0.70476">
        <ele>104.7</ele>
        <time>2012-12-29T10:20:05Z</time>
      </trkpt>
      <trkpt lat="46.55504" lon="-0.70487">
        <ele>104.6</ele>
        <time>2012-12-29T10:20:08Z</time>
      </trkpt>
      <trkpt lat="46.55502" lon="-0.70497">
        <ele>104.5</ele>
        <time>2012-12-29T10:20:11Z</time>
      </trkpt>
      <trkpt lat="46.555" lon="-0.705">
        <ele>104.1</ele>
        <time>2012-12-29T10:20:13Z</time>
      </trkpt>
      <trkpt lat="46.55494" lon="-0.70518">
        <ele>103.9</ele>
        <time>2012-12-29T10:20:19Z</time>
      </trkpt>
      <trkpt lat="46.55493" lon="-0.70524">
        <ele>103.8</ele>
        <time>2012-12-29T10:20:21Z</time>
      </trkpt>
      <trkpt lat="46.55491" lon="-0.70535">
        <ele>102.5</ele>
        <time>2012-12-29T10:20:25Z</time>
      </trkpt>
      <trkpt lat="46.55485" lon="-0.70542">
        <ele>102.6</ele>
        <time>2012-12-29T10:20:29Z</time>
      </trkpt>
      <trkpt lat="46.55479" lon="-0.70549">
        <ele>103.6</ele>
        <time>2012-12-29T10:20:32Z</time>
      </trkpt>
      <trkpt lat="46.55473" lon="-0.70555">
        <ele>104</ele>
        <time>2012-12-29T10:20:35Z</time>
      </trkpt>
      <trkpt lat="46.55461" lon="-0.70567">
        <ele>103.3</ele>
        <time>2012-12-29T10:20:43Z</time>
      </trkpt>
      <trkpt lat="46.55454" lon="-0.70574">
        <ele>103.4</ele>
        <time>2012-12-29T10:20:47Z</time>
      </trkpt>
      <trkpt lat="46.55451" lon="-0.70577">
        <ele>103.4</ele>
        <time>2012-12-29T10:20:49Z</time>
      </trkpt>
      <trkpt lat="46.5544" lon="-0.70588">
        <ele>103.9</ele>
        <time>2012-12-29T10:20:56Z</time>
      </trkpt>
      <trkpt lat="46.55437" lon="-0.70591">
        <ele>103.6</ele>
        <time>2012-12-29T10:20:59Z</time>
      </trkpt>
      <trkpt lat="46.5543" lon="-0.70597">
        <ele>103.7</ele>
        <time>2012-12-29T10:21:03Z</time>
      </trkpt>
      <trkpt lat="46.55426" lon="-0.706">
        <ele>103.5</ele>
        <time>2012-12-29T10:21:05Z</time>
      </trkpt>
      <trkpt lat="46.55418" lon="-0.70606">
        <ele>103.6</ele>
        <time>2012-12-29T10:21:09Z</time>
      </trkpt>
      <trkpt lat="46.55412" lon="-0.70613">
        <ele>104.4</ele>
        <time>2012-12-29T10:21:13Z</time>
      </trkpt>
      <trkpt lat="46.55405" lon="-0.7062">
        <ele>104.6</ele>
        <time>2012-12-29T10:21:17Z</time>
      </trkpt>
      <trkpt lat="46.55402" lon="-0.70624">
        <ele>104.7</ele>
        <time>2012-12-29T10:21:19Z</time>
      </trkpt>
      <trkpt lat="46.55398" lon="-0.70629">
        <ele>105.3</ele>
        <time>2012-12-29T10:21:21Z</time>
      </trkpt>
      <trkpt lat="46.55396" lon="-0.70634">
        <ele>105.7</ele>
        <time>2012-12-29T10:21:23Z</time>
      </trkpt>
      <trkpt lat="46.55393" lon="-0.7064">
        <ele>105.8</ele>
        <time>2012-12-29T10:21:25Z</time>
      </trkpt>
      <trkpt lat="46.5539" lon="-0.70644">
        <ele>105.7</ele>
        <time>2012-12-29T10:21:27Z</time>
      </trkpt>
      <trkpt lat="46.55388" lon="-0.70647">
        <ele>105.7</ele>
        <time>2012-12-29T10:21:28Z</time>
      </trkpt>
      <trkpt lat="46.55385" lon="-0.70652">
        <ele>106</ele>
        <time>2012-12-29T10:21:30Z</time>
      </trkpt>
      <trkpt lat="46.5538" lon="-0.70659">
        <ele>106.4</ele>
        <time>2012-12-29T10:21:33Z</time>
      </trkpt>
      <trkpt lat="46.55371" lon="-0.70668">
        <ele>107.2</ele>
        <time>2012-12-29T10:21:39Z</time>
      </trkpt>
      <trkpt lat="46.55364" lon="-0.70675">
        <ele>107</ele>
        <time>2012-12-29T10:21:43Z</time>
      </trkpt>
      <trkpt lat="46.55358" lon="-0.70683">
        <ele>106.5</ele>
        <time>2012-12-29T10:21:50Z</time>
      </trkpt>
      <trkpt lat="46.55356" lon="-0.70688">
        <ele>106.9</ele>
        <time>2012-12-29T10:22:03Z</time>
      </trkpt>
      <trkpt lat="46.55354" lon="-0.70698">
        <ele>106.2</ele>
        <time>2012-12-29T10:22:25Z</time>
      </trkpt>
      <trkpt lat="46.55357" lon="-0.70708">
        <ele>106.8</ele>
        <time>2012-12-29T10:22:29Z</time>
      </trkpt>
      <trkpt lat="46.55362" lon="-0.70714">
        <ele>107</ele>
        <time>2012-12-29T10:22:32Z</time>
      </trkpt>
      <trkpt lat="46.55365" lon="-0.70718">
        <ele>106.8</ele>
        <time>2012-12-29T10:22:34Z</time>
      </trkpt>
      <trkpt lat="46.55369" lon="-0.70723">
        <ele>106.8</ele>
        <time>2012-12-29T10:22:36Z</time>
      </trkpt>
      <trkpt lat="46.55373" lon="-0.70729">
        <ele>106.8</ele>
        <time>2012-12-29T10:22:38Z</time>
      </trkpt>
      <trkpt lat="46.55377" lon="-0.70734">
        <ele>107.2</ele>
        <time>2012-12-29T10:22:40Z</time>
      </trkpt>
      <trkpt lat="46.55382" lon="-0.70743">
        <ele>107.6</ele>
        <time>2012-12-29T10:22:43Z</time>
      </trkpt>
      <trkpt lat="46.55388" lon="-0.70751">
        <ele>107.8</ele>
        <time>2012-12-29T10:22:46Z</time>
      </trkpt>
      <trkpt lat="46.55392" lon="-0.70756">
        <ele>108.4</ele>
        <time>2012-12-29T10:22:48Z</time>
      </trkpt>
      <trkpt lat="46.55396" lon="-0.70761">
        <ele>109.3</ele>
        <time>2012-12-29T10:22:50Z</time>
      </trkpt>
      <trkpt lat="46.55402" lon="-0.70769">
        <ele>109.5</ele>
        <time>2012-12-29T10:22:53Z</time>
      </trkpt>
      <trkpt lat="46.55407" lon="-0.70776">
        <ele>109.2</ele>
        <time>2012-12-29T10:22:56Z</time>
      </trkpt>
      <trkpt lat="46.55407" lon="-0.70785">
        <ele>109.8</ele>
        <time>2012-12-29T10:23:00Z</time>
      </trkpt>
      <trkpt lat="46.55406" lon="-0.70791">
        <ele>110</ele>
        <time>2012-12-29T10:23:02Z</time>
      </trkpt>
      <trkpt lat="46.55403" lon="-0.70797">
        <ele>110</ele>
        <time>2012-12-29T10:23:04Z</time>
      </trkpt>
      <trkpt lat="46.55399" lon="-0.70804">
        <ele>109.9</ele>
        <time>2012-12-29T10:23:06Z</time>
      </trkpt>
      <trkpt lat="46.55394" lon="-0.7081">
        <ele>110.1</ele>
        <time>2012-12-29T10:23:08Z</time>
      </trkpt>
      <trkpt lat="46.55392" lon="-0.70814">
        <ele>110.2</ele>
        <time>2012-12-29T10:23:09Z</time>
      </trkpt>
      <trkpt lat="46.5538" lon="-0.70826">
        <ele>110.1</ele>
        <time>2012-12-29T10:23:13Z</time>
      </trkpt>
      <trkpt lat="46.55374" lon="-0.70833">
        <ele>110.5</ele>
        <time>2012-12-29T10:23:15Z</time>
      </trkpt>
      <trkpt lat="46.5537" lon="-0.70836">
        <ele>110.8</ele>
        <time>2012-12-29T10:23:16Z</time>
      </trkpt>
      <trkpt lat="46.55364" lon="-0.70844">
        <ele>111.2</ele>
        <time>2012-12-29T10:23:18Z</time>
      </trkpt>
      <trkpt lat="46.55361" lon="-0.70848">
        <ele>111.3</ele>
        <time>2012-12-29T10:23:19Z</time>
      </trkpt>
      <trkpt lat="46.55347" lon="-0.70862">
        <ele>111.4</ele>
        <time>2012-12-29T10:23:23Z</time>
      </trkpt>
      <trkpt lat="46.55343" lon="-0.70866">
        <ele>110.7</ele>
        <time>2012-12-29T10:23:24Z</time>
      </trkpt>
      <trkpt lat="46.55336" lon="-0.70873">
        <ele>109.8</ele>
        <time>2012-12-29T10:23:26Z</time>
      </trkpt>
      <trkpt lat="46.5533" lon="-0.7088">
        <ele>109.9</ele>
        <time>2012-12-29T10:23:28Z</time>
      </trkpt>
      <trkpt lat="46.55323" lon="-0.70887">
        <ele>110</ele>
        <time>2012-12-29T10:23:30Z</time>
      </trkpt>
      <trkpt lat="46.5531" lon="-0.70901">
        <ele>109.6</ele>
        <time>2012-12-29T10:23:34Z</time>
      </trkpt>
      <trkpt lat="46.55297" lon="-0.70916">
        <ele>109.7</ele>
        <time>2012-12-29T10:23:38Z</time>
      </trkpt>
      <trkpt lat="46.55294" lon="-0.7092">
        <ele>109.6</ele>
        <time>2012-12-29T10:23:39Z</time>
      </trkpt>
      <trkpt lat="46.5529" lon="-0.70929">
        <ele>109.3</ele>
        <time>2012-12-29T10:23:41Z</time>
      </trkpt>
      <trkpt lat="46.55287" lon="-0.70938">
        <ele>109.1</ele>
        <time>2012-12-29T10:23:43Z</time>
      </trkpt>
      <trkpt lat="46.55284" lon="-0.70945">
        <ele>109</ele>
        <time>2012-12-29T10:23:45Z</time>
      </trkpt>
      <trkpt lat="46.55278" lon="-0.70961">
        <ele>108.5</ele>
        <time>2012-12-29T10:23:49Z</time>
      </trkpt>
      <trkpt lat="46.55273" lon="-0.70971">
        <ele>108.6</ele>
        <time>2012-12-29T10:23:51Z</time>
      </trkpt>
      <trkpt lat="46.5527" lon="-0.70977">
        <ele>108.6</ele>
        <time>2012-12-29T10:23:52Z</time>
      </trkpt>
      <trkpt lat="46.55268" lon="-0.70983">
        <ele>108.6</ele>
        <time>2012-12-29T10:23:53Z</time>
      </trkpt>
      <trkpt lat="46.55255" lon="-0.71012">
        <ele>108.1</ele>
        <time>2012-12-29T10:23:57Z</time>
      </trkpt>
      <trkpt lat="46.55251" lon="-0.7102">
        <ele>107.9</ele>
        <time>2012-12-29T10:23:58Z</time>
      </trkpt>
      <trkpt lat="46.55237" lon="-0.71052">
        <ele>106.2</ele>
        <time>2012-12-29T10:24:02Z</time>
      </trkpt>
      <trkpt lat="46.55234" lon="-0.7106">
        <ele>106.1</ele>
        <time>2012-12-29T10:24:03Z</time>
      </trkpt>
      <trkpt lat="46.55224" lon="-0.71084">
        <ele>105.9</ele>
        <time>2012-12-29T10:24:06Z</time>
      </trkpt>
      <trkpt lat="46.5522" lon="-0.71091">
        <ele>105.8</ele>
        <time>2012-12-29T10:24:07Z</time>
      </trkpt>
      <trkpt lat="46.5521" lon="-0.71114">
        <ele>105.7</ele>
        <time>2012-12-29T10:24:10Z</time>
      </trkpt>
      <trkpt lat="46.55207" lon="-0.71122">
        <ele>105.7</ele>
        <time>2012-12-29T10:24:11Z</time>
      </trkpt>
      <trkpt lat="46.55203" lon="-0.7113">
        <ele>105.4</ele>
        <time>2012-12-29T10:24:12Z</time>
      </trkpt>
      <trkpt lat="46.55192" lon="-0.71158">
        <ele>104.7</ele>
        <time>2012-12-29T10:24:16Z</time>
      </trkpt>
      <trkpt lat="46.55182" lon="-0.71177">
        <ele>105</ele>
        <time>2012-12-29T10:24:19Z</time>
      </trkpt>
      <trkpt lat="46.55179" lon="-0.71183">
        <ele>105.1</ele>
        <time>2012-12-29T10:24:20Z</time>
      </trkpt>
      <trkpt lat="46.55175" lon="-0.71188">
        <ele>105.2</ele>
        <time>2012-12-29T10:24:21Z</time>
      </trkpt>
      <trkpt lat="46.55165" lon="-0.71203">
        <ele>105.6</ele>
        <time>2012-12-29T10:24:24Z</time>
      </trkpt>
      <trkpt lat="46.55158" lon="-0.71213">
        <ele>105.8</ele>
        <time>2012-12-29T10:24:26Z</time>
      </trkpt>
      <trkpt lat="46.55144" lon="-0.71234">
        <ele>106.5</ele>
        <time>2012-12-29T10:24:30Z</time>
      </trkpt>
      <trkpt lat="46.55141" lon="-0.71239">
        <ele>106.9</ele>
        <time>2012-12-29T10:24:31Z</time>
      </trkpt>
      <trkpt lat="46.55139" lon="-0.71245">
        <ele>107.1</ele>
        <time>2012-12-29T10:24:32Z</time>
      </trkpt>
      <trkpt lat="46.55134" lon="-0.71257">
        <ele>107</ele>
        <time>2012-12-29T10:24:34Z</time>
      </trkpt>
      <trkpt lat="46.55131" lon="-0.7127">
        <ele>106.7</ele>
        <time>2012-12-29T10:24:36Z</time>
      </trkpt>
      <trkpt lat="46.55129" lon="-0.71277">
        <ele>106.6</ele>
        <time>2012-12-29T10:24:37Z</time>
      </trkpt>
      <trkpt lat="46.55129" lon="-0.71283">
        <ele>107.1</ele>
        <time>2012-12-29T10:24:38Z</time>
      </trkpt>
      <trkpt lat="46.55129" lon="-0.7129">
        <ele>107.5</ele>
        <time>2012-12-29T10:24:39Z</time>
      </trkpt>
      <trkpt lat="46.55129" lon="-0.71297">
        <ele>107.8</ele>
        <time>2012-12-29T10:24:40Z</time>
      </trkpt>
      <trkpt lat="46.55129" lon="-0.7131">
        <ele>107.6</ele>
        <time>2012-12-29T10:24:42Z</time>
      </trkpt>
      <trkpt lat="46.55129" lon="-0.71317">
        <ele>107.5</ele>
        <time>2012-12-29T10:24:43Z</time>
      </trkpt>
      <trkpt lat="46.55131" lon="-0.71343">
        <ele>107.8</ele>
        <time>2012-12-29T10:24:47Z</time>
      </trkpt>
      <trkpt lat="46.55132" lon="-0.71357">
        <ele>108.3</ele>
        <time>2012-12-29T10:24:49Z</time>
      </trkpt>
      <trkpt lat="46.55132" lon="-0.71382">
        <ele>109.4</ele>
        <time>2012-12-29T10:24:53Z</time>
      </trkpt>
      <trkpt lat="46.55132" lon="-0.714">
        <ele>108.8</ele>
        <time>2012-12-29T10:24:56Z</time>
      </trkpt>
      <trkpt lat="46.55133" lon="-0.71412">
        <ele>108.5</ele>
        <time>2012-12-29T10:24:58Z</time>
      </trkpt>
      <trkpt lat="46.55136" lon="-0.71422">
        <ele>108.8</ele>
        <time>2012-12-29T10:25:00Z</time>
      </trkpt>
      <trkpt lat="46.55142" lon="-0.7143">
        <ele>109.4</ele>
        <time>2012-12-29T10:25:02Z</time>
      </trkpt>
      <trkpt lat="46.55145" lon="-0.71433">
        <ele>109.4</ele>
        <time>2012-12-29T10:25:03Z</time>
      </trkpt>
      <trkpt lat="46.55153" lon="-0.71438">
        <ele>109.4</ele>
        <time>2012-12-29T10:25:05Z</time>
      </trkpt>
      <trkpt lat="46.5516" lon="-0.71442">
        <ele>109.7</ele>
        <time>2012-12-29T10:25:07Z</time>
      </trkpt>
      <trkpt lat="46.55168" lon="-0.71447">
        <ele>109.8</ele>
        <time>2012-12-29T10:25:09Z</time>
      </trkpt>
      <trkpt lat="46.55172" lon="-0.71449">
        <ele>109.9</ele>
        <time>2012-12-29T10:25:10Z</time>
      </trkpt>
      <trkpt lat="46.55188" lon="-0.7146">
        <ele>110.1</ele>
        <time>2012-12-29T10:25:14Z</time>
      </trkpt>
      <trkpt lat="46.55197" lon="-0.71464">
        <ele>110.1</ele>
        <time>2012-12-29T10:25:16Z</time>
      </trkpt>
      <trkpt lat="46.55205" lon="-0.71468">
        <ele>110.2</ele>
        <time>2012-12-29T10:25:18Z</time>
      </trkpt>
      <trkpt lat="46.55214" lon="-0.71473">
        <ele>109.9</ele>
        <time>2012-12-29T10:25:20Z</time>
      </trkpt>
      <trkpt lat="46.55223" lon="-0.71477">
        <ele>109.7</ele>
        <time>2012-12-29T10:25:22Z</time>
      </trkpt>
      <trkpt lat="46.55231" lon="-0.71483">
        <ele>109.7</ele>
        <time>2012-12-29T10:25:24Z</time>
      </trkpt>
      <trkpt lat="46.55239" lon="-0.7149">
        <ele>109.6</ele>
        <time>2012-12-29T10:25:26Z</time>
      </trkpt>
      <trkpt lat="46.55243" lon="-0.71502">
        <ele>109.4</ele>
        <time>2012-12-29T10:25:28Z</time>
      </trkpt>
      <trkpt lat="46.55242" lon="-0.71515">
        <ele>110.4</ele>
        <time>2012-12-29T10:25:30Z</time>
      </trkpt>
      <trkpt lat="46.5524" lon="-0.71521">
        <ele>110.7</ele>
        <time>2012-12-29T10:25:31Z</time>
      </trkpt>
      <trkpt lat="46.55234" lon="-0.7154">
        <ele>110.5</ele>
        <time>2012-12-29T10:25:34Z</time>
      </trkpt>
      <trkpt lat="46.55231" lon="-0.71546">
        <ele>110.6</ele>
        <time>2012-12-29T10:25:35Z</time>
      </trkpt>
      <trkpt lat="46.55228" lon="-0.71551">
        <ele>110.6</ele>
        <time>2012-12-29T10:25:36Z</time>
      </trkpt>
      <trkpt lat="46.55226" lon="-0.71557">
        <ele>110.7</ele>
        <time>2012-12-29T10:25:37Z</time>
      </trkpt>
      <trkpt lat="46.55221" lon="-0.71567">
        <ele>109.8</ele>
        <time>2012-12-29T10:25:39Z</time>
      </trkpt>
      <trkpt lat="46.55219" lon="-0.71573">
        <ele>109.5</ele>
        <time>2012-12-29T10:25:40Z</time>
      </trkpt>
      <trkpt lat="46.55215" lon="-0.71585">
        <ele>109.7</ele>
        <time>2012-12-29T10:25:42Z</time>
      </trkpt>
      <trkpt lat="46.55212" lon="-0.71599">
        <ele>109.8</ele>
        <time>2012-12-29T10:25:44Z</time>
      </trkpt>
      <trkpt lat="46.55209" lon="-0.71612">
        <ele>110.1</ele>
        <time>2012-12-29T10:25:46Z</time>
      </trkpt>
      <trkpt lat="46.55207" lon="-0.71628">
        <ele>109.9</ele>
        <time>2012-12-29T10:25:48Z</time>
      </trkpt>
      <trkpt lat="46.55206" lon="-0.71636">
        <ele>109.7</ele>
        <time>2012-12-29T10:25:49Z</time>
      </trkpt>
      <trkpt lat="46.55203" lon="-0.7166">
        <ele>108.9</ele>
        <time>2012-12-29T10:25:52Z</time>
      </trkpt>
      <trkpt lat="46.552" lon="-0.71677">
        <ele>108.5</ele>
        <time>2012-12-29T10:25:54Z</time>
      </trkpt>
      <trkpt lat="46.55197" lon="-0.71684">
        <ele>108.3</ele>
        <time>2012-12-29T10:25:55Z</time>
      </trkpt>
      <trkpt lat="46.55194" lon="-0.71692">
        <ele>108.2</ele>
        <time>2012-12-29T10:25:56Z</time>
      </trkpt>
      <trkpt lat="46.5519" lon="-0.71698">
        <ele>107.6</ele>
        <time>2012-12-29T10:25:57Z</time>
      </trkpt>
      <trkpt lat="46.55187" lon="-0.71706">
        <ele>107.1</ele>
        <time>2012-12-29T10:25:58Z</time>
      </trkpt>
      <trkpt lat="46.5518" lon="-0.71722">
        <ele>106.5</ele>
        <time>2012-12-29T10:26:00Z</time>
      </trkpt>
      <trkpt lat="46.55177" lon="-0.7173">
        <ele>106.3</ele>
        <time>2012-12-29T10:26:01Z</time>
      </trkpt>
      <trkpt lat="46.55175" lon="-0.7174">
        <ele>106.1</ele>
        <time>2012-12-29T10:26:02Z</time>
      </trkpt>
      <trkpt lat="46.55173" lon="-0.71749">
        <ele>106</ele>
        <time>2012-12-29T10:26:03Z</time>
      </trkpt>
      <trkpt lat="46.55172" lon="-0.71759">
        <ele>105.8</ele>
        <time>2012-12-29T10:26:04Z</time>
      </trkpt>
      <trkpt lat="46.55173" lon="-0.71768">
        <ele>105.6</ele>
        <time>2012-12-29T10:26:05Z</time>
      </trkpt>
      <trkpt lat="46.55174" lon="-0.71778">
        <ele>105.5</ele>
        <time>2012-12-29T10:26:06Z</time>
      </trkpt>
      <trkpt lat="46.55178" lon="-0.71796">
        <ele>105.3</ele>
        <time>2012-12-29T10:26:08Z</time>
      </trkpt>
      <trkpt lat="46.55182" lon="-0.71813">
        <ele>104.8</ele>
        <time>2012-12-29T10:26:10Z</time>
      </trkpt>
      <trkpt lat="46.55188" lon="-0.71837">
        <ele>103.5</ele>
        <time>2012-12-29T10:26:13Z</time>
      </trkpt>
      <trkpt lat="46.55192" lon="-0.71853">
        <ele>102.8</ele>
        <time>2012-12-29T10:26:15Z</time>
      </trkpt>
      <trkpt lat="46.55194" lon="-0.71862">
        <ele>102.5</ele>
        <time>2012-12-29T10:26:16Z</time>
      </trkpt>
      <trkpt lat="46.55195" lon="-0.7187">
        <ele>102.5</ele>
        <time>2012-12-29T10:26:17Z</time>
      </trkpt>
      <trkpt lat="46.55197" lon="-0.71878">
        <ele>102.5</ele>
        <time>2012-12-29T10:26:18Z</time>
      </trkpt>
      <trkpt lat="46.552" lon="-0.71893">
        <ele>102.8</ele>
        <time>2012-12-29T10:26:20Z</time>
      </trkpt>
      <trkpt lat="46.55203" lon="-0.71916">
        <ele>103.2</ele>
        <time>2012-12-29T10:26:23Z</time>
      </trkpt>
      <trkpt lat="46.55209" lon="-0.71943">
        <ele>103.3</ele>
        <time>2012-12-29T10:26:27Z</time>
      </trkpt>
      <trkpt lat="46.55213" lon="-0.71956">
        <ele>103.1</ele>
        <time>2012-12-29T10:26:29Z</time>
      </trkpt>
      <trkpt lat="46.55216" lon="-0.71968">
        <ele>102.9</ele>
        <time>2012-12-29T10:26:31Z</time>
      </trkpt>
      <trkpt lat="46.5522" lon="-0.71978">
        <ele>102.8</ele>
        <time>2012-12-29T10:26:33Z</time>
      </trkpt>
      <trkpt lat="46.55227" lon="-0.71994">
        <ele>103.3</ele>
        <time>2012-12-29T10:26:36Z</time>
      </trkpt>
      <trkpt lat="46.55233" lon="-0.72009">
        <ele>104.2</ele>
        <time>2012-12-29T10:26:39Z</time>
      </trkpt>
      <trkpt lat="46.55237" lon="-0.7202">
        <ele>104.5</ele>
        <time>2012-12-29T10:26:41Z</time>
      </trkpt>
      <trkpt lat="46.55239" lon="-0.72025">
        <ele>104.3</ele>
        <time>2012-12-29T10:26:42Z</time>
      </trkpt>
      <trkpt lat="46.55243" lon="-0.72036">
        <ele>104</ele>
        <time>2012-12-29T10:26:44Z</time>
      </trkpt>
      <trkpt lat="46.5525" lon="-0.72052">
        <ele>104.4</ele>
        <time>2012-12-29T10:26:47Z</time>
      </trkpt>
      <trkpt lat="46.55255" lon="-0.72062">
        <ele>104.6</ele>
        <time>2012-12-29T10:26:49Z</time>
      </trkpt>
      <trkpt lat="46.5526" lon="-0.72071">
        <ele>104.7</ele>
        <time>2012-12-29T10:26:51Z</time>
      </trkpt>
      <trkpt lat="46.55264" lon="-0.7208">
        <ele>104.5</ele>
        <time>2012-12-29T10:26:53Z</time>
      </trkpt>
      <trkpt lat="46.55273" lon="-0.72098">
        <ele>104.4</ele>
        <time>2012-12-29T10:26:57Z</time>
      </trkpt>
      <trkpt lat="46.55278" lon="-0.72107">
        <ele>104.8</ele>
        <time>2012-12-29T10:26:59Z</time>
      </trkpt>
      <trkpt lat="46.55285" lon="-0.72121">
        <ele>104.3</ele>
        <time>2012-12-29T10:27:02Z</time>
      </trkpt>
      <trkpt lat="46.5529" lon="-0.7213">
        <ele>103.9</ele>
        <time>2012-12-29T10:27:04Z</time>
      </trkpt>
      <trkpt lat="46.55294" lon="-0.72146">
        <ele>104.2</ele>
        <time>2012-12-29T10:27:10Z</time>
      </trkpt>
      <trkpt lat="46.55288" lon="-0.72155">
        <ele>103.2</ele>
        <time>2012-12-29T10:27:58Z</time>
      </trkpt>
      <trkpt lat="46.55292" lon="-0.72158">
        <ele>103</ele>
        <time>2012-12-29T10:28:28Z</time>
      </trkpt>
      <trkpt lat="46.55293" lon="-0.72161">
        <ele>102.4</ele>
        <time>2012-12-29T10:33:16Z</time>
      </trkpt>
      <trkpt lat="46.55286" lon="-0.72161">
        <ele>103.6</ele>
        <time>2012-12-29T10:33:56Z</time>
      </trkpt>
      <trkpt lat="46.55281" lon="-0.7218">
        <ele>102.8</ele>
        <time>2012-12-29T10:34:18Z</time>
      </trkpt>
      <trkpt lat="46.5528" lon="-0.72186">
        <ele>103.1</ele>
        <time>2012-12-29T10:34:20Z</time>
      </trkpt>
      <trkpt lat="46.55277" lon="-0.72194">
        <ele>103.4</ele>
        <time>2012-12-29T10:34:22Z</time>
      </trkpt>
      <trkpt lat="46.55273" lon="-0.72206">
        <ele>103.5</ele>
        <time>2012-12-29T10:34:25Z</time>
      </trkpt>
      <trkpt lat="46.55266" lon="-0.72224">
        <ele>103.3</ele>
        <time>2012-12-29T10:34:29Z</time>
      </trkpt>
      <trkpt lat="46.55263" lon="-0.72233">
        <ele>103.2</ele>
        <time>2012-12-29T10:34:31Z</time>
      </trkpt>
      <trkpt lat="46.55261" lon="-0.72238">
        <ele>103.2</ele>
        <time>2012-12-29T10:34:32Z</time>
      </trkpt>
      <trkpt lat="46.55259" lon="-0.72248">
        <ele>103.2</ele>
        <time>2012-12-29T10:34:34Z</time>
      </trkpt>
      <trkpt lat="46.55257" lon="-0.72253">
        <ele>103.2</ele>
        <time>2012-12-29T10:34:35Z</time>
      </trkpt>
      <trkpt lat="46.55253" lon="-0.72262">
        <ele>103.2</ele>
        <time>2012-12-29T10:34:37Z</time>
      </trkpt>
      <trkpt lat="46.5525" lon="-0.72271">
        <ele>103.5</ele>
        <time>2012-12-29T10:34:39Z</time>
      </trkpt>
      <trkpt lat="46.55247" lon="-0.7228">
        <ele>103.6</ele>
        <time>2012-12-29T10:34:41Z</time>
      </trkpt>
      <trkpt lat="46.55246" lon="-0.72285">
        <ele>103.6</ele>
        <time>2012-12-29T10:34:42Z</time>
      </trkpt>
      <trkpt lat="46.55241" lon="-0.723">
        <ele>103.6</ele>
        <time>2012-12-29T10:34:45Z</time>
      </trkpt>
      <trkpt lat="46.55238" lon="-0.72309">
        <ele>103.9</ele>
        <time>2012-12-29T10:34:47Z</time>
      </trkpt>
      <trkpt lat="46.55237" lon="-0.72314">
        <ele>104.1</ele>
        <time>2012-12-29T10:34:48Z</time>
      </trkpt>
      <trkpt lat="46.55233" lon="-0.72328">
        <ele>103.9</ele>
        <time>2012-12-29T10:34:51Z</time>
      </trkpt>
      <trkpt lat="46.55229" lon="-0.72338">
        <ele>103.1</ele>
        <time>2012-12-29T10:34:53Z</time>
      </trkpt>
      <trkpt lat="46.55223" lon="-0.72348">
        <ele>103</ele>
        <time>2012-12-29T10:34:55Z</time>
      </trkpt>
      <trkpt lat="46.55214" lon="-0.72363">
        <ele>103</ele>
        <time>2012-12-29T10:34:58Z</time>
      </trkpt>
      <trkpt lat="46.55211" lon="-0.72368">
        <ele>103</ele>
        <time>2012-12-29T10:34:59Z</time>
      </trkpt>
      <trkpt lat="46.55207" lon="-0.72373">
        <ele>102.8</ele>
        <time>2012-12-29T10:35:00Z</time>
      </trkpt>
      <trkpt lat="46.5519" lon="-0.72394">
        <ele>102.3</ele>
        <time>2012-12-29T10:35:04Z</time>
      </trkpt>
      <trkpt lat="46.55173" lon="-0.72416">
        <ele>102</ele>
        <time>2012-12-29T10:35:08Z</time>
      </trkpt>
      <trkpt lat="46.55165" lon="-0.72427">
        <ele>101.6</ele>
        <time>2012-12-29T10:35:10Z</time>
      </trkpt>
      <trkpt lat="46.55152" lon="-0.72443">
        <ele>100.7</ele>
        <time>2012-12-29T10:35:13Z</time>
      </trkpt>
      <trkpt lat="46.55144" lon="-0.72453">
        <ele>100</ele>
        <time>2012-12-29T10:35:15Z</time>
      </trkpt>
      <trkpt lat="46.5513" lon="-0.72474">
        <ele>100.4</ele>
        <time>2012-12-29T10:35:19Z</time>
      </trkpt>
      <trkpt lat="46.55123" lon="-0.72486">
        <ele>100.4</ele>
        <time>2012-12-29T10:35:21Z</time>
      </trkpt>
      <trkpt lat="46.55116" lon="-0.72499">
        <ele>100</ele>
        <time>2012-12-29T10:35:23Z</time>
      </trkpt>
      <trkpt lat="46.5511" lon="-0.72511">
        <ele>99.8</ele>
        <time>2012-12-29T10:35:25Z</time>
      </trkpt>
      <trkpt lat="46.55097" lon="-0.72539">
        <ele>98.8</ele>
        <time>2012-12-29T10:35:29Z</time>
      </trkpt>
      <trkpt lat="46.55087" lon="-0.7256">
        <ele>98.6</ele>
        <time>2012-12-29T10:35:32Z</time>
      </trkpt>
      <trkpt lat="46.55083" lon="-0.72567">
        <ele>98.6</ele>
        <time>2012-12-29T10:35:33Z</time>
      </trkpt>
      <trkpt lat="46.55076" lon="-0.72583">
        <ele>98.1</ele>
        <time>2012-12-29T10:35:35Z</time>
      </trkpt>
      <trkpt lat="46.55059" lon="-0.72616">
        <ele>96.8</ele>
        <time>2012-12-29T10:35:39Z</time>
      </trkpt>
      <trkpt lat="46.5505" lon="-0.72634">
        <ele>96.5</ele>
        <time>2012-12-29T10:35:41Z</time>
      </trkpt>
      <trkpt lat="46.55036" lon="-0.72662">
        <ele>94.4</ele>
        <time>2012-12-29T10:35:44Z</time>
      </trkpt>
      <trkpt lat="46.55027" lon="-0.72682">
        <ele>94.2</ele>
        <time>2012-12-29T10:35:46Z</time>
      </trkpt>
      <trkpt lat="46.55018" lon="-0.72702">
        <ele>93.4</ele>
        <time>2012-12-29T10:35:48Z</time>
      </trkpt>
      <trkpt lat="46.55007" lon="-0.72733">
        <ele>92.5</ele>
        <time>2012-12-29T10:35:51Z</time>
      </trkpt>
      <trkpt lat="46.54998" lon="-0.7276">
        <ele>92.5</ele>
        <time>2012-12-29T10:35:54Z</time>
      </trkpt>
      <trkpt lat="46.54989" lon="-0.72785">
        <ele>92.3</ele>
        <time>2012-12-29T10:35:57Z</time>
      </trkpt>
      <trkpt lat="46.54982" lon="-0.72808">
        <ele>92.6</ele>
        <time>2012-12-29T10:36:00Z</time>
      </trkpt>
      <trkpt lat="46.54974" lon="-0.72829">
        <ele>93.1</ele>
        <time>2012-12-29T10:36:03Z</time>
      </trkpt>
      <trkpt lat="46.54972" lon="-0.72835">
        <ele>93.1</ele>
        <time>2012-12-29T10:36:04Z</time>
      </trkpt>
      <trkpt lat="46.54965" lon="-0.72856">
        <ele>93.5</ele>
        <time>2012-12-29T10:36:07Z</time>
      </trkpt>
      <trkpt lat="46.54963" lon="-0.72863">
        <ele>93.8</ele>
        <time>2012-12-29T10:36:08Z</time>
      </trkpt>
      <trkpt lat="46.5496" lon="-0.7287">
        <ele>94.1</ele>
        <time>2012-12-29T10:36:09Z</time>
      </trkpt>
      <trkpt lat="46.54957" lon="-0.72877">
        <ele>94.1</ele>
        <time>2012-12-29T10:36:10Z</time>
      </trkpt>
      <trkpt lat="46.54947" lon="-0.72904">
        <ele>94.5</ele>
        <time>2012-12-29T10:36:14Z</time>
      </trkpt>
      <trkpt lat="46.54943" lon="-0.72918">
        <ele>95</ele>
        <time>2012-12-29T10:36:16Z</time>
      </trkpt>
      <trkpt lat="46.54938" lon="-0.72932">
        <ele>95.4</ele>
        <time>2012-12-29T10:36:18Z</time>
      </trkpt>
      <trkpt lat="46.54927" lon="-0.7296">
        <ele>95.2</ele>
        <time>2012-12-29T10:36:22Z</time>
      </trkpt>
      <trkpt lat="46.54918" lon="-0.72981">
        <ele>95.9</ele>
        <time>2012-12-29T10:36:25Z</time>
      </trkpt>
      <trkpt lat="46.54912" lon="-0.72996">
        <ele>95.2</ele>
        <time>2012-12-29T10:36:27Z</time>
      </trkpt>
      <trkpt lat="46.54901" lon="-0.73019">
        <ele>94.5</ele>
        <time>2012-12-29T10:36:30Z</time>
      </trkpt>
      <trkpt lat="46.54897" lon="-0.73027">
        <ele>94.2</ele>
        <time>2012-12-29T10:36:31Z</time>
      </trkpt>
      <trkpt lat="46.54893" lon="-0.73035">
        <ele>94</ele>
        <time>2012-12-29T10:36:32Z</time>
      </trkpt>
      <trkpt lat="46.54889" lon="-0.73044">
        <ele>93.7</ele>
        <time>2012-12-29T10:36:33Z</time>
      </trkpt>
      <trkpt lat="46.54886" lon="-0.73053">
        <ele>93.5</ele>
        <time>2012-12-29T10:36:34Z</time>
      </trkpt>
      <trkpt lat="46.54884" lon="-0.73062">
        <ele>93.3</ele>
        <time>2012-12-29T10:36:35Z</time>
      </trkpt>
      <trkpt lat="46.5488" lon="-0.7308">
        <ele>92.7</ele>
        <time>2012-12-29T10:36:37Z</time>
      </trkpt>
      <trkpt lat="46.54874" lon="-0.73111">
        <ele>91.9</ele>
        <time>2012-12-29T10:36:41Z</time>
      </trkpt>
      <trkpt lat="46.5487" lon="-0.73131">
        <ele>92.4</ele>
        <time>2012-12-29T10:36:44Z</time>
      </trkpt>
      <trkpt lat="46.54868" lon="-0.73145">
        <ele>92.8</ele>
        <time>2012-12-29T10:36:46Z</time>
      </trkpt>
      <trkpt lat="46.54864" lon="-0.73165">
        <ele>93.4</ele>
        <time>2012-12-29T10:36:49Z</time>
      </trkpt>
      <trkpt lat="46.54859" lon="-0.73193">
        <ele>94.1</ele>
        <time>2012-12-29T10:36:53Z</time>
      </trkpt>
      <trkpt lat="46.54853" lon="-0.73219">
        <ele>93.8</ele>
        <time>2012-12-29T10:36:57Z</time>
      </trkpt>
      <trkpt lat="46.54852" lon="-0.73225">
        <ele>94.2</ele>
        <time>2012-12-29T10:36:58Z</time>
      </trkpt>
      <trkpt lat="46.54848" lon="-0.73237">
        <ele>94.8</ele>
        <time>2012-12-29T10:37:00Z</time>
      </trkpt>
      <trkpt lat="46.54841" lon="-0.73262">
        <ele>95.4</ele>
        <time>2012-12-29T10:37:04Z</time>
      </trkpt>
      <trkpt lat="46.54839" lon="-0.73268">
        <ele>96.1</ele>
        <time>2012-12-29T10:37:05Z</time>
      </trkpt>
      <trkpt lat="46.54833" lon="-0.73287">
        <ele>97.1</ele>
        <time>2012-12-29T10:37:08Z</time>
      </trkpt>
      <trkpt lat="46.54831" lon="-0.73294">
        <ele>97.1</ele>
        <time>2012-12-29T10:37:09Z</time>
      </trkpt>
      <trkpt lat="46.54829" lon="-0.733">
        <ele>97.2</ele>
        <time>2012-12-29T10:37:10Z</time>
      </trkpt>
      <trkpt lat="46.54827" lon="-0.73306">
        <ele>97.5</ele>
        <time>2012-12-29T10:37:11Z</time>
      </trkpt>
      <trkpt lat="46.54824" lon="-0.73319">
        <ele>98</ele>
        <time>2012-12-29T10:37:13Z</time>
      </trkpt>
      <trkpt lat="46.54815" lon="-0.73344">
        <ele>98.2</ele>
        <time>2012-12-29T10:37:17Z</time>
      </trkpt>
      <trkpt lat="46.54812" lon="-0.7335">
        <ele>98.5</ele>
        <time>2012-12-29T10:37:18Z</time>
      </trkpt>
      <trkpt lat="46.5481" lon="-0.73355">
        <ele>98.8</ele>
        <time>2012-12-29T10:37:19Z</time>
      </trkpt>
      <trkpt lat="46.54806" lon="-0.7336">
        <ele>98.9</ele>
        <time>2012-12-29T10:37:20Z</time>
      </trkpt>
      <trkpt lat="46.54803" lon="-0.73365">
        <ele>99.2</ele>
        <time>2012-12-29T10:37:21Z</time>
      </trkpt>
      <trkpt lat="46.54799" lon="-0.73368">
        <ele>99.4</ele>
        <time>2012-12-29T10:37:22Z</time>
      </trkpt>
      <trkpt lat="46.54794" lon="-0.73372">
        <ele>99.5</ele>
        <time>2012-12-29T10:37:23Z</time>
      </trkpt>
      <trkpt lat="46.5479" lon="-0.73374">
        <ele>99.8</ele>
        <time>2012-12-29T10:37:24Z</time>
      </trkpt>
      <trkpt lat="46.54781" lon="-0.73377">
        <ele>100.1</ele>
        <time>2012-12-29T10:37:26Z</time>
      </trkpt>
      <trkpt lat="46.54762" lon="-0.73382">
        <ele>99.5</ele>
        <time>2012-12-29T10:37:30Z</time>
      </trkpt>
      <trkpt lat="46.54752" lon="-0.73384">
        <ele>99.9</ele>
        <time>2012-12-29T10:37:32Z</time>
      </trkpt>
      <trkpt lat="46.54742" lon="-0.73385">
        <ele>100</ele>
        <time>2012-12-29T10:37:34Z</time>
      </trkpt>
      <trkpt lat="46.54737" lon="-0.73385">
        <ele>100.1</ele>
        <time>2012-12-29T10:37:35Z</time>
      </trkpt>
      <trkpt lat="46.54728" lon="-0.73385">
        <ele>99.7</ele>
        <time>2012-12-29T10:37:37Z</time>
      </trkpt>
      <trkpt lat="46.54718" lon="-0.73384">
        <ele>99.1</ele>
        <time>2012-12-29T10:37:39Z</time>
      </trkpt>
      <trkpt lat="46.54713" lon="-0.73383">
        <ele>99.3</ele>
        <time>2012-12-29T10:37:40Z</time>
      </trkpt>
      <trkpt lat="46.54709" lon="-0.73382">
        <ele>99.5</ele>
        <time>2012-12-29T10:37:41Z</time>
      </trkpt>
      <trkpt lat="46.54704" lon="-0.73382">
        <ele>99.7</ele>
        <time>2012-12-29T10:37:42Z</time>
      </trkpt>
      <trkpt lat="46.54699" lon="-0.73381">
        <ele>100.2</ele>
        <time>2012-12-29T10:37:43Z</time>
      </trkpt>
      <trkpt lat="46.54695" lon="-0.7338">
        <ele>100.6</ele>
        <time>2012-12-29T10:37:44Z</time>
      </trkpt>
      <trkpt lat="46.54681" lon="-0.73376">
        <ele>101</ele>
        <time>2012-12-29T10:37:47Z</time>
      </trkpt>
      <trkpt lat="46.54667" lon="-0.73373">
        <ele>101.5</ele>
        <time>2012-12-29T10:37:50Z</time>
      </trkpt>
      <trkpt lat="46.54657" lon="-0.73371">
        <ele>101.8</ele>
        <time>2012-12-29T10:37:52Z</time>
      </trkpt>
      <trkpt lat="46.54652" lon="-0.73371">
        <ele>102</ele>
        <time>2012-12-29T10:37:53Z</time>
      </trkpt>
      <trkpt lat="46.54647" lon="-0.7337">
        <ele>102.1</ele>
        <time>2012-12-29T10:37:54Z</time>
      </trkpt>
      <trkpt lat="46.54642" lon="-0.73371">
        <ele>102.2</ele>
        <time>2012-12-29T10:37:55Z</time>
      </trkpt>
      <trkpt lat="46.54627" lon="-0.73373">
        <ele>101.6</ele>
        <time>2012-12-29T10:37:58Z</time>
      </trkpt>
      <trkpt lat="46.54622" lon="-0.73374">
        <ele>101.4</ele>
        <time>2012-12-29T10:37:59Z</time>
      </trkpt>
      <trkpt lat="46.54617" lon="-0.73375">
        <ele>101.2</ele>
        <time>2012-12-29T10:38:00Z</time>
      </trkpt>
      <trkpt lat="46.54612" lon="-0.73377">
        <ele>101.1</ele>
        <time>2012-12-29T10:38:01Z</time>
      </trkpt>
      <trkpt lat="46.54608" lon="-0.73381">
        <ele>101.1</ele>
        <time>2012-12-29T10:38:02Z</time>
      </trkpt>
      <trkpt lat="46.54604" lon="-0.73385">
        <ele>101</ele>
        <time>2012-12-29T10:38:03Z</time>
      </trkpt>
      <trkpt lat="46.54594" lon="-0.734">
        <ele>101.4</ele>
        <time>2012-12-29T10:38:06Z</time>
      </trkpt>
      <trkpt lat="46.54591" lon="-0.73405">
        <ele>101.6</ele>
        <time>2012-12-29T10:38:07Z</time>
      </trkpt>
      <trkpt lat="46.54587" lon="-0.73409">
        <ele>101.7</ele>
        <time>2012-12-29T10:38:08Z</time>
      </trkpt>
      <trkpt lat="46.54574" lon="-0.73429">
        <ele>102.6</ele>
        <time>2012-12-29T10:38:12Z</time>
      </trkpt>
      <trkpt lat="46.54571" lon="-0.73434">
        <ele>103.1</ele>
        <time>2012-12-29T10:38:13Z</time>
      </trkpt>
      <trkpt lat="46.54567" lon="-0.73439">
        <ele>103.4</ele>
        <time>2012-12-29T10:38:14Z</time>
      </trkpt>
      <trkpt lat="46.54564" lon="-0.73444">
        <ele>103.5</ele>
        <time>2012-12-29T10:38:15Z</time>
      </trkpt>
      <trkpt lat="46.54553" lon="-0.73466">
        <ele>103</ele>
        <time>2012-12-29T10:38:19Z</time>
      </trkpt>
      <trkpt lat="46.54547" lon="-0.73476">
        <ele>102.9</ele>
        <time>2012-12-29T10:38:21Z</time>
      </trkpt>
      <trkpt lat="46.54545" lon="-0.73482">
        <ele>103</ele>
        <time>2012-12-29T10:38:22Z</time>
      </trkpt>
      <trkpt lat="46.54542" lon="-0.73488">
        <ele>103.1</ele>
        <time>2012-12-29T10:38:23Z</time>
      </trkpt>
      <trkpt lat="46.54533" lon="-0.7351">
        <ele>102.3</ele>
        <time>2012-12-29T10:38:27Z</time>
      </trkpt>
      <trkpt lat="46.5453" lon="-0.73516">
        <ele>102.4</ele>
        <time>2012-12-29T10:38:28Z</time>
      </trkpt>
      <trkpt lat="46.54527" lon="-0.73521">
        <ele>102.4</ele>
        <time>2012-12-29T10:38:29Z</time>
      </trkpt>
      <trkpt lat="46.54524" lon="-0.73527">
        <ele>102.5</ele>
        <time>2012-12-29T10:38:30Z</time>
      </trkpt>
      <trkpt lat="46.54521" lon="-0.73533">
        <ele>102.4</ele>
        <time>2012-12-29T10:38:31Z</time>
      </trkpt>
      <trkpt lat="46.5452" lon="-0.73544">
        <ele>102.3</ele>
        <time>2012-12-29T10:38:33Z</time>
      </trkpt>
      <trkpt lat="46.54517" lon="-0.73553">
        <ele>101.4</ele>
        <time>2012-12-29T10:38:35Z</time>
      </trkpt>
      <trkpt lat="46.54515" lon="-0.73558">
        <ele>101.1</ele>
        <time>2012-12-29T10:38:36Z</time>
      </trkpt>
      <trkpt lat="46.5451" lon="-0.73568">
        <ele>100.2</ele>
        <time>2012-12-29T10:38:38Z</time>
      </trkpt>
      <trkpt lat="46.54502" lon="-0.73584">
        <ele>99.8</ele>
        <time>2012-12-29T10:38:41Z</time>
      </trkpt>
      <trkpt lat="46.54499" lon="-0.7359">
        <ele>99.8</ele>
        <time>2012-12-29T10:38:42Z</time>
      </trkpt>
      <trkpt lat="46.54496" lon="-0.73595">
        <ele>99.8</ele>
        <time>2012-12-29T10:38:43Z</time>
      </trkpt>
      <trkpt lat="46.54491" lon="-0.73598">
        <ele>99.3</ele>
        <time>2012-12-29T10:38:44Z</time>
      </trkpt>
      <trkpt lat="46.54487" lon="-0.736">
        <ele>99</ele>
        <time>2012-12-29T10:38:45Z</time>
      </trkpt>
      <trkpt lat="46.54471" lon="-0.73604">
        <ele>98.3</ele>
        <time>2012-12-29T10:38:48Z</time>
      </trkpt>
      <trkpt lat="46.54465" lon="-0.73606">
        <ele>98.2</ele>
        <time>2012-12-29T10:38:49Z</time>
      </trkpt>
      <trkpt lat="46.5446" lon="-0.7361">
        <ele>97.9</ele>
        <time>2012-12-29T10:38:50Z</time>
      </trkpt>
      <trkpt lat="46.54456" lon="-0.73615">
        <ele>97.7</ele>
        <time>2012-12-29T10:38:51Z</time>
      </trkpt>
      <trkpt lat="46.54444" lon="-0.73632">
        <ele>97.4</ele>
        <time>2012-12-29T10:38:54Z</time>
      </trkpt>
      <trkpt lat="46.5444" lon="-0.73638">
        <ele>97.3</ele>
        <time>2012-12-29T10:38:55Z</time>
      </trkpt>
      <trkpt lat="46.54436" lon="-0.73642">
        <ele>96.9</ele>
        <time>2012-12-29T10:38:56Z</time>
      </trkpt>
      <trkpt lat="46.54431" lon="-0.73646">
        <ele>96.6</ele>
        <time>2012-12-29T10:38:57Z</time>
      </trkpt>
      <trkpt lat="46.54426" lon="-0.73648">
        <ele>96.4</ele>
        <time>2012-12-29T10:38:58Z</time>
      </trkpt>
      <trkpt lat="46.54421" lon="-0.73648">
        <ele>96.5</ele>
        <time>2012-12-29T10:38:59Z</time>
      </trkpt>
      <trkpt lat="46.54405" lon="-0.73649">
        <ele>96.6</ele>
        <time>2012-12-29T10:39:02Z</time>
      </trkpt>
      <trkpt lat="46.544" lon="-0.73649">
        <ele>96.8</ele>
        <time>2012-12-29T10:39:03Z</time>
      </trkpt>
      <trkpt lat="46.54395" lon="-0.7365">
        <ele>97</ele>
        <time>2012-12-29T10:39:04Z</time>
      </trkpt>
      <trkpt lat="46.54385" lon="-0.73652">
        <ele>96.9</ele>
        <time>2012-12-29T10:39:06Z</time>
      </trkpt>
      <trkpt lat="46.54371" lon="-0.73656">
        <ele>96.9</ele>
        <time>2012-12-29T10:39:09Z</time>
      </trkpt>
      <trkpt lat="46.54357" lon="-0.73662">
        <ele>97.6</ele>
        <time>2012-12-29T10:39:12Z</time>
      </trkpt>
      <trkpt lat="46.54347" lon="-0.73665">
        <ele>98</ele>
        <time>2012-12-29T10:39:14Z</time>
      </trkpt>
      <trkpt lat="46.54337" lon="-0.73668">
        <ele>97.8</ele>
        <time>2012-12-29T10:39:16Z</time>
      </trkpt>
      <trkpt lat="46.54321" lon="-0.73674">
        <ele>97.4</ele>
        <time>2012-12-29T10:39:19Z</time>
      </trkpt>
      <trkpt lat="46.54311" lon="-0.73677">
        <ele>96.9</ele>
        <time>2012-12-29T10:39:21Z</time>
      </trkpt>
      <trkpt lat="46.54289" lon="-0.73684">
        <ele>95.6</ele>
        <time>2012-12-29T10:39:25Z</time>
      </trkpt>
      <trkpt lat="46.54278" lon="-0.73688">
        <ele>95.3</ele>
        <time>2012-12-29T10:39:27Z</time>
      </trkpt>
      <trkpt lat="46.54268" lon="-0.73692">
        <ele>95.9</ele>
        <time>2012-12-29T10:39:29Z</time>
      </trkpt>
      <trkpt lat="46.54262" lon="-0.73694">
        <ele>96.1</ele>
        <time>2012-12-29T10:39:30Z</time>
      </trkpt>
      <trkpt lat="46.54257" lon="-0.73697">
        <ele>96.3</ele>
        <time>2012-12-29T10:39:31Z</time>
      </trkpt>
      <trkpt lat="46.54252" lon="-0.73701">
        <ele>96.4</ele>
        <time>2012-12-29T10:39:32Z</time>
      </trkpt>
      <trkpt lat="46.54247" lon="-0.73705">
        <ele>96.5</ele>
        <time>2012-12-29T10:39:33Z</time>
      </trkpt>
      <trkpt lat="46.54243" lon="-0.7371">
        <ele>96.6</ele>
        <time>2012-12-29T10:39:34Z</time>
      </trkpt>
      <trkpt lat="46.54239" lon="-0.73715">
        <ele>96.2</ele>
        <time>2012-12-29T10:39:35Z</time>
      </trkpt>
      <trkpt lat="46.54235" lon="-0.7372">
        <ele>95.9</ele>
        <time>2012-12-29T10:39:36Z</time>
      </trkpt>
      <trkpt lat="46.54227" lon="-0.73732">
        <ele>95.5</ele>
        <time>2012-12-29T10:39:38Z</time>
      </trkpt>
      <trkpt lat="46.54213" lon="-0.73749">
        <ele>94.6</ele>
        <time>2012-12-29T10:39:41Z</time>
      </trkpt>
      <trkpt lat="46.54199" lon="-0.73767">
        <ele>94</ele>
        <time>2012-12-29T10:39:44Z</time>
      </trkpt>
      <trkpt lat="46.54182" lon="-0.7379">
        <ele>93.7</ele>
        <time>2012-12-29T10:39:48Z</time>
      </trkpt>
      <trkpt lat="46.54172" lon="-0.73802">
        <ele>93.3</ele>
        <time>2012-12-29T10:39:50Z</time>
      </trkpt>
      <trkpt lat="46.54164" lon="-0.73814">
        <ele>93.6</ele>
        <time>2012-12-29T10:39:52Z</time>
      </trkpt>
      <trkpt lat="46.54155" lon="-0.73825">
        <ele>93.4</ele>
        <time>2012-12-29T10:39:54Z</time>
      </trkpt>
      <trkpt lat="46.5415" lon="-0.7383">
        <ele>93.3</ele>
        <time>2012-12-29T10:39:55Z</time>
      </trkpt>
      <trkpt lat="46.54146" lon="-0.73835">
        <ele>93.1</ele>
        <time>2012-12-29T10:39:56Z</time>
      </trkpt>
      <trkpt lat="46.54141" lon="-0.73838">
        <ele>93.4</ele>
        <time>2012-12-29T10:39:57Z</time>
      </trkpt>
      <trkpt lat="46.5413" lon="-0.73843">
        <ele>93.7</ele>
        <time>2012-12-29T10:39:59Z</time>
      </trkpt>
      <trkpt lat="46.54125" lon="-0.73845">
        <ele>93.8</ele>
        <time>2012-12-29T10:40:00Z</time>
      </trkpt>
      <trkpt lat="46.54106" lon="-0.7385">
        <ele>94.6</ele>
        <time>2012-12-29T10:40:04Z</time>
      </trkpt>
      <trkpt lat="46.54092" lon="-0.73853">
        <ele>95.6</ele>
        <time>2012-12-29T10:40:07Z</time>
      </trkpt>
      <trkpt lat="46.54078" lon="-0.73856">
        <ele>96.1</ele>
        <time>2012-12-29T10:40:10Z</time>
      </trkpt>
      <trkpt lat="46.54069" lon="-0.73858">
        <ele>95.6</ele>
        <time>2012-12-29T10:40:12Z</time>
      </trkpt>
      <trkpt lat="46.54065" lon="-0.73859">
        <ele>95.5</ele>
        <time>2012-12-29T10:40:13Z</time>
      </trkpt>
      <trkpt lat="46.54047" lon="-0.73864">
        <ele>96.6</ele>
        <time>2012-12-29T10:40:17Z</time>
      </trkpt>
      <trkpt lat="46.54038" lon="-0.73867">
        <ele>97</ele>
        <time>2012-12-29T10:40:19Z</time>
      </trkpt>
      <trkpt lat="46.54024" lon="-0.73873">
        <ele>97.4</ele>
        <time>2012-12-29T10:40:22Z</time>
      </trkpt>
      <trkpt lat="46.54015" lon="-0.73876">
        <ele>97.8</ele>
        <time>2012-12-29T10:40:24Z</time>
      </trkpt>
      <trkpt lat="46.53997" lon="-0.73882">
        <ele>97.8</ele>
        <time>2012-12-29T10:40:28Z</time>
      </trkpt>
      <trkpt lat="46.53988" lon="-0.73885">
        <ele>97.5</ele>
        <time>2012-12-29T10:40:30Z</time>
      </trkpt>
      <trkpt lat="46.53979" lon="-0.73889">
        <ele>97.6</ele>
        <time>2012-12-29T10:40:32Z</time>
      </trkpt>
      <trkpt lat="46.53965" lon="-0.73893">
        <ele>97.9</ele>
        <time>2012-12-29T10:40:35Z</time>
      </trkpt>
      <trkpt lat="46.53947" lon="-0.73898">
        <ele>97.8</ele>
        <time>2012-12-29T10:40:39Z</time>
      </trkpt>
      <trkpt lat="46.53928" lon="-0.73902">
        <ele>97.7</ele>
        <time>2012-12-29T10:40:43Z</time>
      </trkpt>
      <trkpt lat="46.53924" lon="-0.73904">
        <ele>97.7</ele>
        <time>2012-12-29T10:40:44Z</time>
      </trkpt>
      <trkpt lat="46.5391" lon="-0.73907">
        <ele>97.6</ele>
        <time>2012-12-29T10:40:47Z</time>
      </trkpt>
      <trkpt lat="46.53901" lon="-0.7391">
        <ele>97.9</ele>
        <time>2012-12-29T10:40:49Z</time>
      </trkpt>
      <trkpt lat="46.53896" lon="-0.73912">
        <ele>98</ele>
        <time>2012-12-29T10:40:50Z</time>
      </trkpt>
      <trkpt lat="46.53892" lon="-0.73915">
        <ele>97.7</ele>
        <time>2012-12-29T10:40:51Z</time>
      </trkpt>
      <trkpt lat="46.53888" lon="-0.73919">
        <ele>97.5</ele>
        <time>2012-12-29T10:40:52Z</time>
      </trkpt>
      <trkpt lat="46.53884" lon="-0.73924">
        <ele>97.3</ele>
        <time>2012-12-29T10:40:53Z</time>
      </trkpt>
      <trkpt lat="46.53882" lon="-0.7393">
        <ele>97.5</ele>
        <time>2012-12-29T10:40:54Z</time>
      </trkpt>
      <trkpt lat="46.5388" lon="-0.73937">
        <ele>97.6</ele>
        <time>2012-12-29T10:40:55Z</time>
      </trkpt>
      <trkpt lat="46.53879" lon="-0.73944">
        <ele>97.7</ele>
        <time>2012-12-29T10:40:56Z</time>
      </trkpt>
      <trkpt lat="46.53879" lon="-0.73951">
        <ele>97.7</ele>
        <time>2012-12-29T10:40:57Z</time>
      </trkpt>
      <trkpt lat="46.5388" lon="-0.73958">
        <ele>97.4</ele>
        <time>2012-12-29T10:40:58Z</time>
      </trkpt>
      <trkpt lat="46.53881" lon="-0.73973">
        <ele>97</ele>
        <time>2012-12-29T10:41:00Z</time>
      </trkpt>
      <trkpt lat="46.53882" lon="-0.73989">
        <ele>96.8</ele>
        <time>2012-12-29T10:41:02Z</time>
      </trkpt>
      <trkpt lat="46.53884" lon="-0.73997">
        <ele>96.7</ele>
        <time>2012-12-29T10:41:03Z</time>
      </trkpt>
      <trkpt lat="46.53886" lon="-0.74021">
        <ele>97.7</ele>
        <time>2012-12-29T10:41:06Z</time>
      </trkpt>
      <trkpt lat="46.5389" lon="-0.74038">
        <ele>96.5</ele>
        <time>2012-12-29T10:41:08Z</time>
      </trkpt>
      <trkpt lat="46.53894" lon="-0.74055">
        <ele>96</ele>
        <time>2012-12-29T10:41:10Z</time>
      </trkpt>
      <trkpt lat="46.53899" lon="-0.74073">
        <ele>95.9</ele>
        <time>2012-12-29T10:41:12Z</time>
      </trkpt>
      <trkpt lat="46.53906" lon="-0.741">
        <ele>95.3</ele>
        <time>2012-12-29T10:41:15Z</time>
      </trkpt>
      <trkpt lat="46.53912" lon="-0.74128">
        <ele>94.7</ele>
        <time>2012-12-29T10:41:18Z</time>
      </trkpt>
      <trkpt lat="46.53914" lon="-0.74136">
        <ele>94.6</ele>
        <time>2012-12-29T10:41:19Z</time>
      </trkpt>
      <trkpt lat="46.53918" lon="-0.74154">
        <ele>94.7</ele>
        <time>2012-12-29T10:41:21Z</time>
      </trkpt>
      <trkpt lat="46.53923" lon="-0.74181">
        <ele>93.7</ele>
        <time>2012-12-29T10:41:24Z</time>
      </trkpt>
      <trkpt lat="46.53929" lon="-0.74218">
        <ele>93.1</ele>
        <time>2012-12-29T10:41:28Z</time>
      </trkpt>
      <trkpt lat="46.53936" lon="-0.74254">
        <ele>91.7</ele>
        <time>2012-12-29T10:41:32Z</time>
      </trkpt>
      <trkpt lat="46.5394" lon="-0.74272">
        <ele>91.6</ele>
        <time>2012-12-29T10:41:34Z</time>
      </trkpt>
      <trkpt lat="46.53947" lon="-0.74298">
        <ele>91.2</ele>
        <time>2012-12-29T10:41:37Z</time>
      </trkpt>
      <trkpt lat="46.53952" lon="-0.74315">
        <ele>90.6</ele>
        <time>2012-12-29T10:41:39Z</time>
      </trkpt>
      <trkpt lat="46.53955" lon="-0.74324">
        <ele>90.3</ele>
        <time>2012-12-29T10:41:40Z</time>
      </trkpt>
      <trkpt lat="46.53956" lon="-0.74332">
        <ele>90</ele>
        <time>2012-12-29T10:41:41Z</time>
      </trkpt>
      <trkpt lat="46.53956" lon="-0.7434">
        <ele>89.9</ele>
        <time>2012-12-29T10:41:42Z</time>
      </trkpt>
      <trkpt lat="46.53954" lon="-0.74347">
        <ele>89.8</ele>
        <time>2012-12-29T10:41:43Z</time>
      </trkpt>
      <trkpt lat="46.53951" lon="-0.74354">
        <ele>89.7</ele>
        <time>2012-12-29T10:41:44Z</time>
      </trkpt>
      <trkpt lat="46.53944" lon="-0.74366">
        <ele>90.1</ele>
        <time>2012-12-29T10:41:46Z</time>
      </trkpt>
      <trkpt lat="46.53935" lon="-0.74386">
        <ele>90.3</ele>
        <time>2012-12-29T10:41:49Z</time>
      </trkpt>
      <trkpt lat="46.53927" lon="-0.74405">
        <ele>90.3</ele>
        <time>2012-12-29T10:41:52Z</time>
      </trkpt>
      <trkpt lat="46.53921" lon="-0.74423">
        <ele>91</ele>
        <time>2012-12-29T10:41:55Z</time>
      </trkpt>
      <trkpt lat="46.53916" lon="-0.74436">
        <ele>91.5</ele>
        <time>2012-12-29T10:41:57Z</time>
      </trkpt>
      <trkpt lat="46.53914" lon="-0.74442">
        <ele>91.5</ele>
        <time>2012-12-29T10:41:58Z</time>
      </trkpt>
      <trkpt lat="46.5391" lon="-0.74455">
        <ele>91.5</ele>
        <time>2012-12-29T10:42:00Z</time>
      </trkpt>
      <trkpt lat="46.53908" lon="-0.7446">
        <ele>91.9</ele>
        <time>2012-12-29T10:42:01Z</time>
      </trkpt>
      <trkpt lat="46.53903" lon="-0.74472">
        <ele>92.5</ele>
        <time>2012-12-29T10:42:03Z</time>
      </trkpt>
      <trkpt lat="46.53902" lon="-0.74477">
        <ele>92.6</ele>
        <time>2012-12-29T10:42:04Z</time>
      </trkpt>
      <trkpt lat="46.53898" lon="-0.74488">
        <ele>93.3</ele>
        <time>2012-12-29T10:42:06Z</time>
      </trkpt>
      <trkpt lat="46.53895" lon="-0.74497">
        <ele>93.5</ele>
        <time>2012-12-29T10:42:08Z</time>
      </trkpt>
      <trkpt lat="46.53896" lon="-0.74507">
        <ele>93.4</ele>
        <time>2012-12-29T10:42:10Z</time>
      </trkpt>
      <trkpt lat="46.539" lon="-0.74512">
        <ele>94</ele>
        <time>2012-12-29T10:42:12Z</time>
      </trkpt>
      <trkpt lat="46.53903" lon="-0.74514">
        <ele>94.2</ele>
        <time>2012-12-29T10:42:13Z</time>
      </trkpt>
      <trkpt lat="46.5391" lon="-0.74517">
        <ele>94.3</ele>
        <time>2012-12-29T10:42:15Z</time>
      </trkpt>
      <trkpt lat="46.53918" lon="-0.74521">
        <ele>94.2</ele>
        <time>2012-12-29T10:42:17Z</time>
      </trkpt>
      <trkpt lat="46.53926" lon="-0.74526">
        <ele>94.1</ele>
        <time>2012-12-29T10:42:19Z</time>
      </trkpt>
      <trkpt lat="46.53933" lon="-0.74533">
        <ele>93.9</ele>
        <time>2012-12-29T10:42:21Z</time>
      </trkpt>
      <trkpt lat="46.53939" lon="-0.7454">
        <ele>93.8</ele>
        <time>2012-12-29T10:42:23Z</time>
      </trkpt>
      <trkpt lat="46.53942" lon="-0.74543">
        <ele>93.4</ele>
        <time>2012-12-29T10:42:24Z</time>
      </trkpt>
      <trkpt lat="46.53949" lon="-0.74549">
        <ele>92.9</ele>
        <time>2012-12-29T10:42:26Z</time>
      </trkpt>
      <trkpt lat="46.53956" lon="-0.74553">
        <ele>92.7</ele>
        <time>2012-12-29T10:42:28Z</time>
      </trkpt>
      <trkpt lat="46.53963" lon="-0.74559">
        <ele>92.6</ele>
        <time>2012-12-29T10:42:30Z</time>
      </trkpt>
      <trkpt lat="46.5397" lon="-0.74565">
        <ele>92.5</ele>
        <time>2012-12-29T10:42:32Z</time>
      </trkpt>
      <trkpt lat="46.53978" lon="-0.74572">
        <ele>92.1</ele>
        <time>2012-12-29T10:42:34Z</time>
      </trkpt>
      <trkpt lat="46.53985" lon="-0.7458">
        <ele>91.9</ele>
        <time>2012-12-29T10:42:36Z</time>
      </trkpt>
      <trkpt lat="46.53989" lon="-0.74583">
        <ele>92</ele>
        <time>2012-12-29T10:42:37Z</time>
      </trkpt>
      <trkpt lat="46.54006" lon="-0.74594">
        <ele>92.5</ele>
        <time>2012-12-29T10:42:41Z</time>
      </trkpt>
      <trkpt lat="46.54022" lon="-0.74604">
        <ele>92.3</ele>
        <time>2012-12-29T10:42:45Z</time>
      </trkpt>
      <trkpt lat="46.54026" lon="-0.74607">
        <ele>92.7</ele>
        <time>2012-12-29T10:42:46Z</time>
      </trkpt>
      <trkpt lat="46.54043" lon="-0.74618">
        <ele>93.1</ele>
        <time>2012-12-29T10:42:50Z</time>
      </trkpt>
      <trkpt lat="46.54051" lon="-0.74623">
        <ele>92.7</ele>
        <time>2012-12-29T10:42:52Z</time>
      </trkpt>
      <trkpt lat="46.54056" lon="-0.74627">
        <ele>92.4</ele>
        <time>2012-12-29T10:42:53Z</time>
      </trkpt>
      <trkpt lat="46.54064" lon="-0.74632">
        <ele>92.1</ele>
        <time>2012-12-29T10:42:55Z</time>
      </trkpt>
      <trkpt lat="46.54069" lon="-0.74634">
        <ele>92.3</ele>
        <time>2012-12-29T10:42:56Z</time>
      </trkpt>
      <trkpt lat="46.54077" lon="-0.74639">
        <ele>92.6</ele>
        <time>2012-12-29T10:42:58Z</time>
      </trkpt>
      <trkpt lat="46.54081" lon="-0.74642">
        <ele>92.7</ele>
        <time>2012-12-29T10:42:59Z</time>
      </trkpt>
      <trkpt lat="46.54094" lon="-0.74649">
        <ele>92.9</ele>
        <time>2012-12-29T10:43:02Z</time>
      </trkpt>
      <trkpt lat="46.54106" lon="-0.74657">
        <ele>93</ele>
        <time>2012-12-29T10:43:05Z</time>
      </trkpt>
      <trkpt lat="46.54109" lon="-0.7466">
        <ele>93</ele>
        <time>2012-12-29T10:43:06Z</time>
      </trkpt>
      <trkpt lat="46.54116" lon="-0.74666">
        <ele>93.3</ele>
        <time>2012-12-29T10:43:08Z</time>
      </trkpt>
      <trkpt lat="46.54125" lon="-0.74676">
        <ele>93.8</ele>
        <time>2012-12-29T10:43:11Z</time>
      </trkpt>
      <trkpt lat="46.54129" lon="-0.74684">
        <ele>93.3</ele>
        <time>2012-12-29T10:43:14Z</time>
      </trkpt>
      <trkpt lat="46.54127" lon="-0.7469">
        <ele>93.2</ele>
        <time>2012-12-29T10:43:17Z</time>
      </trkpt>
      <trkpt lat="46.54125" lon="-0.747">
        <ele>93.2</ele>
        <time>2012-12-29T10:43:22Z</time>
      </trkpt>
      <trkpt lat="46.5412" lon="-0.74712">
        <ele>94.2</ele>
        <time>2012-12-29T10:43:27Z</time>
      </trkpt>
      <trkpt lat="46.54116" lon="-0.74722">
        <ele>93.5</ele>
        <time>2012-12-29T10:43:32Z</time>
      </trkpt>
      <trkpt lat="46.54113" lon="-0.74731">
        <ele>94.6</ele>
        <time>2012-12-29T10:43:36Z</time>
      </trkpt>
      <trkpt lat="46.54111" lon="-0.7474">
        <ele>94.9</ele>
        <time>2012-12-29T10:43:40Z</time>
      </trkpt>
      <trkpt lat="46.54109" lon="-0.74745">
        <ele>95</ele>
        <time>2012-12-29T10:43:42Z</time>
      </trkpt>
      <trkpt lat="46.54104" lon="-0.74752">
        <ele>94.9</ele>
        <time>2012-12-29T10:43:45Z</time>
      </trkpt>
      <trkpt lat="46.54101" lon="-0.74758">
        <ele>95.2</ele>
        <time>2012-12-29T10:43:47Z</time>
      </trkpt>
      <trkpt lat="46.54093" lon="-0.74775">
        <ele>95.8</ele>
        <time>2012-12-29T10:43:53Z</time>
      </trkpt>
      <trkpt lat="46.54088" lon="-0.74783">
        <ele>95.9</ele>
        <time>2012-12-29T10:43:56Z</time>
      </trkpt>
      <trkpt lat="46.54086" lon="-0.7479">
        <ele>96.3</ele>
        <time>2012-12-29T10:43:58Z</time>
      </trkpt>
      <trkpt lat="46.54082" lon="-0.74795">
        <ele>96.2</ele>
        <time>2012-12-29T10:44:00Z</time>
      </trkpt>
      <trkpt lat="46.54078" lon="-0.74801">
        <ele>96</ele>
        <time>2012-12-29T10:44:02Z</time>
      </trkpt>
      <trkpt lat="46.54075" lon="-0.74807">
        <ele>96</ele>
        <time>2012-12-29T10:44:04Z</time>
      </trkpt>
      <trkpt lat="46.54072" lon="-0.74813">
        <ele>96.5</ele>
        <time>2012-12-29T10:44:06Z</time>
      </trkpt>
      <trkpt lat="46.54067" lon="-0.7482">
        <ele>97.2</ele>
        <time>2012-12-29T10:44:09Z</time>
      </trkpt>
      <trkpt lat="46.54058" lon="-0.74835">
        <ele>97.3</ele>
        <time>2012-12-29T10:44:17Z</time>
      </trkpt>
      <trkpt lat="46.54049" lon="-0.74847">
        <ele>97.8</ele>
        <time>2012-12-29T10:44:22Z</time>
      </trkpt>
      <trkpt lat="46.54046" lon="-0.74851">
        <ele>97.8</ele>
        <time>2012-12-29T10:44:24Z</time>
      </trkpt>
      <trkpt lat="46.54042" lon="-0.74858">
        <ele>97.8</ele>
        <time>2012-12-29T10:44:27Z</time>
      </trkpt>
      <trkpt lat="46.54033" lon="-0.74871">
        <ele>97.8</ele>
        <time>2012-12-29T10:44:33Z</time>
      </trkpt>
      <trkpt lat="46.5403" lon="-0.74876">
        <ele>97.8</ele>
        <time>2012-12-29T10:44:35Z</time>
      </trkpt>
      <trkpt lat="46.54022" lon="-0.74888">
        <ele>97.1</ele>
        <time>2012-12-29T10:44:40Z</time>
      </trkpt>
      <trkpt lat="46.54016" lon="-0.74896">
        <ele>97.9</ele>
        <time>2012-12-29T10:44:44Z</time>
      </trkpt>
      <trkpt lat="46.5401" lon="-0.74901">
        <ele>98</ele>
        <time>2012-12-29T10:44:47Z</time>
      </trkpt>
      <trkpt lat="46.54003" lon="-0.74905">
        <ele>97.9</ele>
        <time>2012-12-29T10:44:51Z</time>
      </trkpt>
      <trkpt lat="46.53997" lon="-0.74911">
        <ele>98.2</ele>
        <time>2012-12-29T10:44:54Z</time>
      </trkpt>
      <trkpt lat="46.53992" lon="-0.74919">
        <ele>98.5</ele>
        <time>2012-12-29T10:44:57Z</time>
      </trkpt>
      <trkpt lat="46.53986" lon="-0.74926">
        <ele>97.7</ele>
        <time>2012-12-29T10:45:01Z</time>
      </trkpt>
      <trkpt lat="46.53979" lon="-0.7493">
        <ele>97.7</ele>
        <time>2012-12-29T10:45:05Z</time>
      </trkpt>
      <trkpt lat="46.53972" lon="-0.74929">
        <ele>98.5</ele>
        <time>2012-12-29T10:45:15Z</time>
      </trkpt>
      <trkpt lat="46.53966" lon="-0.74926">
        <ele>98.3</ele>
        <time>2012-12-29T10:45:19Z</time>
      </trkpt>
      <trkpt lat="46.53962" lon="-0.74924">
        <ele>98.1</ele>
        <time>2012-12-29T10:45:21Z</time>
      </trkpt>
      <trkpt lat="46.53955" lon="-0.74918">
        <ele>98.3</ele>
        <time>2012-12-29T10:45:25Z</time>
      </trkpt>
      <trkpt lat="46.53948" lon="-0.74915">
        <ele>98.4</ele>
        <time>2012-12-29T10:45:29Z</time>
      </trkpt>
      <trkpt lat="46.5394" lon="-0.74913">
        <ele>98.1</ele>
        <time>2012-12-29T10:45:33Z</time>
      </trkpt>
      <trkpt lat="46.53932" lon="-0.74912">
        <ele>99.3</ele>
        <time>2012-12-29T10:45:37Z</time>
      </trkpt>
      <trkpt lat="46.53928" lon="-0.74911">
        <ele>99.7</ele>
        <time>2012-12-29T10:45:39Z</time>
      </trkpt>
      <trkpt lat="46.53915" lon="-0.74905">
        <ele>99.8</ele>
        <time>2012-12-29T10:45:45Z</time>
      </trkpt>
      <trkpt lat="46.53911" lon="-0.74902">
        <ele>99.6</ele>
        <time>2012-12-29T10:45:47Z</time>
      </trkpt>
      <trkpt lat="46.53902" lon="-0.749">
        <ele>100.6</ele>
        <time>2012-12-29T10:45:51Z</time>
      </trkpt>
      <trkpt lat="46.53898" lon="-0.74898">
        <ele>100.6</ele>
        <time>2012-12-29T10:45:53Z</time>
      </trkpt>
      <trkpt lat="46.53892" lon="-0.74894">
        <ele>100.5</ele>
        <time>2012-12-29T10:45:57Z</time>
      </trkpt>
      <trkpt lat="46.53885" lon="-0.74891">
        <ele>99.8</ele>
        <time>2012-12-29T10:46:03Z</time>
      </trkpt>
      <trkpt lat="46.53879" lon="-0.74888">
        <ele>100.1</ele>
        <time>2012-12-29T10:46:08Z</time>
      </trkpt>
      <trkpt lat="46.53873" lon="-0.74885">
        <ele>99.9</ele>
        <time>2012-12-29T10:46:12Z</time>
      </trkpt>
      <trkpt lat="46.53867" lon="-0.7488">
        <ele>100.2</ele>
        <time>2012-12-29T10:46:16Z</time>
      </trkpt>
      <trkpt lat="46.53859" lon="-0.74878">
        <ele>100.6</ele>
        <time>2012-12-29T10:46:21Z</time>
      </trkpt>
      <trkpt lat="46.53856" lon="-0.74876">
        <ele>100.7</ele>
        <time>2012-12-29T10:46:23Z</time>
      </trkpt>
      <trkpt lat="46.5385" lon="-0.7487">
        <ele>100.8</ele>
        <time>2012-12-29T10:46:28Z</time>
      </trkpt>
      <trkpt lat="46.53846" lon="-0.74865">
        <ele>101.1</ele>
        <time>2012-12-29T10:46:31Z</time>
      </trkpt>
      <trkpt lat="46.53838" lon="-0.74859">
        <ele>101</ele>
        <time>2012-12-29T10:46:38Z</time>
      </trkpt>
      <trkpt lat="46.53836" lon="-0.74854">
        <ele>100.7</ele>
        <time>2012-12-29T10:46:41Z</time>
      </trkpt>
      <trkpt lat="46.53829" lon="-0.7485">
        <ele>99.9</ele>
        <time>2012-12-29T10:46:47Z</time>
      </trkpt>
      <trkpt lat="46.53824" lon="-0.74841">
        <ele>100.4</ele>
        <time>2012-12-29T10:46:59Z</time>
      </trkpt>
      <trkpt lat="46.53819" lon="-0.74833">
        <ele>100.7</ele>
        <time>2012-12-29T10:47:05Z</time>
      </trkpt>
      <trkpt lat="46.53816" lon="-0.7483">
        <ele>100.5</ele>
        <time>2012-12-29T10:47:07Z</time>
      </trkpt>
      <trkpt lat="46.5381" lon="-0.74825">
        <ele>100.5</ele>
        <time>2012-12-29T10:47:11Z</time>
      </trkpt>
      <trkpt lat="46.53805" lon="-0.74819">
        <ele>100.8</ele>
        <time>2012-12-29T10:47:15Z</time>
      </trkpt>
      <trkpt lat="46.53803" lon="-0.74813">
        <ele>101.1</ele>
        <time>2012-12-29T10:47:18Z</time>
      </trkpt>
      <trkpt lat="46.53799" lon="-0.74806">
        <ele>101.1</ele>
        <time>2012-12-29T10:47:23Z</time>
      </trkpt>
      <trkpt lat="46.53794" lon="-0.74798">
        <ele>100.6</ele>
        <time>2012-12-29T10:47:27Z</time>
      </trkpt>
      <trkpt lat="46.53792" lon="-0.74793">
        <ele>100.8</ele>
        <time>2012-12-29T10:47:29Z</time>
      </trkpt>
      <trkpt lat="46.53788" lon="-0.74788">
        <ele>100.5</ele>
        <time>2012-12-29T10:47:32Z</time>
      </trkpt>
      <trkpt lat="46.5378" lon="-0.74775">
        <ele>100.7</ele>
        <time>2012-12-29T10:47:39Z</time>
      </trkpt>
      <trkpt lat="46.53777" lon="-0.7477">
        <ele>101.3</ele>
        <time>2012-12-29T10:47:41Z</time>
      </trkpt>
      <trkpt lat="46.53776" lon="-0.74759">
        <ele>101.3</ele>
        <time>2012-12-29T10:47:45Z</time>
      </trkpt>
      <trkpt lat="46.53779" lon="-0.74754">
        <ele>99.9</ele>
        <time>2012-12-29T10:48:25Z</time>
      </trkpt>
      <trkpt lat="46.53788" lon="-0.74745">
        <ele>100</ele>
        <time>2012-12-29T10:48:54Z</time>
      </trkpt>
      <trkpt lat="46.53792" lon="-0.74742">
        <ele>100</ele>
        <time>2012-12-29T10:48:56Z</time>
      </trkpt>
      <trkpt lat="46.53796" lon="-0.74736">
        <ele>100.1</ele>
        <time>2012-12-29T10:48:58Z</time>
      </trkpt>
      <trkpt lat="46.53803" lon="-0.74731">
        <ele>99.6</ele>
        <time>2012-12-29T10:49:01Z</time>
      </trkpt>
      <trkpt lat="46.53808" lon="-0.74728">
        <ele>99.5</ele>
        <time>2012-12-29T10:49:03Z</time>
      </trkpt>
      <trkpt lat="46.53814" lon="-0.74722">
        <ele>99.4</ele>
        <time>2012-12-29T10:49:06Z</time>
      </trkpt>
      <trkpt lat="46.53828" lon="-0.74713">
        <ele>98.5</ele>
        <time>2012-12-29T10:49:13Z</time>
      </trkpt>
      <trkpt lat="46.53834" lon="-0.74708">
        <ele>98.2</ele>
        <time>2012-12-29T10:49:16Z</time>
      </trkpt>
      <trkpt lat="46.53837" lon="-0.74703">
        <ele>98.2</ele>
        <time>2012-12-29T10:49:18Z</time>
      </trkpt>
      <trkpt lat="46.53842" lon="-0.74695">
        <ele>98.2</ele>
        <time>2012-12-29T10:49:21Z</time>
      </trkpt>
      <trkpt lat="46.53846" lon="-0.74685">
        <ele>97.4</ele>
        <time>2012-12-29T10:49:25Z</time>
      </trkpt>
      <trkpt lat="46.53849" lon="-0.74679">
        <ele>97.4</ele>
        <time>2012-12-29T10:49:27Z</time>
      </trkpt>
      <trkpt lat="46.53855" lon="-0.74662">
        <ele>97.3</ele>
        <time>2012-12-29T10:49:32Z</time>
      </trkpt>
      <trkpt lat="46.53857" lon="-0.74655">
        <ele>97.1</ele>
        <time>2012-12-29T10:49:34Z</time>
      </trkpt>
      <trkpt lat="46.53859" lon="-0.74638">
        <ele>97.3</ele>
        <time>2012-12-29T10:49:38Z</time>
      </trkpt>
      <trkpt lat="46.53859" lon="-0.74626">
        <ele>97.4</ele>
        <time>2012-12-29T10:49:41Z</time>
      </trkpt>
      <trkpt lat="46.53859" lon="-0.74606">
        <ele>97.7</ele>
        <time>2012-12-29T10:49:47Z</time>
      </trkpt>
      <trkpt lat="46.53858" lon="-0.74601">
        <ele>97.7</ele>
        <time>2012-12-29T10:49:49Z</time>
      </trkpt>
      <trkpt lat="46.53855" lon="-0.74582">
        <ele>96</ele>
        <time>2012-12-29T10:49:57Z</time>
      </trkpt>
      <trkpt lat="46.53853" lon="-0.74573">
        <ele>96.2</ele>
        <time>2012-12-29T10:49:59Z</time>
      </trkpt>
      <trkpt lat="46.53852" lon="-0.74568">
        <ele>96.3</ele>
        <time>2012-12-29T10:50:00Z</time>
      </trkpt>
      <trkpt lat="46.53847" lon="-0.74551">
        <ele>96</ele>
        <time>2012-12-29T10:50:04Z</time>
      </trkpt>
      <trkpt lat="46.53843" lon="-0.74543">
        <ele>95.9</ele>
        <time>2012-12-29T10:50:06Z</time>
      </trkpt>
      <trkpt lat="46.5384" lon="-0.74535">
        <ele>95.8</ele>
        <time>2012-12-29T10:50:08Z</time>
      </trkpt>
      <trkpt lat="46.53835" lon="-0.74524">
        <ele>96.3</ele>
        <time>2012-12-29T10:50:11Z</time>
      </trkpt>
      <trkpt lat="46.53831" lon="-0.74518">
        <ele>96.2</ele>
        <time>2012-12-29T10:50:13Z</time>
      </trkpt>
      <trkpt lat="46.53827" lon="-0.74514">
        <ele>95.9</ele>
        <time>2012-12-29T10:50:15Z</time>
      </trkpt>
      <trkpt lat="46.53823" lon="-0.7451">
        <ele>95.7</ele>
        <time>2012-12-29T10:50:17Z</time>
      </trkpt>
      <trkpt lat="46.53819" lon="-0.74506">
        <ele>95.4</ele>
        <time>2012-12-29T10:50:19Z</time>
      </trkpt>
      <trkpt lat="46.53816" lon="-0.745">
        <ele>95.1</ele>
        <time>2012-12-29T10:50:21Z</time>
      </trkpt>
      <trkpt lat="46.53814" lon="-0.74494">
        <ele>94.9</ele>
        <time>2012-12-29T10:50:23Z</time>
      </trkpt>
      <trkpt lat="46.5381" lon="-0.74489">
        <ele>94.6</ele>
        <time>2012-12-29T10:50:25Z</time>
      </trkpt>
      <trkpt lat="46.53805" lon="-0.74486">
        <ele>94.6</ele>
        <time>2012-12-29T10:50:27Z</time>
      </trkpt>
      <trkpt lat="46.53799" lon="-0.74484">
        <ele>94.3</ele>
        <time>2012-12-29T10:50:29Z</time>
      </trkpt>
      <trkpt lat="46.53793" lon="-0.74481">
        <ele>94</ele>
        <time>2012-12-29T10:50:31Z</time>
      </trkpt>
      <trkpt lat="46.5379" lon="-0.74479">
        <ele>93.9</ele>
        <time>2012-12-29T10:50:32Z</time>
      </trkpt>
      <trkpt lat="46.53784" lon="-0.74474">
        <ele>93.8</ele>
        <time>2012-12-29T10:50:34Z</time>
      </trkpt>
      <trkpt lat="46.53776" lon="-0.74468">
        <ele>94.4</ele>
        <time>2012-12-29T10:50:37Z</time>
      </trkpt>
      <trkpt lat="46.5377" lon="-0.74464">
        <ele>94</ele>
        <time>2012-12-29T10:50:40Z</time>
      </trkpt>
      <trkpt lat="46.53766" lon="-0.74462">
        <ele>93.3</ele>
        <time>2012-12-29T10:50:56Z</time>
      </trkpt>
      <trkpt lat="46.5376" lon="-0.74461">
        <ele>93.3</ele>
        <time>2012-12-29T10:52:28Z</time>
      </trkpt>
      <trkpt lat="46.53752" lon="-0.74455">
        <ele>93.6</ele>
        <time>2012-12-29T10:52:31Z</time>
      </trkpt>
      <trkpt lat="46.5374" lon="-0.74449">
        <ele>94</ele>
        <time>2012-12-29T10:52:35Z</time>
      </trkpt>
      <trkpt lat="46.53728" lon="-0.74442">
        <ele>95</ele>
        <time>2012-12-29T10:52:39Z</time>
      </trkpt>
      <trkpt lat="46.53718" lon="-0.74435">
        <ele>95.6</ele>
        <time>2012-12-29T10:52:42Z</time>
      </trkpt>
      <trkpt lat="46.53712" lon="-0.74431">
        <ele>95.3</ele>
        <time>2012-12-29T10:52:44Z</time>
      </trkpt>
      <trkpt lat="46.53709" lon="-0.74428">
        <ele>95.2</ele>
        <time>2012-12-29T10:52:45Z</time>
      </trkpt>
      <trkpt lat="46.53695" lon="-0.74418">
        <ele>95.4</ele>
        <time>2012-12-29T10:52:49Z</time>
      </trkpt>
      <trkpt lat="46.53688" lon="-0.74412">
        <ele>95.7</ele>
        <time>2012-12-29T10:52:51Z</time>
      </trkpt>
      <trkpt lat="46.53684" lon="-0.74409">
        <ele>95.8</ele>
        <time>2012-12-29T10:52:52Z</time>
      </trkpt>
      <trkpt lat="46.53676" lon="-0.74403">
        <ele>95.4</ele>
        <time>2012-12-29T10:52:54Z</time>
      </trkpt>
      <trkpt lat="46.53661" lon="-0.7439">
        <ele>96</ele>
        <time>2012-12-29T10:52:58Z</time>
      </trkpt>
      <trkpt lat="46.53649" lon="-0.74381">
        <ele>96.1</ele>
        <time>2012-12-29T10:53:01Z</time>
      </trkpt>
      <trkpt lat="46.53633" lon="-0.74368">
        <ele>95.7</ele>
        <time>2012-12-29T10:53:05Z</time>
      </trkpt>
      <trkpt lat="46.53626" lon="-0.74361">
        <ele>95.8</ele>
        <time>2012-12-29T10:53:07Z</time>
      </trkpt>
      <trkpt lat="46.53618" lon="-0.74355">
        <ele>95.4</ele>
        <time>2012-12-29T10:53:09Z</time>
      </trkpt>
      <trkpt lat="46.53606" lon="-0.74345">
        <ele>95.1</ele>
        <time>2012-12-29T10:53:12Z</time>
      </trkpt>
      <trkpt lat="46.53595" lon="-0.74333">
        <ele>95.5</ele>
        <time>2012-12-29T10:53:15Z</time>
      </trkpt>
      <trkpt lat="46.53581" lon="-0.74319">
        <ele>95.6</ele>
        <time>2012-12-29T10:53:19Z</time>
      </trkpt>
      <trkpt lat="46.53575" lon="-0.74311">
        <ele>95.5</ele>
        <time>2012-12-29T10:53:21Z</time>
      </trkpt>
      <trkpt lat="46.53572" lon="-0.74308">
        <ele>95.4</ele>
        <time>2012-12-29T10:53:22Z</time>
      </trkpt>
      <trkpt lat="46.53562" lon="-0.74302">
        <ele>97.4</ele>
        <time>2012-12-29T11:08:23Z</time>
      </trkpt>
      <trkpt lat="46.53557" lon="-0.74295">
        <ele>96.4</ele>
        <time>2012-12-29T11:08:27Z</time>
      </trkpt>
      <trkpt lat="46.53551" lon="-0.74287">
        <ele>95.9</ele>
        <time>2012-12-29T11:08:30Z</time>
      </trkpt>
      <trkpt lat="46.53543" lon="-0.74278">
        <ele>97</ele>
        <time>2012-12-29T11:08:33Z</time>
      </trkpt>
      <trkpt lat="46.53532" lon="-0.74263">
        <ele>96.4</ele>
        <time>2012-12-29T11:08:37Z</time>
      </trkpt>
      <trkpt lat="46.53526" lon="-0.74255">
        <ele>96.4</ele>
        <time>2012-12-29T11:08:39Z</time>
      </trkpt>
      <trkpt lat="46.53515" lon="-0.7424">
        <ele>96.3</ele>
        <time>2012-12-29T11:08:43Z</time>
      </trkpt>
      <trkpt lat="46.53509" lon="-0.74233">
        <ele>96.8</ele>
        <time>2012-12-29T11:08:45Z</time>
      </trkpt>
      <trkpt lat="46.53503" lon="-0.74227">
        <ele>96.8</ele>
        <time>2012-12-29T11:08:47Z</time>
      </trkpt>
      <trkpt lat="46.53501" lon="-0.74223">
        <ele>96.7</ele>
        <time>2012-12-29T11:08:48Z</time>
      </trkpt>
      <trkpt lat="46.53489" lon="-0.74208">
        <ele>95.9</ele>
        <time>2012-12-29T11:08:52Z</time>
      </trkpt>
      <trkpt lat="46.53483" lon="-0.742">
        <ele>95.6</ele>
        <time>2012-12-29T11:08:54Z</time>
      </trkpt>
      <trkpt lat="46.53478" lon="-0.74193">
        <ele>95.7</ele>
        <time>2012-12-29T11:08:56Z</time>
      </trkpt>
      <trkpt lat="46.53472" lon="-0.74187">
        <ele>96</ele>
        <time>2012-12-29T11:08:58Z</time>
      </trkpt>
      <trkpt lat="46.53465" lon="-0.74182">
        <ele>96.2</ele>
        <time>2012-12-29T11:09:00Z</time>
      </trkpt>
      <trkpt lat="46.53459" lon="-0.74179">
        <ele>96.2</ele>
        <time>2012-12-29T11:09:02Z</time>
      </trkpt>
      <trkpt lat="46.53453" lon="-0.74179">
        <ele>95.8</ele>
        <time>2012-12-29T11:09:04Z</time>
      </trkpt>
      <trkpt lat="46.53449" lon="-0.74182">
        <ele>94.7</ele>
        <time>2012-12-29T11:09:13Z</time>
      </trkpt>
      <trkpt lat="46.53447" lon="-0.74192">
        <ele>95.3</ele>
        <time>2012-12-29T11:09:22Z</time>
      </trkpt>
      <trkpt lat="46.53446" lon="-0.74198">
        <ele>96.2</ele>
        <time>2012-12-29T11:09:25Z</time>
      </trkpt>
      <trkpt lat="46.53443" lon="-0.74206">
        <ele>95.9</ele>
        <time>2012-12-29T11:09:28Z</time>
      </trkpt>
      <trkpt lat="46.5344" lon="-0.74214">
        <ele>95.1</ele>
        <time>2012-12-29T11:09:30Z</time>
      </trkpt>
      <trkpt lat="46.53437" lon="-0.74224">
        <ele>94.7</ele>
        <time>2012-12-29T11:09:32Z</time>
      </trkpt>
      <trkpt lat="46.53434" lon="-0.74234">
        <ele>94.5</ele>
        <time>2012-12-29T11:09:34Z</time>
      </trkpt>
      <trkpt lat="46.53433" lon="-0.74239">
        <ele>94.4</ele>
        <time>2012-12-29T11:09:35Z</time>
      </trkpt>
      <trkpt lat="46.53431" lon="-0.74248">
        <ele>94.3</ele>
        <time>2012-12-29T11:09:37Z</time>
      </trkpt>
      <trkpt lat="46.53428" lon="-0.7426">
        <ele>94.4</ele>
        <time>2012-12-29T11:09:40Z</time>
      </trkpt>
      <trkpt lat="46.53425" lon="-0.7427">
        <ele>94.1</ele>
        <time>2012-12-29T11:09:42Z</time>
      </trkpt>
      <trkpt lat="46.53423" lon="-0.74282">
        <ele>93.8</ele>
        <time>2012-12-29T11:09:44Z</time>
      </trkpt>
      <trkpt lat="46.5342" lon="-0.74293">
        <ele>93.6</ele>
        <time>2012-12-29T11:09:46Z</time>
      </trkpt>
      <trkpt lat="46.53418" lon="-0.74299">
        <ele>93.6</ele>
        <time>2012-12-29T11:09:47Z</time>
      </trkpt>
      <trkpt lat="46.53414" lon="-0.7431">
        <ele>93.3</ele>
        <time>2012-12-29T11:09:49Z</time>
      </trkpt>
      <trkpt lat="46.53406" lon="-0.74325">
        <ele>93.2</ele>
        <time>2012-12-29T11:09:52Z</time>
      </trkpt>
      <trkpt lat="46.53396" lon="-0.74344">
        <ele>92.8</ele>
        <time>2012-12-29T11:09:56Z</time>
      </trkpt>
      <trkpt lat="46.53391" lon="-0.74352">
        <ele>93.2</ele>
        <time>2012-12-29T11:09:58Z</time>
      </trkpt>
      <trkpt lat="46.53388" lon="-0.74356">
        <ele>93.3</ele>
        <time>2012-12-29T11:09:59Z</time>
      </trkpt>
      <trkpt lat="46.53383" lon="-0.74363">
        <ele>93.6</ele>
        <time>2012-12-29T11:10:01Z</time>
      </trkpt>
      <trkpt lat="46.53378" lon="-0.7437">
        <ele>93.8</ele>
        <time>2012-12-29T11:10:03Z</time>
      </trkpt>
      <trkpt lat="46.53374" lon="-0.74378">
        <ele>93.9</ele>
        <time>2012-12-29T11:10:05Z</time>
      </trkpt>
      <trkpt lat="46.53369" lon="-0.74384">
        <ele>94.2</ele>
        <time>2012-12-29T11:10:07Z</time>
      </trkpt>
      <trkpt lat="46.5336" lon="-0.74399">
        <ele>94.9</ele>
        <time>2012-12-29T11:10:11Z</time>
      </trkpt>
      <trkpt lat="46.53355" lon="-0.74407">
        <ele>95.5</ele>
        <time>2012-12-29T11:10:13Z</time>
      </trkpt>
      <trkpt lat="46.5335" lon="-0.74414">
        <ele>96.1</ele>
        <time>2012-12-29T11:10:15Z</time>
      </trkpt>
      <trkpt lat="46.53348" lon="-0.74418">
        <ele>96.3</ele>
        <time>2012-12-29T11:10:16Z</time>
      </trkpt>
      <trkpt lat="46.53339" lon="-0.74435">
        <ele>96.5</ele>
        <time>2012-12-29T11:10:20Z</time>
      </trkpt>
      <trkpt lat="46.53331" lon="-0.74453">
        <ele>97</ele>
        <time>2012-12-29T11:10:24Z</time>
      </trkpt>
      <trkpt lat="46.53326" lon="-0.74467">
        <ele>97.8</ele>
        <time>2012-12-29T11:10:27Z</time>
      </trkpt>
      <trkpt lat="46.53324" lon="-0.74476">
        <ele>98.2</ele>
        <time>2012-12-29T11:10:29Z</time>
      </trkpt>
      <trkpt lat="46.53319" lon="-0.74492">
        <ele>98.7</ele>
        <time>2012-12-29T11:10:33Z</time>
      </trkpt>
      <trkpt lat="46.53317" lon="-0.745">
        <ele>98.7</ele>
        <time>2012-12-29T11:10:35Z</time>
      </trkpt>
      <trkpt lat="46.53316" lon="-0.74509">
        <ele>98.4</ele>
        <time>2012-12-29T11:10:38Z</time>
      </trkpt>
      <trkpt lat="46.53315" lon="-0.74515">
        <ele>99.6</ele>
        <time>2012-12-29T11:10:40Z</time>
      </trkpt>
      <trkpt lat="46.53312" lon="-0.74527">
        <ele>99.4</ele>
        <time>2012-12-29T11:10:55Z</time>
      </trkpt>
      <trkpt lat="46.53305" lon="-0.74527">
        <ele>99.9</ele>
        <time>2012-12-29T11:11:05Z</time>
      </trkpt>
      <trkpt lat="46.53301" lon="-0.74531">
        <ele>100.2</ele>
        <time>2012-12-29T11:11:07Z</time>
      </trkpt>
      <trkpt lat="46.53295" lon="-0.74536">
        <ele>100.9</ele>
        <time>2012-12-29T11:11:10Z</time>
      </trkpt>
      <trkpt lat="46.53295" lon="-0.74545">
        <ele>101.3</ele>
        <time>2012-12-29T11:11:22Z</time>
      </trkpt>
      <trkpt lat="46.53295" lon="-0.74552">
        <ele>100.9</ele>
        <time>2012-12-29T11:11:24Z</time>
      </trkpt>
      <trkpt lat="46.53295" lon="-0.74559">
        <ele>100.6</ele>
        <time>2012-12-29T11:11:26Z</time>
      </trkpt>
      <trkpt lat="46.53293" lon="-0.74562">
        <ele>100.9</ele>
        <time>2012-12-29T11:11:27Z</time>
      </trkpt>
      <trkpt lat="46.53292" lon="-0.7457">
        <ele>101.2</ele>
        <time>2012-12-29T11:11:29Z</time>
      </trkpt>
      <trkpt lat="46.5329" lon="-0.74583">
        <ele>101.2</ele>
        <time>2012-12-29T11:11:33Z</time>
      </trkpt>
      <trkpt lat="46.53289" lon="-0.74592">
        <ele>101.2</ele>
        <time>2012-12-29T11:11:36Z</time>
      </trkpt>
      <trkpt lat="46.53286" lon="-0.74608">
        <ele>101.2</ele>
        <time>2012-12-29T11:11:40Z</time>
      </trkpt>
      <trkpt lat="46.53285" lon="-0.74616">
        <ele>101.4</ele>
        <time>2012-12-29T11:11:42Z</time>
      </trkpt>
      <trkpt lat="46.53285" lon="-0.74624">
        <ele>101.8</ele>
        <time>2012-12-29T11:11:44Z</time>
      </trkpt>
      <trkpt lat="46.53283" lon="-0.74631">
        <ele>102.6</ele>
        <time>2012-12-29T11:11:46Z</time>
      </trkpt>
      <trkpt lat="46.53281" lon="-0.74637">
        <ele>103.5</ele>
        <time>2012-12-29T11:11:48Z</time>
      </trkpt>
      <trkpt lat="46.53277" lon="-0.74642">
        <ele>104.4</ele>
        <time>2012-12-29T11:11:50Z</time>
      </trkpt>
      <trkpt lat="46.53274" lon="-0.74647">
        <ele>104.6</ele>
        <time>2012-12-29T11:11:52Z</time>
      </trkpt>
      <trkpt lat="46.53272" lon="-0.7465">
        <ele>104.5</ele>
        <time>2012-12-29T11:11:53Z</time>
      </trkpt>
      <trkpt lat="46.53267" lon="-0.74658">
        <ele>105.3</ele>
        <time>2012-12-29T11:11:56Z</time>
      </trkpt>
      <trkpt lat="46.53263" lon="-0.74663">
        <ele>105.1</ele>
        <time>2012-12-29T11:11:58Z</time>
      </trkpt>
      <trkpt lat="46.53259" lon="-0.74668">
        <ele>104.5</ele>
        <time>2012-12-29T11:12:00Z</time>
      </trkpt>
      <trkpt lat="46.53255" lon="-0.74673">
        <ele>104.6</ele>
        <time>2012-12-29T11:12:02Z</time>
      </trkpt>
      <trkpt lat="46.53251" lon="-0.74678">
        <ele>105</ele>
        <time>2012-12-29T11:12:04Z</time>
      </trkpt>
      <trkpt lat="46.53247" lon="-0.74685">
        <ele>104.9</ele>
        <time>2012-12-29T11:12:06Z</time>
      </trkpt>
      <trkpt lat="46.53242" lon="-0.74691">
        <ele>105</ele>
        <time>2012-12-29T11:12:08Z</time>
      </trkpt>
      <trkpt lat="46.5324" lon="-0.74695">
        <ele>105.1</ele>
        <time>2012-12-29T11:12:09Z</time>
      </trkpt>
      <trkpt lat="46.53235" lon="-0.747">
        <ele>105.6</ele>
        <time>2012-12-29T11:12:11Z</time>
      </trkpt>
      <trkpt lat="46.53226" lon="-0.74709">
        <ele>106.6</ele>
        <time>2012-12-29T11:12:16Z</time>
      </trkpt>
      <trkpt lat="46.53222" lon="-0.74714">
        <ele>107</ele>
        <time>2012-12-29T11:12:18Z</time>
      </trkpt>
      <trkpt lat="46.53217" lon="-0.74719">
        <ele>107.3</ele>
        <time>2012-12-29T11:12:20Z</time>
      </trkpt>
      <trkpt lat="46.53211" lon="-0.74727">
        <ele>106.1</ele>
        <time>2012-12-29T11:12:23Z</time>
      </trkpt>
      <trkpt lat="46.53207" lon="-0.74732">
        <ele>105.6</ele>
        <time>2012-12-29T11:12:25Z</time>
      </trkpt>
      <trkpt lat="46.53201" lon="-0.7474">
        <ele>106.1</ele>
        <time>2012-12-29T11:12:29Z</time>
      </trkpt>
      <trkpt lat="46.5319" lon="-0.74755">
        <ele>106.6</ele>
        <time>2012-12-29T11:12:39Z</time>
      </trkpt>
      <trkpt lat="46.53184" lon="-0.74764">
        <ele>107.4</ele>
        <time>2012-12-29T11:12:52Z</time>
      </trkpt>
      <trkpt lat="46.5318" lon="-0.74769">
        <ele>107.1</ele>
        <time>2012-12-29T11:13:05Z</time>
      </trkpt>
      <trkpt lat="46.53176" lon="-0.74769">
        <ele>107.6</ele>
        <time>2012-12-29T11:13:40Z</time>
      </trkpt>
      <trkpt lat="46.53171" lon="-0.74772">
        <ele>107.3</ele>
        <time>2012-12-29T11:14:45Z</time>
      </trkpt>
      <trkpt lat="46.53167" lon="-0.74778">
        <ele>108.2</ele>
        <time>2012-12-29T11:14:49Z</time>
      </trkpt>
      <trkpt lat="46.53163" lon="-0.74782">
        <ele>108.4</ele>
        <time>2012-12-29T11:14:51Z</time>
      </trkpt>
      <trkpt lat="46.53159" lon="-0.74788">
        <ele>108.2</ele>
        <time>2012-12-29T11:14:53Z</time>
      </trkpt>
      <trkpt lat="46.53153" lon="-0.74796">
        <ele>107.4</ele>
        <time>2012-12-29T11:14:56Z</time>
      </trkpt>
      <trkpt lat="46.5315" lon="-0.74799">
        <ele>107.7</ele>
        <time>2012-12-29T11:14:57Z</time>
      </trkpt>
      <trkpt lat="46.53141" lon="-0.74811">
        <ele>108</ele>
        <time>2012-12-29T11:15:01Z</time>
      </trkpt>
      <trkpt lat="46.53136" lon="-0.74818">
        <ele>107.9</ele>
        <time>2012-12-29T11:15:03Z</time>
      </trkpt>
      <trkpt lat="46.5313" lon="-0.74823">
        <ele>107.9</ele>
        <time>2012-12-29T11:15:05Z</time>
      </trkpt>
      <trkpt lat="46.53128" lon="-0.74827">
        <ele>107.9</ele>
        <time>2012-12-29T11:15:06Z</time>
      </trkpt>
      <trkpt lat="46.53123" lon="-0.74833">
        <ele>107.9</ele>
        <time>2012-12-29T11:15:08Z</time>
      </trkpt>
      <trkpt lat="46.53111" lon="-0.74846">
        <ele>108.9</ele>
        <time>2012-12-29T11:15:14Z</time>
      </trkpt>
      <trkpt lat="46.53102" lon="-0.74853">
        <ele>108.6</ele>
        <time>2012-12-29T11:15:18Z</time>
      </trkpt>
      <trkpt lat="46.53097" lon="-0.74859">
        <ele>109</ele>
        <time>2012-12-29T11:15:20Z</time>
      </trkpt>
      <trkpt lat="46.53085" lon="-0.74874">
        <ele>108.9</ele>
        <time>2012-12-29T11:15:25Z</time>
      </trkpt>
      <trkpt lat="46.53081" lon="-0.74879">
        <ele>108.6</ele>
        <time>2012-12-29T11:15:27Z</time>
      </trkpt>
      <trkpt lat="46.53078" lon="-0.74882">
        <ele>108.6</ele>
        <time>2012-12-29T11:15:28Z</time>
      </trkpt>
      <trkpt lat="46.53069" lon="-0.74895">
        <ele>108.7</ele>
        <time>2012-12-29T11:15:32Z</time>
      </trkpt>
      <trkpt lat="46.53064" lon="-0.749">
        <ele>109</ele>
        <time>2012-12-29T11:15:34Z</time>
      </trkpt>
      <trkpt lat="46.53061" lon="-0.74903">
        <ele>109.1</ele>
        <time>2012-12-29T11:15:35Z</time>
      </trkpt>
      <trkpt lat="46.53055" lon="-0.7491">
        <ele>109</ele>
        <time>2012-12-29T11:15:37Z</time>
      </trkpt>
      <trkpt lat="46.53048" lon="-0.74916">
        <ele>108.7</ele>
        <time>2012-12-29T11:15:39Z</time>
      </trkpt>
      <trkpt lat="46.53042" lon="-0.74923">
        <ele>108.4</ele>
        <time>2012-12-29T11:15:41Z</time>
      </trkpt>
      <trkpt lat="46.53036" lon="-0.74932">
        <ele>108.1</ele>
        <time>2012-12-29T11:15:43Z</time>
      </trkpt>
      <trkpt lat="46.53032" lon="-0.74936">
        <ele>108</ele>
        <time>2012-12-29T11:15:44Z</time>
      </trkpt>
      <trkpt lat="46.53027" lon="-0.74943">
        <ele>107.4</ele>
        <time>2012-12-29T11:15:46Z</time>
      </trkpt>
      <trkpt lat="46.5302" lon="-0.74951">
        <ele>107.1</ele>
        <time>2012-12-29T11:15:48Z</time>
      </trkpt>
      <trkpt lat="46.5301" lon="-0.74964">
        <ele>106.3</ele>
        <time>2012-12-29T11:15:51Z</time>
      </trkpt>
      <trkpt lat="46.53003" lon="-0.74971">
        <ele>105.6</ele>
        <time>2012-12-29T11:15:53Z</time>
      </trkpt>
      <trkpt lat="46.52999" lon="-0.74974">
        <ele>105.4</ele>
        <time>2012-12-29T11:15:54Z</time>
      </trkpt>
      <trkpt lat="46.52994" lon="-0.74977">
        <ele>105.4</ele>
        <time>2012-12-29T11:15:56Z</time>
      </trkpt>
      <trkpt lat="46.52989" lon="-0.74981">
        <ele>105.2</ele>
        <time>2012-12-29T11:15:58Z</time>
      </trkpt>
      <trkpt lat="46.52988" lon="-0.74991">
        <ele>104.4</ele>
        <time>2012-12-29T11:16:01Z</time>
      </trkpt>
      <trkpt lat="46.52993" lon="-0.74997">
        <ele>103.5</ele>
        <time>2012-12-29T11:16:04Z</time>
      </trkpt>
      <trkpt lat="46.52997" lon="-0.75001">
        <ele>103.4</ele>
        <time>2012-12-29T11:16:06Z</time>
      </trkpt>
      <trkpt lat="46.52996" lon="-0.75011">
        <ele>103.1</ele>
        <time>2012-12-29T11:16:18Z</time>
      </trkpt>
      <trkpt lat="46.52989" lon="-0.7501">
        <ele>103</ele>
        <time>2012-12-29T11:16:22Z</time>
      </trkpt>
      <trkpt lat="46.52978" lon="-0.75003">
        <ele>102.6</ele>
        <time>2012-12-29T11:16:27Z</time>
      </trkpt>
      <trkpt lat="46.52967" lon="-0.74997">
        <ele>103.3</ele>
        <time>2012-12-29T11:16:33Z</time>
      </trkpt>
      <trkpt lat="46.52963" lon="-0.74994">
        <ele>103.2</ele>
        <time>2012-12-29T11:16:35Z</time>
      </trkpt>
      <trkpt lat="46.52954" lon="-0.74992">
        <ele>103.4</ele>
        <time>2012-12-29T11:16:41Z</time>
      </trkpt>
      <trkpt lat="46.5295" lon="-0.74994">
        <ele>104</ele>
        <time>2012-12-29T11:16:53Z</time>
      </trkpt>
      <trkpt lat="46.5295" lon="-0.74999">
        <ele>103.9</ele>
        <time>2012-12-29T11:17:20Z</time>
      </trkpt>
      <trkpt lat="46.52953" lon="-0.75">
        <ele>103.5</ele>
        <time>2012-12-29T11:17:22Z</time>
      </trkpt>
      <trkpt lat="46.52968" lon="-0.75008">
        <ele>103.8</ele>
        <time>2012-12-29T11:17:29Z</time>
      </trkpt>
      <trkpt lat="46.52976" lon="-0.75012">
        <ele>103</ele>
        <time>2012-12-29T11:17:32Z</time>
      </trkpt>
      <trkpt lat="46.52982" lon="-0.75015">
        <ele>102.6</ele>
        <time>2012-12-29T11:17:34Z</time>
      </trkpt>
      <trkpt lat="46.52988" lon="-0.75019">
        <ele>102.3</ele>
        <time>2012-12-29T11:17:36Z</time>
      </trkpt>
      <trkpt lat="46.52994" lon="-0.75022">
        <ele>103.5</ele>
        <time>2012-12-29T11:17:38Z</time>
      </trkpt>
      <trkpt lat="46.53004" lon="-0.75027">
        <ele>103.7</ele>
        <time>2012-12-29T11:17:41Z</time>
      </trkpt>
      <trkpt lat="46.53011" lon="-0.75032">
        <ele>103.5</ele>
        <time>2012-12-29T11:17:43Z</time>
      </trkpt>
      <trkpt lat="46.53019" lon="-0.75037">
        <ele>103.3</ele>
        <time>2012-12-29T11:17:45Z</time>
      </trkpt>
      <trkpt lat="46.53027" lon="-0.75044">
        <ele>102.7</ele>
        <time>2012-12-29T11:17:47Z</time>
      </trkpt>
      <trkpt lat="46.53031" lon="-0.75048">
        <ele>102.5</ele>
        <time>2012-12-29T11:17:48Z</time>
      </trkpt>
      <trkpt lat="46.53035" lon="-0.75053">
        <ele>102.3</ele>
        <time>2012-12-29T11:17:49Z</time>
      </trkpt>
      <trkpt lat="46.53038" lon="-0.75058">
        <ele>102.2</ele>
        <time>2012-12-29T11:17:50Z</time>
      </trkpt>
      <trkpt lat="46.53042" lon="-0.75068">
        <ele>101.9</ele>
        <time>2012-12-29T11:17:59Z</time>
      </trkpt>
      <trkpt lat="46.53038" lon="-0.75077">
        <ele>101.6</ele>
        <time>2012-12-29T11:18:06Z</time>
      </trkpt>
      <trkpt lat="46.53035" lon="-0.75084">
        <ele>102</ele>
        <time>2012-12-29T11:18:08Z</time>
      </trkpt>
      <trkpt lat="46.53028" lon="-0.751">
        <ele>101.4</ele>
        <time>2012-12-29T11:18:12Z</time>
      </trkpt>
      <trkpt lat="46.53024" lon="-0.75116">
        <ele>101.7</ele>
        <time>2012-12-29T11:18:16Z</time>
      </trkpt>
      <trkpt lat="46.53021" lon="-0.75124">
        <ele>101.6</ele>
        <time>2012-12-29T11:18:18Z</time>
      </trkpt>
      <trkpt lat="46.53016" lon="-0.75131">
        <ele>101.2</ele>
        <time>2012-12-29T11:18:20Z</time>
      </trkpt>
      <trkpt lat="46.53011" lon="-0.75138">
        <ele>100.4</ele>
        <time>2012-12-29T11:18:22Z</time>
      </trkpt>
      <trkpt lat="46.53004" lon="-0.75151">
        <ele>99.7</ele>
        <time>2012-12-29T11:18:25Z</time>
      </trkpt>
      <trkpt lat="46.52999" lon="-0.75157">
        <ele>99.4</ele>
        <time>2012-12-29T11:18:27Z</time>
      </trkpt>
      <trkpt lat="46.52989" lon="-0.75164">
        <ele>97.9</ele>
        <time>2012-12-29T11:18:31Z</time>
      </trkpt>
      <trkpt lat="46.52985" lon="-0.7517">
        <ele>97.4</ele>
        <time>2012-12-29T11:18:33Z</time>
      </trkpt>
      <trkpt lat="46.52981" lon="-0.75178">
        <ele>97.1</ele>
        <time>2012-12-29T11:18:35Z</time>
      </trkpt>
      <trkpt lat="46.52977" lon="-0.75187">
        <ele>96.2</ele>
        <time>2012-12-29T11:18:37Z</time>
      </trkpt>
      <trkpt lat="46.52977" lon="-0.75197">
        <ele>93.8</ele>
        <time>2012-12-29T11:18:42Z</time>
      </trkpt>
      <trkpt lat="46.52979" lon="-0.75214">
        <ele>93.3</ele>
        <time>2012-12-29T11:18:47Z</time>
      </trkpt>
      <trkpt lat="46.5298" lon="-0.7522">
        <ele>91.8</ele>
        <time>2012-12-29T11:18:50Z</time>
      </trkpt>
      <trkpt lat="46.52982" lon="-0.75231">
        <ele>89.7</ele>
        <time>2012-12-29T11:18:55Z</time>
      </trkpt>
      <trkpt lat="46.52983" lon="-0.7524">
        <ele>87.9</ele>
        <time>2012-12-29T11:18:58Z</time>
      </trkpt>
      <trkpt lat="46.52985" lon="-0.75246">
        <ele>85.5</ele>
        <time>2012-12-29T11:19:00Z</time>
      </trkpt>
      <trkpt lat="46.52984" lon="-0.75254">
        <ele>77</ele>
        <time>2012-12-29T11:19:04Z</time>
      </trkpt>
      <trkpt lat="46.5298" lon="-0.75263">
        <ele>68.4</ele>
        <time>2012-12-29T11:19:08Z</time>
      </trkpt>
      <trkpt lat="46.52974" lon="-0.7528">
        <ele>60.1</ele>
        <time>2012-12-29T11:19:17Z</time>
      </trkpt>
      <trkpt lat="46.52972" lon="-0.75292">
        <ele>55.2</ele>
        <time>2012-12-29T11:19:30Z</time>
      </trkpt>
      <trkpt lat="46.5297" lon="-0.75298">
        <ele>54.1</ele>
        <time>2012-12-29T11:20:01Z</time>
      </trkpt>
      <trkpt lat="46.52959" lon="-0.75315">
        <ele>49.3</ele>
        <time>2012-12-29T11:20:15Z</time>
      </trkpt>
      <trkpt lat="46.52954" lon="-0.75323">
        <ele>45.8</ele>
        <time>2012-12-29T11:20:20Z</time>
      </trkpt>
      <trkpt lat="46.52951" lon="-0.75334">
        <ele>42.2</ele>
        <time>2012-12-29T11:20:26Z</time>
      </trkpt>
      <trkpt lat="46.52952" lon="-0.7534">
        <ele>39.7</ele>
        <time>2012-12-29T11:20:42Z</time>
      </trkpt>
      <trkpt lat="46.52946" lon="-0.75337">
        <ele>40.1</ele>
        <time>2012-12-29T11:21:00Z</time>
      </trkpt>
      <trkpt lat="46.52944" lon="-0.75344">
        <ele>36.7</ele>
        <time>2012-12-29T11:21:24Z</time>
      </trkpt>
      <trkpt lat="46.52951" lon="-0.75349">
        <ele>37.2</ele>
        <time>2012-12-29T11:22:14Z</time>
      </trkpt>
      <trkpt lat="46.5295" lon="-0.75343">
        <ele>37.9</ele>
        <time>2012-12-29T11:23:48Z</time>
      </trkpt>
      <trkpt lat="46.52952" lon="-0.75331">
        <ele>40</ele>
        <time>2012-12-29T11:24:02Z</time>
      </trkpt>
      <trkpt lat="46.52963" lon="-0.75312">
        <ele>47.1</ele>
        <time>2012-12-29T11:24:46Z</time>
      </trkpt>
      <trkpt lat="46.52966" lon="-0.75308">
        <ele>48.8</ele>
        <time>2012-12-29T11:24:54Z</time>
      </trkpt>
      <trkpt lat="46.52971" lon="-0.75299">
        <ele>52.3</ele>
        <time>2012-12-29T11:25:11Z</time>
      </trkpt>
      <trkpt lat="46.52974" lon="-0.75295">
        <ele>53.7</ele>
        <time>2012-12-29T11:25:21Z</time>
      </trkpt>
      <trkpt lat="46.52971" lon="-0.75306">
        <ele>53.3</ele>
        <time>2012-12-29T11:25:49Z</time>
      </trkpt>
      <trkpt lat="46.52965" lon="-0.75315">
        <ele>51.5</ele>
        <time>2012-12-29T11:25:53Z</time>
      </trkpt>
      <trkpt lat="46.52961" lon="-0.7532">
        <ele>49.7</ele>
        <time>2012-12-29T11:25:55Z</time>
      </trkpt>
      <trkpt lat="46.52959" lon="-0.75322">
        <ele>48.6</ele>
        <time>2012-12-29T11:25:56Z</time>
      </trkpt>
      <trkpt lat="46.52953" lon="-0.75328">
        <ele>45.4</ele>
        <time>2012-12-29T11:25:59Z</time>
      </trkpt>
      <trkpt lat="46.5295" lon="-0.75335">
        <ele>43.6</ele>
        <time>2012-12-29T11:26:01Z</time>
      </trkpt>
      <trkpt lat="46.52945" lon="-0.75341">
        <ele>41.3</ele>
        <time>2012-12-29T11:26:04Z</time>
      </trkpt>
      <trkpt lat="46.52944" lon="-0.75347">
        <ele>36.8</ele>
        <time>2012-12-29T11:26:25Z</time>
      </trkpt>
      <trkpt lat="46.52947" lon="-0.75337">
        <ele>38.4</ele>
        <time>2012-12-29T11:26:47Z</time>
      </trkpt>
      <trkpt lat="46.52951" lon="-0.75344">
        <ele>40.1</ele>
        <time>2012-12-29T11:27:17Z</time>
      </trkpt>
      <trkpt lat="46.52953" lon="-0.75352">
        <ele>39.2</ele>
        <time>2012-12-29T11:27:20Z</time>
      </trkpt>
      <trkpt lat="46.52955" lon="-0.75361">
        <ele>39.3</ele>
        <time>2012-12-29T11:27:23Z</time>
      </trkpt>
      <trkpt lat="46.52956" lon="-0.75368">
        <ele>39.1</ele>
        <time>2012-12-29T11:27:25Z</time>
      </trkpt>
      <trkpt lat="46.52955" lon="-0.75376">
        <ele>39.1</ele>
        <time>2012-12-29T11:27:27Z</time>
      </trkpt>
      <trkpt lat="46.52955" lon="-0.75385">
        <ele>39.3</ele>
        <time>2012-12-29T11:27:29Z</time>
      </trkpt>
      <trkpt lat="46.52954" lon="-0.75393">
        <ele>39.3</ele>
        <time>2012-12-29T11:27:31Z</time>
      </trkpt>
      <trkpt lat="46.52955" lon="-0.75398">
        <ele>39.3</ele>
        <time>2012-12-29T11:27:32Z</time>
      </trkpt>
      <trkpt lat="46.52954" lon="-0.75406">
        <ele>39.3</ele>
        <time>2012-12-29T11:27:34Z</time>
      </trkpt>
      <trkpt lat="46.52952" lon="-0.75414">
        <ele>39.4</ele>
        <time>2012-12-29T11:27:36Z</time>
      </trkpt>
      <trkpt lat="46.52951" lon="-0.75435">
        <ele>39.5</ele>
        <time>2012-12-29T11:27:40Z</time>
      </trkpt>
      <trkpt lat="46.52951" lon="-0.7544">
        <ele>39.5</ele>
        <time>2012-12-29T11:27:41Z</time>
      </trkpt>
      <trkpt lat="46.52951" lon="-0.75449">
        <ele>39.5</ele>
        <time>2012-12-29T11:27:43Z</time>
      </trkpt>
      <trkpt lat="46.52951" lon="-0.75455">
        <ele>39.5</ele>
        <time>2012-12-29T11:27:44Z</time>
      </trkpt>
      <trkpt lat="46.52951" lon="-0.75466">
        <ele>39.7</ele>
        <time>2012-12-29T11:27:46Z</time>
      </trkpt>
      <trkpt lat="46.5295" lon="-0.75472">
        <ele>39.9</ele>
        <time>2012-12-29T11:27:47Z</time>
      </trkpt>
      <trkpt lat="46.52949" lon="-0.75495">
        <ele>39.9</ele>
        <time>2012-12-29T11:27:51Z</time>
      </trkpt>
      <trkpt lat="46.5295" lon="-0.75505">
        <ele>39.9</ele>
        <time>2012-12-29T11:27:53Z</time>
      </trkpt>
      <trkpt lat="46.52949" lon="-0.75517">
        <ele>40</ele>
        <time>2012-12-29T11:27:55Z</time>
      </trkpt>
      <trkpt lat="46.52949" lon="-0.75522">
        <ele>39.8</ele>
        <time>2012-12-29T11:27:56Z</time>
      </trkpt>
      <trkpt lat="46.52948" lon="-0.75533">
        <ele>39.5</ele>
        <time>2012-12-29T11:27:58Z</time>
      </trkpt>
      <trkpt lat="46.52946" lon="-0.7555">
        <ele>39.8</ele>
        <time>2012-12-29T11:28:01Z</time>
      </trkpt>
      <trkpt lat="46.52945" lon="-0.7556">
        <ele>39.7</ele>
        <time>2012-12-29T11:28:03Z</time>
      </trkpt>
      <trkpt lat="46.52944" lon="-0.75566">
        <ele>39.7</ele>
        <time>2012-12-29T11:28:04Z</time>
      </trkpt>
      <trkpt lat="46.52944" lon="-0.75576">
        <ele>40.1</ele>
        <time>2012-12-29T11:28:06Z</time>
      </trkpt>
      <trkpt lat="46.52943" lon="-0.75582">
        <ele>40.5</ele>
        <time>2012-12-29T11:28:07Z</time>
      </trkpt>
      <trkpt lat="46.5294" lon="-0.75604">
        <ele>39.7</ele>
        <time>2012-12-29T11:28:11Z</time>
      </trkpt>
      <trkpt lat="46.5294" lon="-0.75615">
        <ele>39.9</ele>
        <time>2012-12-29T11:28:13Z</time>
      </trkpt>
      <trkpt lat="46.52939" lon="-0.75625">
        <ele>40.1</ele>
        <time>2012-12-29T11:28:15Z</time>
      </trkpt>
      <trkpt lat="46.52939" lon="-0.75633">
        <ele>40.3</ele>
        <time>2012-12-29T11:28:17Z</time>
      </trkpt>
      <trkpt lat="46.52937" lon="-0.75642">
        <ele>40</ele>
        <time>2012-12-29T11:28:19Z</time>
      </trkpt>
      <trkpt lat="46.52934" lon="-0.75651">
        <ele>39.8</ele>
        <time>2012-12-29T11:28:21Z</time>
      </trkpt>
      <trkpt lat="46.52932" lon="-0.75661">
        <ele>39.2</ele>
        <time>2012-12-29T11:28:23Z</time>
      </trkpt>
      <trkpt lat="46.52932" lon="-0.75672">
        <ele>39</ele>
        <time>2012-12-29T11:28:25Z</time>
      </trkpt>
      <trkpt lat="46.5293" lon="-0.75686">
        <ele>39.6</ele>
        <time>2012-12-29T11:28:28Z</time>
      </trkpt>
      <trkpt lat="46.52928" lon="-0.75695">
        <ele>40.3</ele>
        <time>2012-12-29T11:28:30Z</time>
      </trkpt>
      <trkpt lat="46.52927" lon="-0.75701">
        <ele>40.2</ele>
        <time>2012-12-29T11:28:31Z</time>
      </trkpt>
      <trkpt lat="46.52925" lon="-0.7571">
        <ele>40</ele>
        <time>2012-12-29T11:28:33Z</time>
      </trkpt>
      <trkpt lat="46.52924" lon="-0.75719">
        <ele>40.1</ele>
        <time>2012-12-29T11:28:35Z</time>
      </trkpt>
      <trkpt lat="46.52923" lon="-0.75724">
        <ele>40.2</ele>
        <time>2012-12-29T11:28:36Z</time>
      </trkpt>
      <trkpt lat="46.52922" lon="-0.75733">
        <ele>39.7</ele>
        <time>2012-12-29T11:28:38Z</time>
      </trkpt>
      <trkpt lat="46.5292" lon="-0.75751">
        <ele>39.2</ele>
        <time>2012-12-29T11:28:42Z</time>
      </trkpt>
      <trkpt lat="46.5292" lon="-0.75761">
        <ele>39.1</ele>
        <time>2012-12-29T11:28:44Z</time>
      </trkpt>
      <trkpt lat="46.52919" lon="-0.75771">
        <ele>38.9</ele>
        <time>2012-12-29T11:28:46Z</time>
      </trkpt>
      <trkpt lat="46.52917" lon="-0.75794">
        <ele>39.7</ele>
        <time>2012-12-29T11:28:50Z</time>
      </trkpt>
      <trkpt lat="46.52916" lon="-0.758">
        <ele>39.4</ele>
        <time>2012-12-29T11:28:51Z</time>
      </trkpt>
      <trkpt lat="46.52913" lon="-0.75811">
        <ele>39.1</ele>
        <time>2012-12-29T11:28:53Z</time>
      </trkpt>
      <trkpt lat="46.52912" lon="-0.75822">
        <ele>39</ele>
        <time>2012-12-29T11:28:55Z</time>
      </trkpt>
      <trkpt lat="46.52909" lon="-0.75832">
        <ele>39.1</ele>
        <time>2012-12-29T11:28:57Z</time>
      </trkpt>
      <trkpt lat="46.52909" lon="-0.75837">
        <ele>39.1</ele>
        <time>2012-12-29T11:28:58Z</time>
      </trkpt>
      <trkpt lat="46.52908" lon="-0.75857">
        <ele>39.3</ele>
        <time>2012-12-29T11:29:02Z</time>
      </trkpt>
      <trkpt lat="46.52908" lon="-0.75863">
        <ele>39.1</ele>
        <time>2012-12-29T11:29:04Z</time>
      </trkpt>
      <trkpt lat="46.52909" lon="-0.75874">
        <ele>39.9</ele>
        <time>2012-12-29T11:29:09Z</time>
      </trkpt>
      <trkpt lat="46.52911" lon="-0.7588">
        <ele>40.8</ele>
        <time>2012-12-29T11:29:17Z</time>
      </trkpt>
      <trkpt lat="46.52916" lon="-0.75881">
        <ele>41.4</ele>
        <time>2012-12-29T11:29:25Z</time>
      </trkpt>
      <trkpt lat="46.52922" lon="-0.75887">
        <ele>41.9</ele>
        <time>2012-12-29T11:29:30Z</time>
      </trkpt>
      <trkpt lat="46.52929" lon="-0.75892">
        <ele>43.3</ele>
        <time>2012-12-29T11:29:36Z</time>
      </trkpt>
      <trkpt lat="46.52936" lon="-0.75896">
        <ele>45</ele>
        <time>2012-12-29T11:29:42Z</time>
      </trkpt>
      <trkpt lat="46.5294" lon="-0.75898">
        <ele>45.7</ele>
        <time>2012-12-29T11:29:45Z</time>
      </trkpt>
      <trkpt lat="46.52947" lon="-0.75901">
        <ele>47.3</ele>
        <time>2012-12-29T11:29:51Z</time>
      </trkpt>
      <trkpt lat="46.52955" lon="-0.75903">
        <ele>49.4</ele>
        <time>2012-12-29T11:29:57Z</time>
      </trkpt>
      <trkpt lat="46.5296" lon="-0.75903">
        <ele>49.6</ele>
        <time>2012-12-29T11:30:00Z</time>
      </trkpt>
      <trkpt lat="46.52968" lon="-0.75901">
        <ele>50.2</ele>
        <time>2012-12-29T11:30:06Z</time>
      </trkpt>
      <trkpt lat="46.52972" lon="-0.75899">
        <ele>50.9</ele>
        <time>2012-12-29T11:30:09Z</time>
      </trkpt>
      <trkpt lat="46.5298" lon="-0.75895">
        <ele>52.1</ele>
        <time>2012-12-29T11:30:15Z</time>
      </trkpt>
      <trkpt lat="46.52991" lon="-0.75889">
        <ele>53.6</ele>
        <time>2012-12-29T11:30:24Z</time>
      </trkpt>
      <trkpt lat="46.52996" lon="-0.75886">
        <ele>54.4</ele>
        <time>2012-12-29T11:30:28Z</time>
      </trkpt>
      <trkpt lat="46.53002" lon="-0.75883">
        <ele>56.4</ele>
        <time>2012-12-29T11:30:33Z</time>
      </trkpt>
      <trkpt lat="46.5301" lon="-0.75879">
        <ele>58</ele>
        <time>2012-12-29T11:30:39Z</time>
      </trkpt>
      <trkpt lat="46.53014" lon="-0.75878">
        <ele>58.6</ele>
        <time>2012-12-29T11:30:42Z</time>
      </trkpt>
      <trkpt lat="46.53031" lon="-0.75872">
        <ele>61</ele>
        <time>2012-12-29T11:30:54Z</time>
      </trkpt>
      <trkpt lat="46.53046" lon="-0.75868">
        <ele>64.6</ele>
        <time>2012-12-29T11:31:06Z</time>
      </trkpt>
      <trkpt lat="46.5305" lon="-0.75868">
        <ele>64.8</ele>
        <time>2012-12-29T11:31:09Z</time>
      </trkpt>
      <trkpt lat="46.53066" lon="-0.75865">
        <ele>68.3</ele>
        <time>2012-12-29T11:31:21Z</time>
      </trkpt>
      <trkpt lat="46.53073" lon="-0.75865">
        <ele>69.1</ele>
        <time>2012-12-29T11:31:27Z</time>
      </trkpt>
      <trkpt lat="46.53078" lon="-0.75866">
        <ele>69.8</ele>
        <time>2012-12-29T11:31:31Z</time>
      </trkpt>
      <trkpt lat="46.53085" lon="-0.75866">
        <ele>70.4</ele>
        <time>2012-12-29T11:31:36Z</time>
      </trkpt>
      <trkpt lat="46.53089" lon="-0.75865">
        <ele>71.2</ele>
        <time>2012-12-29T11:31:39Z</time>
      </trkpt>
      <trkpt lat="46.53104" lon="-0.75859">
        <ele>73.7</ele>
        <time>2012-12-29T11:31:50Z</time>
      </trkpt>
      <trkpt lat="46.53112" lon="-0.75855">
        <ele>75.6</ele>
        <time>2012-12-29T11:31:56Z</time>
      </trkpt>
      <trkpt lat="46.53127" lon="-0.75845">
        <ele>75.5</ele>
        <time>2012-12-29T11:32:07Z</time>
      </trkpt>
      <trkpt lat="46.53132" lon="-0.75841">
        <ele>77.3</ele>
        <time>2012-12-29T11:32:11Z</time>
      </trkpt>
      <trkpt lat="46.53138" lon="-0.75836">
        <ele>78.7</ele>
        <time>2012-12-29T11:32:15Z</time>
      </trkpt>
      <trkpt lat="46.53143" lon="-0.75831">
        <ele>78.5</ele>
        <time>2012-12-29T11:32:19Z</time>
      </trkpt>
      <trkpt lat="46.53145" lon="-0.75828">
        <ele>79.1</ele>
        <time>2012-12-29T11:32:21Z</time>
      </trkpt>
      <trkpt lat="46.53158" lon="-0.75815">
        <ele>80.7</ele>
        <time>2012-12-29T11:32:32Z</time>
      </trkpt>
      <trkpt lat="46.53166" lon="-0.75818">
        <ele>81.9</ele>
        <time>2012-12-29T11:33:03Z</time>
      </trkpt>
      <trkpt lat="46.53165" lon="-0.75824">
        <ele>81.9</ele>
        <time>2012-12-29T11:33:29Z</time>
      </trkpt>
      <trkpt lat="46.53164" lon="-0.75836">
        <ele>80.9</ele>
        <time>2012-12-29T11:33:34Z</time>
      </trkpt>
      <trkpt lat="46.53163" lon="-0.75843">
        <ele>80.7</ele>
        <time>2012-12-29T11:33:36Z</time>
      </trkpt>
      <trkpt lat="46.53162" lon="-0.75853">
        <ele>80.5</ele>
        <time>2012-12-29T11:33:38Z</time>
      </trkpt>
      <trkpt lat="46.5316" lon="-0.75865">
        <ele>80.3</ele>
        <time>2012-12-29T11:33:40Z</time>
      </trkpt>
      <trkpt lat="46.53159" lon="-0.75879">
        <ele>79.9</ele>
        <time>2012-12-29T11:33:42Z</time>
      </trkpt>
      <trkpt lat="46.53159" lon="-0.75886">
        <ele>79.8</ele>
        <time>2012-12-29T11:33:43Z</time>
      </trkpt>
      <trkpt lat="46.53157" lon="-0.75894">
        <ele>79.6</ele>
        <time>2012-12-29T11:33:44Z</time>
      </trkpt>
      <trkpt lat="46.53155" lon="-0.75918">
        <ele>77.5</ele>
        <time>2012-12-29T11:33:49Z</time>
      </trkpt>
      <trkpt lat="46.53155" lon="-0.75927">
        <ele>75</ele>
        <time>2012-12-29T11:33:51Z</time>
      </trkpt>
      <trkpt lat="46.53154" lon="-0.75944">
        <ele>70.3</ele>
        <time>2012-12-29T11:33:55Z</time>
      </trkpt>
      <trkpt lat="46.53153" lon="-0.75952">
        <ele>67.1</ele>
        <time>2012-12-29T11:33:57Z</time>
      </trkpt>
      <trkpt lat="46.53153" lon="-0.7596">
        <ele>64.4</ele>
        <time>2012-12-29T11:33:59Z</time>
      </trkpt>
      <trkpt lat="46.53152" lon="-0.75965">
        <ele>62.5</ele>
        <time>2012-12-29T11:34:00Z</time>
      </trkpt>
      <trkpt lat="46.53152" lon="-0.75973">
        <ele>59.9</ele>
        <time>2012-12-29T11:34:02Z</time>
      </trkpt>
      <trkpt lat="46.53152" lon="-0.75978">
        <ele>57.6</ele>
        <time>2012-12-29T11:34:03Z</time>
      </trkpt>
      <trkpt lat="46.53153" lon="-0.75986">
        <ele>54.7</ele>
        <time>2012-12-29T11:34:05Z</time>
      </trkpt>
      <trkpt lat="46.53155" lon="-0.75998">
        <ele>47.4</ele>
        <time>2012-12-29T11:34:11Z</time>
      </trkpt>
      <trkpt lat="46.53154" lon="-0.76009">
        <ele>42.7</ele>
        <time>2012-12-29T11:34:29Z</time>
      </trkpt>
      <trkpt lat="46.53155" lon="-0.76016">
        <ele>42.3</ele>
        <time>2012-12-29T11:34:38Z</time>
      </trkpt>
      <trkpt lat="46.53161" lon="-0.76029">
        <ele>41.8</ele>
        <time>2012-12-29T11:34:57Z</time>
      </trkpt>
      <trkpt lat="46.53168" lon="-0.76047">
        <ele>41</ele>
        <time>2012-12-29T11:35:04Z</time>
      </trkpt>
      <trkpt lat="46.5317" lon="-0.76054">
        <ele>40.5</ele>
        <time>2012-12-29T11:35:06Z</time>
      </trkpt>
      <trkpt lat="46.53172" lon="-0.76061">
        <ele>41</ele>
        <time>2012-12-29T11:35:08Z</time>
      </trkpt>
      <trkpt lat="46.53175" lon="-0.76068">
        <ele>40.9</ele>
        <time>2012-12-29T11:35:10Z</time>
      </trkpt>
      <trkpt lat="46.5318" lon="-0.76079">
        <ele>40.6</ele>
        <time>2012-12-29T11:35:13Z</time>
      </trkpt>
      <trkpt lat="46.53184" lon="-0.76085">
        <ele>40.7</ele>
        <time>2012-12-29T11:35:15Z</time>
      </trkpt>
      <trkpt lat="46.53188" lon="-0.76091">
        <ele>40.5</ele>
        <time>2012-12-29T11:35:17Z</time>
      </trkpt>
      <trkpt lat="46.53192" lon="-0.76097">
        <ele>40.3</ele>
        <time>2012-12-29T11:35:19Z</time>
      </trkpt>
      <trkpt lat="46.53197" lon="-0.76101">
        <ele>40.3</ele>
        <time>2012-12-29T11:35:21Z</time>
      </trkpt>
      <trkpt lat="46.53206" lon="-0.76104">
        <ele>39.8</ele>
        <time>2012-12-29T11:35:24Z</time>
      </trkpt>
      <trkpt lat="46.53211" lon="-0.76103">
        <ele>39.9</ele>
        <time>2012-12-29T11:35:26Z</time>
      </trkpt>
      <trkpt lat="46.53219" lon="-0.76102">
        <ele>39.9</ele>
        <time>2012-12-29T11:35:29Z</time>
      </trkpt>
      <trkpt lat="46.53225" lon="-0.76098">
        <ele>39.5</ele>
        <time>2012-12-29T11:35:33Z</time>
      </trkpt>
      <trkpt lat="46.53233" lon="-0.76092">
        <ele>39.8</ele>
        <time>2012-12-29T11:35:37Z</time>
      </trkpt>
      <trkpt lat="46.53239" lon="-0.76086">
        <ele>40.2</ele>
        <time>2012-12-29T11:35:40Z</time>
      </trkpt>
      <trkpt lat="46.53244" lon="-0.76082">
        <ele>40.4</ele>
        <time>2012-12-29T11:35:43Z</time>
      </trkpt>
      <trkpt lat="46.53254" lon="-0.76071">
        <ele>41.1</ele>
        <time>2012-12-29T11:35:47Z</time>
      </trkpt>
      <trkpt lat="46.53267" lon="-0.76056">
        <ele>40.3</ele>
        <time>2012-12-29T11:35:55Z</time>
      </trkpt>
      <trkpt lat="46.53271" lon="-0.76051">
        <ele>40.4</ele>
        <time>2012-12-29T11:35:57Z</time>
      </trkpt>
      <trkpt lat="46.53274" lon="-0.76046">
        <ele>41</ele>
        <time>2012-12-29T11:35:59Z</time>
      </trkpt>
      <trkpt lat="46.53278" lon="-0.76041">
        <ele>41.7</ele>
        <time>2012-12-29T11:36:01Z</time>
      </trkpt>
      <trkpt lat="46.53282" lon="-0.76035">
        <ele>42.5</ele>
        <time>2012-12-29T11:36:03Z</time>
      </trkpt>
      <trkpt lat="46.53285" lon="-0.76031">
        <ele>43</ele>
        <time>2012-12-29T11:36:05Z</time>
      </trkpt>
      <trkpt lat="46.5329" lon="-0.76023">
        <ele>43.1</ele>
        <time>2012-12-29T11:36:09Z</time>
      </trkpt>
      <trkpt lat="46.53296" lon="-0.76017">
        <ele>43.2</ele>
        <time>2012-12-29T11:36:12Z</time>
      </trkpt>
      <trkpt lat="46.53306" lon="-0.76009">
        <ele>43.8</ele>
        <time>2012-12-29T11:36:17Z</time>
      </trkpt>
      <trkpt lat="46.53309" lon="-0.76008">
        <ele>43.5</ele>
        <time>2012-12-29T11:36:18Z</time>
      </trkpt>
      <trkpt lat="46.53326" lon="-0.76001">
        <ele>42.4</ele>
        <time>2012-12-29T11:36:21Z</time>
      </trkpt>
      <trkpt lat="46.53339" lon="-0.75995">
        <ele>41.9</ele>
        <time>2012-12-29T11:36:23Z</time>
      </trkpt>
      <trkpt lat="46.53351" lon="-0.75989">
        <ele>41.1</ele>
        <time>2012-12-29T11:36:25Z</time>
      </trkpt>
      <trkpt lat="46.53372" lon="-0.7598">
        <ele>39.8</ele>
        <time>2012-12-29T11:36:29Z</time>
      </trkpt>
      <trkpt lat="46.53377" lon="-0.75978">
        <ele>39.7</ele>
        <time>2012-12-29T11:36:30Z</time>
      </trkpt>
      <trkpt lat="46.53382" lon="-0.75978">
        <ele>39.6</ele>
        <time>2012-12-29T11:36:31Z</time>
      </trkpt>
      <trkpt lat="46.53396" lon="-0.75976">
        <ele>39.5</ele>
        <time>2012-12-29T11:36:36Z</time>
      </trkpt>
      <trkpt lat="46.53402" lon="-0.75978">
        <ele>39.6</ele>
        <time>2012-12-29T11:36:38Z</time>
      </trkpt>
      <trkpt lat="46.53413" lon="-0.75982">
        <ele>38.7</ele>
        <time>2012-12-29T11:36:44Z</time>
      </trkpt>
      <trkpt lat="46.5342" lon="-0.75986">
        <ele>38.7</ele>
        <time>2012-12-29T11:36:48Z</time>
      </trkpt>
      <trkpt lat="46.53425" lon="-0.75989">
        <ele>38.3</ele>
        <time>2012-12-29T11:36:50Z</time>
      </trkpt>
      <trkpt lat="46.53437" lon="-0.75998">
        <ele>38.8</ele>
        <time>2012-12-29T11:36:55Z</time>
      </trkpt>
      <trkpt lat="46.53442" lon="-0.76002">
        <ele>38.8</ele>
        <time>2012-12-29T11:36:57Z</time>
      </trkpt>
      <trkpt lat="46.53448" lon="-0.76008">
        <ele>38.4</ele>
        <time>2012-12-29T11:37:00Z</time>
      </trkpt>
      <trkpt lat="46.53452" lon="-0.7601">
        <ele>38.5</ele>
        <time>2012-12-29T11:37:02Z</time>
      </trkpt>
      <trkpt lat="46.53456" lon="-0.76014">
        <ele>38.8</ele>
        <time>2012-12-29T11:37:04Z</time>
      </trkpt>
      <trkpt lat="46.53462" lon="-0.76022">
        <ele>39.1</ele>
        <time>2012-12-29T11:37:07Z</time>
      </trkpt>
      <trkpt lat="46.53468" lon="-0.76035">
        <ele>39.6</ele>
        <time>2012-12-29T11:37:11Z</time>
      </trkpt>
      <trkpt lat="46.53474" lon="-0.76043">
        <ele>39.2</ele>
        <time>2012-12-29T11:37:14Z</time>
      </trkpt>
      <trkpt lat="46.53479" lon="-0.76045">
        <ele>39.5</ele>
        <time>2012-12-29T11:37:16Z</time>
      </trkpt>
      <trkpt lat="46.53485" lon="-0.76049">
        <ele>39.7</ele>
        <time>2012-12-29T11:37:18Z</time>
      </trkpt>
      <trkpt lat="46.53489" lon="-0.76052">
        <ele>39.7</ele>
        <time>2012-12-29T11:37:20Z</time>
      </trkpt>
      <trkpt lat="46.53495" lon="-0.76052">
        <ele>39.6</ele>
        <time>2012-12-29T11:37:22Z</time>
      </trkpt>
      <trkpt lat="46.535" lon="-0.7605">
        <ele>40</ele>
        <time>2012-12-29T11:37:24Z</time>
      </trkpt>
      <trkpt lat="46.53509" lon="-0.76048">
        <ele>39.9</ele>
        <time>2012-12-29T11:37:28Z</time>
      </trkpt>
      <trkpt lat="46.53515" lon="-0.76045">
        <ele>39.6</ele>
        <time>2012-12-29T11:37:32Z</time>
      </trkpt>
      <trkpt lat="46.53522" lon="-0.76046">
        <ele>39.3</ele>
        <time>2012-12-29T11:37:37Z</time>
      </trkpt>
      <trkpt lat="46.53525" lon="-0.7605">
        <ele>38.9</ele>
        <time>2012-12-29T11:37:47Z</time>
      </trkpt>
      <trkpt lat="46.53529" lon="-0.76055">
        <ele>40.5</ele>
        <time>2012-12-29T11:38:30Z</time>
      </trkpt>
      <trkpt lat="46.53535" lon="-0.76055">
        <ele>39.7</ele>
        <time>2012-12-29T11:38:35Z</time>
      </trkpt>
      <trkpt lat="46.53539" lon="-0.76054">
        <ele>39.6</ele>
        <time>2012-12-29T11:38:37Z</time>
      </trkpt>
      <trkpt lat="46.53546" lon="-0.76052">
        <ele>39</ele>
        <time>2012-12-29T11:38:41Z</time>
      </trkpt>
      <trkpt lat="46.53554" lon="-0.76052">
        <ele>39.4</ele>
        <time>2012-12-29T11:38:45Z</time>
      </trkpt>
      <trkpt lat="46.5356" lon="-0.76055">
        <ele>39</ele>
        <time>2012-12-29T11:38:48Z</time>
      </trkpt>
      <trkpt lat="46.53566" lon="-0.76058">
        <ele>38.6</ele>
        <time>2012-12-29T11:38:57Z</time>
      </trkpt>
      <trkpt lat="46.5357" lon="-0.76061">
        <ele>38.6</ele>
        <time>2012-12-29T11:39:04Z</time>
      </trkpt>
      <trkpt lat="46.53577" lon="-0.76067">
        <ele>39</ele>
        <time>2012-12-29T11:39:18Z</time>
      </trkpt>
      <trkpt lat="46.5358" lon="-0.76071">
        <ele>38.8</ele>
        <time>2012-12-29T11:39:33Z</time>
      </trkpt>
      <trkpt lat="46.53583" lon="-0.76078">
        <ele>39.6</ele>
        <time>2012-12-29T11:39:50Z</time>
      </trkpt>
      <trkpt lat="46.53581" lon="-0.76085">
        <ele>39.5</ele>
        <time>2012-12-29T11:39:57Z</time>
      </trkpt>
      <trkpt lat="46.53575" lon="-0.76093">
        <ele>38.8</ele>
        <time>2012-12-29T11:40:03Z</time>
      </trkpt>
      <trkpt lat="46.53572" lon="-0.76101">
        <ele>38.8</ele>
        <time>2012-12-29T11:40:07Z</time>
      </trkpt>
      <trkpt lat="46.53567" lon="-0.7611">
        <ele>39.2</ele>
        <time>2012-12-29T11:40:13Z</time>
      </trkpt>
      <trkpt lat="46.53559" lon="-0.76113">
        <ele>38.7</ele>
        <time>2012-12-29T11:40:41Z</time>
      </trkpt>
      <trkpt lat="46.53552" lon="-0.76118">
        <ele>38.5</ele>
        <time>2012-12-29T11:40:51Z</time>
      </trkpt>
      <trkpt lat="46.53542" lon="-0.76128">
        <ele>38.3</ele>
        <time>2012-12-29T11:40:55Z</time>
      </trkpt>
      <trkpt lat="46.53536" lon="-0.76135">
        <ele>38.5</ele>
        <time>2012-12-29T11:40:57Z</time>
      </trkpt>
      <trkpt lat="46.5353" lon="-0.76141">
        <ele>38.9</ele>
        <time>2012-12-29T11:40:59Z</time>
      </trkpt>
      <trkpt lat="46.53521" lon="-0.76143">
        <ele>38.6</ele>
        <time>2012-12-29T11:41:01Z</time>
      </trkpt>
      <trkpt lat="46.53514" lon="-0.76143">
        <ele>38.1</ele>
        <time>2012-12-29T11:41:03Z</time>
      </trkpt>
      <trkpt lat="46.5351" lon="-0.76143">
        <ele>38.1</ele>
        <time>2012-12-29T11:41:04Z</time>
      </trkpt>
      <trkpt lat="46.53502" lon="-0.7614">
        <ele>38.1</ele>
        <time>2012-12-29T11:41:06Z</time>
      </trkpt>
      <trkpt lat="46.53496" lon="-0.76136">
        <ele>38.3</ele>
        <time>2012-12-29T11:41:08Z</time>
      </trkpt>
      <trkpt lat="46.53487" lon="-0.76128">
        <ele>38.9</ele>
        <time>2012-12-29T11:41:11Z</time>
      </trkpt>
      <trkpt lat="46.53482" lon="-0.76124">
        <ele>39.3</ele>
        <time>2012-12-29T11:41:13Z</time>
      </trkpt>
      <trkpt lat="46.53473" lon="-0.76118">
        <ele>39.5</ele>
        <time>2012-12-29T11:41:16Z</time>
      </trkpt>
      <trkpt lat="46.53469" lon="-0.76114">
        <ele>40.6</ele>
        <time>2012-12-29T11:41:18Z</time>
      </trkpt>
      <trkpt lat="46.53462" lon="-0.76105">
        <ele>41.3</ele>
        <time>2012-12-29T11:41:21Z</time>
      </trkpt>
      <trkpt lat="46.53457" lon="-0.76097">
        <ele>41.5</ele>
        <time>2012-12-29T11:41:23Z</time>
      </trkpt>
      <trkpt lat="46.53454" lon="-0.76092">
        <ele>41.9</ele>
        <time>2012-12-29T11:41:24Z</time>
      </trkpt>
      <trkpt lat="46.53447" lon="-0.76081">
        <ele>42.4</ele>
        <time>2012-12-29T11:41:26Z</time>
      </trkpt>
      <trkpt lat="46.53442" lon="-0.76076">
        <ele>41.8</ele>
        <time>2012-12-29T11:41:27Z</time>
      </trkpt>
      <trkpt lat="46.53433" lon="-0.76066">
        <ele>41.1</ele>
        <time>2012-12-29T11:41:29Z</time>
      </trkpt>
      <trkpt lat="46.53427" lon="-0.76062">
        <ele>41.3</ele>
        <time>2012-12-29T11:41:30Z</time>
      </trkpt>
      <trkpt lat="46.53418" lon="-0.76055">
        <ele>41.5</ele>
        <time>2012-12-29T11:41:32Z</time>
      </trkpt>
      <trkpt lat="46.53405" lon="-0.76047">
        <ele>40.7</ele>
        <time>2012-12-29T11:41:35Z</time>
      </trkpt>
      <trkpt lat="46.53397" lon="-0.76043">
        <ele>41</ele>
        <time>2012-12-29T11:41:37Z</time>
      </trkpt>
      <trkpt lat="46.53389" lon="-0.76041">
        <ele>41.2</ele>
        <time>2012-12-29T11:41:39Z</time>
      </trkpt>
      <trkpt lat="46.53381" lon="-0.76043">
        <ele>40.6</ele>
        <time>2012-12-29T11:41:41Z</time>
      </trkpt>
      <trkpt lat="46.53372" lon="-0.76047">
        <ele>40</ele>
        <time>2012-12-29T11:41:44Z</time>
      </trkpt>
      <trkpt lat="46.53367" lon="-0.76052">
        <ele>39.7</ele>
        <time>2012-12-29T11:41:46Z</time>
      </trkpt>
      <trkpt lat="46.53361" lon="-0.76056">
        <ele>39.5</ele>
        <time>2012-12-29T11:41:48Z</time>
      </trkpt>
      <trkpt lat="46.53355" lon="-0.76062">
        <ele>39.4</ele>
        <time>2012-12-29T11:41:50Z</time>
      </trkpt>
      <trkpt lat="46.5335" lon="-0.76068">
        <ele>39.5</ele>
        <time>2012-12-29T11:41:52Z</time>
      </trkpt>
      <trkpt lat="46.53346" lon="-0.76071">
        <ele>39.6</ele>
        <time>2012-12-29T11:41:53Z</time>
      </trkpt>
      <trkpt lat="46.5334" lon="-0.76077">
        <ele>39.7</ele>
        <time>2012-12-29T11:41:55Z</time>
      </trkpt>
      <trkpt lat="46.53337" lon="-0.7608">
        <ele>39.5</ele>
        <time>2012-12-29T11:41:56Z</time>
      </trkpt>
      <trkpt lat="46.53324" lon="-0.7609">
        <ele>38.9</ele>
        <time>2012-12-29T11:42:00Z</time>
      </trkpt>
      <trkpt lat="46.53315" lon="-0.76096">
        <ele>39.4</ele>
        <time>2012-12-29T11:42:02Z</time>
      </trkpt>
      <trkpt lat="46.5331" lon="-0.76099">
        <ele>39.8</ele>
        <time>2012-12-29T11:42:03Z</time>
      </trkpt>
      <trkpt lat="46.53305" lon="-0.76102">
        <ele>40.1</ele>
        <time>2012-12-29T11:42:04Z</time>
      </trkpt>
      <trkpt lat="46.53301" lon="-0.76106">
        <ele>39.6</ele>
        <time>2012-12-29T11:42:05Z</time>
      </trkpt>
      <trkpt lat="46.53297" lon="-0.76108">
        <ele>39.2</ele>
        <time>2012-12-29T11:42:06Z</time>
      </trkpt>
      <trkpt lat="46.53285" lon="-0.76115">
        <ele>39.5</ele>
        <time>2012-12-29T11:42:09Z</time>
      </trkpt>
      <trkpt lat="46.53279" lon="-0.76123">
        <ele>39.9</ele>
        <time>2012-12-29T11:42:11Z</time>
      </trkpt>
      <trkpt lat="46.53277" lon="-0.76127">
        <ele>40</ele>
        <time>2012-12-29T11:42:12Z</time>
      </trkpt>
      <trkpt lat="46.53272" lon="-0.76135">
        <ele>40</ele>
        <time>2012-12-29T11:42:14Z</time>
      </trkpt>
      <trkpt lat="46.53267" lon="-0.76142">
        <ele>39.7</ele>
        <time>2012-12-29T11:42:16Z</time>
      </trkpt>
      <trkpt lat="46.53261" lon="-0.76151">
        <ele>39.7</ele>
        <time>2012-12-29T11:42:19Z</time>
      </trkpt>
      <trkpt lat="46.53255" lon="-0.76155">
        <ele>39.7</ele>
        <time>2012-12-29T11:42:21Z</time>
      </trkpt>
      <trkpt lat="46.53251" lon="-0.76157">
        <ele>39.7</ele>
        <time>2012-12-29T11:42:22Z</time>
      </trkpt>
      <trkpt lat="46.53245" lon="-0.76161">
        <ele>39.6</ele>
        <time>2012-12-29T11:42:24Z</time>
      </trkpt>
      <trkpt lat="46.53238" lon="-0.76163">
        <ele>39.6</ele>
        <time>2012-12-29T11:42:26Z</time>
      </trkpt>
      <trkpt lat="46.53229" lon="-0.76166">
        <ele>40.5</ele>
        <time>2012-12-29T11:42:29Z</time>
      </trkpt>
      <trkpt lat="46.53215" lon="-0.76169">
        <ele>41</ele>
        <time>2012-12-29T11:42:33Z</time>
      </trkpt>
      <trkpt lat="46.53208" lon="-0.76171">
        <ele>40.9</ele>
        <time>2012-12-29T11:42:35Z</time>
      </trkpt>
      <trkpt lat="46.53203" lon="-0.76172">
        <ele>40.7</ele>
        <time>2012-12-29T11:42:37Z</time>
      </trkpt>
      <trkpt lat="46.53195" lon="-0.76172">
        <ele>41.5</ele>
        <time>2012-12-29T11:42:41Z</time>
      </trkpt>
      <trkpt lat="46.53181" lon="-0.76172">
        <ele>42.7</ele>
        <time>2012-12-29T11:42:47Z</time>
      </trkpt>
      <trkpt lat="46.53177" lon="-0.76171">
        <ele>42.7</ele>
        <time>2012-12-29T11:42:49Z</time>
      </trkpt>
      <trkpt lat="46.5317" lon="-0.76169">
        <ele>43.5</ele>
        <time>2012-12-29T11:42:52Z</time>
      </trkpt>
      <trkpt lat="46.53165" lon="-0.76165">
        <ele>44.9</ele>
        <time>2012-12-29T11:42:55Z</time>
      </trkpt>
      <trkpt lat="46.53161" lon="-0.7616">
        <ele>44.9</ele>
        <time>2012-12-29T11:42:57Z</time>
      </trkpt>
      <trkpt lat="46.53158" lon="-0.76154">
        <ele>44.9</ele>
        <time>2012-12-29T11:42:59Z</time>
      </trkpt>
      <trkpt lat="46.53154" lon="-0.76146">
        <ele>44.9</ele>
        <time>2012-12-29T11:43:01Z</time>
      </trkpt>
      <trkpt lat="46.53145" lon="-0.76119">
        <ele>44.8</ele>
        <time>2012-12-29T11:43:05Z</time>
      </trkpt>
      <trkpt lat="46.53143" lon="-0.76113">
        <ele>44.2</ele>
        <time>2012-12-29T11:43:06Z</time>
      </trkpt>
      <trkpt lat="46.53141" lon="-0.76106">
        <ele>43.8</ele>
        <time>2012-12-29T11:43:07Z</time>
      </trkpt>
      <trkpt lat="46.53137" lon="-0.76099">
        <ele>43.4</ele>
        <time>2012-12-29T11:43:08Z</time>
      </trkpt>
      <trkpt lat="46.53133" lon="-0.76094">
        <ele>43.2</ele>
        <time>2012-12-29T11:43:09Z</time>
      </trkpt>
      <trkpt lat="46.53128" lon="-0.76089">
        <ele>43.1</ele>
        <time>2012-12-29T11:43:10Z</time>
      </trkpt>
      <trkpt lat="46.53118" lon="-0.76081">
        <ele>42.5</ele>
        <time>2012-12-29T11:43:12Z</time>
      </trkpt>
      <trkpt lat="46.53103" lon="-0.76075">
        <ele>41.4</ele>
        <time>2012-12-29T11:43:15Z</time>
      </trkpt>
      <trkpt lat="46.53098" lon="-0.76075">
        <ele>41</ele>
        <time>2012-12-29T11:43:16Z</time>
      </trkpt>
      <trkpt lat="46.53088" lon="-0.76075">
        <ele>40.5</ele>
        <time>2012-12-29T11:43:18Z</time>
      </trkpt>
      <trkpt lat="46.53079" lon="-0.76077">
        <ele>40.1</ele>
        <time>2012-12-29T11:43:20Z</time>
      </trkpt>
      <trkpt lat="46.53072" lon="-0.76072">
        <ele>39.7</ele>
        <time>2012-12-29T11:43:22Z</time>
      </trkpt>
      <trkpt lat="46.53068" lon="-0.76069">
        <ele>39.5</ele>
        <time>2012-12-29T11:43:23Z</time>
      </trkpt>
      <trkpt lat="46.5306" lon="-0.76069">
        <ele>39.2</ele>
        <time>2012-12-29T11:43:25Z</time>
      </trkpt>
      <trkpt lat="46.53051" lon="-0.76069">
        <ele>39</ele>
        <time>2012-12-29T11:43:27Z</time>
      </trkpt>
      <trkpt lat="46.53043" lon="-0.76069">
        <ele>38.8</ele>
        <time>2012-12-29T11:43:29Z</time>
      </trkpt>
      <trkpt lat="46.53039" lon="-0.76069">
        <ele>38.7</ele>
        <time>2012-12-29T11:43:30Z</time>
      </trkpt>
      <trkpt lat="46.53032" lon="-0.7607">
        <ele>38.9</ele>
        <time>2012-12-29T11:43:32Z</time>
      </trkpt>
      <trkpt lat="46.53021" lon="-0.76074">
        <ele>39.1</ele>
        <time>2012-12-29T11:43:35Z</time>
      </trkpt>
      <trkpt lat="46.53015" lon="-0.76075">
        <ele>39.3</ele>
        <time>2012-12-29T11:43:37Z</time>
      </trkpt>
      <trkpt lat="46.53009" lon="-0.76078">
        <ele>39.8</ele>
        <time>2012-12-29T11:43:39Z</time>
      </trkpt>
      <trkpt lat="46.53002" lon="-0.76081">
        <ele>40.1</ele>
        <time>2012-12-29T11:43:41Z</time>
      </trkpt>
      <trkpt lat="46.52994" lon="-0.76084">
        <ele>40.2</ele>
        <time>2012-12-29T11:43:43Z</time>
      </trkpt>
      <trkpt lat="46.52987" lon="-0.76084">
        <ele>40.7</ele>
        <time>2012-12-29T11:43:45Z</time>
      </trkpt>
      <trkpt lat="46.52972" lon="-0.76085">
        <ele>41.4</ele>
        <time>2012-12-29T11:43:49Z</time>
      </trkpt>
      <trkpt lat="46.52964" lon="-0.76085">
        <ele>41.6</ele>
        <time>2012-12-29T11:43:51Z</time>
      </trkpt>
      <trkpt lat="46.52946" lon="-0.76082">
        <ele>40.7</ele>
        <time>2012-12-29T11:43:55Z</time>
      </trkpt>
      <trkpt lat="46.52942" lon="-0.7608">
        <ele>40.4</ele>
        <time>2012-12-29T11:43:56Z</time>
      </trkpt>
      <trkpt lat="46.52933" lon="-0.76077">
        <ele>40.9</ele>
        <time>2012-12-29T11:43:58Z</time>
      </trkpt>
      <trkpt lat="46.52926" lon="-0.76075">
        <ele>41.1</ele>
        <time>2012-12-29T11:44:00Z</time>
      </trkpt>
      <trkpt lat="46.52923" lon="-0.76075">
        <ele>41</ele>
        <time>2012-12-29T11:44:01Z</time>
      </trkpt>
      <trkpt lat="46.52918" lon="-0.76077">
        <ele>40.8</ele>
        <time>2012-12-29T11:44:03Z</time>
      </trkpt>
      <trkpt lat="46.52912" lon="-0.76086">
        <ele>40.1</ele>
        <time>2012-12-29T11:44:09Z</time>
      </trkpt>
      <trkpt lat="46.52906" lon="-0.76085">
        <ele>40.5</ele>
        <time>2012-12-29T11:44:35Z</time>
      </trkpt>
      <trkpt lat="46.52902" lon="-0.76085">
        <ele>40.5</ele>
        <time>2012-12-29T11:45:26Z</time>
      </trkpt>
      <trkpt lat="46.52897" lon="-0.76095">
        <ele>39.9</ele>
        <time>2012-12-29T11:45:59Z</time>
      </trkpt>
      <trkpt lat="46.52889" lon="-0.76101">
        <ele>40</ele>
        <time>2012-12-29T11:46:16Z</time>
      </trkpt>
      <trkpt lat="46.52881" lon="-0.76104">
        <ele>41.5</ele>
        <time>2012-12-29T11:46:33Z</time>
      </trkpt>
      <trkpt lat="46.52881" lon="-0.76107">
        <ele>42.3</ele>
        <time>2012-12-29T11:47:12Z</time>
      </trkpt>
      <trkpt lat="46.52885" lon="-0.76097">
        <ele>41</ele>
        <time>2012-12-29T11:47:24Z</time>
      </trkpt>
      <trkpt lat="46.52885" lon="-0.7609">
        <ele>41.2</ele>
        <time>2012-12-29T11:47:31Z</time>
      </trkpt>
      <trkpt lat="46.52889" lon="-0.76092">
        <ele>41.6</ele>
        <time>2012-12-29T11:47:59Z</time>
      </trkpt>
      <trkpt lat="46.52895" lon="-0.76089">
        <ele>40.4</ele>
        <time>2012-12-29T11:48:55Z</time>
      </trkpt>
      <trkpt lat="46.529" lon="-0.76089">
        <ele>40.6</ele>
        <time>2012-12-29T11:49:56Z</time>
      </trkpt>
      <trkpt lat="46.52895" lon="-0.76087">
        <ele>42.8</ele>
        <time>2012-12-29T11:53:53Z</time>
      </trkpt>
      <trkpt lat="46.52899" lon="-0.76097">
        <ele>44.3</ele>
        <time>2012-12-29T11:54:28Z</time>
      </trkpt>
      <trkpt lat="46.52896" lon="-0.761">
        <ele>43</ele>
        <time>2012-12-29T11:54:36Z</time>
      </trkpt>
      <trkpt lat="46.52892" lon="-0.76104">
        <ele>42.9</ele>
        <time>2012-12-29T11:54:58Z</time>
      </trkpt>
      <trkpt lat="46.52902" lon="-0.7609">
        <ele>43.8</ele>
        <time>2012-12-29T11:56:48Z</time>
      </trkpt>
      <trkpt lat="46.52903" lon="-0.76096">
        <ele>43</ele>
        <time>2012-12-29T11:58:53Z</time>
      </trkpt>
      <trkpt lat="46.52896" lon="-0.76088">
        <ele>43.7</ele>
        <time>2012-12-29T12:03:33Z</time>
      </trkpt>
      <trkpt lat="46.52901" lon="-0.76089">
        <ele>43.9</ele>
        <time>2012-12-29T12:05:42Z</time>
      </trkpt>
      <trkpt lat="46.529" lon="-0.76097">
        <ele>42.9</ele>
        <time>2012-12-29T12:08:21Z</time>
      </trkpt>
      <trkpt lat="46.52903" lon="-0.76101">
        <ele>44.7</ele>
        <time>2012-12-29T12:10:55Z</time>
      </trkpt>
      <trkpt lat="46.52903" lon="-0.76114">
        <ele>45.2</ele>
        <time>2012-12-29T12:11:17Z</time>
      </trkpt>
      <trkpt lat="46.52902" lon="-0.76123">
        <ele>44.8</ele>
        <time>2012-12-29T12:11:21Z</time>
      </trkpt>
      <trkpt lat="46.52902" lon="-0.76129">
        <ele>44.5</ele>
        <time>2012-12-29T12:11:24Z</time>
      </trkpt>
      <trkpt lat="46.52904" lon="-0.76138">
        <ele>43.7</ele>
        <time>2012-12-29T12:11:28Z</time>
      </trkpt>
      <trkpt lat="46.52906" lon="-0.76144">
        <ele>43.4</ele>
        <time>2012-12-29T12:11:30Z</time>
      </trkpt>
      <trkpt lat="46.52908" lon="-0.7615">
        <ele>43.2</ele>
        <time>2012-12-29T12:11:32Z</time>
      </trkpt>
      <trkpt lat="46.52909" lon="-0.76157">
        <ele>43.1</ele>
        <time>2012-12-29T12:11:34Z</time>
      </trkpt>
      <trkpt lat="46.52911" lon="-0.76168">
        <ele>42.9</ele>
        <time>2012-12-29T12:11:37Z</time>
      </trkpt>
      <trkpt lat="46.52913" lon="-0.76175">
        <ele>42.7</ele>
        <time>2012-12-29T12:11:39Z</time>
      </trkpt>
      <trkpt lat="46.52917" lon="-0.76185">
        <ele>43.8</ele>
        <time>2012-12-29T12:11:42Z</time>
      </trkpt>
      <trkpt lat="46.52926" lon="-0.76201">
        <ele>44.5</ele>
        <time>2012-12-29T12:11:47Z</time>
      </trkpt>
      <trkpt lat="46.52929" lon="-0.76208">
        <ele>44.3</ele>
        <time>2012-12-29T12:11:49Z</time>
      </trkpt>
      <trkpt lat="46.52932" lon="-0.76215">
        <ele>44.9</ele>
        <time>2012-12-29T12:11:51Z</time>
      </trkpt>
      <trkpt lat="46.52934" lon="-0.76223">
        <ele>45</ele>
        <time>2012-12-29T12:11:53Z</time>
      </trkpt>
      <trkpt lat="46.52937" lon="-0.76244">
        <ele>44.8</ele>
        <time>2012-12-29T12:11:57Z</time>
      </trkpt>
      <trkpt lat="46.52937" lon="-0.76255">
        <ele>45.3</ele>
        <time>2012-12-29T12:11:59Z</time>
      </trkpt>
      <trkpt lat="46.52938" lon="-0.76266">
        <ele>46</ele>
        <time>2012-12-29T12:12:01Z</time>
      </trkpt>
      <trkpt lat="46.52938" lon="-0.76276">
        <ele>45.6</ele>
        <time>2012-12-29T12:12:03Z</time>
      </trkpt>
      <trkpt lat="46.52937" lon="-0.76287">
        <ele>45.4</ele>
        <time>2012-12-29T12:12:05Z</time>
      </trkpt>
      <trkpt lat="46.52932" lon="-0.7631">
        <ele>44.9</ele>
        <time>2012-12-29T12:12:09Z</time>
      </trkpt>
      <trkpt lat="46.5293" lon="-0.76322">
        <ele>44.6</ele>
        <time>2012-12-29T12:12:11Z</time>
      </trkpt>
      <trkpt lat="46.52929" lon="-0.76332">
        <ele>45</ele>
        <time>2012-12-29T12:12:13Z</time>
      </trkpt>
      <trkpt lat="46.52928" lon="-0.76343">
        <ele>45.2</ele>
        <time>2012-12-29T12:12:15Z</time>
      </trkpt>
      <trkpt lat="46.52926" lon="-0.76348">
        <ele>45.3</ele>
        <time>2012-12-29T12:12:16Z</time>
      </trkpt>
      <trkpt lat="46.52923" lon="-0.76358">
        <ele>45.2</ele>
        <time>2012-12-29T12:12:18Z</time>
      </trkpt>
      <trkpt lat="46.52917" lon="-0.76372">
        <ele>45</ele>
        <time>2012-12-29T12:12:21Z</time>
      </trkpt>
      <trkpt lat="46.52913" lon="-0.76385">
        <ele>45.2</ele>
        <time>2012-12-29T12:12:24Z</time>
      </trkpt>
      <trkpt lat="46.5291" lon="-0.76394">
        <ele>45.4</ele>
        <time>2012-12-29T12:12:26Z</time>
      </trkpt>
      <trkpt lat="46.52909" lon="-0.76398">
        <ele>45.5</ele>
        <time>2012-12-29T12:12:27Z</time>
      </trkpt>
      <trkpt lat="46.52905" lon="-0.76407">
        <ele>45.5</ele>
        <time>2012-12-29T12:12:29Z</time>
      </trkpt>
      <trkpt lat="46.52902" lon="-0.76417">
        <ele>45.3</ele>
        <time>2012-12-29T12:12:31Z</time>
      </trkpt>
      <trkpt lat="46.52897" lon="-0.76427">
        <ele>45</ele>
        <time>2012-12-29T12:12:33Z</time>
      </trkpt>
      <trkpt lat="46.52895" lon="-0.76432">
        <ele>44.7</ele>
        <time>2012-12-29T12:12:34Z</time>
      </trkpt>
      <trkpt lat="46.5289" lon="-0.76441">
        <ele>44.3</ele>
        <time>2012-12-29T12:12:36Z</time>
      </trkpt>
      <trkpt lat="46.52888" lon="-0.76446">
        <ele>44.3</ele>
        <time>2012-12-29T12:12:37Z</time>
      </trkpt>
      <trkpt lat="46.52884" lon="-0.76457">
        <ele>44.3</ele>
        <time>2012-12-29T12:12:39Z</time>
      </trkpt>
      <trkpt lat="46.52876" lon="-0.76477">
        <ele>44.1</ele>
        <time>2012-12-29T12:12:43Z</time>
      </trkpt>
      <trkpt lat="46.52874" lon="-0.76482">
        <ele>44.2</ele>
        <time>2012-12-29T12:12:44Z</time>
      </trkpt>
      <trkpt lat="46.52869" lon="-0.76492">
        <ele>44.3</ele>
        <time>2012-12-29T12:12:46Z</time>
      </trkpt>
      <trkpt lat="46.52867" lon="-0.76496">
        <ele>44.6</ele>
        <time>2012-12-29T12:12:47Z</time>
      </trkpt>
      <trkpt lat="46.52856" lon="-0.76515">
        <ele>45</ele>
        <time>2012-12-29T12:12:51Z</time>
      </trkpt>
      <trkpt lat="46.52853" lon="-0.76519">
        <ele>45</ele>
        <time>2012-12-29T12:12:52Z</time>
      </trkpt>
      <trkpt lat="46.52845" lon="-0.76531">
        <ele>44.8</ele>
        <time>2012-12-29T12:12:55Z</time>
      </trkpt>
      <trkpt lat="46.52839" lon="-0.76539">
        <ele>44.7</ele>
        <time>2012-12-29T12:12:57Z</time>
      </trkpt>
      <trkpt lat="46.52826" lon="-0.76555">
        <ele>43.9</ele>
        <time>2012-12-29T12:13:01Z</time>
      </trkpt>
      <trkpt lat="46.52819" lon="-0.76563">
        <ele>43.7</ele>
        <time>2012-12-29T12:13:03Z</time>
      </trkpt>
      <trkpt lat="46.52816" lon="-0.76568">
        <ele>43.8</ele>
        <time>2012-12-29T12:13:04Z</time>
      </trkpt>
      <trkpt lat="46.52812" lon="-0.76573">
        <ele>43.8</ele>
        <time>2012-12-29T12:13:05Z</time>
      </trkpt>
      <trkpt lat="46.52802" lon="-0.76585">
        <ele>43.6</ele>
        <time>2012-12-29T12:13:08Z</time>
      </trkpt>
      <trkpt lat="46.52796" lon="-0.76593">
        <ele>43.6</ele>
        <time>2012-12-29T12:13:10Z</time>
      </trkpt>
      <trkpt lat="46.52784" lon="-0.7661">
        <ele>44.1</ele>
        <time>2012-12-29T12:13:14Z</time>
      </trkpt>
      <trkpt lat="46.52781" lon="-0.76614">
        <ele>44.2</ele>
        <time>2012-12-29T12:13:15Z</time>
      </trkpt>
      <trkpt lat="46.52777" lon="-0.76621">
        <ele>44.2</ele>
        <time>2012-12-29T12:13:17Z</time>
      </trkpt>
      <trkpt lat="46.52772" lon="-0.76629">
        <ele>44.1</ele>
        <time>2012-12-29T12:13:19Z</time>
      </trkpt>
      <trkpt lat="46.52769" lon="-0.76632">
        <ele>44.1</ele>
        <time>2012-12-29T12:13:20Z</time>
      </trkpt>
      <trkpt lat="46.52759" lon="-0.76643">
        <ele>44</ele>
        <time>2012-12-29T12:13:23Z</time>
      </trkpt>
      <trkpt lat="46.52753" lon="-0.7665">
        <ele>43.9</ele>
        <time>2012-12-29T12:13:25Z</time>
      </trkpt>
      <trkpt lat="46.52744" lon="-0.76659">
        <ele>43.9</ele>
        <time>2012-12-29T12:13:28Z</time>
      </trkpt>
      <trkpt lat="46.52739" lon="-0.76665">
        <ele>43.2</ele>
        <time>2012-12-29T12:13:30Z</time>
      </trkpt>
      <trkpt lat="46.52733" lon="-0.76673">
        <ele>43.6</ele>
        <time>2012-12-29T12:13:34Z</time>
      </trkpt>
      <trkpt lat="46.52728" lon="-0.76679">
        <ele>44.4</ele>
        <time>2012-12-29T12:13:38Z</time>
      </trkpt>
      <trkpt lat="46.52723" lon="-0.76687">
        <ele>44.7</ele>
        <time>2012-12-29T12:13:42Z</time>
      </trkpt>
      <trkpt lat="46.52718" lon="-0.76696">
        <ele>45.1</ele>
        <time>2012-12-29T12:13:46Z</time>
      </trkpt>
      <trkpt lat="46.52715" lon="-0.76701">
        <ele>45.7</ele>
        <time>2012-12-29T12:13:48Z</time>
      </trkpt>
      <trkpt lat="46.52712" lon="-0.76707">
        <ele>46.3</ele>
        <time>2012-12-29T12:13:50Z</time>
      </trkpt>
      <trkpt lat="46.52709" lon="-0.76713">
        <ele>46</ele>
        <time>2012-12-29T12:13:52Z</time>
      </trkpt>
      <trkpt lat="46.52706" lon="-0.76718">
        <ele>46.1</ele>
        <time>2012-12-29T12:13:54Z</time>
      </trkpt>
      <trkpt lat="46.52701" lon="-0.76733">
        <ele>46.1</ele>
        <time>2012-12-29T12:13:58Z</time>
      </trkpt>
      <trkpt lat="46.527" lon="-0.76741">
        <ele>46</ele>
        <time>2012-12-29T12:14:00Z</time>
      </trkpt>
      <trkpt lat="46.52698" lon="-0.76753">
        <ele>46.6</ele>
        <time>2012-12-29T12:14:04Z</time>
      </trkpt>
      <trkpt lat="46.527" lon="-0.76765">
        <ele>48.2</ele>
        <time>2012-12-29T12:14:08Z</time>
      </trkpt>
      <trkpt lat="46.52704" lon="-0.76776">
        <ele>49.3</ele>
        <time>2012-12-29T12:14:12Z</time>
      </trkpt>
      <trkpt lat="46.52709" lon="-0.76783">
        <ele>49.6</ele>
        <time>2012-12-29T12:14:17Z</time>
      </trkpt>
      <trkpt lat="46.52724" lon="-0.76787">
        <ele>51.5</ele>
        <time>2012-12-29T12:14:27Z</time>
      </trkpt>
      <trkpt lat="46.52728" lon="-0.76788">
        <ele>51.6</ele>
        <time>2012-12-29T12:14:30Z</time>
      </trkpt>
      <trkpt lat="46.52741" lon="-0.76786">
        <ele>52.3</ele>
        <time>2012-12-29T12:14:39Z</time>
      </trkpt>
      <trkpt lat="46.52748" lon="-0.76787">
        <ele>54</ele>
        <time>2012-12-29T12:14:43Z</time>
      </trkpt>
      <trkpt lat="46.52751" lon="-0.76786">
        <ele>54.5</ele>
        <time>2012-12-29T12:14:45Z</time>
      </trkpt>
      <trkpt lat="46.5276" lon="-0.76787">
        <ele>55</ele>
        <time>2012-12-29T12:14:51Z</time>
      </trkpt>
      <trkpt lat="46.52763" lon="-0.76786">
        <ele>55.2</ele>
        <time>2012-12-29T12:14:53Z</time>
      </trkpt>
      <trkpt lat="46.52771" lon="-0.76783">
        <ele>57.7</ele>
        <time>2012-12-29T12:14:59Z</time>
      </trkpt>
      <trkpt lat="46.52776" lon="-0.76781">
        <ele>58.7</ele>
        <time>2012-12-29T12:15:02Z</time>
      </trkpt>
      <trkpt lat="46.5278" lon="-0.76775">
        <ele>60</ele>
        <time>2012-12-29T12:15:07Z</time>
      </trkpt>
      <trkpt lat="46.52782" lon="-0.76771">
        <ele>60.5</ele>
        <time>2012-12-29T12:15:10Z</time>
      </trkpt>
      <trkpt lat="46.52787" lon="-0.76763">
        <ele>62.3</ele>
        <time>2012-12-29T12:15:16Z</time>
      </trkpt>
      <trkpt lat="46.52791" lon="-0.76752">
        <ele>63.8</ele>
        <time>2012-12-29T12:15:23Z</time>
      </trkpt>
      <trkpt lat="46.52795" lon="-0.76743">
        <ele>64.5</ele>
        <time>2012-12-29T12:15:29Z</time>
      </trkpt>
      <trkpt lat="46.52797" lon="-0.76739">
        <ele>64.8</ele>
        <time>2012-12-29T12:15:32Z</time>
      </trkpt>
      <trkpt lat="46.528" lon="-0.7673">
        <ele>66.9</ele>
        <time>2012-12-29T12:15:38Z</time>
      </trkpt>
      <trkpt lat="46.52805" lon="-0.76723">
        <ele>68.2</ele>
        <time>2012-12-29T12:15:44Z</time>
      </trkpt>
      <trkpt lat="46.52811" lon="-0.76714">
        <ele>70.1</ele>
        <time>2012-12-29T12:15:51Z</time>
      </trkpt>
      <trkpt lat="46.52817" lon="-0.76707">
        <ele>71.9</ele>
        <time>2012-12-29T12:16:00Z</time>
      </trkpt>
      <trkpt lat="46.5282" lon="-0.76702">
        <ele>72.8</ele>
        <time>2012-12-29T12:16:05Z</time>
      </trkpt>
      <trkpt lat="46.52826" lon="-0.76697">
        <ele>73.9</ele>
        <time>2012-12-29T12:16:15Z</time>
      </trkpt>
      <trkpt lat="46.52834" lon="-0.76695">
        <ele>75.3</ele>
        <time>2012-12-29T12:16:28Z</time>
      </trkpt>
      <trkpt lat="46.5284" lon="-0.76692">
        <ele>75.6</ele>
        <time>2012-12-29T12:16:32Z</time>
      </trkpt>
      <trkpt lat="46.52844" lon="-0.76689">
        <ele>75.7</ele>
        <time>2012-12-29T12:16:35Z</time>
      </trkpt>
      <trkpt lat="46.52851" lon="-0.76685">
        <ele>75.4</ele>
        <time>2012-12-29T12:16:41Z</time>
      </trkpt>
      <trkpt lat="46.52859" lon="-0.76681">
        <ele>76.6</ele>
        <time>2012-12-29T12:16:56Z</time>
      </trkpt>
      <trkpt lat="46.52863" lon="-0.7668">
        <ele>76.3</ele>
        <time>2012-12-29T12:17:24Z</time>
      </trkpt>
      <trkpt lat="46.52871" lon="-0.76678">
        <ele>76.4</ele>
        <time>2012-12-29T12:17:40Z</time>
      </trkpt>
      <trkpt lat="46.52879" lon="-0.76676">
        <ele>77.9</ele>
        <time>2012-12-29T12:17:46Z</time>
      </trkpt>
      <trkpt lat="46.52887" lon="-0.76675">
        <ele>78.6</ele>
        <time>2012-12-29T12:17:52Z</time>
      </trkpt>
      <trkpt lat="46.52894" lon="-0.76676">
        <ele>79</ele>
        <time>2012-12-29T12:17:58Z</time>
      </trkpt>
      <trkpt lat="46.52902" lon="-0.76675">
        <ele>79.7</ele>
        <time>2012-12-29T12:18:04Z</time>
      </trkpt>
      <trkpt lat="46.52906" lon="-0.76672">
        <ele>79.9</ele>
        <time>2012-12-29T12:18:07Z</time>
      </trkpt>
      <trkpt lat="46.52912" lon="-0.76665">
        <ele>81.6</ele>
        <time>2012-12-29T12:18:14Z</time>
      </trkpt>
      <trkpt lat="46.52918" lon="-0.7666">
        <ele>82.5</ele>
        <time>2012-12-29T12:18:20Z</time>
      </trkpt>
      <trkpt lat="46.52921" lon="-0.76656">
        <ele>83.5</ele>
        <time>2012-12-29T12:18:24Z</time>
      </trkpt>
      <trkpt lat="46.52925" lon="-0.7665">
        <ele>84.1</ele>
        <time>2012-12-29T12:18:29Z</time>
      </trkpt>
      <trkpt lat="46.5293" lon="-0.76638">
        <ele>86.7</ele>
        <time>2012-12-29T12:18:37Z</time>
      </trkpt>
      <trkpt lat="46.52933" lon="-0.76627">
        <ele>87.3</ele>
        <time>2012-12-29T12:18:43Z</time>
      </trkpt>
      <trkpt lat="46.52938" lon="-0.76607">
        <ele>89.9</ele>
        <time>2012-12-29T12:18:53Z</time>
      </trkpt>
      <trkpt lat="46.52942" lon="-0.76596">
        <ele>90.6</ele>
        <time>2012-12-29T12:18:59Z</time>
      </trkpt>
      <trkpt lat="46.52945" lon="-0.76591">
        <ele>90.4</ele>
        <time>2012-12-29T12:19:02Z</time>
      </trkpt>
      <trkpt lat="46.5295" lon="-0.76583">
        <ele>91.3</ele>
        <time>2012-12-29T12:19:08Z</time>
      </trkpt>
      <trkpt lat="46.52956" lon="-0.76574">
        <ele>92.6</ele>
        <time>2012-12-29T12:19:15Z</time>
      </trkpt>
      <trkpt lat="46.52963" lon="-0.76568">
        <ele>93.3</ele>
        <time>2012-12-29T12:19:21Z</time>
      </trkpt>
      <trkpt lat="46.52966" lon="-0.76566">
        <ele>93.5</ele>
        <time>2012-12-29T12:19:24Z</time>
      </trkpt>
      <trkpt lat="46.52974" lon="-0.7656">
        <ele>94</ele>
        <time>2012-12-29T12:19:30Z</time>
      </trkpt>
      <trkpt lat="46.52982" lon="-0.76551">
        <ele>95</ele>
        <time>2012-12-29T12:19:37Z</time>
      </trkpt>
      <trkpt lat="46.52988" lon="-0.76546">
        <ele>94.5</ele>
        <time>2012-12-29T12:19:41Z</time>
      </trkpt>
      <trkpt lat="46.52995" lon="-0.76553">
        <ele>94.8</ele>
        <time>2012-12-29T12:20:06Z</time>
      </trkpt>
      <trkpt lat="46.52999" lon="-0.76561">
        <ele>93.7</ele>
        <time>2012-12-29T12:20:10Z</time>
      </trkpt>
      <trkpt lat="46.53004" lon="-0.76567">
        <ele>94.4</ele>
        <time>2012-12-29T12:20:14Z</time>
      </trkpt>
      <trkpt lat="46.53011" lon="-0.76574">
        <ele>94.7</ele>
        <time>2012-12-29T12:20:17Z</time>
      </trkpt>
      <trkpt lat="46.53016" lon="-0.76579">
        <ele>95.3</ele>
        <time>2012-12-29T12:20:19Z</time>
      </trkpt>
      <trkpt lat="46.53025" lon="-0.76593">
        <ele>95.5</ele>
        <time>2012-12-29T12:20:23Z</time>
      </trkpt>
      <trkpt lat="46.53031" lon="-0.76599">
        <ele>95.2</ele>
        <time>2012-12-29T12:20:25Z</time>
      </trkpt>
      <trkpt lat="46.53034" lon="-0.76603">
        <ele>95.2</ele>
        <time>2012-12-29T12:20:26Z</time>
      </trkpt>
      <trkpt lat="46.53044" lon="-0.76611">
        <ele>94</ele>
        <time>2012-12-29T12:20:28Z</time>
      </trkpt>
      <trkpt lat="46.53049" lon="-0.76616">
        <ele>93.6</ele>
        <time>2012-12-29T12:20:29Z</time>
      </trkpt>
      <trkpt lat="46.53054" lon="-0.7662">
        <ele>93.2</ele>
        <time>2012-12-29T12:20:30Z</time>
      </trkpt>
      <trkpt lat="46.53066" lon="-0.76632">
        <ele>92.6</ele>
        <time>2012-12-29T12:20:32Z</time>
      </trkpt>
      <trkpt lat="46.53072" lon="-0.76637">
        <ele>91.6</ele>
        <time>2012-12-29T12:20:33Z</time>
      </trkpt>
      <trkpt lat="46.53078" lon="-0.76641">
        <ele>90.9</ele>
        <time>2012-12-29T12:20:34Z</time>
      </trkpt>
      <trkpt lat="46.53093" lon="-0.76648">
        <ele>89.6</ele>
        <time>2012-12-29T12:20:36Z</time>
      </trkpt>
      <trkpt lat="46.53101" lon="-0.76652">
        <ele>89.1</ele>
        <time>2012-12-29T12:20:37Z</time>
      </trkpt>
      <trkpt lat="46.53131" lon="-0.76671">
        <ele>87.4</ele>
        <time>2012-12-29T12:20:41Z</time>
      </trkpt>
      <trkpt lat="46.53153" lon="-0.76683">
        <ele>85.9</ele>
        <time>2012-12-29T12:20:44Z</time>
      </trkpt>
      <trkpt lat="46.53168" lon="-0.7669">
        <ele>85.5</ele>
        <time>2012-12-29T12:20:46Z</time>
      </trkpt>
      <trkpt lat="46.53187" lon="-0.76699">
        <ele>85.3</ele>
        <time>2012-12-29T12:20:49Z</time>
      </trkpt>
      <trkpt lat="46.53193" lon="-0.76701">
        <ele>85.2</ele>
        <time>2012-12-29T12:20:50Z</time>
      </trkpt>
      <trkpt lat="46.53198" lon="-0.76703">
        <ele>85</ele>
        <time>2012-12-29T12:20:51Z</time>
      </trkpt>
      <trkpt lat="46.53203" lon="-0.76705">
        <ele>85.2</ele>
        <time>2012-12-29T12:20:52Z</time>
      </trkpt>
      <trkpt lat="46.53217" lon="-0.76713">
        <ele>85.8</ele>
        <time>2012-12-29T12:20:55Z</time>
      </trkpt>
      <trkpt lat="46.53233" lon="-0.76724">
        <ele>87</ele>
        <time>2012-12-29T12:20:59Z</time>
      </trkpt>
      <trkpt lat="46.53239" lon="-0.76727">
        <ele>87.7</ele>
        <time>2012-12-29T12:21:01Z</time>
      </trkpt>
      <trkpt lat="46.53247" lon="-0.76731">
        <ele>88.5</ele>
        <time>2012-12-29T12:21:03Z</time>
      </trkpt>
      <trkpt lat="46.53253" lon="-0.76735">
        <ele>89.3</ele>
        <time>2012-12-29T12:21:05Z</time>
      </trkpt>
      <trkpt lat="46.5326" lon="-0.7674">
        <ele>90</ele>
        <time>2012-12-29T12:21:07Z</time>
      </trkpt>
      <trkpt lat="46.53264" lon="-0.76742">
        <ele>90.3</ele>
        <time>2012-12-29T12:21:08Z</time>
      </trkpt>
      <trkpt lat="46.5327" lon="-0.76747">
        <ele>90.8</ele>
        <time>2012-12-29T12:21:10Z</time>
      </trkpt>
      <trkpt lat="46.53277" lon="-0.7675">
        <ele>91.8</ele>
        <time>2012-12-29T12:21:12Z</time>
      </trkpt>
      <trkpt lat="46.5328" lon="-0.76753">
        <ele>92.2</ele>
        <time>2012-12-29T12:21:13Z</time>
      </trkpt>
      <trkpt lat="46.53293" lon="-0.76761">
        <ele>93.9</ele>
        <time>2012-12-29T12:21:17Z</time>
      </trkpt>
      <trkpt lat="46.53303" lon="-0.76768">
        <ele>94.6</ele>
        <time>2012-12-29T12:21:20Z</time>
      </trkpt>
      <trkpt lat="46.53306" lon="-0.7677">
        <ele>94.6</ele>
        <time>2012-12-29T12:21:21Z</time>
      </trkpt>
      <trkpt lat="46.53312" lon="-0.76773">
        <ele>94.7</ele>
        <time>2012-12-29T12:21:23Z</time>
      </trkpt>
      <trkpt lat="46.53319" lon="-0.76775">
        <ele>94.9</ele>
        <time>2012-12-29T12:21:25Z</time>
      </trkpt>
      <trkpt lat="46.53331" lon="-0.76785">
        <ele>95.2</ele>
        <time>2012-12-29T12:21:30Z</time>
      </trkpt>
      <trkpt lat="46.53337" lon="-0.76788">
        <ele>95.5</ele>
        <time>2012-12-29T12:21:32Z</time>
      </trkpt>
      <trkpt lat="46.53344" lon="-0.76794">
        <ele>95.6</ele>
        <time>2012-12-29T12:21:34Z</time>
      </trkpt>
      <trkpt lat="46.53351" lon="-0.76799">
        <ele>95.6</ele>
        <time>2012-12-29T12:21:36Z</time>
      </trkpt>
      <trkpt lat="46.53354" lon="-0.76802">
        <ele>95.7</ele>
        <time>2012-12-29T12:21:37Z</time>
      </trkpt>
      <trkpt lat="46.53361" lon="-0.76807">
        <ele>95.9</ele>
        <time>2012-12-29T12:21:39Z</time>
      </trkpt>
      <trkpt lat="46.53364" lon="-0.7681">
        <ele>95.7</ele>
        <time>2012-12-29T12:21:40Z</time>
      </trkpt>
      <trkpt lat="46.5337" lon="-0.76815">
        <ele>95.5</ele>
        <time>2012-12-29T12:21:42Z</time>
      </trkpt>
      <trkpt lat="46.5338" lon="-0.76824">
        <ele>96</ele>
        <time>2012-12-29T12:21:46Z</time>
      </trkpt>
      <trkpt lat="46.53385" lon="-0.76827">
        <ele>96.3</ele>
        <time>2012-12-29T12:21:48Z</time>
      </trkpt>
      <trkpt lat="46.53388" lon="-0.76829">
        <ele>96.4</ele>
        <time>2012-12-29T12:21:49Z</time>
      </trkpt>
      <trkpt lat="46.53393" lon="-0.76831">
        <ele>97.3</ele>
        <time>2012-12-29T12:21:51Z</time>
      </trkpt>
      <trkpt lat="46.53398" lon="-0.76833">
        <ele>97.7</ele>
        <time>2012-12-29T12:21:53Z</time>
      </trkpt>
      <trkpt lat="46.53404" lon="-0.76834">
        <ele>97.9</ele>
        <time>2012-12-29T12:21:55Z</time>
      </trkpt>
      <trkpt lat="46.53414" lon="-0.76835">
        <ele>98.5</ele>
        <time>2012-12-29T12:21:59Z</time>
      </trkpt>
      <trkpt lat="46.53418" lon="-0.76837">
        <ele>99</ele>
        <time>2012-12-29T12:22:01Z</time>
      </trkpt>
      <trkpt lat="46.53426" lon="-0.76839">
        <ele>99.7</ele>
        <time>2012-12-29T12:22:04Z</time>
      </trkpt>
      <trkpt lat="46.53441" lon="-0.7684">
        <ele>99.6</ele>
        <time>2012-12-29T12:22:09Z</time>
      </trkpt>
      <trkpt lat="46.53447" lon="-0.76842">
        <ele>99.7</ele>
        <time>2012-12-29T12:22:11Z</time>
      </trkpt>
      <trkpt lat="46.53454" lon="-0.76844">
        <ele>100</ele>
        <time>2012-12-29T12:22:13Z</time>
      </trkpt>
      <trkpt lat="46.53458" lon="-0.76844">
        <ele>100.1</ele>
        <time>2012-12-29T12:22:14Z</time>
      </trkpt>
      <trkpt lat="46.53466" lon="-0.76846">
        <ele>99.7</ele>
        <time>2012-12-29T12:22:16Z</time>
      </trkpt>
      <trkpt lat="46.53476" lon="-0.76847">
        <ele>99.5</ele>
        <time>2012-12-29T12:22:18Z</time>
      </trkpt>
      <trkpt lat="46.53486" lon="-0.76847">
        <ele>99.5</ele>
        <time>2012-12-29T12:22:20Z</time>
      </trkpt>
      <trkpt lat="46.53507" lon="-0.76843">
        <ele>99.3</ele>
        <time>2012-12-29T12:22:24Z</time>
      </trkpt>
      <trkpt lat="46.53513" lon="-0.76842">
        <ele>99.2</ele>
        <time>2012-12-29T12:22:25Z</time>
      </trkpt>
      <trkpt lat="46.53518" lon="-0.76842">
        <ele>99.1</ele>
        <time>2012-12-29T12:22:26Z</time>
      </trkpt>
      <trkpt lat="46.53522" lon="-0.76842">
        <ele>99.1</ele>
        <time>2012-12-29T12:22:27Z</time>
      </trkpt>
      <trkpt lat="46.53531" lon="-0.76841">
        <ele>98.6</ele>
        <time>2012-12-29T12:22:29Z</time>
      </trkpt>
      <trkpt lat="46.53537" lon="-0.76841">
        <ele>98.4</ele>
        <time>2012-12-29T12:22:30Z</time>
      </trkpt>
      <trkpt lat="46.53542" lon="-0.7684">
        <ele>98.3</ele>
        <time>2012-12-29T12:22:31Z</time>
      </trkpt>
      <trkpt lat="46.53547" lon="-0.7684">
        <ele>98.3</ele>
        <time>2012-12-29T12:22:32Z</time>
      </trkpt>
      <trkpt lat="46.53552" lon="-0.76839">
        <ele>98.2</ele>
        <time>2012-12-29T12:22:33Z</time>
      </trkpt>
      <trkpt lat="46.53562" lon="-0.76838">
        <ele>98.4</ele>
        <time>2012-12-29T12:22:35Z</time>
      </trkpt>
      <trkpt lat="46.53578" lon="-0.76834">
        <ele>97.8</ele>
        <time>2012-12-29T12:22:38Z</time>
      </trkpt>
      <trkpt lat="46.53588" lon="-0.76833">
        <ele>97.5</ele>
        <time>2012-12-29T12:22:40Z</time>
      </trkpt>
      <trkpt lat="46.53593" lon="-0.76831">
        <ele>97.4</ele>
        <time>2012-12-29T12:22:41Z</time>
      </trkpt>
      <trkpt lat="46.53598" lon="-0.76829">
        <ele>97.3</ele>
        <time>2012-12-29T12:22:42Z</time>
      </trkpt>
      <trkpt lat="46.53603" lon="-0.76829">
        <ele>97.2</ele>
        <time>2012-12-29T12:22:43Z</time>
      </trkpt>
      <trkpt lat="46.53608" lon="-0.76828">
        <ele>97.1</ele>
        <time>2012-12-29T12:22:44Z</time>
      </trkpt>
      <trkpt lat="46.53616" lon="-0.76828">
        <ele>97</ele>
        <time>2012-12-29T12:22:46Z</time>
      </trkpt>
      <trkpt lat="46.53625" lon="-0.76827">
        <ele>97.5</ele>
        <time>2012-12-29T12:22:48Z</time>
      </trkpt>
      <trkpt lat="46.53632" lon="-0.76825">
        <ele>97.6</ele>
        <time>2012-12-29T12:22:50Z</time>
      </trkpt>
      <trkpt lat="46.53637" lon="-0.76825">
        <ele>97.5</ele>
        <time>2012-12-29T12:22:52Z</time>
      </trkpt>
      <trkpt lat="46.53641" lon="-0.76826">
        <ele>98</ele>
        <time>2012-12-29T12:22:54Z</time>
      </trkpt>
      <trkpt lat="46.53645" lon="-0.76828">
        <ele>98.3</ele>
        <time>2012-12-29T12:22:56Z</time>
      </trkpt>
      <trkpt lat="46.53651" lon="-0.76837">
        <ele>98.6</ele>
        <time>2012-12-29T12:22:59Z</time>
      </trkpt>
      <trkpt lat="46.53655" lon="-0.76844">
        <ele>98.1</ele>
        <time>2012-12-29T12:23:01Z</time>
      </trkpt>
      <trkpt lat="46.53664" lon="-0.7686">
        <ele>97.6</ele>
        <time>2012-12-29T12:23:05Z</time>
      </trkpt>
      <trkpt lat="46.5367" lon="-0.76868">
        <ele>97.4</ele>
        <time>2012-12-29T12:23:07Z</time>
      </trkpt>
      <trkpt lat="46.53676" lon="-0.76876">
        <ele>97.1</ele>
        <time>2012-12-29T12:23:09Z</time>
      </trkpt>
      <trkpt lat="46.53683" lon="-0.76882">
        <ele>96.8</ele>
        <time>2012-12-29T12:23:11Z</time>
      </trkpt>
      <trkpt lat="46.53688" lon="-0.76886">
        <ele>96.7</ele>
        <time>2012-12-29T12:23:12Z</time>
      </trkpt>
      <trkpt lat="46.53692" lon="-0.7689">
        <ele>96.3</ele>
        <time>2012-12-29T12:23:13Z</time>
      </trkpt>
      <trkpt lat="46.53697" lon="-0.76895">
        <ele>96.1</ele>
        <time>2012-12-29T12:23:14Z</time>
      </trkpt>
      <trkpt lat="46.537" lon="-0.76901">
        <ele>95.9</ele>
        <time>2012-12-29T12:23:15Z</time>
      </trkpt>
      <trkpt lat="46.53703" lon="-0.76908">
        <ele>95.5</ele>
        <time>2012-12-29T12:23:16Z</time>
      </trkpt>
      <trkpt lat="46.53705" lon="-0.76915">
        <ele>95.1</ele>
        <time>2012-12-29T12:23:17Z</time>
      </trkpt>
      <trkpt lat="46.53708" lon="-0.76932">
        <ele>94.4</ele>
        <time>2012-12-29T12:23:19Z</time>
      </trkpt>
      <trkpt lat="46.53708" lon="-0.7694">
        <ele>94.1</ele>
        <time>2012-12-29T12:23:20Z</time>
      </trkpt>
      <trkpt lat="46.53707" lon="-0.76947">
        <ele>93.8</ele>
        <time>2012-12-29T12:23:21Z</time>
      </trkpt>
      <trkpt lat="46.53705" lon="-0.76954">
        <ele>93.7</ele>
        <time>2012-12-29T12:23:22Z</time>
      </trkpt>
      <trkpt lat="46.53703" lon="-0.76962">
        <ele>93.7</ele>
        <time>2012-12-29T12:23:23Z</time>
      </trkpt>
      <trkpt lat="46.53701" lon="-0.76969">
        <ele>93.6</ele>
        <time>2012-12-29T12:23:24Z</time>
      </trkpt>
      <trkpt lat="46.53697" lon="-0.76975">
        <ele>93.1</ele>
        <time>2012-12-29T12:23:25Z</time>
      </trkpt>
      <trkpt lat="46.53684" lon="-0.77">
        <ele>91.4</ele>
        <time>2012-12-29T12:23:29Z</time>
      </trkpt>
      <trkpt lat="46.5368" lon="-0.77006">
        <ele>90.8</ele>
        <time>2012-12-29T12:23:30Z</time>
      </trkpt>
      <trkpt lat="46.53676" lon="-0.77012">
        <ele>90.3</ele>
        <time>2012-12-29T12:23:31Z</time>
      </trkpt>
      <trkpt lat="46.53665" lon="-0.77031">
        <ele>89.9</ele>
        <time>2012-12-29T12:23:34Z</time>
      </trkpt>
      <trkpt lat="46.53661" lon="-0.77037">
        <ele>89.4</ele>
        <time>2012-12-29T12:23:35Z</time>
      </trkpt>
      <trkpt lat="46.53658" lon="-0.77044">
        <ele>89</ele>
        <time>2012-12-29T12:23:36Z</time>
      </trkpt>
      <trkpt lat="46.53649" lon="-0.77066">
        <ele>87.7</ele>
        <time>2012-12-29T12:23:39Z</time>
      </trkpt>
      <trkpt lat="46.53646" lon="-0.77073">
        <ele>87.3</ele>
        <time>2012-12-29T12:23:40Z</time>
      </trkpt>
      <trkpt lat="46.53644" lon="-0.77081">
        <ele>86.8</ele>
        <time>2012-12-29T12:23:41Z</time>
      </trkpt>
      <trkpt lat="46.53641" lon="-0.77095">
        <ele>86.2</ele>
        <time>2012-12-29T12:23:43Z</time>
      </trkpt>
      <trkpt lat="46.5364" lon="-0.77101">
        <ele>86</ele>
        <time>2012-12-29T12:23:44Z</time>
      </trkpt>
      <trkpt lat="46.53638" lon="-0.77114">
        <ele>85.1</ele>
        <time>2012-12-29T12:23:46Z</time>
      </trkpt>
      <trkpt lat="46.53638" lon="-0.77121">
        <ele>84.8</ele>
        <time>2012-12-29T12:23:47Z</time>
      </trkpt>
      <trkpt lat="46.53638" lon="-0.77127">
        <ele>84.8</ele>
        <time>2012-12-29T12:23:48Z</time>
      </trkpt>
      <trkpt lat="46.53637" lon="-0.77143">
        <ele>84.9</ele>
        <time>2012-12-29T12:23:50Z</time>
      </trkpt>
      <trkpt lat="46.53637" lon="-0.7716">
        <ele>84.7</ele>
        <time>2012-12-29T12:23:52Z</time>
      </trkpt>
      <trkpt lat="46.53638" lon="-0.77169">
        <ele>84.6</ele>
        <time>2012-12-29T12:23:53Z</time>
      </trkpt>
      <trkpt lat="46.53639" lon="-0.77185">
        <ele>83.3</ele>
        <time>2012-12-29T12:23:55Z</time>
      </trkpt>
      <trkpt lat="46.53641" lon="-0.77194">
        <ele>83</ele>
        <time>2012-12-29T12:23:56Z</time>
      </trkpt>
      <trkpt lat="46.53644" lon="-0.77211">
        <ele>82.5</ele>
        <time>2012-12-29T12:23:58Z</time>
      </trkpt>
      <trkpt lat="46.53651" lon="-0.77232">
        <ele>81.6</ele>
        <time>2012-12-29T12:24:01Z</time>
      </trkpt>
      <trkpt lat="46.53651" lon="-0.77242">
        <ele>80.8</ele>
        <time>2012-12-29T12:24:03Z</time>
      </trkpt>
      <trkpt lat="46.53645" lon="-0.77261">
        <ele>79.9</ele>
        <time>2012-12-29T12:24:06Z</time>
      </trkpt>
      <trkpt lat="46.53645" lon="-0.77268">
        <ele>78.9</ele>
        <time>2012-12-29T12:24:07Z</time>
      </trkpt>
      <trkpt lat="46.53647" lon="-0.77281">
        <ele>77.7</ele>
        <time>2012-12-29T12:24:09Z</time>
      </trkpt>
      <trkpt lat="46.53647" lon="-0.7729">
        <ele>76.8</ele>
        <time>2012-12-29T12:24:10Z</time>
      </trkpt>
      <trkpt lat="46.53646" lon="-0.773">
        <ele>76.1</ele>
        <time>2012-12-29T12:24:11Z</time>
      </trkpt>
      <trkpt lat="46.53646" lon="-0.77309">
        <ele>75.6</ele>
        <time>2012-12-29T12:24:12Z</time>
      </trkpt>
      <trkpt lat="46.53644" lon="-0.77316">
        <ele>74</ele>
        <time>2012-12-29T12:24:13Z</time>
      </trkpt>
      <trkpt lat="46.53641" lon="-0.77323">
        <ele>72.9</ele>
        <time>2012-12-29T12:24:14Z</time>
      </trkpt>
      <trkpt lat="46.53637" lon="-0.77328">
        <ele>72</ele>
        <time>2012-12-29T12:24:15Z</time>
      </trkpt>
      <trkpt lat="46.53633" lon="-0.77334">
        <ele>70.9</ele>
        <time>2012-12-29T12:24:16Z</time>
      </trkpt>
      <trkpt lat="46.53629" lon="-0.77336">
        <ele>70.1</ele>
        <time>2012-12-29T12:24:17Z</time>
      </trkpt>
      <trkpt lat="46.53621" lon="-0.77337">
        <ele>69.1</ele>
        <time>2012-12-29T12:24:19Z</time>
      </trkpt>
      <trkpt lat="46.53612" lon="-0.77336">
        <ele>68.1</ele>
        <time>2012-12-29T12:24:21Z</time>
      </trkpt>
      <trkpt lat="46.53607" lon="-0.77339">
        <ele>67.8</ele>
        <time>2012-12-29T12:24:22Z</time>
      </trkpt>
      <trkpt lat="46.53602" lon="-0.77343">
        <ele>67.4</ele>
        <time>2012-12-29T12:24:23Z</time>
      </trkpt>
      <trkpt lat="46.53597" lon="-0.77348">
        <ele>67.1</ele>
        <time>2012-12-29T12:24:24Z</time>
      </trkpt>
      <trkpt lat="46.53592" lon="-0.77355">
        <ele>66.8</ele>
        <time>2012-12-29T12:24:25Z</time>
      </trkpt>
      <trkpt lat="46.53589" lon="-0.77362">
        <ele>66.5</ele>
        <time>2012-12-29T12:24:26Z</time>
      </trkpt>
      <trkpt lat="46.53587" lon="-0.77368">
        <ele>66.3</ele>
        <time>2012-12-29T12:24:27Z</time>
      </trkpt>
      <trkpt lat="46.53585" lon="-0.77376">
        <ele>66.1</ele>
        <time>2012-12-29T12:24:28Z</time>
      </trkpt>
      <trkpt lat="46.53584" lon="-0.77382">
        <ele>65.4</ele>
        <time>2012-12-29T12:24:29Z</time>
      </trkpt>
      <trkpt lat="46.53583" lon="-0.77391">
        <ele>64.4</ele>
        <time>2012-12-29T12:24:31Z</time>
      </trkpt>
      <trkpt lat="46.53582" lon="-0.77398">
        <ele>63.6</ele>
        <time>2012-12-29T12:24:33Z</time>
      </trkpt>
      <trkpt lat="46.5358" lon="-0.77406">
        <ele>63.2</ele>
        <time>2012-12-29T12:24:35Z</time>
      </trkpt>
      <trkpt lat="46.53575" lon="-0.77426">
        <ele>62.2</ele>
        <time>2012-12-29T12:24:39Z</time>
      </trkpt>
      <trkpt lat="46.53574" lon="-0.77432">
        <ele>62.2</ele>
        <time>2012-12-29T12:24:40Z</time>
      </trkpt>
      <trkpt lat="46.53569" lon="-0.77442">
        <ele>62.1</ele>
        <time>2012-12-29T12:24:42Z</time>
      </trkpt>
      <trkpt lat="46.53562" lon="-0.77452">
        <ele>62</ele>
        <time>2012-12-29T12:24:44Z</time>
      </trkpt>
      <trkpt lat="46.53557" lon="-0.77457">
        <ele>61.8</ele>
        <time>2012-12-29T12:24:45Z</time>
      </trkpt>
      <trkpt lat="46.53553" lon="-0.77461">
        <ele>61.7</ele>
        <time>2012-12-29T12:24:46Z</time>
      </trkpt>
      <trkpt lat="46.53544" lon="-0.77467">
        <ele>61.5</ele>
        <time>2012-12-29T12:24:48Z</time>
      </trkpt>
      <trkpt lat="46.53539" lon="-0.7747">
        <ele>61.5</ele>
        <time>2012-12-29T12:24:49Z</time>
      </trkpt>
      <trkpt lat="46.5353" lon="-0.77472">
        <ele>60.7</ele>
        <time>2012-12-29T12:24:51Z</time>
      </trkpt>
      <trkpt lat="46.53527" lon="-0.77473">
        <ele>60.1</ele>
        <time>2012-12-29T12:24:52Z</time>
      </trkpt>
      <trkpt lat="46.53519" lon="-0.77473">
        <ele>59.4</ele>
        <time>2012-12-29T12:24:54Z</time>
      </trkpt>
      <trkpt lat="46.53511" lon="-0.77475">
        <ele>58.7</ele>
        <time>2012-12-29T12:24:56Z</time>
      </trkpt>
      <trkpt lat="46.53504" lon="-0.77472">
        <ele>58.4</ele>
        <time>2012-12-29T12:24:58Z</time>
      </trkpt>
      <trkpt lat="46.535" lon="-0.7747">
        <ele>58.3</ele>
        <time>2012-12-29T12:24:59Z</time>
      </trkpt>
      <trkpt lat="46.53491" lon="-0.77465">
        <ele>57.5</ele>
        <time>2012-12-29T12:25:01Z</time>
      </trkpt>
      <trkpt lat="46.53486" lon="-0.77462">
        <ele>56.9</ele>
        <time>2012-12-29T12:25:02Z</time>
      </trkpt>
      <trkpt lat="46.53481" lon="-0.77458">
        <ele>56.4</ele>
        <time>2012-12-29T12:25:03Z</time>
      </trkpt>
      <trkpt lat="46.53467" lon="-0.77445">
        <ele>56.9</ele>
        <time>2012-12-29T12:25:06Z</time>
      </trkpt>
      <trkpt lat="46.53452" lon="-0.77428">
        <ele>55.4</ele>
        <time>2012-12-29T12:25:09Z</time>
      </trkpt>
      <trkpt lat="46.53448" lon="-0.77422">
        <ele>55.1</ele>
        <time>2012-12-29T12:25:10Z</time>
      </trkpt>
      <trkpt lat="46.53435" lon="-0.77403">
        <ele>54.1</ele>
        <time>2012-12-29T12:25:13Z</time>
      </trkpt>
      <trkpt lat="46.53428" lon="-0.77393">
        <ele>53.3</ele>
        <time>2012-12-29T12:25:15Z</time>
      </trkpt>
      <trkpt lat="46.53421" lon="-0.77384">
        <ele>52.9</ele>
        <time>2012-12-29T12:25:17Z</time>
      </trkpt>
      <trkpt lat="46.5341" lon="-0.77368">
        <ele>51.8</ele>
        <time>2012-12-29T12:25:20Z</time>
      </trkpt>
      <trkpt lat="46.53406" lon="-0.77364">
        <ele>51.3</ele>
        <time>2012-12-29T12:25:21Z</time>
      </trkpt>
      <trkpt lat="46.53401" lon="-0.77361">
        <ele>50.9</ele>
        <time>2012-12-29T12:25:22Z</time>
      </trkpt>
      <trkpt lat="46.53395" lon="-0.77359">
        <ele>50.3</ele>
        <time>2012-12-29T12:25:23Z</time>
      </trkpt>
      <trkpt lat="46.5339" lon="-0.77358">
        <ele>49.9</ele>
        <time>2012-12-29T12:25:24Z</time>
      </trkpt>
      <trkpt lat="46.53385" lon="-0.77359">
        <ele>49.5</ele>
        <time>2012-12-29T12:25:25Z</time>
      </trkpt>
      <trkpt lat="46.53379" lon="-0.77361">
        <ele>49.3</ele>
        <time>2012-12-29T12:25:26Z</time>
      </trkpt>
      <trkpt lat="46.53375" lon="-0.77365">
        <ele>49.4</ele>
        <time>2012-12-29T12:25:27Z</time>
      </trkpt>
      <trkpt lat="46.53371" lon="-0.7737">
        <ele>49.4</ele>
        <time>2012-12-29T12:25:28Z</time>
      </trkpt>
      <trkpt lat="46.53367" lon="-0.77374">
        <ele>49.5</ele>
        <time>2012-12-29T12:25:29Z</time>
      </trkpt>
      <trkpt lat="46.5336" lon="-0.77382">
        <ele>49.7</ele>
        <time>2012-12-29T12:25:31Z</time>
      </trkpt>
      <trkpt lat="46.5335" lon="-0.77392">
        <ele>49.5</ele>
        <time>2012-12-29T12:25:34Z</time>
      </trkpt>
      <trkpt lat="46.5334" lon="-0.77399">
        <ele>48.8</ele>
        <time>2012-12-29T12:25:39Z</time>
      </trkpt>
      <trkpt lat="46.53335" lon="-0.77406">
        <ele>48.3</ele>
        <time>2012-12-29T12:26:02Z</time>
      </trkpt>
      <trkpt lat="46.53333" lon="-0.77411">
        <ele>48</ele>
        <time>2012-12-29T12:26:04Z</time>
      </trkpt>
      <trkpt lat="46.53325" lon="-0.77424">
        <ele>49.6</ele>
        <time>2012-12-29T12:26:09Z</time>
      </trkpt>
      <trkpt lat="46.53321" lon="-0.7743">
        <ele>49.7</ele>
        <time>2012-12-29T12:26:11Z</time>
      </trkpt>
      <trkpt lat="46.53313" lon="-0.77443">
        <ele>49</ele>
        <time>2012-12-29T12:26:15Z</time>
      </trkpt>
      <trkpt lat="46.5331" lon="-0.77446">
        <ele>48.8</ele>
        <time>2012-12-29T12:26:16Z</time>
      </trkpt>
      <trkpt lat="46.53306" lon="-0.77453">
        <ele>48.9</ele>
        <time>2012-12-29T12:26:18Z</time>
      </trkpt>
      <trkpt lat="46.53304" lon="-0.77457">
        <ele>49.1</ele>
        <time>2012-12-29T12:26:19Z</time>
      </trkpt>
      <trkpt lat="46.53301" lon="-0.77465">
        <ele>49.6</ele>
        <time>2012-12-29T12:26:21Z</time>
      </trkpt>
      <trkpt lat="46.53299" lon="-0.77469">
        <ele>49.8</ele>
        <time>2012-12-29T12:26:22Z</time>
      </trkpt>
      <trkpt lat="46.53295" lon="-0.77476">
        <ele>50.6</ele>
        <time>2012-12-29T12:26:24Z</time>
      </trkpt>
      <trkpt lat="46.53292" lon="-0.77484">
        <ele>51.4</ele>
        <time>2012-12-29T12:26:26Z</time>
      </trkpt>
      <trkpt lat="46.53287" lon="-0.7749">
        <ele>51.8</ele>
        <time>2012-12-29T12:26:28Z</time>
      </trkpt>
      <trkpt lat="46.53282" lon="-0.77498">
        <ele>52</ele>
        <time>2012-12-29T12:26:30Z</time>
      </trkpt>
      <trkpt lat="46.53276" lon="-0.77511">
        <ele>51.4</ele>
        <time>2012-12-29T12:26:32Z</time>
      </trkpt>
      <trkpt lat="46.53272" lon="-0.77518">
        <ele>51.2</ele>
        <time>2012-12-29T12:26:33Z</time>
      </trkpt>
      <trkpt lat="46.53269" lon="-0.77524">
        <ele>50.7</ele>
        <time>2012-12-29T12:26:34Z</time>
      </trkpt>
      <trkpt lat="46.53265" lon="-0.77527">
        <ele>50.3</ele>
        <time>2012-12-29T12:26:35Z</time>
      </trkpt>
      <trkpt lat="46.53256" lon="-0.77527">
        <ele>49.4</ele>
        <time>2012-12-29T12:26:37Z</time>
      </trkpt>
      <trkpt lat="46.53252" lon="-0.77518">
        <ele>48.7</ele>
        <time>2012-12-29T12:26:39Z</time>
      </trkpt>
      <trkpt lat="46.5325" lon="-0.77507">
        <ele>48.3</ele>
        <time>2012-12-29T12:26:41Z</time>
      </trkpt>
      <trkpt lat="46.53251" lon="-0.77503">
        <ele>48.2</ele>
        <time>2012-12-29T12:26:42Z</time>
      </trkpt>
      <trkpt lat="46.53251" lon="-0.77493">
        <ele>48.2</ele>
        <time>2012-12-29T12:26:44Z</time>
      </trkpt>
      <trkpt lat="46.53254" lon="-0.77476">
        <ele>49.1</ele>
        <time>2012-12-29T12:26:48Z</time>
      </trkpt>
      <trkpt lat="46.53256" lon="-0.77467">
        <ele>49.8</ele>
        <time>2012-12-29T12:26:50Z</time>
      </trkpt>
      <trkpt lat="46.53257" lon="-0.77459">
        <ele>50.5</ele>
        <time>2012-12-29T12:26:52Z</time>
      </trkpt>
      <trkpt lat="46.53258" lon="-0.77452">
        <ele>50.9</ele>
        <time>2012-12-29T12:26:54Z</time>
      </trkpt>
      <trkpt lat="46.53259" lon="-0.77445">
        <ele>51.5</ele>
        <time>2012-12-29T12:26:56Z</time>
      </trkpt>
      <trkpt lat="46.53261" lon="-0.77433">
        <ele>52.6</ele>
        <time>2012-12-29T12:27:00Z</time>
      </trkpt>
      <trkpt lat="46.53259" lon="-0.77424">
        <ele>53.4</ele>
        <time>2012-12-29T12:27:03Z</time>
      </trkpt>
      <trkpt lat="46.53258" lon="-0.77419">
        <ele>53.8</ele>
        <time>2012-12-29T12:27:05Z</time>
      </trkpt>
      <trkpt lat="46.53253" lon="-0.77412">
        <ele>55.2</ele>
        <time>2012-12-29T12:27:08Z</time>
      </trkpt>
      <trkpt lat="46.53248" lon="-0.77403">
        <ele>55.7</ele>
        <time>2012-12-29T12:27:12Z</time>
      </trkpt>
      <trkpt lat="46.53241" lon="-0.7739">
        <ele>56.6</ele>
        <time>2012-12-29T12:27:16Z</time>
      </trkpt>
      <trkpt lat="46.53236" lon="-0.7738">
        <ele>56.3</ele>
        <time>2012-12-29T12:27:18Z</time>
      </trkpt>
      <trkpt lat="46.53233" lon="-0.77375">
        <ele>55.9</ele>
        <time>2012-12-29T12:27:19Z</time>
      </trkpt>
      <trkpt lat="46.53228" lon="-0.7737">
        <ele>55.6</ele>
        <time>2012-12-29T12:27:20Z</time>
      </trkpt>
      <trkpt lat="46.53223" lon="-0.77366">
        <ele>55.3</ele>
        <time>2012-12-29T12:27:21Z</time>
      </trkpt>
      <trkpt lat="46.53218" lon="-0.77362">
        <ele>54.9</ele>
        <time>2012-12-29T12:27:22Z</time>
      </trkpt>
      <trkpt lat="46.5321" lon="-0.77358">
        <ele>54.4</ele>
        <time>2012-12-29T12:27:24Z</time>
      </trkpt>
      <trkpt lat="46.53202" lon="-0.77355">
        <ele>53.6</ele>
        <time>2012-12-29T12:27:26Z</time>
      </trkpt>
      <trkpt lat="46.53199" lon="-0.77354">
        <ele>53.3</ele>
        <time>2012-12-29T12:27:27Z</time>
      </trkpt>
      <trkpt lat="46.53194" lon="-0.77351">
        <ele>52.1</ele>
        <time>2012-12-29T12:27:29Z</time>
      </trkpt>
      <trkpt lat="46.5319" lon="-0.77348">
        <ele>51.4</ele>
        <time>2012-12-29T12:27:31Z</time>
      </trkpt>
      <trkpt lat="46.53185" lon="-0.7734">
        <ele>50.4</ele>
        <time>2012-12-29T12:27:36Z</time>
      </trkpt>
      <trkpt lat="46.53181" lon="-0.77333">
        <ele>50</ele>
        <time>2012-12-29T12:27:38Z</time>
      </trkpt>
      <trkpt lat="46.53177" lon="-0.77328">
        <ele>49.9</ele>
        <time>2012-12-29T12:27:39Z</time>
      </trkpt>
      <trkpt lat="46.53173" lon="-0.77323">
        <ele>49.8</ele>
        <time>2012-12-29T12:27:40Z</time>
      </trkpt>
      <trkpt lat="46.53168" lon="-0.77317">
        <ele>49.1</ele>
        <time>2012-12-29T12:27:41Z</time>
      </trkpt>
      <trkpt lat="46.53162" lon="-0.77313">
        <ele>48.6</ele>
        <time>2012-12-29T12:27:42Z</time>
      </trkpt>
      <trkpt lat="46.53149" lon="-0.77306">
        <ele>47.4</ele>
        <time>2012-12-29T12:27:44Z</time>
      </trkpt>
      <trkpt lat="46.53121" lon="-0.77294">
        <ele>45.5</ele>
        <time>2012-12-29T12:27:48Z</time>
      </trkpt>
      <trkpt lat="46.53101" lon="-0.77286">
        <ele>44.7</ele>
        <time>2012-12-29T12:27:51Z</time>
      </trkpt>
      <trkpt lat="46.53095" lon="-0.77284">
        <ele>44.5</ele>
        <time>2012-12-29T12:27:52Z</time>
      </trkpt>
      <trkpt lat="46.53088" lon="-0.77282">
        <ele>44</ele>
        <time>2012-12-29T12:27:53Z</time>
      </trkpt>
      <trkpt lat="46.53082" lon="-0.77282">
        <ele>43.6</ele>
        <time>2012-12-29T12:27:54Z</time>
      </trkpt>
      <trkpt lat="46.53072" lon="-0.77279">
        <ele>43.1</ele>
        <time>2012-12-29T12:27:56Z</time>
      </trkpt>
      <trkpt lat="46.53067" lon="-0.77279">
        <ele>43.5</ele>
        <time>2012-12-29T12:27:57Z</time>
      </trkpt>
      <trkpt lat="46.53062" lon="-0.77278">
        <ele>43.7</ele>
        <time>2012-12-29T12:27:58Z</time>
      </trkpt>
      <trkpt lat="46.53053" lon="-0.77275">
        <ele>43.9</ele>
        <time>2012-12-29T12:28:00Z</time>
      </trkpt>
      <trkpt lat="46.53047" lon="-0.77274">
        <ele>43.9</ele>
        <time>2012-12-29T12:28:01Z</time>
      </trkpt>
      <trkpt lat="46.53042" lon="-0.77274">
        <ele>43.9</ele>
        <time>2012-12-29T12:28:02Z</time>
      </trkpt>
      <trkpt lat="46.53037" lon="-0.77273">
        <ele>43.6</ele>
        <time>2012-12-29T12:28:03Z</time>
      </trkpt>
      <trkpt lat="46.53028" lon="-0.77271">
        <ele>43.2</ele>
        <time>2012-12-29T12:28:05Z</time>
      </trkpt>
      <trkpt lat="46.53021" lon="-0.7727">
        <ele>43.6</ele>
        <time>2012-12-29T12:28:07Z</time>
      </trkpt>
      <trkpt lat="46.53014" lon="-0.77269">
        <ele>44.3</ele>
        <time>2012-12-29T12:28:10Z</time>
      </trkpt>
      <trkpt lat="46.53006" lon="-0.77267">
        <ele>45.1</ele>
        <time>2012-12-29T12:28:15Z</time>
      </trkpt>
      <trkpt lat="46.52999" lon="-0.77264">
        <ele>46.9</ele>
        <time>2012-12-29T12:28:21Z</time>
      </trkpt>
      <trkpt lat="46.52991" lon="-0.77259">
        <ele>49.6</ele>
        <time>2012-12-29T12:28:28Z</time>
      </trkpt>
      <trkpt lat="46.52983" lon="-0.77253">
        <ele>51.1</ele>
        <time>2012-12-29T12:28:36Z</time>
      </trkpt>
      <trkpt lat="46.52979" lon="-0.77248">
        <ele>53.8</ele>
        <time>2012-12-29T12:28:41Z</time>
      </trkpt>
      <trkpt lat="46.52969" lon="-0.7724">
        <ele>55.5</ele>
        <time>2012-12-29T12:28:49Z</time>
      </trkpt>
      <trkpt lat="46.52966" lon="-0.77236">
        <ele>56.1</ele>
        <time>2012-12-29T12:28:52Z</time>
      </trkpt>
      <trkpt lat="46.52961" lon="-0.77231">
        <ele>57.1</ele>
        <time>2012-12-29T12:28:56Z</time>
      </trkpt>
      <trkpt lat="46.52955" lon="-0.77225">
        <ele>58.4</ele>
        <time>2012-12-29T12:29:01Z</time>
      </trkpt>
      <trkpt lat="46.52948" lon="-0.77217">
        <ele>59</ele>
        <time>2012-12-29T12:29:07Z</time>
      </trkpt>
      <trkpt lat="46.52943" lon="-0.77212">
        <ele>59.4</ele>
        <time>2012-12-29T12:29:11Z</time>
      </trkpt>
      <trkpt lat="46.52935" lon="-0.77207">
        <ele>61</ele>
        <time>2012-12-29T12:29:17Z</time>
      </trkpt>
      <trkpt lat="46.52932" lon="-0.77204">
        <ele>62.1</ele>
        <time>2012-12-29T12:29:20Z</time>
      </trkpt>
      <trkpt lat="46.52927" lon="-0.77198">
        <ele>63.5</ele>
        <time>2012-12-29T12:29:24Z</time>
      </trkpt>
      <trkpt lat="46.52922" lon="-0.7719">
        <ele>65.5</ele>
        <time>2012-12-29T12:29:29Z</time>
      </trkpt>
      <trkpt lat="46.52916" lon="-0.7718">
        <ele>67</ele>
        <time>2012-12-29T12:29:35Z</time>
      </trkpt>
      <trkpt lat="46.52912" lon="-0.77172">
        <ele>68.8</ele>
        <time>2012-12-29T12:29:40Z</time>
      </trkpt>
      <trkpt lat="46.52908" lon="-0.77168">
        <ele>69.2</ele>
        <time>2012-12-29T12:29:44Z</time>
      </trkpt>
      <trkpt lat="46.52898" lon="-0.77155">
        <ele>70.4</ele>
        <time>2012-12-29T12:29:52Z</time>
      </trkpt>
      <trkpt lat="46.52889" lon="-0.77146">
        <ele>71.3</ele>
        <time>2012-12-29T12:29:59Z</time>
      </trkpt>
      <trkpt lat="46.52885" lon="-0.77144">
        <ele>72</ele>
        <time>2012-12-29T12:30:02Z</time>
      </trkpt>
      <trkpt lat="46.52881" lon="-0.77153">
        <ele>72.7</ele>
        <time>2012-12-29T12:30:09Z</time>
      </trkpt>
      <trkpt lat="46.5288" lon="-0.77169">
        <ele>73.8</ele>
        <time>2012-12-29T12:30:16Z</time>
      </trkpt>
      <trkpt lat="46.52881" lon="-0.77179">
        <ele>75.1</ele>
        <time>2012-12-29T12:30:20Z</time>
      </trkpt>
      <trkpt lat="46.52882" lon="-0.77189">
        <ele>75.8</ele>
        <time>2012-12-29T12:30:24Z</time>
      </trkpt>
      <trkpt lat="46.52882" lon="-0.77207">
        <ele>77.6</ele>
        <time>2012-12-29T12:30:32Z</time>
      </trkpt>
      <trkpt lat="46.52883" lon="-0.77217">
        <ele>78.3</ele>
        <time>2012-12-29T12:30:36Z</time>
      </trkpt>
      <trkpt lat="46.52884" lon="-0.77227">
        <ele>78.9</ele>
        <time>2012-12-29T12:30:40Z</time>
      </trkpt>
      <trkpt lat="46.52884" lon="-0.77232">
        <ele>79.3</ele>
        <time>2012-12-29T12:30:42Z</time>
      </trkpt>
      <trkpt lat="46.52885" lon="-0.7724">
        <ele>79.4</ele>
        <time>2012-12-29T12:30:45Z</time>
      </trkpt>
      <trkpt lat="46.52889" lon="-0.77265">
        <ele>80.3</ele>
        <time>2012-12-29T12:30:54Z</time>
      </trkpt>
      <trkpt lat="46.52889" lon="-0.77268">
        <ele>80.6</ele>
        <time>2012-12-29T12:30:55Z</time>
      </trkpt>
      <trkpt lat="46.52891" lon="-0.7728">
        <ele>81.4</ele>
        <time>2012-12-29T12:30:59Z</time>
      </trkpt>
      <trkpt lat="46.52892" lon="-0.77292">
        <ele>82.4</ele>
        <time>2012-12-29T12:31:03Z</time>
      </trkpt>
      <trkpt lat="46.52893" lon="-0.77303">
        <ele>82.9</ele>
        <time>2012-12-29T12:31:07Z</time>
      </trkpt>
      <trkpt lat="46.52894" lon="-0.77314">
        <ele>83.2</ele>
        <time>2012-12-29T12:31:11Z</time>
      </trkpt>
      <trkpt lat="46.52895" lon="-0.7732">
        <ele>83.4</ele>
        <time>2012-12-29T12:31:13Z</time>
      </trkpt>
      <trkpt lat="46.52895" lon="-0.7733">
        <ele>83.6</ele>
        <time>2012-12-29T12:31:17Z</time>
      </trkpt>
      <trkpt lat="46.52895" lon="-0.77342">
        <ele>83.9</ele>
        <time>2012-12-29T12:31:23Z</time>
      </trkpt>
      <trkpt lat="46.52898" lon="-0.77353">
        <ele>84.7</ele>
        <time>2012-12-29T12:31:29Z</time>
      </trkpt>
      <trkpt lat="46.52897" lon="-0.77364">
        <ele>84.8</ele>
        <time>2012-12-29T12:31:33Z</time>
      </trkpt>
      <trkpt lat="46.52896" lon="-0.77375">
        <ele>84.1</ele>
        <time>2012-12-29T12:31:37Z</time>
      </trkpt>
      <trkpt lat="46.52893" lon="-0.77385">
        <ele>84.2</ele>
        <time>2012-12-29T12:31:40Z</time>
      </trkpt>
      <trkpt lat="46.52892" lon="-0.77394">
        <ele>84.2</ele>
        <time>2012-12-29T12:31:42Z</time>
      </trkpt>
      <trkpt lat="46.5289" lon="-0.77403">
        <ele>83.6</ele>
        <time>2012-12-29T12:31:44Z</time>
      </trkpt>
      <trkpt lat="46.52888" lon="-0.77413">
        <ele>83.5</ele>
        <time>2012-12-29T12:31:46Z</time>
      </trkpt>
      <trkpt lat="46.52888" lon="-0.77418">
        <ele>83.6</ele>
        <time>2012-12-29T12:31:47Z</time>
      </trkpt>
      <trkpt lat="46.52888" lon="-0.77427">
        <ele>83.7</ele>
        <time>2012-12-29T12:31:49Z</time>
      </trkpt>
      <trkpt lat="46.52888" lon="-0.77437">
        <ele>83.6</ele>
        <time>2012-12-29T12:31:51Z</time>
      </trkpt>
      <trkpt lat="46.52889" lon="-0.77446">
        <ele>83.3</ele>
        <time>2012-12-29T12:31:53Z</time>
      </trkpt>
      <trkpt lat="46.52889" lon="-0.77452">
        <ele>83.2</ele>
        <time>2012-12-29T12:31:54Z</time>
      </trkpt>
      <trkpt lat="46.5289" lon="-0.77461">
        <ele>82.7</ele>
        <time>2012-12-29T12:31:56Z</time>
      </trkpt>
      <trkpt lat="46.52891" lon="-0.77469">
        <ele>82.3</ele>
        <time>2012-12-29T12:31:58Z</time>
      </trkpt>
      <trkpt lat="46.52892" lon="-0.77473">
        <ele>82.3</ele>
        <time>2012-12-29T12:31:59Z</time>
      </trkpt>
      <trkpt lat="46.52894" lon="-0.7748">
        <ele>82.3</ele>
        <time>2012-12-29T12:32:01Z</time>
      </trkpt>
      <trkpt lat="46.52896" lon="-0.77487">
        <ele>83.3</ele>
        <time>2012-12-29T12:32:03Z</time>
      </trkpt>
      <trkpt lat="46.529" lon="-0.77497">
        <ele>83.9</ele>
        <time>2012-12-29T12:32:06Z</time>
      </trkpt>
      <trkpt lat="46.52903" lon="-0.77504">
        <ele>84</ele>
        <time>2012-12-29T12:32:08Z</time>
      </trkpt>
      <trkpt lat="46.52904" lon="-0.77508">
        <ele>84.3</ele>
        <time>2012-12-29T12:32:09Z</time>
      </trkpt>
      <trkpt lat="46.52906" lon="-0.77515">
        <ele>84.6</ele>
        <time>2012-12-29T12:32:11Z</time>
      </trkpt>
      <trkpt lat="46.52907" lon="-0.77525">
        <ele>85.1</ele>
        <time>2012-12-29T12:32:14Z</time>
      </trkpt>
      <trkpt lat="46.52907" lon="-0.77536">
        <ele>85.7</ele>
        <time>2012-12-29T12:32:18Z</time>
      </trkpt>
      <trkpt lat="46.52906" lon="-0.77546">
        <ele>86.2</ele>
        <time>2012-12-29T12:32:22Z</time>
      </trkpt>
      <trkpt lat="46.52904" lon="-0.77556">
        <ele>87.2</ele>
        <time>2012-12-29T12:32:26Z</time>
      </trkpt>
      <trkpt lat="46.52904" lon="-0.77562">
        <ele>87.7</ele>
        <time>2012-12-29T12:32:28Z</time>
      </trkpt>
      <trkpt lat="46.52905" lon="-0.77583">
        <ele>88.1</ele>
        <time>2012-12-29T12:32:36Z</time>
      </trkpt>
      <trkpt lat="46.52907" lon="-0.77594">
        <ele>89.1</ele>
        <time>2012-12-29T12:32:40Z</time>
      </trkpt>
      <trkpt lat="46.52909" lon="-0.77603">
        <ele>90.2</ele>
        <time>2012-12-29T12:32:44Z</time>
      </trkpt>
      <trkpt lat="46.5291" lon="-0.77608">
        <ele>90.7</ele>
        <time>2012-12-29T12:32:46Z</time>
      </trkpt>
      <trkpt lat="46.52912" lon="-0.77618">
        <ele>91</ele>
        <time>2012-12-29T12:32:50Z</time>
      </trkpt>
      <trkpt lat="46.52915" lon="-0.77627">
        <ele>91.3</ele>
        <time>2012-12-29T12:32:54Z</time>
      </trkpt>
      <trkpt lat="46.52917" lon="-0.77633">
        <ele>91.7</ele>
        <time>2012-12-29T12:32:57Z</time>
      </trkpt>
      <trkpt lat="46.52918" lon="-0.77642">
        <ele>92.6</ele>
        <time>2012-12-29T12:33:01Z</time>
      </trkpt>
      <trkpt lat="46.52919" lon="-0.77647">
        <ele>93.1</ele>
        <time>2012-12-29T12:33:03Z</time>
      </trkpt>
      <trkpt lat="46.52921" lon="-0.77657">
        <ele>93.1</ele>
        <time>2012-12-29T12:33:07Z</time>
      </trkpt>
      <trkpt lat="46.52923" lon="-0.77666">
        <ele>93.6</ele>
        <time>2012-12-29T12:33:11Z</time>
      </trkpt>
      <trkpt lat="46.52926" lon="-0.77675">
        <ele>93.5</ele>
        <time>2012-12-29T12:33:15Z</time>
      </trkpt>
      <trkpt lat="46.52928" lon="-0.77684">
        <ele>94.6</ele>
        <time>2012-12-29T12:33:19Z</time>
      </trkpt>
      <trkpt lat="46.52928" lon="-0.77694">
        <ele>95.4</ele>
        <time>2012-12-29T12:33:23Z</time>
      </trkpt>
      <trkpt lat="46.52924" lon="-0.77697">
        <ele>96.5</ele>
        <time>2012-12-29T12:33:28Z</time>
      </trkpt>
      <trkpt lat="46.5292" lon="-0.77691">
        <ele>96.3</ele>
        <time>2012-12-29T12:33:31Z</time>
      </trkpt>
      <trkpt lat="46.52917" lon="-0.77686">
        <ele>96.5</ele>
        <time>2012-12-29T12:33:33Z</time>
      </trkpt>
      <trkpt lat="46.52913" lon="-0.7768">
        <ele>96.5</ele>
        <time>2012-12-29T12:33:35Z</time>
      </trkpt>
      <trkpt lat="46.52908" lon="-0.77673">
        <ele>96.3</ele>
        <time>2012-12-29T12:33:37Z</time>
      </trkpt>
      <trkpt lat="46.52898" lon="-0.77658">
        <ele>96.1</ele>
        <time>2012-12-29T12:33:41Z</time>
      </trkpt>
      <trkpt lat="46.52893" lon="-0.7765">
        <ele>96.1</ele>
        <time>2012-12-29T12:33:43Z</time>
      </trkpt>
      <trkpt lat="46.52888" lon="-0.77642">
        <ele>96.1</ele>
        <time>2012-12-29T12:33:45Z</time>
      </trkpt>
      <trkpt lat="46.5288" lon="-0.77628">
        <ele>95.7</ele>
        <time>2012-12-29T12:33:48Z</time>
      </trkpt>
      <trkpt lat="46.52874" lon="-0.7762">
        <ele>95.1</ele>
        <time>2012-12-29T12:33:50Z</time>
      </trkpt>
      <trkpt lat="46.52869" lon="-0.77611">
        <ele>95.3</ele>
        <time>2012-12-29T12:33:52Z</time>
      </trkpt>
      <trkpt lat="46.52863" lon="-0.77602">
        <ele>95.7</ele>
        <time>2012-12-29T12:33:54Z</time>
      </trkpt>
      <trkpt lat="46.52858" lon="-0.77594">
        <ele>96.2</ele>
        <time>2012-12-29T12:33:56Z</time>
      </trkpt>
      <trkpt lat="46.52851" lon="-0.77582">
        <ele>96.9</ele>
        <time>2012-12-29T12:33:59Z</time>
      </trkpt>
      <trkpt lat="46.52841" lon="-0.77565">
        <ele>96.3</ele>
        <time>2012-12-29T12:34:03Z</time>
      </trkpt>
      <trkpt lat="46.52833" lon="-0.77551">
        <ele>97.4</ele>
        <time>2012-12-29T12:34:06Z</time>
      </trkpt>
      <trkpt lat="46.52823" lon="-0.77534">
        <ele>96.9</ele>
        <time>2012-12-29T12:34:10Z</time>
      </trkpt>
      <trkpt lat="46.52821" lon="-0.7753">
        <ele>96.7</ele>
        <time>2012-12-29T12:34:11Z</time>
      </trkpt>
      <trkpt lat="46.52817" lon="-0.77523">
        <ele>96.9</ele>
        <time>2012-12-29T12:34:13Z</time>
      </trkpt>
      <trkpt lat="46.52814" lon="-0.77517">
        <ele>97.3</ele>
        <time>2012-12-29T12:34:15Z</time>
      </trkpt>
      <trkpt lat="46.52812" lon="-0.77512">
        <ele>97.7</ele>
        <time>2012-12-29T12:34:17Z</time>
      </trkpt>
      <trkpt lat="46.52806" lon="-0.77503">
        <ele>99.3</ele>
        <time>2012-12-29T12:34:21Z</time>
      </trkpt>
      <trkpt lat="46.52799" lon="-0.77492">
        <ele>99.8</ele>
        <time>2012-12-29T12:34:27Z</time>
      </trkpt>
      <trkpt lat="46.52794" lon="-0.77483">
        <ele>100.8</ele>
        <time>2012-12-29T12:34:31Z</time>
      </trkpt>
      <trkpt lat="46.5279" lon="-0.77474">
        <ele>101.7</ele>
        <time>2012-12-29T12:34:35Z</time>
      </trkpt>
      <trkpt lat="46.52784" lon="-0.77465">
        <ele>102.6</ele>
        <time>2012-12-29T12:34:39Z</time>
      </trkpt>
      <trkpt lat="46.52772" lon="-0.77446">
        <ele>102.7</ele>
        <time>2012-12-29T12:34:47Z</time>
      </trkpt>
      <trkpt lat="46.52769" lon="-0.77441">
        <ele>103.4</ele>
        <time>2012-12-29T12:34:49Z</time>
      </trkpt>
      <trkpt lat="46.52766" lon="-0.77434">
        <ele>103.5</ele>
        <time>2012-12-29T12:34:52Z</time>
      </trkpt>
      <trkpt lat="46.5276" lon="-0.77425">
        <ele>103.2</ele>
        <time>2012-12-29T12:34:56Z</time>
      </trkpt>
      <trkpt lat="46.52757" lon="-0.77421">
        <ele>103.8</ele>
        <time>2012-12-29T12:34:58Z</time>
      </trkpt>
      <trkpt lat="46.52756" lon="-0.7742">
        <ele>103.7</ele>
        <time>2012-12-29T12:35:07Z</time>
      </trkpt>
      <trkpt lat="46.52759" lon="-0.77424">
        <ele>103.9</ele>
        <time>2012-12-29T12:35:09Z</time>
      </trkpt>
      <trkpt lat="46.52762" lon="-0.7743">
        <ele>103.9</ele>
        <time>2012-12-29T12:35:11Z</time>
      </trkpt>
      <trkpt lat="46.52764" lon="-0.77433">
        <ele>103.8</ele>
        <time>2012-12-29T12:35:12Z</time>
      </trkpt>
      <trkpt lat="46.52766" lon="-0.77441">
        <ele>103.6</ele>
        <time>2012-12-29T12:35:14Z</time>
      </trkpt>
      <trkpt lat="46.52763" lon="-0.77449">
        <ele>103.6</ele>
        <time>2012-12-29T12:35:18Z</time>
      </trkpt>
      <trkpt lat="46.52756" lon="-0.77448">
        <ele>104.3</ele>
        <time>2012-12-29T12:35:23Z</time>
      </trkpt>
      <trkpt lat="46.52752" lon="-0.77449">
        <ele>104.6</ele>
        <time>2012-12-29T12:35:25Z</time>
      </trkpt>
      <trkpt lat="46.52747" lon="-0.7745">
        <ele>104.6</ele>
        <time>2012-12-29T12:35:27Z</time>
      </trkpt>
      <trkpt lat="46.52742" lon="-0.77452">
        <ele>104.4</ele>
        <time>2012-12-29T12:35:29Z</time>
      </trkpt>
      <trkpt lat="46.52732" lon="-0.77454">
        <ele>105.5</ele>
        <time>2012-12-29T12:35:33Z</time>
      </trkpt>
      <trkpt lat="46.52726" lon="-0.77456">
        <ele>105.1</ele>
        <time>2012-12-29T12:35:35Z</time>
      </trkpt>
      <trkpt lat="46.52721" lon="-0.77457">
        <ele>105.6</ele>
        <time>2012-12-29T12:35:37Z</time>
      </trkpt>
      <trkpt lat="46.52714" lon="-0.77458">
        <ele>105.9</ele>
        <time>2012-12-29T12:35:39Z</time>
      </trkpt>
      <trkpt lat="46.52707" lon="-0.7746">
        <ele>106</ele>
        <time>2012-12-29T12:35:41Z</time>
      </trkpt>
      <trkpt lat="46.52695" lon="-0.77462">
        <ele>105.7</ele>
        <time>2012-12-29T12:35:44Z</time>
      </trkpt>
      <trkpt lat="46.52688" lon="-0.77465">
        <ele>105.6</ele>
        <time>2012-12-29T12:35:46Z</time>
      </trkpt>
      <trkpt lat="46.5268" lon="-0.77466">
        <ele>105.6</ele>
        <time>2012-12-29T12:35:48Z</time>
      </trkpt>
      <trkpt lat="46.52668" lon="-0.77468">
        <ele>105.2</ele>
        <time>2012-12-29T12:35:51Z</time>
      </trkpt>
      <trkpt lat="46.52656" lon="-0.77471">
        <ele>104.9</ele>
        <time>2012-12-29T12:35:54Z</time>
      </trkpt>
      <trkpt lat="46.52648" lon="-0.77472">
        <ele>104.6</ele>
        <time>2012-12-29T12:35:56Z</time>
      </trkpt>
      <trkpt lat="46.5264" lon="-0.77474">
        <ele>104.5</ele>
        <time>2012-12-29T12:35:58Z</time>
      </trkpt>
      <trkpt lat="46.52633" lon="-0.77475">
        <ele>103.3</ele>
        <time>2012-12-29T12:36:00Z</time>
      </trkpt>
      <trkpt lat="46.52624" lon="-0.77476">
        <ele>102.3</ele>
        <time>2012-12-29T12:36:02Z</time>
      </trkpt>
      <trkpt lat="46.52613" lon="-0.77479">
        <ele>101.7</ele>
        <time>2012-12-29T12:36:05Z</time>
      </trkpt>
      <trkpt lat="46.52609" lon="-0.7748">
        <ele>101.7</ele>
        <time>2012-12-29T12:36:06Z</time>
      </trkpt>
      <trkpt lat="46.52595" lon="-0.77485">
        <ele>101.7</ele>
        <time>2012-12-29T12:36:09Z</time>
      </trkpt>
      <trkpt lat="46.5259" lon="-0.77486">
        <ele>101.6</ele>
        <time>2012-12-29T12:36:10Z</time>
      </trkpt>
      <trkpt lat="46.52575" lon="-0.77489">
        <ele>100.7</ele>
        <time>2012-12-29T12:36:13Z</time>
      </trkpt>
      <trkpt lat="46.5257" lon="-0.77489">
        <ele>100.5</ele>
        <time>2012-12-29T12:36:14Z</time>
      </trkpt>
      <trkpt lat="46.52557" lon="-0.77493">
        <ele>99.9</ele>
        <time>2012-12-29T12:36:17Z</time>
      </trkpt>
      <trkpt lat="46.5255" lon="-0.77494">
        <ele>98.6</ele>
        <time>2012-12-29T12:36:20Z</time>
      </trkpt>
      <trkpt lat="46.52544" lon="-0.77488">
        <ele>97.8</ele>
        <time>2012-12-29T12:36:24Z</time>
      </trkpt>
      <trkpt lat="46.52542" lon="-0.77482">
        <ele>97.9</ele>
        <time>2012-12-29T12:36:26Z</time>
      </trkpt>
      <trkpt lat="46.52539" lon="-0.77476">
        <ele>97.9</ele>
        <time>2012-12-29T12:36:28Z</time>
      </trkpt>
      <trkpt lat="46.52536" lon="-0.77467">
        <ele>97.3</ele>
        <time>2012-12-29T12:36:31Z</time>
      </trkpt>
      <trkpt lat="46.52533" lon="-0.7746">
        <ele>96.5</ele>
        <time>2012-12-29T12:36:33Z</time>
      </trkpt>
      <trkpt lat="46.52528" lon="-0.77443">
        <ele>96.2</ele>
        <time>2012-12-29T12:36:37Z</time>
      </trkpt>
      <trkpt lat="46.52525" lon="-0.77434">
        <ele>95.9</ele>
        <time>2012-12-29T12:36:39Z</time>
      </trkpt>
      <trkpt lat="46.52521" lon="-0.77426">
        <ele>95.8</ele>
        <time>2012-12-29T12:36:41Z</time>
      </trkpt>
      <trkpt lat="46.52519" lon="-0.77416">
        <ele>95.5</ele>
        <time>2012-12-29T12:36:43Z</time>
      </trkpt>
      <trkpt lat="46.52516" lon="-0.77406">
        <ele>95.2</ele>
        <time>2012-12-29T12:36:45Z</time>
      </trkpt>
      <trkpt lat="46.52513" lon="-0.77395">
        <ele>96.2</ele>
        <time>2012-12-29T12:36:47Z</time>
      </trkpt>
      <trkpt lat="46.5251" lon="-0.77384">
        <ele>96.7</ele>
        <time>2012-12-29T12:36:49Z</time>
      </trkpt>
      <trkpt lat="46.52509" lon="-0.77378">
        <ele>96.3</ele>
        <time>2012-12-29T12:36:50Z</time>
      </trkpt>
      <trkpt lat="46.52505" lon="-0.77367">
        <ele>95.7</ele>
        <time>2012-12-29T12:36:52Z</time>
      </trkpt>
      <trkpt lat="46.52503" lon="-0.77355">
        <ele>95.4</ele>
        <time>2012-12-29T12:36:54Z</time>
      </trkpt>
      <trkpt lat="46.52501" lon="-0.77349">
        <ele>95.3</ele>
        <time>2012-12-29T12:36:55Z</time>
      </trkpt>
      <trkpt lat="46.52498" lon="-0.77337">
        <ele>94.9</ele>
        <time>2012-12-29T12:36:57Z</time>
      </trkpt>
      <trkpt lat="46.52497" lon="-0.77331">
        <ele>94.8</ele>
        <time>2012-12-29T12:36:58Z</time>
      </trkpt>
      <trkpt lat="46.52493" lon="-0.7732">
        <ele>94.7</ele>
        <time>2012-12-29T12:37:00Z</time>
      </trkpt>
      <trkpt lat="46.5249" lon="-0.77309">
        <ele>94.7</ele>
        <time>2012-12-29T12:37:02Z</time>
      </trkpt>
      <trkpt lat="46.52488" lon="-0.77298">
        <ele>95.3</ele>
        <time>2012-12-29T12:37:04Z</time>
      </trkpt>
      <trkpt lat="46.52485" lon="-0.77289">
        <ele>95.4</ele>
        <time>2012-12-29T12:37:06Z</time>
      </trkpt>
      <trkpt lat="46.52483" lon="-0.77283">
        <ele>95.3</ele>
        <time>2012-12-29T12:37:08Z</time>
      </trkpt>
      <trkpt lat="46.52479" lon="-0.77275">
        <ele>95.2</ele>
        <time>2012-12-29T12:37:11Z</time>
      </trkpt>
      <trkpt lat="46.52472" lon="-0.7727">
        <ele>93.7</ele>
        <time>2012-12-29T12:37:15Z</time>
      </trkpt>
      <trkpt lat="46.52465" lon="-0.77269">
        <ele>93.8</ele>
        <time>2012-12-29T12:37:19Z</time>
      </trkpt>
      <trkpt lat="46.52452" lon="-0.77271">
        <ele>93.6</ele>
        <time>2012-12-29T12:37:25Z</time>
      </trkpt>
      <trkpt lat="46.52446" lon="-0.77273">
        <ele>93.2</ele>
        <time>2012-12-29T12:37:28Z</time>
      </trkpt>
      <trkpt lat="46.52443" lon="-0.77273">
        <ele>93</ele>
        <time>2012-12-29T12:37:30Z</time>
      </trkpt>
      <trkpt lat="46.52438" lon="-0.77273">
        <ele>93.1</ele>
        <time>2012-12-29T12:37:32Z</time>
      </trkpt>
      <trkpt lat="46.52432" lon="-0.77275">
        <ele>93</ele>
        <time>2012-12-29T12:37:34Z</time>
      </trkpt>
      <trkpt lat="46.52416" lon="-0.77278">
        <ele>92.4</ele>
        <time>2012-12-29T12:37:38Z</time>
      </trkpt>
      <trkpt lat="46.52407" lon="-0.77281">
        <ele>92</ele>
        <time>2012-12-29T12:37:40Z</time>
      </trkpt>
      <trkpt lat="46.52397" lon="-0.77283">
        <ele>92.1</ele>
        <time>2012-12-29T12:37:42Z</time>
      </trkpt>
      <trkpt lat="46.52386" lon="-0.77286">
        <ele>92.1</ele>
        <time>2012-12-29T12:37:44Z</time>
      </trkpt>
      <trkpt lat="46.52375" lon="-0.77288">
        <ele>92</ele>
        <time>2012-12-29T12:37:46Z</time>
      </trkpt>
      <trkpt lat="46.5237" lon="-0.77289">
        <ele>91.5</ele>
        <time>2012-12-29T12:37:47Z</time>
      </trkpt>
      <trkpt lat="46.52365" lon="-0.7729">
        <ele>91.2</ele>
        <time>2012-12-29T12:37:48Z</time>
      </trkpt>
      <trkpt lat="46.5236" lon="-0.77292">
        <ele>90.9</ele>
        <time>2012-12-29T12:37:49Z</time>
      </trkpt>
      <trkpt lat="46.52355" lon="-0.77293">
        <ele>90.6</ele>
        <time>2012-12-29T12:37:50Z</time>
      </trkpt>
      <trkpt lat="46.52349" lon="-0.77294">
        <ele>90.4</ele>
        <time>2012-12-29T12:37:51Z</time>
      </trkpt>
      <trkpt lat="46.52344" lon="-0.77294">
        <ele>90.2</ele>
        <time>2012-12-29T12:37:52Z</time>
      </trkpt>
      <trkpt lat="46.52339" lon="-0.77295">
        <ele>90</ele>
        <time>2012-12-29T12:37:53Z</time>
      </trkpt>
      <trkpt lat="46.52328" lon="-0.77297">
        <ele>90</ele>
        <time>2012-12-29T12:37:55Z</time>
      </trkpt>
      <trkpt lat="46.52317" lon="-0.77301">
        <ele>89.9</ele>
        <time>2012-12-29T12:37:57Z</time>
      </trkpt>
      <trkpt lat="46.52305" lon="-0.77304">
        <ele>89.7</ele>
        <time>2012-12-29T12:37:59Z</time>
      </trkpt>
      <trkpt lat="46.52293" lon="-0.77308">
        <ele>89.4</ele>
        <time>2012-12-29T12:38:01Z</time>
      </trkpt>
      <trkpt lat="46.52287" lon="-0.77309">
        <ele>89.3</ele>
        <time>2012-12-29T12:38:02Z</time>
      </trkpt>
      <trkpt lat="46.52276" lon="-0.77311">
        <ele>88.7</ele>
        <time>2012-12-29T12:38:04Z</time>
      </trkpt>
      <trkpt lat="46.52271" lon="-0.77312">
        <ele>88.5</ele>
        <time>2012-12-29T12:38:05Z</time>
      </trkpt>
      <trkpt lat="46.52256" lon="-0.77316">
        <ele>88</ele>
        <time>2012-12-29T12:38:09Z</time>
      </trkpt>
      <trkpt lat="46.52251" lon="-0.77322">
        <ele>88.1</ele>
        <time>2012-12-29T12:38:12Z</time>
      </trkpt>
      <trkpt lat="46.52249" lon="-0.77331">
        <ele>88</ele>
        <time>2012-12-29T12:38:16Z</time>
      </trkpt>
      <trkpt lat="46.52248" lon="-0.77336">
        <ele>87.6</ele>
        <time>2012-12-29T12:38:18Z</time>
      </trkpt>
      <trkpt lat="46.52248" lon="-0.77345">
        <ele>88</ele>
        <time>2012-12-29T12:38:21Z</time>
      </trkpt>
      <trkpt lat="46.52248" lon="-0.77358">
        <ele>87</ele>
        <time>2012-12-29T12:38:24Z</time>
      </trkpt>
      <trkpt lat="46.52248" lon="-0.77368">
        <ele>86.9</ele>
        <time>2012-12-29T12:38:26Z</time>
      </trkpt>
      <trkpt lat="46.52248" lon="-0.77374">
        <ele>87</ele>
        <time>2012-12-29T12:38:27Z</time>
      </trkpt>
      <trkpt lat="46.52249" lon="-0.77386">
        <ele>87.1</ele>
        <time>2012-12-29T12:38:29Z</time>
      </trkpt>
      <trkpt lat="46.5225" lon="-0.77408">
        <ele>86.8</ele>
        <time>2012-12-29T12:38:32Z</time>
      </trkpt>
      <trkpt lat="46.52251" lon="-0.77425">
        <ele>86.3</ele>
        <time>2012-12-29T12:38:34Z</time>
      </trkpt>
      <trkpt lat="46.52252" lon="-0.77433">
        <ele>86</ele>
        <time>2012-12-29T12:38:35Z</time>
      </trkpt>
      <trkpt lat="46.52253" lon="-0.77448">
        <ele>85.5</ele>
        <time>2012-12-29T12:38:37Z</time>
      </trkpt>
      <trkpt lat="46.52255" lon="-0.77459">
        <ele>85</ele>
        <time>2012-12-29T12:38:39Z</time>
      </trkpt>
      <trkpt lat="46.52255" lon="-0.77466">
        <ele>84.9</ele>
        <time>2012-12-29T12:38:40Z</time>
      </trkpt>
      <trkpt lat="46.52255" lon="-0.77479">
        <ele>85.7</ele>
        <time>2012-12-29T12:38:42Z</time>
      </trkpt>
      <trkpt lat="46.52256" lon="-0.77491">
        <ele>86.2</ele>
        <time>2012-12-29T12:38:44Z</time>
      </trkpt>
      <trkpt lat="46.52257" lon="-0.77496">
        <ele>85.6</ele>
        <time>2012-12-29T12:38:45Z</time>
      </trkpt>
      <trkpt lat="46.52258" lon="-0.77507">
        <ele>85</ele>
        <time>2012-12-29T12:38:47Z</time>
      </trkpt>
      <trkpt lat="46.5226" lon="-0.77528">
        <ele>85.7</ele>
        <time>2012-12-29T12:38:51Z</time>
      </trkpt>
      <trkpt lat="46.5226" lon="-0.77539">
        <ele>86.2</ele>
        <time>2012-12-29T12:38:53Z</time>
      </trkpt>
      <trkpt lat="46.52261" lon="-0.77549">
        <ele>86.8</ele>
        <time>2012-12-29T12:38:55Z</time>
      </trkpt>
      <trkpt lat="46.52258" lon="-0.77555">
        <ele>86.9</ele>
        <time>2012-12-29T12:38:57Z</time>
      </trkpt>
      <trkpt lat="46.52245" lon="-0.77559">
        <ele>86.8</ele>
        <time>2012-12-29T12:39:01Z</time>
      </trkpt>
      <trkpt lat="46.52241" lon="-0.7756">
        <ele>87</ele>
        <time>2012-12-29T12:39:02Z</time>
      </trkpt>
      <trkpt lat="46.52234" lon="-0.77562">
        <ele>86.9</ele>
        <time>2012-12-29T12:39:04Z</time>
      </trkpt>
      <trkpt lat="46.52231" lon="-0.77563">
        <ele>86.7</ele>
        <time>2012-12-29T12:39:05Z</time>
      </trkpt>
      <trkpt lat="46.52221" lon="-0.77567">
        <ele>87</ele>
        <time>2012-12-29T12:39:09Z</time>
      </trkpt>
      <trkpt lat="46.5221" lon="-0.77571">
        <ele>86.2</ele>
        <time>2012-12-29T12:39:13Z</time>
      </trkpt>
      <trkpt lat="46.52204" lon="-0.77573">
        <ele>86.2</ele>
        <time>2012-12-29T12:39:15Z</time>
      </trkpt>
      <trkpt lat="46.52197" lon="-0.77576">
        <ele>85.9</ele>
        <time>2012-12-29T12:39:17Z</time>
      </trkpt>
      <trkpt lat="46.52189" lon="-0.77577">
        <ele>85.5</ele>
        <time>2012-12-29T12:39:19Z</time>
      </trkpt>
      <trkpt lat="46.52183" lon="-0.77578">
        <ele>85.5</ele>
        <time>2012-12-29T12:39:21Z</time>
      </trkpt>
      <trkpt lat="46.52178" lon="-0.77581">
        <ele>85.2</ele>
        <time>2012-12-29T12:39:23Z</time>
      </trkpt>
      <trkpt lat="46.52174" lon="-0.77582">
        <ele>84.8</ele>
        <time>2012-12-29T12:39:25Z</time>
      </trkpt>
      <trkpt lat="46.52168" lon="-0.77582">
        <ele>84.8</ele>
        <time>2012-12-29T12:39:27Z</time>
      </trkpt>
      <trkpt lat="46.52163" lon="-0.77581">
        <ele>84.6</ele>
        <time>2012-12-29T12:39:29Z</time>
      </trkpt>
      <trkpt lat="46.52157" lon="-0.77588">
        <ele>83.7</ele>
        <time>2012-12-29T12:39:35Z</time>
      </trkpt>
      <trkpt lat="46.52159" lon="-0.776">
        <ele>84</ele>
        <time>2012-12-29T12:39:42Z</time>
      </trkpt>
      <trkpt lat="46.52159" lon="-0.7761">
        <ele>84.2</ele>
        <time>2012-12-29T12:39:46Z</time>
      </trkpt>
      <trkpt lat="46.52158" lon="-0.77615">
        <ele>84.1</ele>
        <time>2012-12-29T12:39:48Z</time>
      </trkpt>
      <trkpt lat="46.52153" lon="-0.77622">
        <ele>83.8</ele>
        <time>2012-12-29T12:39:52Z</time>
      </trkpt>
      <trkpt lat="46.52147" lon="-0.77625">
        <ele>84</ele>
        <time>2012-12-29T12:39:55Z</time>
      </trkpt>
      <trkpt lat="46.52141" lon="-0.77627">
        <ele>84.3</ele>
        <time>2012-12-29T12:39:58Z</time>
      </trkpt>
      <trkpt lat="46.52134" lon="-0.7763">
        <ele>83.4</ele>
        <time>2012-12-29T12:40:05Z</time>
      </trkpt>
      <trkpt lat="46.52131" lon="-0.77634">
        <ele>83.4</ele>
        <time>2012-12-29T12:40:15Z</time>
      </trkpt>
      <trkpt lat="46.52123" lon="-0.77638">
        <ele>83.8</ele>
        <time>2012-12-29T12:40:20Z</time>
      </trkpt>
      <trkpt lat="46.52116" lon="-0.77641">
        <ele>84.2</ele>
        <time>2012-12-29T12:40:22Z</time>
      </trkpt>
      <trkpt lat="46.52112" lon="-0.77643">
        <ele>84.3</ele>
        <time>2012-12-29T12:40:23Z</time>
      </trkpt>
      <trkpt lat="46.52102" lon="-0.77644">
        <ele>83.8</ele>
        <time>2012-12-29T12:40:25Z</time>
      </trkpt>
      <trkpt lat="46.52097" lon="-0.77646">
        <ele>83.7</ele>
        <time>2012-12-29T12:40:26Z</time>
      </trkpt>
      <trkpt lat="46.52081" lon="-0.77652">
        <ele>83.1</ele>
        <time>2012-12-29T12:40:29Z</time>
      </trkpt>
      <trkpt lat="46.52076" lon="-0.77653">
        <ele>83</ele>
        <time>2012-12-29T12:40:30Z</time>
      </trkpt>
      <trkpt lat="46.52064" lon="-0.77655">
        <ele>82.9</ele>
        <time>2012-12-29T12:40:32Z</time>
      </trkpt>
      <trkpt lat="46.52047" lon="-0.77662">
        <ele>81.2</ele>
        <time>2012-12-29T12:40:35Z</time>
      </trkpt>
      <trkpt lat="46.52041" lon="-0.77663">
        <ele>80.6</ele>
        <time>2012-12-29T12:40:36Z</time>
      </trkpt>
      <trkpt lat="46.52028" lon="-0.77665">
        <ele>79.8</ele>
        <time>2012-12-29T12:40:38Z</time>
      </trkpt>
      <trkpt lat="46.52021" lon="-0.77666">
        <ele>79.6</ele>
        <time>2012-12-29T12:40:39Z</time>
      </trkpt>
      <trkpt lat="46.52008" lon="-0.77671">
        <ele>78.6</ele>
        <time>2012-12-29T12:40:41Z</time>
      </trkpt>
      <trkpt lat="46.52" lon="-0.77672">
        <ele>78.3</ele>
        <time>2012-12-29T12:40:42Z</time>
      </trkpt>
      <trkpt lat="46.51984" lon="-0.77676">
        <ele>77.6</ele>
        <time>2012-12-29T12:40:44Z</time>
      </trkpt>
      <trkpt lat="46.51976" lon="-0.77679">
        <ele>77.3</ele>
        <time>2012-12-29T12:40:45Z</time>
      </trkpt>
      <trkpt lat="46.51967" lon="-0.77681">
        <ele>76.2</ele>
        <time>2012-12-29T12:40:46Z</time>
      </trkpt>
      <trkpt lat="46.51958" lon="-0.77683">
        <ele>75.3</ele>
        <time>2012-12-29T12:40:47Z</time>
      </trkpt>
      <trkpt lat="46.51929" lon="-0.7769">
        <ele>71.4</ele>
        <time>2012-12-29T12:40:51Z</time>
      </trkpt>
      <trkpt lat="46.51925" lon="-0.77691">
        <ele>66.9</ele>
        <time>2012-12-29T12:40:56Z</time>
      </trkpt>
      <trkpt lat="46.51919" lon="-0.77694">
        <ele>65.5</ele>
        <time>2012-12-29T12:41:04Z</time>
      </trkpt>
      <trkpt lat="46.51915" lon="-0.77698">
        <ele>65.7</ele>
        <time>2012-12-29T12:41:06Z</time>
      </trkpt>
      <trkpt lat="46.51914" lon="-0.77702">
        <ele>65.8</ele>
        <time>2012-12-29T12:41:07Z</time>
      </trkpt>
      <trkpt lat="46.51909" lon="-0.7771">
        <ele>65.6</ele>
        <time>2012-12-29T12:41:09Z</time>
      </trkpt>
      <trkpt lat="46.51905" lon="-0.7772">
        <ele>65.4</ele>
        <time>2012-12-29T12:41:11Z</time>
      </trkpt>
      <trkpt lat="46.51904" lon="-0.77732">
        <ele>65.2</ele>
        <time>2012-12-29T12:41:13Z</time>
      </trkpt>
      <trkpt lat="46.51905" lon="-0.77745">
        <ele>65</ele>
        <time>2012-12-29T12:41:15Z</time>
      </trkpt>
      <trkpt lat="46.51904" lon="-0.77751">
        <ele>64.9</ele>
        <time>2012-12-29T12:41:16Z</time>
      </trkpt>
      <trkpt lat="46.51903" lon="-0.77758">
        <ele>64.8</ele>
        <time>2012-12-29T12:41:17Z</time>
      </trkpt>
      <trkpt lat="46.51903" lon="-0.77765">
        <ele>64.1</ele>
        <time>2012-12-29T12:41:18Z</time>
      </trkpt>
      <trkpt lat="46.51904" lon="-0.77772">
        <ele>63.6</ele>
        <time>2012-12-29T12:41:19Z</time>
      </trkpt>
      <trkpt lat="46.51903" lon="-0.77781">
        <ele>60.7</ele>
        <time>2012-12-29T12:41:23Z</time>
      </trkpt>
      <trkpt lat="46.51902" lon="-0.77786">
        <ele>59.9</ele>
        <time>2012-12-29T12:41:25Z</time>
      </trkpt>
      <trkpt lat="46.51899" lon="-0.77795">
        <ele>57.9</ele>
        <time>2012-12-29T12:41:29Z</time>
      </trkpt>
      <trkpt lat="46.51897" lon="-0.77799">
        <ele>57.2</ele>
        <time>2012-12-29T12:41:31Z</time>
      </trkpt>
      <trkpt lat="46.51896" lon="-0.77807">
        <ele>54.1</ele>
        <time>2012-12-29T12:41:35Z</time>
      </trkpt>
      <trkpt lat="46.51894" lon="-0.77823">
        <ele>50.3</ele>
        <time>2012-12-29T12:41:39Z</time>
      </trkpt>
      <trkpt lat="46.51892" lon="-0.7783">
        <ele>48.4</ele>
        <time>2012-12-29T12:41:41Z</time>
      </trkpt>
      <trkpt lat="46.51893" lon="-0.77836">
        <ele>46.9</ele>
        <time>2012-12-29T12:41:43Z</time>
      </trkpt>
      <trkpt lat="46.51892" lon="-0.77843">
        <ele>42.9</ele>
        <time>2012-12-29T12:42:04Z</time>
      </trkpt>
      <trkpt lat="46.51892" lon="-0.77851">
        <ele>41.2</ele>
        <time>2012-12-29T12:42:16Z</time>
      </trkpt>
      <trkpt lat="46.519" lon="-0.77867">
        <ele>41.9</ele>
        <time>2012-12-29T12:42:25Z</time>
      </trkpt>
      <trkpt lat="46.51905" lon="-0.77876">
        <ele>42.1</ele>
        <time>2012-12-29T12:42:29Z</time>
      </trkpt>
      <trkpt lat="46.51909" lon="-0.77886">
        <ele>43.8</ele>
        <time>2012-12-29T12:42:37Z</time>
      </trkpt>
      <trkpt lat="46.51909" lon="-0.77892">
        <ele>44.2</ele>
        <time>2012-12-29T12:43:06Z</time>
      </trkpt>
      <trkpt lat="46.5191" lon="-0.779">
        <ele>44.4</ele>
        <time>2012-12-29T12:43:08Z</time>
      </trkpt>
      <trkpt lat="46.51911" lon="-0.77914">
        <ele>44</ele>
        <time>2012-12-29T12:43:10Z</time>
      </trkpt>
      <trkpt lat="46.51912" lon="-0.77921">
        <ele>43.6</ele>
        <time>2012-12-29T12:43:11Z</time>
      </trkpt>
      <trkpt lat="46.51915" lon="-0.77933">
        <ele>42.9</ele>
        <time>2012-12-29T12:43:13Z</time>
      </trkpt>
      <trkpt lat="46.51918" lon="-0.77944">
        <ele>42.5</ele>
        <time>2012-12-29T12:43:15Z</time>
      </trkpt>
      <trkpt lat="46.5192" lon="-0.77954">
        <ele>42.6</ele>
        <time>2012-12-29T12:43:17Z</time>
      </trkpt>
      <trkpt lat="46.51925" lon="-0.77976">
        <ele>42.2</ele>
        <time>2012-12-29T12:43:21Z</time>
      </trkpt>
      <trkpt lat="46.51927" lon="-0.77987">
        <ele>42.3</ele>
        <time>2012-12-29T12:43:23Z</time>
      </trkpt>
      <trkpt lat="46.51931" lon="-0.77997">
        <ele>42.6</ele>
        <time>2012-12-29T12:43:25Z</time>
      </trkpt>
      <trkpt lat="46.51933" lon="-0.78002">
        <ele>42.8</ele>
        <time>2012-12-29T12:43:26Z</time>
      </trkpt>
      <trkpt lat="46.51946" lon="-0.78017">
        <ele>43.3</ele>
        <time>2012-12-29T12:43:30Z</time>
      </trkpt>
      <trkpt lat="46.51953" lon="-0.78026">
        <ele>43.4</ele>
        <time>2012-12-29T12:43:32Z</time>
      </trkpt>
      <trkpt lat="46.51959" lon="-0.78032">
        <ele>43.5</ele>
        <time>2012-12-29T12:43:34Z</time>
      </trkpt>
      <trkpt lat="46.51965" lon="-0.78038">
        <ele>43.4</ele>
        <time>2012-12-29T12:43:36Z</time>
      </trkpt>
      <trkpt lat="46.51968" lon="-0.78043">
        <ele>43</ele>
        <time>2012-12-29T12:43:39Z</time>
      </trkpt>
      <trkpt lat="46.51972" lon="-0.7805">
        <ele>42.5</ele>
        <time>2012-12-29T12:43:44Z</time>
      </trkpt>
      <trkpt lat="46.51973" lon="-0.78056">
        <ele>42.1</ele>
        <time>2012-12-29T12:43:47Z</time>
      </trkpt>
      <trkpt lat="46.51967" lon="-0.7806">
        <ele>44.3</ele>
        <time>2012-12-29T12:43:50Z</time>
      </trkpt>
      <trkpt lat="46.51962" lon="-0.78062">
        <ele>44.2</ele>
        <time>2012-12-29T12:43:52Z</time>
      </trkpt>
      <trkpt lat="46.51958" lon="-0.78064">
        <ele>44</ele>
        <time>2012-12-29T12:43:54Z</time>
      </trkpt>
      <trkpt lat="46.51953" lon="-0.78067">
        <ele>43.7</ele>
        <time>2012-12-29T12:43:56Z</time>
      </trkpt>
      <trkpt lat="46.51949" lon="-0.78067">
        <ele>43.4</ele>
        <time>2012-12-29T12:43:58Z</time>
      </trkpt>
      <trkpt lat="46.51944" lon="-0.78067">
        <ele>43.2</ele>
        <time>2012-12-29T12:44:00Z</time>
      </trkpt>
      <trkpt lat="46.51939" lon="-0.78068">
        <ele>43.2</ele>
        <time>2012-12-29T12:44:02Z</time>
      </trkpt>
      <trkpt lat="46.51936" lon="-0.78068">
        <ele>43.2</ele>
        <time>2012-12-29T12:44:03Z</time>
      </trkpt>
      <trkpt lat="46.51929" lon="-0.78066">
        <ele>43.2</ele>
        <time>2012-12-29T12:44:05Z</time>
      </trkpt>
      <trkpt lat="46.51926" lon="-0.78066">
        <ele>43.2</ele>
        <time>2012-12-29T12:44:06Z</time>
      </trkpt>
      <trkpt lat="46.5192" lon="-0.78067">
        <ele>43.4</ele>
        <time>2012-12-29T12:44:09Z</time>
      </trkpt>
      <trkpt lat="46.51914" lon="-0.78064">
        <ele>44.6</ele>
        <time>2012-12-29T12:45:01Z</time>
      </trkpt>
      <trkpt lat="46.51911" lon="-0.78059">
        <ele>43.8</ele>
        <time>2012-12-29T12:45:38Z</time>
      </trkpt>
      <trkpt lat="46.51905" lon="-0.78058">
        <ele>44.5</ele>
        <time>2012-12-29T12:45:51Z</time>
      </trkpt>
      <trkpt lat="46.51898" lon="-0.78055">
        <ele>44.3</ele>
        <time>2012-12-29T12:45:53Z</time>
      </trkpt>
      <trkpt lat="46.51891" lon="-0.78056">
        <ele>44.3</ele>
        <time>2012-12-29T12:45:55Z</time>
      </trkpt>
      <trkpt lat="46.51888" lon="-0.7806">
        <ele>44.4</ele>
        <time>2012-12-29T12:45:57Z</time>
      </trkpt>
      <trkpt lat="46.51887" lon="-0.78067">
        <ele>44.8</ele>
        <time>2012-12-29T12:45:59Z</time>
      </trkpt>
      <trkpt lat="46.51887" lon="-0.78077">
        <ele>45.3</ele>
        <time>2012-12-29T12:46:01Z</time>
      </trkpt>
      <trkpt lat="46.51886" lon="-0.78094">
        <ele>45.4</ele>
        <time>2012-12-29T12:46:04Z</time>
      </trkpt>
      <trkpt lat="46.51884" lon="-0.78109">
        <ele>44.9</ele>
        <time>2012-12-29T12:46:07Z</time>
      </trkpt>
      <trkpt lat="46.51882" lon="-0.7812">
        <ele>44.3</ele>
        <time>2012-12-29T12:46:14Z</time>
      </trkpt>
      <trkpt lat="46.51882" lon="-0.78131">
        <ele>43.3</ele>
        <time>2012-12-29T12:46:25Z</time>
      </trkpt>
      <trkpt lat="46.51879" lon="-0.7814">
        <ele>42.7</ele>
        <time>2012-12-29T12:46:29Z</time>
      </trkpt>
      <trkpt lat="46.51872" lon="-0.78149">
        <ele>43</ele>
        <time>2012-12-29T12:46:34Z</time>
      </trkpt>
      <trkpt lat="46.5187" lon="-0.78154">
        <ele>44.7</ele>
        <time>2012-12-29T12:46:57Z</time>
      </trkpt>
      <trkpt lat="46.51866" lon="-0.78161">
        <ele>44.9</ele>
        <time>2012-12-29T12:47:07Z</time>
      </trkpt>
      <trkpt lat="46.51862" lon="-0.78167">
        <ele>45.2</ele>
        <time>2012-12-29T12:47:10Z</time>
      </trkpt>
      <trkpt lat="46.51855" lon="-0.78174">
        <ele>45.3</ele>
        <time>2012-12-29T12:47:13Z</time>
      </trkpt>
      <trkpt lat="46.5185" lon="-0.78177">
        <ele>45.4</ele>
        <time>2012-12-29T12:47:15Z</time>
      </trkpt>
      <trkpt lat="46.51847" lon="-0.78181">
        <ele>45.5</ele>
        <time>2012-12-29T12:47:17Z</time>
      </trkpt>
      <trkpt lat="46.51843" lon="-0.78188">
        <ele>45.2</ele>
        <time>2012-12-29T12:47:19Z</time>
      </trkpt>
      <trkpt lat="46.5184" lon="-0.78195">
        <ele>44.7</ele>
        <time>2012-12-29T12:47:21Z</time>
      </trkpt>
      <trkpt lat="46.51838" lon="-0.78205">
        <ele>44</ele>
        <time>2012-12-29T12:47:25Z</time>
      </trkpt>
      <trkpt lat="46.5184" lon="-0.78228">
        <ele>42.8</ele>
        <time>2012-12-29T12:47:37Z</time>
      </trkpt>
      <trkpt lat="46.51842" lon="-0.78236">
        <ele>43.3</ele>
        <time>2012-12-29T12:47:39Z</time>
      </trkpt>
      <trkpt lat="46.51842" lon="-0.78241">
        <ele>43.5</ele>
        <time>2012-12-29T12:47:40Z</time>
      </trkpt>
      <trkpt lat="46.51844" lon="-0.78249">
        <ele>43.4</ele>
        <time>2012-12-29T12:47:42Z</time>
      </trkpt>
      <trkpt lat="46.51848" lon="-0.78259">
        <ele>43.2</ele>
        <time>2012-12-29T12:47:45Z</time>
      </trkpt>
      <trkpt lat="46.51852" lon="-0.78267">
        <ele>42.6</ele>
        <time>2012-12-29T12:47:49Z</time>
      </trkpt>
      <trkpt lat="46.51852" lon="-0.78274">
        <ele>44.3</ele>
        <time>2012-12-29T12:47:58Z</time>
      </trkpt>
      <trkpt lat="46.51854" lon="-0.78285">
        <ele>45.8</ele>
        <time>2012-12-29T12:48:19Z</time>
      </trkpt>
      <trkpt lat="46.51853" lon="-0.78291">
        <ele>46.3</ele>
        <time>2012-12-29T12:48:24Z</time>
      </trkpt>
      <trkpt lat="46.51856" lon="-0.78298">
        <ele>45</ele>
        <time>2012-12-29T12:49:25Z</time>
      </trkpt>
      <trkpt lat="46.51862" lon="-0.78308">
        <ele>45.2</ele>
        <time>2012-12-29T12:49:28Z</time>
      </trkpt>
      <trkpt lat="46.51867" lon="-0.78316">
        <ele>43.9</ele>
        <time>2012-12-29T12:49:31Z</time>
      </trkpt>
      <trkpt lat="46.51869" lon="-0.78318">
        <ele>43.7</ele>
        <time>2012-12-29T12:49:32Z</time>
      </trkpt>
      <trkpt lat="46.51873" lon="-0.78322">
        <ele>43.4</ele>
        <time>2012-12-29T12:49:34Z</time>
      </trkpt>
      <trkpt lat="46.51877" lon="-0.78326">
        <ele>43.1</ele>
        <time>2012-12-29T12:49:36Z</time>
      </trkpt>
      <trkpt lat="46.5188" lon="-0.7833">
        <ele>42.9</ele>
        <time>2012-12-29T12:49:38Z</time>
      </trkpt>
      <trkpt lat="46.51883" lon="-0.78337">
        <ele>43.1</ele>
        <time>2012-12-29T12:49:41Z</time>
      </trkpt>
      <trkpt lat="46.51878" lon="-0.78345">
        <ele>41.8</ele>
        <time>2012-12-29T12:49:45Z</time>
      </trkpt>
      <trkpt lat="46.5187" lon="-0.78345">
        <ele>41.6</ele>
        <time>2012-12-29T12:49:49Z</time>
      </trkpt>
      <trkpt lat="46.51863" lon="-0.78345">
        <ele>42.4</ele>
        <time>2012-12-29T12:49:53Z</time>
      </trkpt>
      <trkpt lat="46.51854" lon="-0.78344">
        <ele>43.1</ele>
        <time>2012-12-29T12:49:57Z</time>
      </trkpt>
      <trkpt lat="46.5185" lon="-0.78342">
        <ele>42.5</ele>
        <time>2012-12-29T12:49:59Z</time>
      </trkpt>
      <trkpt lat="46.51845" lon="-0.78341">
        <ele>42.3</ele>
        <time>2012-12-29T12:50:01Z</time>
      </trkpt>
      <trkpt lat="46.5184" lon="-0.78339">
        <ele>42.3</ele>
        <time>2012-12-29T12:50:03Z</time>
      </trkpt>
      <trkpt lat="46.51833" lon="-0.78333">
        <ele>43.1</ele>
        <time>2012-12-29T12:50:06Z</time>
      </trkpt>
      <trkpt lat="46.51823" lon="-0.78322">
        <ele>42.9</ele>
        <time>2012-12-29T12:50:10Z</time>
      </trkpt>
      <trkpt lat="46.51818" lon="-0.78317">
        <ele>43.4</ele>
        <time>2012-12-29T12:50:12Z</time>
      </trkpt>
      <trkpt lat="46.51812" lon="-0.7831">
        <ele>43.9</ele>
        <time>2012-12-29T12:50:14Z</time>
      </trkpt>
      <trkpt lat="46.51809" lon="-0.78307">
        <ele>44.1</ele>
        <time>2012-12-29T12:50:15Z</time>
      </trkpt>
      <trkpt lat="46.51805" lon="-0.78301">
        <ele>44</ele>
        <time>2012-12-29T12:50:17Z</time>
      </trkpt>
      <trkpt lat="46.51802" lon="-0.78295">
        <ele>43.6</ele>
        <time>2012-12-29T12:50:19Z</time>
      </trkpt>
      <trkpt lat="46.51797" lon="-0.78285">
        <ele>43.8</ele>
        <time>2012-12-29T12:50:22Z</time>
      </trkpt>
      <trkpt lat="46.51793" lon="-0.7828">
        <ele>44.1</ele>
        <time>2012-12-29T12:50:24Z</time>
      </trkpt>
      <trkpt lat="46.51788" lon="-0.78275">
        <ele>44.8</ele>
        <time>2012-12-29T12:50:27Z</time>
      </trkpt>
      <trkpt lat="46.51782" lon="-0.78274">
        <ele>45.6</ele>
        <time>2012-12-29T12:50:31Z</time>
      </trkpt>
      <trkpt lat="46.51774" lon="-0.7827">
        <ele>47.1</ele>
        <time>2012-12-29T12:50:54Z</time>
      </trkpt>
      <trkpt lat="46.51767" lon="-0.78266">
        <ele>47</ele>
        <time>2012-12-29T12:52:15Z</time>
      </trkpt>
      <trkpt lat="46.51759" lon="-0.78265">
        <ele>45.9</ele>
        <time>2012-12-29T12:52:20Z</time>
      </trkpt>
      <trkpt lat="46.51756" lon="-0.7827">
        <ele>45</ele>
        <time>2012-12-29T12:52:22Z</time>
      </trkpt>
      <trkpt lat="46.51751" lon="-0.78279">
        <ele>44</ele>
        <time>2012-12-29T12:52:25Z</time>
      </trkpt>
      <trkpt lat="46.51748" lon="-0.78286">
        <ele>43.6</ele>
        <time>2012-12-29T12:52:27Z</time>
      </trkpt>
      <trkpt lat="46.51746" lon="-0.78294">
        <ele>43.2</ele>
        <time>2012-12-29T12:52:29Z</time>
      </trkpt>
      <trkpt lat="46.51746" lon="-0.78305">
        <ele>42.8</ele>
        <time>2012-12-29T12:52:33Z</time>
      </trkpt>
      <trkpt lat="46.51742" lon="-0.7831">
        <ele>42.6</ele>
        <time>2012-12-29T12:52:35Z</time>
      </trkpt>
      <trkpt lat="46.5174" lon="-0.78312">
        <ele>42.4</ele>
        <time>2012-12-29T12:52:36Z</time>
      </trkpt>
      <trkpt lat="46.51735" lon="-0.78314">
        <ele>42.4</ele>
        <time>2012-12-29T12:52:38Z</time>
      </trkpt>
      <trkpt lat="46.51728" lon="-0.78314">
        <ele>42.4</ele>
        <time>2012-12-29T12:52:40Z</time>
      </trkpt>
      <trkpt lat="46.51721" lon="-0.78317">
        <ele>42.7</ele>
        <time>2012-12-29T12:52:42Z</time>
      </trkpt>
      <trkpt lat="46.51705" lon="-0.78327">
        <ele>43.4</ele>
        <time>2012-12-29T12:52:46Z</time>
      </trkpt>
      <trkpt lat="46.51694" lon="-0.78334">
        <ele>43.1</ele>
        <time>2012-12-29T12:52:49Z</time>
      </trkpt>
      <trkpt lat="46.51687" lon="-0.78342">
        <ele>43.3</ele>
        <time>2012-12-29T12:52:51Z</time>
      </trkpt>
      <trkpt lat="46.5168" lon="-0.78348">
        <ele>43.7</ele>
        <time>2012-12-29T12:52:53Z</time>
      </trkpt>
      <trkpt lat="46.51676" lon="-0.7835">
        <ele>43.5</ele>
        <time>2012-12-29T12:52:54Z</time>
      </trkpt>
      <trkpt lat="46.51668" lon="-0.78355">
        <ele>43.4</ele>
        <time>2012-12-29T12:52:56Z</time>
      </trkpt>
      <trkpt lat="46.51661" lon="-0.78358">
        <ele>43.7</ele>
        <time>2012-12-29T12:52:58Z</time>
      </trkpt>
      <trkpt lat="46.51653" lon="-0.78361">
        <ele>44</ele>
        <time>2012-12-29T12:53:00Z</time>
      </trkpt>
      <trkpt lat="46.51646" lon="-0.78366">
        <ele>44.1</ele>
        <time>2012-12-29T12:53:02Z</time>
      </trkpt>
      <trkpt lat="46.51638" lon="-0.7837">
        <ele>44.3</ele>
        <time>2012-12-29T12:53:04Z</time>
      </trkpt>
      <trkpt lat="46.51627" lon="-0.78378">
        <ele>44.2</ele>
        <time>2012-12-29T12:53:07Z</time>
      </trkpt>
      <trkpt lat="46.5162" lon="-0.78384">
        <ele>43.8</ele>
        <time>2012-12-29T12:53:09Z</time>
      </trkpt>
      <trkpt lat="46.51613" lon="-0.78391">
        <ele>44</ele>
        <time>2012-12-29T12:53:11Z</time>
      </trkpt>
      <trkpt lat="46.51607" lon="-0.78398">
        <ele>43.9</ele>
        <time>2012-12-29T12:53:13Z</time>
      </trkpt>
      <trkpt lat="46.516" lon="-0.78403">
        <ele>43.7</ele>
        <time>2012-12-29T12:53:15Z</time>
      </trkpt>
      <trkpt lat="46.51592" lon="-0.78405">
        <ele>43.7</ele>
        <time>2012-12-29T12:53:17Z</time>
      </trkpt>
      <trkpt lat="46.51584" lon="-0.78404">
        <ele>43.7</ele>
        <time>2012-12-29T12:53:19Z</time>
      </trkpt>
      <trkpt lat="46.51579" lon="-0.78403">
        <ele>43.6</ele>
        <time>2012-12-29T12:53:20Z</time>
      </trkpt>
      <trkpt lat="46.51571" lon="-0.78401">
        <ele>43.7</ele>
        <time>2012-12-29T12:53:22Z</time>
      </trkpt>
      <trkpt lat="46.51563" lon="-0.784">
        <ele>43.8</ele>
        <time>2012-12-29T12:53:24Z</time>
      </trkpt>
      <trkpt lat="46.51555" lon="-0.78401">
        <ele>43.7</ele>
        <time>2012-12-29T12:53:26Z</time>
      </trkpt>
      <trkpt lat="46.51546" lon="-0.784">
        <ele>43.5</ele>
        <time>2012-12-29T12:53:28Z</time>
      </trkpt>
      <trkpt lat="46.51537" lon="-0.784">
        <ele>43.6</ele>
        <time>2012-12-29T12:53:30Z</time>
      </trkpt>
      <trkpt lat="46.51528" lon="-0.78401">
        <ele>43.4</ele>
        <time>2012-12-29T12:53:32Z</time>
      </trkpt>
      <trkpt lat="46.5152" lon="-0.78401">
        <ele>43.1</ele>
        <time>2012-12-29T12:53:34Z</time>
      </trkpt>
      <trkpt lat="46.51503" lon="-0.784">
        <ele>43.4</ele>
        <time>2012-12-29T12:53:38Z</time>
      </trkpt>
      <trkpt lat="46.51495" lon="-0.78401">
        <ele>43.6</ele>
        <time>2012-12-29T12:53:40Z</time>
      </trkpt>
      <trkpt lat="46.51488" lon="-0.78405">
        <ele>43.4</ele>
        <time>2012-12-29T12:53:42Z</time>
      </trkpt>
      <trkpt lat="46.51482" lon="-0.7841">
        <ele>42.9</ele>
        <time>2012-12-29T12:53:44Z</time>
      </trkpt>
      <trkpt lat="46.5148" lon="-0.78416">
        <ele>42.6</ele>
        <time>2012-12-29T12:53:46Z</time>
      </trkpt>
      <trkpt lat="46.51479" lon="-0.78423">
        <ele>42.5</ele>
        <time>2012-12-29T12:53:48Z</time>
      </trkpt>
      <trkpt lat="46.51479" lon="-0.78446">
        <ele>44.5</ele>
        <time>2012-12-29T12:53:55Z</time>
      </trkpt>
      <trkpt lat="46.51479" lon="-0.78451">
        <ele>44.6</ele>
        <time>2012-12-29T12:53:56Z</time>
      </trkpt>
      <trkpt lat="46.51475" lon="-0.78469">
        <ele>44.8</ele>
        <time>2012-12-29T12:54:00Z</time>
      </trkpt>
      <trkpt lat="46.51472" lon="-0.7848">
        <ele>44.7</ele>
        <time>2012-12-29T12:54:02Z</time>
      </trkpt>
      <trkpt lat="46.5147" lon="-0.78491">
        <ele>44.8</ele>
        <time>2012-12-29T12:54:04Z</time>
      </trkpt>
      <trkpt lat="46.51468" lon="-0.78495">
        <ele>44.8</ele>
        <time>2012-12-29T12:54:05Z</time>
      </trkpt>
      <trkpt lat="46.51467" lon="-0.78504">
        <ele>45.2</ele>
        <time>2012-12-29T12:54:07Z</time>
      </trkpt>
      <trkpt lat="46.51464" lon="-0.78514">
        <ele>45.6</ele>
        <time>2012-12-29T12:54:09Z</time>
      </trkpt>
      <trkpt lat="46.51462" lon="-0.78525">
        <ele>45</ele>
        <time>2012-12-29T12:54:11Z</time>
      </trkpt>
      <trkpt lat="46.51463" lon="-0.78534">
        <ele>44.6</ele>
        <time>2012-12-29T12:54:13Z</time>
      </trkpt>
      <trkpt lat="46.51462" lon="-0.78541">
        <ele>44.4</ele>
        <time>2012-12-29T12:54:15Z</time>
      </trkpt>
      <trkpt lat="46.51461" lon="-0.78551">
        <ele>44.2</ele>
        <time>2012-12-29T12:54:17Z</time>
      </trkpt>
      <trkpt lat="46.51461" lon="-0.78561">
        <ele>44.2</ele>
        <time>2012-12-29T12:54:19Z</time>
      </trkpt>
      <trkpt lat="46.51459" lon="-0.78569">
        <ele>44</ele>
        <time>2012-12-29T12:54:21Z</time>
      </trkpt>
      <trkpt lat="46.51457" lon="-0.78578">
        <ele>44.2</ele>
        <time>2012-12-29T12:54:23Z</time>
      </trkpt>
      <trkpt lat="46.51456" lon="-0.78588">
        <ele>44.5</ele>
        <time>2012-12-29T12:54:25Z</time>
      </trkpt>
      <trkpt lat="46.51457" lon="-0.78599">
        <ele>44.4</ele>
        <time>2012-12-29T12:54:27Z</time>
      </trkpt>
      <trkpt lat="46.51457" lon="-0.78608">
        <ele>44</ele>
        <time>2012-12-29T12:54:29Z</time>
      </trkpt>
      <trkpt lat="46.51452" lon="-0.78617">
        <ele>43.6</ele>
        <time>2012-12-29T12:54:31Z</time>
      </trkpt>
      <trkpt lat="46.51449" lon="-0.7862">
        <ele>43.4</ele>
        <time>2012-12-29T12:54:32Z</time>
      </trkpt>
      <trkpt lat="46.51444" lon="-0.78626">
        <ele>43.2</ele>
        <time>2012-12-29T12:54:34Z</time>
      </trkpt>
      <trkpt lat="46.5144" lon="-0.78633">
        <ele>43</ele>
        <time>2012-12-29T12:54:36Z</time>
      </trkpt>
      <trkpt lat="46.51437" lon="-0.78639">
        <ele>42.7</ele>
        <time>2012-12-29T12:54:38Z</time>
      </trkpt>
      <trkpt lat="46.51434" lon="-0.78646">
        <ele>42.5</ele>
        <time>2012-12-29T12:54:40Z</time>
      </trkpt>
      <trkpt lat="46.51431" lon="-0.78657">
        <ele>44</ele>
        <time>2012-12-29T12:54:54Z</time>
      </trkpt>
      <trkpt lat="46.5143" lon="-0.78664">
        <ele>44.1</ele>
        <time>2012-12-29T12:55:11Z</time>
      </trkpt>
      <trkpt lat="46.51427" lon="-0.78675">
        <ele>43.5</ele>
        <time>2012-12-29T12:55:28Z</time>
      </trkpt>
      <trkpt lat="46.51424" lon="-0.78684">
        <ele>44.2</ele>
        <time>2012-12-29T12:55:33Z</time>
      </trkpt>
      <trkpt lat="46.51422" lon="-0.7869">
        <ele>44.5</ele>
        <time>2012-12-29T12:55:45Z</time>
      </trkpt>
      <trkpt lat="46.5142" lon="-0.78703">
        <ele>46.1</ele>
        <time>2012-12-29T12:56:12Z</time>
      </trkpt>
      <trkpt lat="46.51421" lon="-0.78713">
        <ele>47.4</ele>
        <time>2012-12-29T12:56:25Z</time>
      </trkpt>
      <trkpt lat="46.51422" lon="-0.78721">
        <ele>48.3</ele>
        <time>2012-12-29T12:56:29Z</time>
      </trkpt>
      <trkpt lat="46.5142" lon="-0.7873">
        <ele>48.4</ele>
        <time>2012-12-29T12:56:43Z</time>
      </trkpt>
      <trkpt lat="46.51413" lon="-0.78726">
        <ele>44.3</ele>
        <time>2012-12-29T12:57:09Z</time>
      </trkpt>
      <trkpt lat="46.51412" lon="-0.78737">
        <ele>43.8</ele>
        <time>2012-12-29T12:57:26Z</time>
      </trkpt>
      <trkpt lat="46.51412" lon="-0.78744">
        <ele>44.3</ele>
        <time>2012-12-29T12:57:32Z</time>
      </trkpt>
      <trkpt lat="46.51414" lon="-0.78755">
        <ele>44</ele>
        <time>2012-12-29T12:57:40Z</time>
      </trkpt>
      <trkpt lat="46.51413" lon="-0.7876">
        <ele>44.7</ele>
        <time>2012-12-29T12:57:43Z</time>
      </trkpt>
      <trkpt lat="46.51414" lon="-0.78771">
        <ele>44.9</ele>
        <time>2012-12-29T12:57:49Z</time>
      </trkpt>
      <trkpt lat="46.51415" lon="-0.78781">
        <ele>46</ele>
        <time>2012-12-29T12:57:55Z</time>
      </trkpt>
      <trkpt lat="46.51416" lon="-0.78787">
        <ele>46.7</ele>
        <time>2012-12-29T12:57:58Z</time>
      </trkpt>
      <trkpt lat="46.51421" lon="-0.78809">
        <ele>48.1</ele>
        <time>2012-12-29T12:58:10Z</time>
      </trkpt>
      <trkpt lat="46.51426" lon="-0.78819">
        <ele>48.6</ele>
        <time>2012-12-29T12:58:16Z</time>
      </trkpt>
      <trkpt lat="46.5143" lon="-0.78826">
        <ele>49.3</ele>
        <time>2012-12-29T12:58:20Z</time>
      </trkpt>
      <trkpt lat="46.51435" lon="-0.78833">
        <ele>49.9</ele>
        <time>2012-12-29T12:58:24Z</time>
      </trkpt>
      <trkpt lat="46.51444" lon="-0.78842">
        <ele>50.1</ele>
        <time>2012-12-29T12:58:31Z</time>
      </trkpt>
      <trkpt lat="46.51447" lon="-0.78848">
        <ele>50.3</ele>
        <time>2012-12-29T12:58:35Z</time>
      </trkpt>
      <trkpt lat="46.51451" lon="-0.78853">
        <ele>51.1</ele>
        <time>2012-12-29T12:58:38Z</time>
      </trkpt>
      <trkpt lat="46.51454" lon="-0.78861">
        <ele>51.8</ele>
        <time>2012-12-29T12:58:42Z</time>
      </trkpt>
      <trkpt lat="46.51455" lon="-0.78865">
        <ele>52.3</ele>
        <time>2012-12-29T12:58:44Z</time>
      </trkpt>
      <trkpt lat="46.51459" lon="-0.78874">
        <ele>52.6</ele>
        <time>2012-12-29T12:58:48Z</time>
      </trkpt>
      <trkpt lat="46.51461" lon="-0.78884">
        <ele>53.8</ele>
        <time>2012-12-29T12:58:52Z</time>
      </trkpt>
      <trkpt lat="46.51462" lon="-0.78889">
        <ele>53.8</ele>
        <time>2012-12-29T12:58:54Z</time>
      </trkpt>
      <trkpt lat="46.51464" lon="-0.78899">
        <ele>53.7</ele>
        <time>2012-12-29T12:58:58Z</time>
      </trkpt>
      <trkpt lat="46.51464" lon="-0.7891">
        <ele>54.9</ele>
        <time>2012-12-29T12:59:03Z</time>
      </trkpt>
      <trkpt lat="46.51459" lon="-0.7892">
        <ele>55.3</ele>
        <time>2012-12-29T12:59:10Z</time>
      </trkpt>
      <trkpt lat="46.51457" lon="-0.78926">
        <ele>55.9</ele>
        <time>2012-12-29T12:59:20Z</time>
      </trkpt>
      <trkpt lat="46.51449" lon="-0.78926">
        <ele>55.9</ele>
        <time>2012-12-29T12:59:31Z</time>
      </trkpt>
      <trkpt lat="46.51445" lon="-0.78919">
        <ele>56.6</ele>
        <time>2012-12-29T12:59:35Z</time>
      </trkpt>
      <trkpt lat="46.51439" lon="-0.78906">
        <ele>56.6</ele>
        <time>2012-12-29T12:59:41Z</time>
      </trkpt>
      <trkpt lat="46.51434" lon="-0.78899">
        <ele>57.6</ele>
        <time>2012-12-29T12:59:45Z</time>
      </trkpt>
      <trkpt lat="46.51431" lon="-0.78896">
        <ele>57.8</ele>
        <time>2012-12-29T12:59:47Z</time>
      </trkpt>
      <trkpt lat="46.51423" lon="-0.7889">
        <ele>58.3</ele>
        <time>2012-12-29T12:59:51Z</time>
      </trkpt>
      <trkpt lat="46.51419" lon="-0.78889">
        <ele>59</ele>
        <time>2012-12-29T12:59:53Z</time>
      </trkpt>
      <trkpt lat="46.51411" lon="-0.78892">
        <ele>58.7</ele>
        <time>2012-12-29T12:59:57Z</time>
      </trkpt>
      <trkpt lat="46.51405" lon="-0.78899">
        <ele>60</ele>
        <time>2012-12-29T13:00:01Z</time>
      </trkpt>
      <trkpt lat="46.51396" lon="-0.78918">
        <ele>61.1</ele>
        <time>2012-12-29T13:00:09Z</time>
      </trkpt>
      <trkpt lat="46.51391" lon="-0.78926">
        <ele>62.5</ele>
        <time>2012-12-29T13:00:13Z</time>
      </trkpt>
      <trkpt lat="46.51386" lon="-0.78935">
        <ele>64.2</ele>
        <time>2012-12-29T13:00:17Z</time>
      </trkpt>
      <trkpt lat="46.51381" lon="-0.78943">
        <ele>64</ele>
        <time>2012-12-29T13:00:21Z</time>
      </trkpt>
      <trkpt lat="46.51371" lon="-0.78962">
        <ele>64.6</ele>
        <time>2012-12-29T13:00:29Z</time>
      </trkpt>
      <trkpt lat="46.51364" lon="-0.78976">
        <ele>66.2</ele>
        <time>2012-12-29T13:00:35Z</time>
      </trkpt>
      <trkpt lat="46.5136" lon="-0.78983">
        <ele>67.3</ele>
        <time>2012-12-29T13:00:38Z</time>
      </trkpt>
      <trkpt lat="46.51357" lon="-0.78989">
        <ele>67.6</ele>
        <time>2012-12-29T13:00:40Z</time>
      </trkpt>
      <trkpt lat="46.51354" lon="-0.78998">
        <ele>68</ele>
        <time>2012-12-29T13:00:43Z</time>
      </trkpt>
      <trkpt lat="46.51351" lon="-0.79004">
        <ele>68.6</ele>
        <time>2012-12-29T13:00:45Z</time>
      </trkpt>
      <trkpt lat="46.51346" lon="-0.79016">
        <ele>69.2</ele>
        <time>2012-12-29T13:00:49Z</time>
      </trkpt>
      <trkpt lat="46.51344" lon="-0.79022">
        <ele>69.5</ele>
        <time>2012-12-29T13:00:51Z</time>
      </trkpt>
      <trkpt lat="46.51342" lon="-0.79028">
        <ele>69.6</ele>
        <time>2012-12-29T13:00:53Z</time>
      </trkpt>
      <trkpt lat="46.5134" lon="-0.79034">
        <ele>69.6</ele>
        <time>2012-12-29T13:00:55Z</time>
      </trkpt>
      <trkpt lat="46.51338" lon="-0.79044">
        <ele>69.3</ele>
        <time>2012-12-29T13:00:58Z</time>
      </trkpt>
      <trkpt lat="46.51336" lon="-0.79053">
        <ele>70.1</ele>
        <time>2012-12-29T13:01:01Z</time>
      </trkpt>
      <trkpt lat="46.51334" lon="-0.79059">
        <ele>70.3</ele>
        <time>2012-12-29T13:01:03Z</time>
      </trkpt>
      <trkpt lat="46.51331" lon="-0.7907">
        <ele>71.5</ele>
        <time>2012-12-29T13:01:07Z</time>
      </trkpt>
      <trkpt lat="46.51327" lon="-0.79078">
        <ele>72.1</ele>
        <time>2012-12-29T13:01:10Z</time>
      </trkpt>
      <trkpt lat="46.5132" lon="-0.79087">
        <ele>72.5</ele>
        <time>2012-12-29T13:01:14Z</time>
      </trkpt>
      <trkpt lat="46.51311" lon="-0.79095">
        <ele>73.6</ele>
        <time>2012-12-29T13:01:18Z</time>
      </trkpt>
      <trkpt lat="46.51305" lon="-0.79101">
        <ele>73.9</ele>
        <time>2012-12-29T13:01:21Z</time>
      </trkpt>
      <trkpt lat="46.51296" lon="-0.79107">
        <ele>74.9</ele>
        <time>2012-12-29T13:01:25Z</time>
      </trkpt>
      <trkpt lat="46.51285" lon="-0.79115">
        <ele>76.4</ele>
        <time>2012-12-29T13:01:30Z</time>
      </trkpt>
      <trkpt lat="46.51281" lon="-0.79118">
        <ele>76.5</ele>
        <time>2012-12-29T13:01:32Z</time>
      </trkpt>
      <trkpt lat="46.51277" lon="-0.79122">
        <ele>76.5</ele>
        <time>2012-12-29T13:01:34Z</time>
      </trkpt>
      <trkpt lat="46.51271" lon="-0.79127">
        <ele>76.7</ele>
        <time>2012-12-29T13:01:37Z</time>
      </trkpt>
      <trkpt lat="46.51268" lon="-0.79132">
        <ele>77.1</ele>
        <time>2012-12-29T13:01:39Z</time>
      </trkpt>
      <trkpt lat="46.51262" lon="-0.79142">
        <ele>78</ele>
        <time>2012-12-29T13:01:43Z</time>
      </trkpt>
      <trkpt lat="46.5126" lon="-0.7915">
        <ele>78.4</ele>
        <time>2012-12-29T13:01:46Z</time>
      </trkpt>
      <trkpt lat="46.51258" lon="-0.7916">
        <ele>78.7</ele>
        <time>2012-12-29T13:01:49Z</time>
      </trkpt>
      <trkpt lat="46.51256" lon="-0.79172">
        <ele>79.8</ele>
        <time>2012-12-29T13:01:53Z</time>
      </trkpt>
      <trkpt lat="46.51256" lon="-0.79183">
        <ele>79.9</ele>
        <time>2012-12-29T13:01:57Z</time>
      </trkpt>
      <trkpt lat="46.51258" lon="-0.79195">
        <ele>80</ele>
        <time>2012-12-29T13:02:01Z</time>
      </trkpt>
      <trkpt lat="46.51256" lon="-0.79205">
        <ele>80.4</ele>
        <time>2012-12-29T13:02:05Z</time>
      </trkpt>
      <trkpt lat="46.51256" lon="-0.79212">
        <ele>80.4</ele>
        <time>2012-12-29T13:02:07Z</time>
      </trkpt>
      <trkpt lat="46.51259" lon="-0.79223">
        <ele>80.3</ele>
        <time>2012-12-29T13:02:11Z</time>
      </trkpt>
      <trkpt lat="46.51263" lon="-0.79231">
        <ele>80.5</ele>
        <time>2012-12-29T13:02:14Z</time>
      </trkpt>
      <trkpt lat="46.51264" lon="-0.79242">
        <ele>81.8</ele>
        <time>2012-12-29T13:02:18Z</time>
      </trkpt>
      <trkpt lat="46.51268" lon="-0.7925">
        <ele>82.2</ele>
        <time>2012-12-29T13:02:22Z</time>
      </trkpt>
      <trkpt lat="46.51272" lon="-0.79252">
        <ele>82.3</ele>
        <time>2012-12-29T13:02:25Z</time>
      </trkpt>
      <trkpt lat="46.51279" lon="-0.79257">
        <ele>82.4</ele>
        <time>2012-12-29T13:02:31Z</time>
      </trkpt>
      <trkpt lat="46.51285" lon="-0.79264">
        <ele>81.2</ele>
        <time>2012-12-29T13:02:37Z</time>
      </trkpt>
      <trkpt lat="46.51289" lon="-0.79267">
        <ele>81.7</ele>
        <time>2012-12-29T13:02:40Z</time>
      </trkpt>
      <trkpt lat="46.51295" lon="-0.79271">
        <ele>81.7</ele>
        <time>2012-12-29T13:02:45Z</time>
      </trkpt>
      <trkpt lat="46.51298" lon="-0.79274">
        <ele>82.1</ele>
        <time>2012-12-29T13:02:48Z</time>
      </trkpt>
      <trkpt lat="46.51304" lon="-0.79277">
        <ele>82.6</ele>
        <time>2012-12-29T13:02:52Z</time>
      </trkpt>
      <trkpt lat="46.51312" lon="-0.79281">
        <ele>82.7</ele>
        <time>2012-12-29T13:02:56Z</time>
      </trkpt>
      <trkpt lat="46.5132" lon="-0.79285">
        <ele>83</ele>
        <time>2012-12-29T13:03:00Z</time>
      </trkpt>
      <trkpt lat="46.51324" lon="-0.79287">
        <ele>82.7</ele>
        <time>2012-12-29T13:03:02Z</time>
      </trkpt>
      <trkpt lat="46.51328" lon="-0.79288">
        <ele>83</ele>
        <time>2012-12-29T13:03:04Z</time>
      </trkpt>
      <trkpt lat="46.51336" lon="-0.79292">
        <ele>83.5</ele>
        <time>2012-12-29T13:03:07Z</time>
      </trkpt>
      <trkpt lat="46.51344" lon="-0.79295">
        <ele>84</ele>
        <time>2012-12-29T13:03:10Z</time>
      </trkpt>
      <trkpt lat="46.51356" lon="-0.793">
        <ele>84</ele>
        <time>2012-12-29T13:03:15Z</time>
      </trkpt>
      <trkpt lat="46.51363" lon="-0.79303">
        <ele>85.4</ele>
        <time>2012-12-29T13:03:18Z</time>
      </trkpt>
      <trkpt lat="46.5137" lon="-0.79308">
        <ele>86.1</ele>
        <time>2012-12-29T13:03:25Z</time>
      </trkpt>
      <trkpt lat="46.51374" lon="-0.7931">
        <ele>85.8</ele>
        <time>2012-12-29T13:03:27Z</time>
      </trkpt>
      <trkpt lat="46.51379" lon="-0.79312">
        <ele>85.7</ele>
        <time>2012-12-29T13:03:29Z</time>
      </trkpt>
      <trkpt lat="46.51387" lon="-0.79316">
        <ele>85.7</ele>
        <time>2012-12-29T13:03:32Z</time>
      </trkpt>
      <trkpt lat="46.514" lon="-0.7932">
        <ele>86.5</ele>
        <time>2012-12-29T13:03:37Z</time>
      </trkpt>
      <trkpt lat="46.51408" lon="-0.79323">
        <ele>86.3</ele>
        <time>2012-12-29T13:03:40Z</time>
      </trkpt>
      <trkpt lat="46.51413" lon="-0.79324">
        <ele>86.4</ele>
        <time>2012-12-29T13:03:42Z</time>
      </trkpt>
      <trkpt lat="46.51416" lon="-0.79325">
        <ele>86.7</ele>
        <time>2012-12-29T13:03:44Z</time>
      </trkpt>
      <trkpt lat="46.51423" lon="-0.79329">
        <ele>87.2</ele>
        <time>2012-12-29T13:03:48Z</time>
      </trkpt>
      <trkpt lat="46.5143" lon="-0.79334">
        <ele>87.5</ele>
        <time>2012-12-29T13:03:56Z</time>
      </trkpt>
      <trkpt lat="46.51433" lon="-0.79338">
        <ele>86.8</ele>
        <time>2012-12-29T13:04:14Z</time>
      </trkpt>
      <trkpt lat="46.51442" lon="-0.79341">
        <ele>87.9</ele>
        <time>2012-12-29T13:05:17Z</time>
      </trkpt>
      <trkpt lat="46.51449" lon="-0.79339">
        <ele>88.1</ele>
        <time>2012-12-29T13:08:31Z</time>
      </trkpt>
      <trkpt lat="46.51458" lon="-0.79342">
        <ele>88.7</ele>
        <time>2012-12-29T13:08:36Z</time>
      </trkpt>
      <trkpt lat="46.51469" lon="-0.79347">
        <ele>88.9</ele>
        <time>2012-12-29T13:08:41Z</time>
      </trkpt>
      <trkpt lat="46.51475" lon="-0.79349">
        <ele>88.8</ele>
        <time>2012-12-29T13:08:43Z</time>
      </trkpt>
      <trkpt lat="46.51481" lon="-0.79351">
        <ele>88.7</ele>
        <time>2012-12-29T13:08:45Z</time>
      </trkpt>
      <trkpt lat="46.51487" lon="-0.79353">
        <ele>88.5</ele>
        <time>2012-12-29T13:08:47Z</time>
      </trkpt>
      <trkpt lat="46.51493" lon="-0.79355">
        <ele>88</ele>
        <time>2012-12-29T13:08:49Z</time>
      </trkpt>
      <trkpt lat="46.51496" lon="-0.79357">
        <ele>87.8</ele>
        <time>2012-12-29T13:08:50Z</time>
      </trkpt>
      <trkpt lat="46.51502" lon="-0.79361">
        <ele>86.8</ele>
        <time>2012-12-29T13:08:53Z</time>
      </trkpt>
      <trkpt lat="46.51509" lon="-0.79363">
        <ele>86.8</ele>
        <time>2012-12-29T13:08:55Z</time>
      </trkpt>
      <trkpt lat="46.51522" lon="-0.79368">
        <ele>87.2</ele>
        <time>2012-12-29T13:08:58Z</time>
      </trkpt>
      <trkpt lat="46.51527" lon="-0.7937">
        <ele>87.2</ele>
        <time>2012-12-29T13:08:59Z</time>
      </trkpt>
      <trkpt lat="46.51542" lon="-0.79376">
        <ele>86.8</ele>
        <time>2012-12-29T13:09:02Z</time>
      </trkpt>
      <trkpt lat="46.51551" lon="-0.7938">
        <ele>86.3</ele>
        <time>2012-12-29T13:09:04Z</time>
      </trkpt>
      <trkpt lat="46.51568" lon="-0.79389">
        <ele>85.2</ele>
        <time>2012-12-29T13:09:08Z</time>
      </trkpt>
      <trkpt lat="46.51571" lon="-0.7939">
        <ele>85</ele>
        <time>2012-12-29T13:09:09Z</time>
      </trkpt>
      <trkpt lat="46.51578" lon="-0.79392">
        <ele>84.7</ele>
        <time>2012-12-29T13:09:12Z</time>
      </trkpt>
      <trkpt lat="46.51584" lon="-0.79395">
        <ele>84.5</ele>
        <time>2012-12-29T13:09:15Z</time>
      </trkpt>
      <trkpt lat="46.51589" lon="-0.79397">
        <ele>84.7</ele>
        <time>2012-12-29T13:09:17Z</time>
      </trkpt>
      <trkpt lat="46.51596" lon="-0.79399">
        <ele>85.1</ele>
        <time>2012-12-29T13:09:20Z</time>
      </trkpt>
      <trkpt lat="46.51608" lon="-0.79404">
        <ele>86.4</ele>
        <time>2012-12-29T13:09:25Z</time>
      </trkpt>
      <trkpt lat="46.51612" lon="-0.79406">
        <ele>87.1</ele>
        <time>2012-12-29T13:09:27Z</time>
      </trkpt>
      <trkpt lat="46.51617" lon="-0.79408">
        <ele>87.4</ele>
        <time>2012-12-29T13:09:29Z</time>
      </trkpt>
      <trkpt lat="46.51619" lon="-0.79409">
        <ele>87.7</ele>
        <time>2012-12-29T13:09:30Z</time>
      </trkpt>
      <trkpt lat="46.51624" lon="-0.79411">
        <ele>87.9</ele>
        <time>2012-12-29T13:09:32Z</time>
      </trkpt>
      <trkpt lat="46.51629" lon="-0.79413">
        <ele>87.8</ele>
        <time>2012-12-29T13:09:34Z</time>
      </trkpt>
      <trkpt lat="46.51629" lon="-0.79412">
        <ele>88.1</ele>
        <time>2012-12-29T13:09:41Z</time>
      </trkpt>
      <trkpt lat="46.51624" lon="-0.79411">
        <ele>88.5</ele>
        <time>2012-12-29T13:09:43Z</time>
      </trkpt>
      <trkpt lat="46.51619" lon="-0.7941">
        <ele>88.8</ele>
        <time>2012-12-29T13:09:45Z</time>
      </trkpt>
      <trkpt lat="46.51612" lon="-0.79407">
        <ele>88.5</ele>
        <time>2012-12-29T13:09:47Z</time>
      </trkpt>
      <trkpt lat="46.51607" lon="-0.79407">
        <ele>88.4</ele>
        <time>2012-12-29T13:09:48Z</time>
      </trkpt>
      <trkpt lat="46.51601" lon="-0.79404">
        <ele>87.5</ele>
        <time>2012-12-29T13:09:50Z</time>
      </trkpt>
      <trkpt lat="46.51599" lon="-0.79395">
        <ele>86.6</ele>
        <time>2012-12-29T13:09:55Z</time>
      </trkpt>
      <trkpt lat="46.51603" lon="-0.79392">
        <ele>86.8</ele>
        <time>2012-12-29T13:09:58Z</time>
      </trkpt>
      <trkpt lat="46.51879" lon="-0.79494">
        <ele>96.7</ele>
        <time>2012-12-29T13:14:54Z</time>
      </trkpt>
      <trkpt lat="46.51885" lon="-0.79501">
        <ele>95.9</ele>
        <time>2012-12-29T13:15:26Z</time>
      </trkpt>
      <trkpt lat="46.51891" lon="-0.79498">
        <ele>96</ele>
        <time>2012-12-29T13:15:32Z</time>
      </trkpt>
      <trkpt lat="46.51898" lon="-0.79494">
        <ele>95.1</ele>
        <time>2012-12-29T13:15:36Z</time>
      </trkpt>
      <trkpt lat="46.51905" lon="-0.79492">
        <ele>95.7</ele>
        <time>2012-12-29T13:15:39Z</time>
      </trkpt>
      <trkpt lat="46.5191" lon="-0.79489">
        <ele>95.9</ele>
        <time>2012-12-29T13:15:41Z</time>
      </trkpt>
      <trkpt lat="46.51913" lon="-0.79487">
        <ele>96</ele>
        <time>2012-12-29T13:15:42Z</time>
      </trkpt>
      <trkpt lat="46.51926" lon="-0.7948">
        <ele>95.1</ele>
        <time>2012-12-29T13:15:46Z</time>
      </trkpt>
      <trkpt lat="46.51934" lon="-0.79477">
        <ele>95.1</ele>
        <time>2012-12-29T13:15:48Z</time>
      </trkpt>
      <trkpt lat="46.51943" lon="-0.79472">
        <ele>93.8</ele>
        <time>2012-12-29T13:15:51Z</time>
      </trkpt>
      <trkpt lat="46.51946" lon="-0.7947">
        <ele>93.6</ele>
        <time>2012-12-29T13:15:52Z</time>
      </trkpt>
      <trkpt lat="46.51953" lon="-0.79462">
        <ele>90.9</ele>
        <time>2012-12-29T13:15:57Z</time>
      </trkpt>
      <trkpt lat="46.51959" lon="-0.79455">
        <ele>89.7</ele>
        <time>2012-12-29T13:16:06Z</time>
      </trkpt>
      <trkpt lat="46.51967" lon="-0.7945">
        <ele>91.7</ele>
        <time>2012-12-29T13:16:20Z</time>
      </trkpt>
      <trkpt lat="46.51975" lon="-0.79447">
        <ele>91.5</ele>
        <time>2012-12-29T13:16:32Z</time>
      </trkpt>
      <trkpt lat="46.51979" lon="-0.79449">
        <ele>91.8</ele>
        <time>2012-12-29T13:16:37Z</time>
      </trkpt>
      <trkpt lat="46.51983" lon="-0.79451">
        <ele>91.5</ele>
        <time>2012-12-29T13:16:48Z</time>
      </trkpt>
      <trkpt lat="46.5199" lon="-0.79455">
        <ele>92.5</ele>
        <time>2012-12-29T13:16:54Z</time>
      </trkpt>
      <trkpt lat="46.51998" lon="-0.79455">
        <ele>92.7</ele>
        <time>2012-12-29T13:17:00Z</time>
      </trkpt>
      <trkpt lat="46.52006" lon="-0.79454">
        <ele>92.2</ele>
        <time>2012-12-29T13:17:06Z</time>
      </trkpt>
      <trkpt lat="46.52013" lon="-0.79451">
        <ele>92.9</ele>
        <time>2012-12-29T13:17:12Z</time>
      </trkpt>
      <trkpt lat="46.52017" lon="-0.7945">
        <ele>92.7</ele>
        <time>2012-12-29T13:17:15Z</time>
      </trkpt>
      <trkpt lat="46.52025" lon="-0.79447">
        <ele>93.7</ele>
        <time>2012-12-29T13:17:22Z</time>
      </trkpt>
      <trkpt lat="46.52028" lon="-0.79445">
        <ele>93.5</ele>
        <time>2012-12-29T13:17:25Z</time>
      </trkpt>
      <trkpt lat="46.52035" lon="-0.79442">
        <ele>95</ele>
        <time>2012-12-29T13:17:30Z</time>
      </trkpt>
      <trkpt lat="46.52039" lon="-0.79441">
        <ele>95.3</ele>
        <time>2012-12-29T13:17:33Z</time>
      </trkpt>
      <trkpt lat="46.52045" lon="-0.7944">
        <ele>95.7</ele>
        <time>2012-12-29T13:17:37Z</time>
      </trkpt>
      <trkpt lat="46.52058" lon="-0.79435">
        <ele>96</ele>
        <time>2012-12-29T13:17:45Z</time>
      </trkpt>
      <trkpt lat="46.52075" lon="-0.79429">
        <ele>96.7</ele>
        <time>2012-12-29T13:17:55Z</time>
      </trkpt>
      <trkpt lat="46.52089" lon="-0.79424">
        <ele>97.8</ele>
        <time>2012-12-29T13:18:03Z</time>
      </trkpt>
      <trkpt lat="46.52097" lon="-0.79421">
        <ele>97.8</ele>
        <time>2012-12-29T13:18:07Z</time>
      </trkpt>
      <trkpt lat="46.52104" lon="-0.79414">
        <ele>97.9</ele>
        <time>2012-12-29T13:18:37Z</time>
      </trkpt>
      <trkpt lat="46.52104" lon="-0.79407">
        <ele>96.8</ele>
        <time>2012-12-29T13:19:20Z</time>
      </trkpt>
      <trkpt lat="46.5211" lon="-0.79406">
        <ele>97.1</ele>
        <time>2012-12-29T13:20:18Z</time>
      </trkpt>
      <trkpt lat="46.52114" lon="-0.79404">
        <ele>97.1</ele>
        <time>2012-12-29T13:20:20Z</time>
      </trkpt>
      <trkpt lat="46.52121" lon="-0.79402">
        <ele>97</ele>
        <time>2012-12-29T13:20:23Z</time>
      </trkpt>
      <trkpt lat="46.52129" lon="-0.79401">
        <ele>98.2</ele>
        <time>2012-12-29T13:20:26Z</time>
      </trkpt>
      <trkpt lat="46.52142" lon="-0.79395">
        <ele>98.3</ele>
        <time>2012-12-29T13:20:31Z</time>
      </trkpt>
      <trkpt lat="46.52153" lon="-0.79392">
        <ele>98.8</ele>
        <time>2012-12-29T13:20:35Z</time>
      </trkpt>
      <trkpt lat="46.52159" lon="-0.7939">
        <ele>99.1</ele>
        <time>2012-12-29T13:20:37Z</time>
      </trkpt>
      <trkpt lat="46.52162" lon="-0.79389">
        <ele>99.3</ele>
        <time>2012-12-29T13:20:38Z</time>
      </trkpt>
      <trkpt lat="46.52168" lon="-0.79387">
        <ele>98.9</ele>
        <time>2012-12-29T13:20:40Z</time>
      </trkpt>
      <trkpt lat="46.52171" lon="-0.79386">
        <ele>98.6</ele>
        <time>2012-12-29T13:20:41Z</time>
      </trkpt>
      <trkpt lat="46.52177" lon="-0.79384">
        <ele>98.3</ele>
        <time>2012-12-29T13:20:43Z</time>
      </trkpt>
      <trkpt lat="46.52191" lon="-0.79379">
        <ele>97.6</ele>
        <time>2012-12-29T13:20:47Z</time>
      </trkpt>
      <trkpt lat="46.52198" lon="-0.79377">
        <ele>97.2</ele>
        <time>2012-12-29T13:20:49Z</time>
      </trkpt>
      <trkpt lat="46.52202" lon="-0.79376">
        <ele>97.1</ele>
        <time>2012-12-29T13:20:50Z</time>
      </trkpt>
      <trkpt lat="46.52207" lon="-0.79373">
        <ele>96.9</ele>
        <time>2012-12-29T13:20:52Z</time>
      </trkpt>
      <trkpt lat="46.52213" lon="-0.79372">
        <ele>96.3</ele>
        <time>2012-12-29T13:20:54Z</time>
      </trkpt>
      <trkpt lat="46.52226" lon="-0.79367">
        <ele>97</ele>
        <time>2012-12-29T13:20:58Z</time>
      </trkpt>
      <trkpt lat="46.52229" lon="-0.79366">
        <ele>97</ele>
        <time>2012-12-29T13:20:59Z</time>
      </trkpt>
      <trkpt lat="46.52235" lon="-0.79365">
        <ele>97</ele>
        <time>2012-12-29T13:21:01Z</time>
      </trkpt>
      <trkpt lat="46.5224" lon="-0.79363">
        <ele>96.4</ele>
        <time>2012-12-29T13:21:03Z</time>
      </trkpt>
      <trkpt lat="46.52247" lon="-0.79361">
        <ele>96.6</ele>
        <time>2012-12-29T13:21:05Z</time>
      </trkpt>
      <trkpt lat="46.52252" lon="-0.79358">
        <ele>97.2</ele>
        <time>2012-12-29T13:21:07Z</time>
      </trkpt>
      <trkpt lat="46.52258" lon="-0.79356">
        <ele>97.7</ele>
        <time>2012-12-29T13:21:09Z</time>
      </trkpt>
      <trkpt lat="46.52271" lon="-0.79351">
        <ele>98.3</ele>
        <time>2012-12-29T13:21:13Z</time>
      </trkpt>
      <trkpt lat="46.52276" lon="-0.79349">
        <ele>98.2</ele>
        <time>2012-12-29T13:21:15Z</time>
      </trkpt>
      <trkpt lat="46.5229" lon="-0.79343">
        <ele>97.3</ele>
        <time>2012-12-29T13:21:20Z</time>
      </trkpt>
      <trkpt lat="46.52299" lon="-0.79339">
        <ele>98.3</ele>
        <time>2012-12-29T13:21:23Z</time>
      </trkpt>
      <trkpt lat="46.52305" lon="-0.79337">
        <ele>98.5</ele>
        <time>2012-12-29T13:21:25Z</time>
      </trkpt>
      <trkpt lat="46.52312" lon="-0.79333">
        <ele>98.7</ele>
        <time>2012-12-29T13:21:28Z</time>
      </trkpt>
      <trkpt lat="46.52323" lon="-0.79329">
        <ele>99</ele>
        <time>2012-12-29T13:21:32Z</time>
      </trkpt>
      <trkpt lat="46.52329" lon="-0.79326">
        <ele>99.4</ele>
        <time>2012-12-29T13:21:35Z</time>
      </trkpt>
      <trkpt lat="46.52333" lon="-0.79327">
        <ele>99.4</ele>
        <time>2012-12-29T13:21:37Z</time>
      </trkpt>
      <trkpt lat="46.52337" lon="-0.79331">
        <ele>99.3</ele>
        <time>2012-12-29T13:21:39Z</time>
      </trkpt>
      <trkpt lat="46.52341" lon="-0.79337">
        <ele>99.4</ele>
        <time>2012-12-29T13:21:41Z</time>
      </trkpt>
      <trkpt lat="46.52345" lon="-0.79343">
        <ele>99.7</ele>
        <time>2012-12-29T13:21:43Z</time>
      </trkpt>
      <trkpt lat="46.52354" lon="-0.7936">
        <ele>101.1</ele>
        <time>2012-12-29T13:21:48Z</time>
      </trkpt>
      <trkpt lat="46.52357" lon="-0.79366">
        <ele>101.3</ele>
        <time>2012-12-29T13:21:50Z</time>
      </trkpt>
      <trkpt lat="46.52358" lon="-0.79373">
        <ele>101.3</ele>
        <time>2012-12-29T13:21:52Z</time>
      </trkpt>
      <trkpt lat="46.52359" lon="-0.79377">
        <ele>101.5</ele>
        <time>2012-12-29T13:21:53Z</time>
      </trkpt>
      <trkpt lat="46.52358" lon="-0.79384">
        <ele>101.7</ele>
        <time>2012-12-29T13:21:55Z</time>
      </trkpt>
      <trkpt lat="46.52357" lon="-0.79388">
        <ele>101.8</ele>
        <time>2012-12-29T13:21:56Z</time>
      </trkpt>
      <trkpt lat="46.52355" lon="-0.79395">
        <ele>102</ele>
        <time>2012-12-29T13:21:58Z</time>
      </trkpt>
      <trkpt lat="46.52356" lon="-0.79404">
        <ele>102.1</ele>
        <time>2012-12-29T13:22:00Z</time>
      </trkpt>
      <trkpt lat="46.5236" lon="-0.79409">
        <ele>102.1</ele>
        <time>2012-12-29T13:22:02Z</time>
      </trkpt>
      <trkpt lat="46.52366" lon="-0.79408">
        <ele>102.3</ele>
        <time>2012-12-29T13:22:04Z</time>
      </trkpt>
      <trkpt lat="46.52369" lon="-0.79406">
        <ele>102.4</ele>
        <time>2012-12-29T13:22:06Z</time>
      </trkpt>
      <trkpt lat="46.52375" lon="-0.79403">
        <ele>102.6</ele>
        <time>2012-12-29T13:22:09Z</time>
      </trkpt>
      <trkpt lat="46.52381" lon="-0.79402">
        <ele>102.8</ele>
        <time>2012-12-29T13:22:12Z</time>
      </trkpt>
      <trkpt lat="46.52386" lon="-0.79401">
        <ele>102.9</ele>
        <time>2012-12-29T13:22:14Z</time>
      </trkpt>
      <trkpt lat="46.52391" lon="-0.794">
        <ele>102.8</ele>
        <time>2012-12-29T13:22:16Z</time>
      </trkpt>
      <trkpt lat="46.52399" lon="-0.79398">
        <ele>102.7</ele>
        <time>2012-12-29T13:22:20Z</time>
      </trkpt>
      <trkpt lat="46.52403" lon="-0.79396">
        <ele>102.4</ele>
        <time>2012-12-29T13:22:22Z</time>
      </trkpt>
      <trkpt lat="46.52407" lon="-0.79395">
        <ele>102.1</ele>
        <time>2012-12-29T13:22:24Z</time>
      </trkpt>
      <trkpt lat="46.52421" lon="-0.79391">
        <ele>103.6</ele>
        <time>2012-12-29T13:22:30Z</time>
      </trkpt>
      <trkpt lat="46.52435" lon="-0.79385">
        <ele>103.1</ele>
        <time>2012-12-29T13:22:36Z</time>
      </trkpt>
      <trkpt lat="46.5244" lon="-0.79385">
        <ele>103.2</ele>
        <time>2012-12-29T13:22:38Z</time>
      </trkpt>
      <trkpt lat="46.52446" lon="-0.79383">
        <ele>103.5</ele>
        <time>2012-12-29T13:22:40Z</time>
      </trkpt>
      <trkpt lat="46.5246" lon="-0.79378">
        <ele>103</ele>
        <time>2012-12-29T13:22:44Z</time>
      </trkpt>
      <trkpt lat="46.52468" lon="-0.79376">
        <ele>103.1</ele>
        <time>2012-12-29T13:22:46Z</time>
      </trkpt>
      <trkpt lat="46.5248" lon="-0.79372">
        <ele>102.9</ele>
        <time>2012-12-29T13:22:49Z</time>
      </trkpt>
      <trkpt lat="46.52484" lon="-0.7937">
        <ele>102.9</ele>
        <time>2012-12-29T13:22:50Z</time>
      </trkpt>
      <trkpt lat="46.52492" lon="-0.79368">
        <ele>102.6</ele>
        <time>2012-12-29T13:22:52Z</time>
      </trkpt>
      <trkpt lat="46.525" lon="-0.79366">
        <ele>103</ele>
        <time>2012-12-29T13:22:54Z</time>
      </trkpt>
      <trkpt lat="46.52512" lon="-0.7936">
        <ele>103.3</ele>
        <time>2012-12-29T13:22:57Z</time>
      </trkpt>
      <trkpt lat="46.52521" lon="-0.79357">
        <ele>103</ele>
        <time>2012-12-29T13:22:59Z</time>
      </trkpt>
      <trkpt lat="46.5254" lon="-0.7935">
        <ele>102.7</ele>
        <time>2012-12-29T13:23:03Z</time>
      </trkpt>
      <trkpt lat="46.52559" lon="-0.79342">
        <ele>102.3</ele>
        <time>2012-12-29T13:23:07Z</time>
      </trkpt>
      <trkpt lat="46.52575" lon="-0.79337">
        <ele>101.8</ele>
        <time>2012-12-29T13:23:11Z</time>
      </trkpt>
      <trkpt lat="46.52582" lon="-0.79333">
        <ele>101.8</ele>
        <time>2012-12-29T13:23:13Z</time>
      </trkpt>
      <trkpt lat="46.52599" lon="-0.79327">
        <ele>101.7</ele>
        <time>2012-12-29T13:23:17Z</time>
      </trkpt>
      <trkpt lat="46.52612" lon="-0.79321">
        <ele>101.5</ele>
        <time>2012-12-29T13:23:20Z</time>
      </trkpt>
      <trkpt lat="46.52617" lon="-0.79319">
        <ele>101.5</ele>
        <time>2012-12-29T13:23:21Z</time>
      </trkpt>
      <trkpt lat="46.52622" lon="-0.79318">
        <ele>101.4</ele>
        <time>2012-12-29T13:23:22Z</time>
      </trkpt>
      <trkpt lat="46.52632" lon="-0.79314">
        <ele>101</ele>
        <time>2012-12-29T13:23:24Z</time>
      </trkpt>
      <trkpt lat="46.52652" lon="-0.79306">
        <ele>101.4</ele>
        <time>2012-12-29T13:23:28Z</time>
      </trkpt>
      <trkpt lat="46.52657" lon="-0.79305">
        <ele>101.7</ele>
        <time>2012-12-29T13:23:29Z</time>
      </trkpt>
      <trkpt lat="46.52675" lon="-0.79299">
        <ele>102.5</ele>
        <time>2012-12-29T13:23:33Z</time>
      </trkpt>
      <trkpt lat="46.52689" lon="-0.79294">
        <ele>102.4</ele>
        <time>2012-12-29T13:23:36Z</time>
      </trkpt>
      <trkpt lat="46.52696" lon="-0.7929">
        <ele>102.3</ele>
        <time>2012-12-29T13:23:38Z</time>
      </trkpt>
      <trkpt lat="46.52708" lon="-0.79287">
        <ele>103.5</ele>
        <time>2012-12-29T13:23:41Z</time>
      </trkpt>
      <trkpt lat="46.52723" lon="-0.79283">
        <ele>104.3</ele>
        <time>2012-12-29T13:23:45Z</time>
      </trkpt>
      <trkpt lat="46.52736" lon="-0.79278">
        <ele>104.7</ele>
        <time>2012-12-29T13:23:49Z</time>
      </trkpt>
      <trkpt lat="46.52747" lon="-0.79275">
        <ele>105.1</ele>
        <time>2012-12-29T13:23:52Z</time>
      </trkpt>
      <trkpt lat="46.52754" lon="-0.79273">
        <ele>105.3</ele>
        <time>2012-12-29T13:23:54Z</time>
      </trkpt>
      <trkpt lat="46.52758" lon="-0.79272">
        <ele>105.9</ele>
        <time>2012-12-29T13:23:55Z</time>
      </trkpt>
      <trkpt lat="46.52763" lon="-0.7927">
        <ele>106.7</ele>
        <time>2012-12-29T13:23:57Z</time>
      </trkpt>
      <trkpt lat="46.5277" lon="-0.7927">
        <ele>107.5</ele>
        <time>2012-12-29T13:24:00Z</time>
      </trkpt>
      <trkpt lat="46.52774" lon="-0.79277">
        <ele>106.7</ele>
        <time>2012-12-29T13:24:03Z</time>
      </trkpt>
      <trkpt lat="46.52776" lon="-0.79284">
        <ele>107.1</ele>
        <time>2012-12-29T13:24:05Z</time>
      </trkpt>
      <trkpt lat="46.52778" lon="-0.79293">
        <ele>106.9</ele>
        <time>2012-12-29T13:24:08Z</time>
      </trkpt>
      <trkpt lat="46.52781" lon="-0.79305">
        <ele>107.1</ele>
        <time>2012-12-29T13:24:12Z</time>
      </trkpt>
      <trkpt lat="46.52785" lon="-0.79319">
        <ele>106.3</ele>
        <time>2012-12-29T13:24:16Z</time>
      </trkpt>
      <trkpt lat="46.52792" lon="-0.7934">
        <ele>106.5</ele>
        <time>2012-12-29T13:24:21Z</time>
      </trkpt>
      <trkpt lat="46.52794" lon="-0.79351">
        <ele>106.3</ele>
        <time>2012-12-29T13:24:23Z</time>
      </trkpt>
      <trkpt lat="46.52799" lon="-0.79373">
        <ele>105.7</ele>
        <time>2012-12-29T13:24:27Z</time>
      </trkpt>
      <trkpt lat="46.52801" lon="-0.79383">
        <ele>105.6</ele>
        <time>2012-12-29T13:24:29Z</time>
      </trkpt>
      <trkpt lat="46.52804" lon="-0.79392">
        <ele>105.6</ele>
        <time>2012-12-29T13:24:31Z</time>
      </trkpt>
      <trkpt lat="46.52808" lon="-0.79412">
        <ele>106.4</ele>
        <time>2012-12-29T13:24:35Z</time>
      </trkpt>
      <trkpt lat="46.52812" lon="-0.79431">
        <ele>106.6</ele>
        <time>2012-12-29T13:24:39Z</time>
      </trkpt>
      <trkpt lat="46.52815" lon="-0.79445">
        <ele>106.3</ele>
        <time>2012-12-29T13:24:42Z</time>
      </trkpt>
      <trkpt lat="46.52817" lon="-0.79458">
        <ele>106.3</ele>
        <time>2012-12-29T13:24:45Z</time>
      </trkpt>
      <trkpt lat="46.5282" lon="-0.79467">
        <ele>106.1</ele>
        <time>2012-12-29T13:24:47Z</time>
      </trkpt>
      <trkpt lat="46.52822" lon="-0.79476">
        <ele>106</ele>
        <time>2012-12-29T13:24:49Z</time>
      </trkpt>
      <trkpt lat="46.52824" lon="-0.79486">
        <ele>106</ele>
        <time>2012-12-29T13:24:51Z</time>
      </trkpt>
      <trkpt lat="46.52825" lon="-0.79495">
        <ele>106.4</ele>
        <time>2012-12-29T13:24:53Z</time>
      </trkpt>
      <trkpt lat="46.52827" lon="-0.79504">
        <ele>106.5</ele>
        <time>2012-12-29T13:24:55Z</time>
      </trkpt>
      <trkpt lat="46.52828" lon="-0.79513">
        <ele>106.4</ele>
        <time>2012-12-29T13:24:57Z</time>
      </trkpt>
      <trkpt lat="46.5283" lon="-0.79522">
        <ele>107</ele>
        <time>2012-12-29T13:24:59Z</time>
      </trkpt>
      <trkpt lat="46.52834" lon="-0.79542">
        <ele>107.4</ele>
        <time>2012-12-29T13:25:03Z</time>
      </trkpt>
      <trkpt lat="46.52835" lon="-0.79547">
        <ele>107.4</ele>
        <time>2012-12-29T13:25:04Z</time>
      </trkpt>
      <trkpt lat="46.52837" lon="-0.79559">
        <ele>107.2</ele>
        <time>2012-12-29T13:25:06Z</time>
      </trkpt>
      <trkpt lat="46.52838" lon="-0.7957">
        <ele>107.2</ele>
        <time>2012-12-29T13:25:08Z</time>
      </trkpt>
      <trkpt lat="46.52839" lon="-0.79576">
        <ele>107.3</ele>
        <time>2012-12-29T13:25:09Z</time>
      </trkpt>
      <trkpt lat="46.52839" lon="-0.79587">
        <ele>107.5</ele>
        <time>2012-12-29T13:25:11Z</time>
      </trkpt>
      <trkpt lat="46.5284" lon="-0.79597">
        <ele>107.6</ele>
        <time>2012-12-29T13:25:13Z</time>
      </trkpt>
      <trkpt lat="46.52842" lon="-0.79607">
        <ele>107.3</ele>
        <time>2012-12-29T13:25:15Z</time>
      </trkpt>
      <trkpt lat="46.52843" lon="-0.79617">
        <ele>107.1</ele>
        <time>2012-12-29T13:25:17Z</time>
      </trkpt>
      <trkpt lat="46.52844" lon="-0.79627">
        <ele>106.8</ele>
        <time>2012-12-29T13:25:19Z</time>
      </trkpt>
      <trkpt lat="46.52846" lon="-0.79637">
        <ele>107</ele>
        <time>2012-12-29T13:25:21Z</time>
      </trkpt>
      <trkpt lat="46.52848" lon="-0.79646">
        <ele>107.3</ele>
        <time>2012-12-29T13:25:23Z</time>
      </trkpt>
      <trkpt lat="46.5285" lon="-0.79656">
        <ele>108.1</ele>
        <time>2012-12-29T13:25:25Z</time>
      </trkpt>
      <trkpt lat="46.5285" lon="-0.79667">
        <ele>108.4</ele>
        <time>2012-12-29T13:25:27Z</time>
      </trkpt>
      <trkpt lat="46.52851" lon="-0.79677">
        <ele>108.6</ele>
        <time>2012-12-29T13:25:29Z</time>
      </trkpt>
      <trkpt lat="46.52853" lon="-0.79687">
        <ele>108.7</ele>
        <time>2012-12-29T13:25:31Z</time>
      </trkpt>
      <trkpt lat="46.52856" lon="-0.79708">
        <ele>108.2</ele>
        <time>2012-12-29T13:25:35Z</time>
      </trkpt>
      <trkpt lat="46.52858" lon="-0.79719">
        <ele>108</ele>
        <time>2012-12-29T13:25:37Z</time>
      </trkpt>
      <trkpt lat="46.52862" lon="-0.79739">
        <ele>107.4</ele>
        <time>2012-12-29T13:25:41Z</time>
      </trkpt>
      <trkpt lat="46.52864" lon="-0.7975">
        <ele>107.3</ele>
        <time>2012-12-29T13:25:43Z</time>
      </trkpt>
      <trkpt lat="46.52865" lon="-0.79755">
        <ele>107.3</ele>
        <time>2012-12-29T13:25:44Z</time>
      </trkpt>
      <trkpt lat="46.52867" lon="-0.79767">
        <ele>107.2</ele>
        <time>2012-12-29T13:25:46Z</time>
      </trkpt>
      <trkpt lat="46.52868" lon="-0.79773">
        <ele>107.1</ele>
        <time>2012-12-29T13:25:47Z</time>
      </trkpt>
      <trkpt lat="46.5287" lon="-0.79786">
        <ele>106.9</ele>
        <time>2012-12-29T13:25:49Z</time>
      </trkpt>
      <trkpt lat="46.52872" lon="-0.79797">
        <ele>106.7</ele>
        <time>2012-12-29T13:25:51Z</time>
      </trkpt>
      <trkpt lat="46.52874" lon="-0.79809">
        <ele>106.9</ele>
        <time>2012-12-29T13:25:53Z</time>
      </trkpt>
      <trkpt lat="46.52877" lon="-0.7982">
        <ele>107.2</ele>
        <time>2012-12-29T13:25:55Z</time>
      </trkpt>
      <trkpt lat="46.5288" lon="-0.79831">
        <ele>106.4</ele>
        <time>2012-12-29T13:25:57Z</time>
      </trkpt>
      <trkpt lat="46.52882" lon="-0.79841">
        <ele>106</ele>
        <time>2012-12-29T13:25:59Z</time>
      </trkpt>
      <trkpt lat="46.52886" lon="-0.79847">
        <ele>105.9</ele>
        <time>2012-12-29T13:26:01Z</time>
      </trkpt>
      <trkpt lat="46.52891" lon="-0.79846">
        <ele>105.8</ele>
        <time>2012-12-29T13:26:03Z</time>
      </trkpt>
      <trkpt lat="46.52894" lon="-0.7984">
        <ele>106.3</ele>
        <time>2012-12-29T13:26:05Z</time>
      </trkpt>
      <trkpt lat="46.52902" lon="-0.79828">
        <ele>107</ele>
        <time>2012-12-29T13:26:09Z</time>
      </trkpt>
      <trkpt lat="46.52906" lon="-0.79821">
        <ele>106.6</ele>
        <time>2012-12-29T13:26:11Z</time>
      </trkpt>
      <trkpt lat="46.52912" lon="-0.79811">
        <ele>106.6</ele>
        <time>2012-12-29T13:26:14Z</time>
      </trkpt>
      <trkpt lat="46.5292" lon="-0.79795">
        <ele>108</ele>
        <time>2012-12-29T13:26:18Z</time>
      </trkpt>
      <trkpt lat="46.52923" lon="-0.79791">
        <ele>108.2</ele>
        <time>2012-12-29T13:26:19Z</time>
      </trkpt>
      <trkpt lat="46.52927" lon="-0.79782">
        <ele>108.4</ele>
        <time>2012-12-29T13:26:21Z</time>
      </trkpt>
      <trkpt lat="46.52934" lon="-0.7977">
        <ele>108.4</ele>
        <time>2012-12-29T13:26:24Z</time>
      </trkpt>
      <trkpt lat="46.52943" lon="-0.79754">
        <ele>107.9</ele>
        <time>2012-12-29T13:26:28Z</time>
      </trkpt>
      <trkpt lat="46.52946" lon="-0.7975">
        <ele>107.8</ele>
        <time>2012-12-29T13:26:29Z</time>
      </trkpt>
      <trkpt lat="46.5295" lon="-0.79741">
        <ele>108</ele>
        <time>2012-12-29T13:26:31Z</time>
      </trkpt>
      <trkpt lat="46.52955" lon="-0.79732">
        <ele>108.3</ele>
        <time>2012-12-29T13:26:33Z</time>
      </trkpt>
      <trkpt lat="46.52957" lon="-0.79728">
        <ele>108.4</ele>
        <time>2012-12-29T13:26:34Z</time>
      </trkpt>
      <trkpt lat="46.52967" lon="-0.79709">
        <ele>109.4</ele>
        <time>2012-12-29T13:26:38Z</time>
      </trkpt>
      <trkpt lat="46.52972" lon="-0.797">
        <ele>109.9</ele>
        <time>2012-12-29T13:26:40Z</time>
      </trkpt>
      <trkpt lat="46.52977" lon="-0.79691">
        <ele>110</ele>
        <time>2012-12-29T13:26:42Z</time>
      </trkpt>
      <trkpt lat="46.52979" lon="-0.79686">
        <ele>110.1</ele>
        <time>2012-12-29T13:26:43Z</time>
      </trkpt>
      <trkpt lat="46.52984" lon="-0.79677">
        <ele>110.4</ele>
        <time>2012-12-29T13:26:45Z</time>
      </trkpt>
      <trkpt lat="46.52994" lon="-0.79658">
        <ele>110.1</ele>
        <time>2012-12-29T13:26:49Z</time>
      </trkpt>
      <trkpt lat="46.53003" lon="-0.7964">
        <ele>111</ele>
        <time>2012-12-29T13:26:53Z</time>
      </trkpt>
      <trkpt lat="46.53007" lon="-0.79631">
        <ele>111.2</ele>
        <time>2012-12-29T13:26:55Z</time>
      </trkpt>
      <trkpt lat="46.53009" lon="-0.79627">
        <ele>111.3</ele>
        <time>2012-12-29T13:26:56Z</time>
      </trkpt>
      <trkpt lat="46.53018" lon="-0.7961">
        <ele>111.2</ele>
        <time>2012-12-29T13:27:00Z</time>
      </trkpt>
      <trkpt lat="46.53023" lon="-0.79602">
        <ele>110.9</ele>
        <time>2012-12-29T13:27:02Z</time>
      </trkpt>
      <trkpt lat="46.53025" lon="-0.79597">
        <ele>111.3</ele>
        <time>2012-12-29T13:27:03Z</time>
      </trkpt>
      <trkpt lat="46.53031" lon="-0.79584">
        <ele>112.1</ele>
        <time>2012-12-29T13:27:06Z</time>
      </trkpt>
      <trkpt lat="46.53035" lon="-0.79574">
        <ele>112.3</ele>
        <time>2012-12-29T13:27:08Z</time>
      </trkpt>
      <trkpt lat="46.53039" lon="-0.79565">
        <ele>113</ele>
        <time>2012-12-29T13:27:10Z</time>
      </trkpt>
      <trkpt lat="46.53042" lon="-0.7956">
        <ele>113.2</ele>
        <time>2012-12-29T13:27:11Z</time>
      </trkpt>
      <trkpt lat="46.53048" lon="-0.79546">
        <ele>113.2</ele>
        <time>2012-12-29T13:27:14Z</time>
      </trkpt>
      <trkpt lat="46.53055" lon="-0.79528">
        <ele>113.5</ele>
        <time>2012-12-29T13:27:18Z</time>
      </trkpt>
      <trkpt lat="46.53057" lon="-0.79523">
        <ele>113.5</ele>
        <time>2012-12-29T13:27:19Z</time>
      </trkpt>
      <trkpt lat="46.53063" lon="-0.79509">
        <ele>113.8</ele>
        <time>2012-12-29T13:27:22Z</time>
      </trkpt>
      <trkpt lat="46.53072" lon="-0.79492">
        <ele>114.6</ele>
        <time>2012-12-29T13:27:26Z</time>
      </trkpt>
      <trkpt lat="46.53075" lon="-0.79483">
        <ele>114.8</ele>
        <time>2012-12-29T13:27:28Z</time>
      </trkpt>
      <trkpt lat="46.53079" lon="-0.79474">
        <ele>114.9</ele>
        <time>2012-12-29T13:27:30Z</time>
      </trkpt>
      <trkpt lat="46.53082" lon="-0.7947">
        <ele>114.9</ele>
        <time>2012-12-29T13:27:31Z</time>
      </trkpt>
      <trkpt lat="46.53087" lon="-0.7947">
        <ele>114.7</ele>
        <time>2012-12-29T13:27:33Z</time>
      </trkpt>
      <trkpt lat="46.5309" lon="-0.79472">
        <ele>114.7</ele>
        <time>2012-12-29T13:27:34Z</time>
      </trkpt>
      <trkpt lat="46.53101" lon="-0.79484">
        <ele>114.2</ele>
        <time>2012-12-29T13:27:38Z</time>
      </trkpt>
      <trkpt lat="46.53107" lon="-0.79491">
        <ele>114.1</ele>
        <time>2012-12-29T13:27:40Z</time>
      </trkpt>
      <trkpt lat="46.53113" lon="-0.79497">
        <ele>113.8</ele>
        <time>2012-12-29T13:27:42Z</time>
      </trkpt>
      <trkpt lat="46.53122" lon="-0.79509">
        <ele>113.3</ele>
        <time>2012-12-29T13:27:45Z</time>
      </trkpt>
      <trkpt lat="46.53127" lon="-0.79516">
        <ele>113</ele>
        <time>2012-12-29T13:27:47Z</time>
      </trkpt>
      <trkpt lat="46.53131" lon="-0.79519">
        <ele>113.4</ele>
        <time>2012-12-29T13:27:48Z</time>
      </trkpt>
      <trkpt lat="46.53138" lon="-0.79523">
        <ele>113.8</ele>
        <time>2012-12-29T13:27:50Z</time>
      </trkpt>
      <trkpt lat="46.53142" lon="-0.79526">
        <ele>113.9</ele>
        <time>2012-12-29T13:27:51Z</time>
      </trkpt>
      <trkpt lat="46.53148" lon="-0.79534">
        <ele>114</ele>
        <time>2012-12-29T13:27:53Z</time>
      </trkpt>
      <trkpt lat="46.53152" lon="-0.79543">
        <ele>113.2</ele>
        <time>2012-12-29T13:27:55Z</time>
      </trkpt>
      <trkpt lat="46.53159" lon="-0.7955">
        <ele>112.8</ele>
        <time>2012-12-29T13:27:57Z</time>
      </trkpt>
      <trkpt lat="46.53168" lon="-0.79555">
        <ele>112.6</ele>
        <time>2012-12-29T13:27:59Z</time>
      </trkpt>
      <trkpt lat="46.53173" lon="-0.79558">
        <ele>112.5</ele>
        <time>2012-12-29T13:28:00Z</time>
      </trkpt>
      <trkpt lat="46.53177" lon="-0.7956">
        <ele>112.4</ele>
        <time>2012-12-29T13:28:01Z</time>
      </trkpt>
      <trkpt lat="46.53187" lon="-0.79563">
        <ele>112.3</ele>
        <time>2012-12-29T13:28:03Z</time>
      </trkpt>
      <trkpt lat="46.53195" lon="-0.79564">
        <ele>112.1</ele>
        <time>2012-12-29T13:28:05Z</time>
      </trkpt>
      <trkpt lat="46.53203" lon="-0.79565">
        <ele>111.9</ele>
        <time>2012-12-29T13:28:07Z</time>
      </trkpt>
      <trkpt lat="46.5321" lon="-0.79566">
        <ele>110.8</ele>
        <time>2012-12-29T13:28:18Z</time>
      </trkpt>
      <trkpt lat="46.53216" lon="-0.79566">
        <ele>110.9</ele>
        <time>2012-12-29T13:28:33Z</time>
      </trkpt>
      <trkpt lat="46.53221" lon="-0.79564">
        <ele>110.6</ele>
        <time>2012-12-29T13:28:37Z</time>
      </trkpt>
      <trkpt lat="46.53223" lon="-0.79568">
        <ele>110.8</ele>
        <time>2012-12-29T13:28:39Z</time>
      </trkpt>
      <trkpt lat="46.53232" lon="-0.79574">
        <ele>111.2</ele>
        <time>2012-12-29T13:28:43Z</time>
      </trkpt>
      <trkpt lat="46.53239" lon="-0.79575">
        <ele>111.5</ele>
        <time>2012-12-29T13:28:45Z</time>
      </trkpt>
      <trkpt lat="46.53247" lon="-0.79585">
        <ele>110.9</ele>
        <time>2012-12-29T13:28:49Z</time>
      </trkpt>
      <trkpt lat="46.53252" lon="-0.79589">
        <ele>110</ele>
        <time>2012-12-29T13:28:52Z</time>
      </trkpt>
      <trkpt lat="46.53256" lon="-0.7959">
        <ele>109.7</ele>
        <time>2012-12-29T13:28:54Z</time>
      </trkpt>
      <trkpt lat="46.53261" lon="-0.79586">
        <ele>109.4</ele>
        <time>2012-12-29T13:28:58Z</time>
      </trkpt>
      <trkpt lat="46.53266" lon="-0.79582">
        <ele>109.2</ele>
        <time>2012-12-29T13:29:00Z</time>
      </trkpt>
      <trkpt lat="46.53272" lon="-0.79579">
        <ele>109.9</ele>
        <time>2012-12-29T13:29:02Z</time>
      </trkpt>
      <trkpt lat="46.53275" lon="-0.79579">
        <ele>110.2</ele>
        <time>2012-12-29T13:29:03Z</time>
      </trkpt>
      <trkpt lat="46.53282" lon="-0.79575">
        <ele>110.2</ele>
        <time>2012-12-29T13:29:05Z</time>
      </trkpt>
      <trkpt lat="46.53285" lon="-0.79574">
        <ele>110.2</ele>
        <time>2012-12-29T13:29:06Z</time>
      </trkpt>
      <trkpt lat="46.53293" lon="-0.79574">
        <ele>110.7</ele>
        <time>2012-12-29T13:29:08Z</time>
      </trkpt>
      <trkpt lat="46.53308" lon="-0.79567">
        <ele>110.7</ele>
        <time>2012-12-29T13:29:12Z</time>
      </trkpt>
      <trkpt lat="46.53315" lon="-0.79564">
        <ele>110.2</ele>
        <time>2012-12-29T13:29:14Z</time>
      </trkpt>
      <trkpt lat="46.53322" lon="-0.79562">
        <ele>109.8</ele>
        <time>2012-12-29T13:29:16Z</time>
      </trkpt>
      <trkpt lat="46.53329" lon="-0.79558">
        <ele>110.5</ele>
        <time>2012-12-29T13:29:18Z</time>
      </trkpt>
      <trkpt lat="46.53336" lon="-0.79556">
        <ele>110.3</ele>
        <time>2012-12-29T13:29:20Z</time>
      </trkpt>
      <trkpt lat="46.53343" lon="-0.79552">
        <ele>109.7</ele>
        <time>2012-12-29T13:29:22Z</time>
      </trkpt>
      <trkpt lat="46.5335" lon="-0.79549">
        <ele>109.9</ele>
        <time>2012-12-29T13:29:24Z</time>
      </trkpt>
      <trkpt lat="46.53353" lon="-0.79547">
        <ele>109.9</ele>
        <time>2012-12-29T13:29:25Z</time>
      </trkpt>
      <trkpt lat="46.53359" lon="-0.79541">
        <ele>110.4</ele>
        <time>2012-12-29T13:29:27Z</time>
      </trkpt>
      <trkpt lat="46.53362" lon="-0.79537">
        <ele>110.8</ele>
        <time>2012-12-29T13:29:28Z</time>
      </trkpt>
      <trkpt lat="46.53368" lon="-0.79531">
        <ele>111.4</ele>
        <time>2012-12-29T13:29:30Z</time>
      </trkpt>
      <trkpt lat="46.53377" lon="-0.79527">
        <ele>111.5</ele>
        <time>2012-12-29T13:29:33Z</time>
      </trkpt>
      <trkpt lat="46.5338" lon="-0.79525">
        <ele>111.3</ele>
        <time>2012-12-29T13:29:34Z</time>
      </trkpt>
      <trkpt lat="46.53391" lon="-0.79526">
        <ele>111.1</ele>
        <time>2012-12-29T13:29:37Z</time>
      </trkpt>
      <trkpt lat="46.53398" lon="-0.79525">
        <ele>111</ele>
        <time>2012-12-29T13:29:43Z</time>
      </trkpt>
      <trkpt lat="46.53403" lon="-0.79524">
        <ele>111.3</ele>
        <time>2012-12-29T13:29:53Z</time>
      </trkpt>
      <trkpt lat="46.5341" lon="-0.79526">
        <ele>110.6</ele>
        <time>2012-12-29T13:30:10Z</time>
      </trkpt>
      <trkpt lat="46.53416" lon="-0.79522">
        <ele>111.1</ele>
        <time>2012-12-29T13:30:13Z</time>
      </trkpt>
      <trkpt lat="46.53422" lon="-0.79517">
        <ele>111.3</ele>
        <time>2012-12-29T13:30:15Z</time>
      </trkpt>
      <trkpt lat="46.53427" lon="-0.79511">
        <ele>111.4</ele>
        <time>2012-12-29T13:30:17Z</time>
      </trkpt>
      <trkpt lat="46.53433" lon="-0.79505">
        <ele>111.2</ele>
        <time>2012-12-29T13:30:19Z</time>
      </trkpt>
      <trkpt lat="46.53436" lon="-0.79502">
        <ele>111.1</ele>
        <time>2012-12-29T13:30:20Z</time>
      </trkpt>
      <trkpt lat="46.53447" lon="-0.79487">
        <ele>110.9</ele>
        <time>2012-12-29T13:30:24Z</time>
      </trkpt>
      <trkpt lat="46.53451" lon="-0.79484">
        <ele>110.8</ele>
        <time>2012-12-29T13:30:25Z</time>
      </trkpt>
      <trkpt lat="46.53457" lon="-0.79477">
        <ele>110.8</ele>
        <time>2012-12-29T13:30:27Z</time>
      </trkpt>
      <trkpt lat="46.53463" lon="-0.7947">
        <ele>110.9</ele>
        <time>2012-12-29T13:30:29Z</time>
      </trkpt>
      <trkpt lat="46.53469" lon="-0.79465">
        <ele>111.2</ele>
        <time>2012-12-29T13:30:31Z</time>
      </trkpt>
      <trkpt lat="46.53481" lon="-0.79452">
        <ele>111.2</ele>
        <time>2012-12-29T13:30:35Z</time>
      </trkpt>
      <trkpt lat="46.53486" lon="-0.79446">
        <ele>111.6</ele>
        <time>2012-12-29T13:30:37Z</time>
      </trkpt>
      <trkpt lat="46.53492" lon="-0.79441">
        <ele>112.3</ele>
        <time>2012-12-29T13:30:39Z</time>
      </trkpt>
      <trkpt lat="46.53501" lon="-0.7943">
        <ele>113.2</ele>
        <time>2012-12-29T13:30:43Z</time>
      </trkpt>
      <trkpt lat="46.53506" lon="-0.79425">
        <ele>113.4</ele>
        <time>2012-12-29T13:30:45Z</time>
      </trkpt>
      <trkpt lat="46.53513" lon="-0.79422">
        <ele>113.1</ele>
        <time>2012-12-29T13:30:47Z</time>
      </trkpt>
      <trkpt lat="46.53519" lon="-0.7942">
        <ele>113.3</ele>
        <time>2012-12-29T13:30:49Z</time>
      </trkpt>
      <trkpt lat="46.53527" lon="-0.7942">
        <ele>113.6</ele>
        <time>2012-12-29T13:30:51Z</time>
      </trkpt>
      <trkpt lat="46.53533" lon="-0.79419">
        <ele>113.5</ele>
        <time>2012-12-29T13:30:53Z</time>
      </trkpt>
      <trkpt lat="46.5354" lon="-0.79415">
        <ele>113.3</ele>
        <time>2012-12-29T13:30:55Z</time>
      </trkpt>
      <trkpt lat="46.53547" lon="-0.79413">
        <ele>113.5</ele>
        <time>2012-12-29T13:30:57Z</time>
      </trkpt>
      <trkpt lat="46.53554" lon="-0.79411">
        <ele>113</ele>
        <time>2012-12-29T13:30:59Z</time>
      </trkpt>
      <trkpt lat="46.53559" lon="-0.7941">
        <ele>112.3</ele>
        <time>2012-12-29T13:31:01Z</time>
      </trkpt>
      <trkpt lat="46.53563" lon="-0.79411">
        <ele>112.5</ele>
        <time>2012-12-29T13:31:03Z</time>
      </trkpt>
      <trkpt lat="46.53567" lon="-0.79419">
        <ele>112.8</ele>
        <time>2012-12-29T13:31:07Z</time>
      </trkpt>
      <trkpt lat="46.53568" lon="-0.79429">
        <ele>113.7</ele>
        <time>2012-12-29T13:31:10Z</time>
      </trkpt>
      <trkpt lat="46.5357" lon="-0.79447">
        <ele>114</ele>
        <time>2012-12-29T13:31:14Z</time>
      </trkpt>
      <trkpt lat="46.5357" lon="-0.79464">
        <ele>114.3</ele>
        <time>2012-12-29T13:31:18Z</time>
      </trkpt>
      <trkpt lat="46.53571" lon="-0.79474">
        <ele>114</ele>
        <time>2012-12-29T13:31:21Z</time>
      </trkpt>
      <trkpt lat="46.53572" lon="-0.79477">
        <ele>113.7</ele>
        <time>2012-12-29T13:31:22Z</time>
      </trkpt>
      <trkpt lat="46.53572" lon="-0.79484">
        <ele>113.5</ele>
        <time>2012-12-29T13:31:24Z</time>
      </trkpt>
      <trkpt lat="46.53572" lon="-0.79492">
        <ele>113.4</ele>
        <time>2012-12-29T13:31:26Z</time>
      </trkpt>
      <trkpt lat="46.53572" lon="-0.79496">
        <ele>113.3</ele>
        <time>2012-12-29T13:31:27Z</time>
      </trkpt>
      <trkpt lat="46.53573" lon="-0.79506">
        <ele>113.1</ele>
        <time>2012-12-29T13:31:29Z</time>
      </trkpt>
      <trkpt lat="46.53573" lon="-0.79511">
        <ele>113.1</ele>
        <time>2012-12-29T13:31:30Z</time>
      </trkpt>
      <trkpt lat="46.53572" lon="-0.7952">
        <ele>113.4</ele>
        <time>2012-12-29T13:31:32Z</time>
      </trkpt>
      <trkpt lat="46.53573" lon="-0.7953">
        <ele>113.2</ele>
        <time>2012-12-29T13:31:34Z</time>
      </trkpt>
      <trkpt lat="46.53575" lon="-0.79539">
        <ele>112.9</ele>
        <time>2012-12-29T13:31:36Z</time>
      </trkpt>
      <trkpt lat="46.53574" lon="-0.79548">
        <ele>113.2</ele>
        <time>2012-12-29T13:31:38Z</time>
      </trkpt>
      <trkpt lat="46.53574" lon="-0.79558">
        <ele>113.3</ele>
        <time>2012-12-29T13:31:40Z</time>
      </trkpt>
      <trkpt lat="46.53574" lon="-0.79568">
        <ele>113.5</ele>
        <time>2012-12-29T13:31:42Z</time>
      </trkpt>
      <trkpt lat="46.53574" lon="-0.79578">
        <ele>113.4</ele>
        <time>2012-12-29T13:31:44Z</time>
      </trkpt>
      <trkpt lat="46.53575" lon="-0.79583">
        <ele>113.3</ele>
        <time>2012-12-29T13:31:45Z</time>
      </trkpt>
      <trkpt lat="46.53575" lon="-0.79593">
        <ele>113.1</ele>
        <time>2012-12-29T13:31:47Z</time>
      </trkpt>
      <trkpt lat="46.53576" lon="-0.79602">
        <ele>112.9</ele>
        <time>2012-12-29T13:31:49Z</time>
      </trkpt>
      <trkpt lat="46.53576" lon="-0.79612">
        <ele>112.8</ele>
        <time>2012-12-29T13:31:51Z</time>
      </trkpt>
      <trkpt lat="46.53576" lon="-0.79618">
        <ele>112.8</ele>
        <time>2012-12-29T13:31:52Z</time>
      </trkpt>
      <trkpt lat="46.53575" lon="-0.79643">
        <ele>111.9</ele>
        <time>2012-12-29T13:31:56Z</time>
      </trkpt>
      <trkpt lat="46.53573" lon="-0.79655">
        <ele>111.7</ele>
        <time>2012-12-29T13:31:58Z</time>
      </trkpt>
      <trkpt lat="46.53573" lon="-0.79661">
        <ele>111.7</ele>
        <time>2012-12-29T13:31:59Z</time>
      </trkpt>
      <trkpt lat="46.53574" lon="-0.79672">
        <ele>110.9</ele>
        <time>2012-12-29T13:32:01Z</time>
      </trkpt>
      <trkpt lat="46.53573" lon="-0.79682">
        <ele>111.2</ele>
        <time>2012-12-29T13:32:05Z</time>
      </trkpt>
      <trkpt lat="46.5357" lon="-0.79692">
        <ele>112.3</ele>
        <time>2012-12-29T13:32:12Z</time>
      </trkpt>
      <trkpt lat="46.5357" lon="-0.79698">
        <ele>113.2</ele>
        <time>2012-12-29T13:32:17Z</time>
      </trkpt>
      <trkpt lat="46.53583" lon="-0.79702">
        <ele>112</ele>
        <time>2012-12-29T13:32:44Z</time>
      </trkpt>
      <trkpt lat="46.53589" lon="-0.79702">
        <ele>111.8</ele>
        <time>2012-12-29T13:32:46Z</time>
      </trkpt>
      <trkpt lat="46.53596" lon="-0.79703">
        <ele>111.8</ele>
        <time>2012-12-29T13:32:48Z</time>
      </trkpt>
      <trkpt lat="46.53603" lon="-0.79702">
        <ele>111.9</ele>
        <time>2012-12-29T13:32:50Z</time>
      </trkpt>
      <trkpt lat="46.5361" lon="-0.79703">
        <ele>112</ele>
        <time>2012-12-29T13:32:52Z</time>
      </trkpt>
      <trkpt lat="46.53624" lon="-0.79705">
        <ele>112.8</ele>
        <time>2012-12-29T13:32:56Z</time>
      </trkpt>
      <trkpt lat="46.53628" lon="-0.79706">
        <ele>113.5</ele>
        <time>2012-12-29T13:33:00Z</time>
      </trkpt>
      <trkpt lat="46.53631" lon="-0.79717">
        <ele>114.3</ele>
        <time>2012-12-29T13:33:10Z</time>
      </trkpt>
      <trkpt lat="46.53631" lon="-0.79722">
        <ele>114.7</ele>
        <time>2012-12-29T13:33:12Z</time>
      </trkpt>
      <trkpt lat="46.53632" lon="-0.79733">
        <ele>113.9</ele>
        <time>2012-12-29T13:33:17Z</time>
      </trkpt>
      <trkpt lat="46.53632" lon="-0.79739">
        <ele>113.6</ele>
        <time>2012-12-29T13:33:19Z</time>
      </trkpt>
      <trkpt lat="46.53632" lon="-0.7976">
        <ele>114.1</ele>
        <time>2012-12-29T13:33:24Z</time>
      </trkpt>
      <trkpt lat="46.53631" lon="-0.79773">
        <ele>113.8</ele>
        <time>2012-12-29T13:33:27Z</time>
      </trkpt>
      <trkpt lat="46.53632" lon="-0.79783">
        <ele>113.6</ele>
        <time>2012-12-29T13:33:29Z</time>
      </trkpt>
      <trkpt lat="46.53631" lon="-0.79794">
        <ele>113.5</ele>
        <time>2012-12-29T13:33:31Z</time>
      </trkpt>
      <trkpt lat="46.5363" lon="-0.79812">
        <ele>114.3</ele>
        <time>2012-12-29T13:33:34Z</time>
      </trkpt>
      <trkpt lat="46.53629" lon="-0.79835">
        <ele>114</ele>
        <time>2012-12-29T13:33:38Z</time>
      </trkpt>
      <trkpt lat="46.53628" lon="-0.79852">
        <ele>114.7</ele>
        <time>2012-12-29T13:33:41Z</time>
      </trkpt>
      <trkpt lat="46.53629" lon="-0.79864">
        <ele>114.3</ele>
        <time>2012-12-29T13:33:43Z</time>
      </trkpt>
      <trkpt lat="46.53628" lon="-0.79869">
        <ele>114.2</ele>
        <time>2012-12-29T13:33:44Z</time>
      </trkpt>
      <trkpt lat="46.53627" lon="-0.79881">
        <ele>114.2</ele>
        <time>2012-12-29T13:33:46Z</time>
      </trkpt>
      <trkpt lat="46.53627" lon="-0.79888">
        <ele>114.2</ele>
        <time>2012-12-29T13:33:47Z</time>
      </trkpt>
      <trkpt lat="46.53627" lon="-0.79897">
        <ele>113.3</ele>
        <time>2012-12-29T13:33:49Z</time>
      </trkpt>
      <trkpt lat="46.53627" lon="-0.79916">
        <ele>113.1</ele>
        <time>2012-12-29T13:33:59Z</time>
      </trkpt>
      <trkpt lat="46.53627" lon="-0.79923">
        <ele>113.3</ele>
        <time>2012-12-29T13:34:03Z</time>
      </trkpt>
      <trkpt lat="46.53625" lon="-0.79931">
        <ele>113.4</ele>
        <time>2012-12-29T13:34:05Z</time>
      </trkpt>
      <trkpt lat="46.53624" lon="-0.79942">
        <ele>113.3</ele>
        <time>2012-12-29T13:34:07Z</time>
      </trkpt>
      <trkpt lat="46.53622" lon="-0.79953">
        <ele>113.2</ele>
        <time>2012-12-29T13:34:09Z</time>
      </trkpt>
      <trkpt lat="46.53622" lon="-0.79959">
        <ele>113.2</ele>
        <time>2012-12-29T13:34:10Z</time>
      </trkpt>
      <trkpt lat="46.5362" lon="-0.79981">
        <ele>113</ele>
        <time>2012-12-29T13:34:14Z</time>
      </trkpt>
      <trkpt lat="46.53619" lon="-0.79992">
        <ele>113.2</ele>
        <time>2012-12-29T13:34:16Z</time>
      </trkpt>
      <trkpt lat="46.53618" lon="-0.80005">
        <ele>113.1</ele>
        <time>2012-12-29T13:34:18Z</time>
      </trkpt>
      <trkpt lat="46.53618" lon="-0.80019">
        <ele>112.8</ele>
        <time>2012-12-29T13:34:20Z</time>
      </trkpt>
      <trkpt lat="46.53617" lon="-0.80042">
        <ele>112.9</ele>
        <time>2012-12-29T13:34:23Z</time>
      </trkpt>
      <trkpt lat="46.53617" lon="-0.8005">
        <ele>113.2</ele>
        <time>2012-12-29T13:34:24Z</time>
      </trkpt>
      <trkpt lat="46.53616" lon="-0.80065">
        <ele>113.6</ele>
        <time>2012-12-29T13:34:26Z</time>
      </trkpt>
      <trkpt lat="46.53615" lon="-0.80081">
        <ele>112.9</ele>
        <time>2012-12-29T13:34:28Z</time>
      </trkpt>
      <trkpt lat="46.53615" lon="-0.80095">
        <ele>112.2</ele>
        <time>2012-12-29T13:34:30Z</time>
      </trkpt>
      <trkpt lat="46.5362" lon="-0.80103">
        <ele>110.2</ele>
        <time>2012-12-29T13:34:34Z</time>
      </trkpt>
      <trkpt lat="46.53633" lon="-0.80105">
        <ele>109.9</ele>
        <time>2012-12-29T13:34:40Z</time>
      </trkpt>
      <trkpt lat="46.53636" lon="-0.80107">
        <ele>110.1</ele>
        <time>2012-12-29T13:34:41Z</time>
      </trkpt>
      <trkpt lat="46.53641" lon="-0.80108">
        <ele>110.9</ele>
        <time>2012-12-29T13:34:43Z</time>
      </trkpt>
      <trkpt lat="46.53645" lon="-0.80109">
        <ele>111.7</ele>
        <time>2012-12-29T13:34:45Z</time>
      </trkpt>
      <trkpt lat="46.53656" lon="-0.80111">
        <ele>111.1</ele>
        <time>2012-12-29T13:34:49Z</time>
      </trkpt>
      <trkpt lat="46.53664" lon="-0.80114">
        <ele>110.6</ele>
        <time>2012-12-29T13:34:56Z</time>
      </trkpt>
      <trkpt lat="46.5367" lon="-0.8011">
        <ele>109.1</ele>
        <time>2012-12-29T13:35:30Z</time>
      </trkpt>
      <trkpt lat="46.53667" lon="-0.80115">
        <ele>110</ele>
        <time>2012-12-29T13:37:43Z</time>
      </trkpt>
      <trkpt lat="46.53666" lon="-0.80108">
        <ele>109.1</ele>
        <time>2012-12-29T13:40:11Z</time>
      </trkpt>
      <trkpt lat="46.53666" lon="-0.80109">
        <ele>108.7</ele>
        <time>2012-12-29T13:41:19Z</time>
      </trkpt>
      <trkpt lat="46.53668" lon="-0.80115">
        <ele>109.6</ele>
        <time>2012-12-29T13:42:28Z</time>
      </trkpt>
      <trkpt lat="46.53673" lon="-0.80121">
        <ele>110.4</ele>
        <time>2012-12-29T13:42:47Z</time>
      </trkpt>
      <trkpt lat="46.53681" lon="-0.80121">
        <ele>109.7</ele>
        <time>2012-12-29T13:42:51Z</time>
      </trkpt>
      <trkpt lat="46.53685" lon="-0.80121">
        <ele>109.8</ele>
        <time>2012-12-29T13:42:53Z</time>
      </trkpt>
      <trkpt lat="46.53692" lon="-0.80122">
        <ele>110.6</ele>
        <time>2012-12-29T13:42:56Z</time>
      </trkpt>
      <trkpt lat="46.53699" lon="-0.80122">
        <ele>110.7</ele>
        <time>2012-12-29T13:42:59Z</time>
      </trkpt>
      <trkpt lat="46.53704" lon="-0.80123">
        <ele>110.5</ele>
        <time>2012-12-29T13:43:01Z</time>
      </trkpt>
      <trkpt lat="46.53709" lon="-0.80124">
        <ele>110.3</ele>
        <time>2012-12-29T13:43:03Z</time>
      </trkpt>
      <trkpt lat="46.53714" lon="-0.80125">
        <ele>110.8</ele>
        <time>2012-12-29T13:43:05Z</time>
      </trkpt>
      <trkpt lat="46.53724" lon="-0.80125">
        <ele>111.2</ele>
        <time>2012-12-29T13:43:09Z</time>
      </trkpt>
      <trkpt lat="46.53732" lon="-0.80125">
        <ele>112.2</ele>
        <time>2012-12-29T13:43:12Z</time>
      </trkpt>
      <trkpt lat="46.53737" lon="-0.80126">
        <ele>112.4</ele>
        <time>2012-12-29T13:43:14Z</time>
      </trkpt>
      <trkpt lat="46.53752" lon="-0.80128">
        <ele>112.7</ele>
        <time>2012-12-29T13:43:19Z</time>
      </trkpt>
      <trkpt lat="46.53755" lon="-0.80129">
        <ele>112.3</ele>
        <time>2012-12-29T13:43:20Z</time>
      </trkpt>
      <trkpt lat="46.53761" lon="-0.8013">
        <ele>111.9</ele>
        <time>2012-12-29T13:43:22Z</time>
      </trkpt>
      <trkpt lat="46.53776" lon="-0.80131">
        <ele>112.5</ele>
        <time>2012-12-29T13:43:27Z</time>
      </trkpt>
      <trkpt lat="46.53791" lon="-0.80131">
        <ele>112.8</ele>
        <time>2012-12-29T13:43:32Z</time>
      </trkpt>
      <trkpt lat="46.53804" lon="-0.80132">
        <ele>113.3</ele>
        <time>2012-12-29T13:43:36Z</time>
      </trkpt>
      <trkpt lat="46.53813" lon="-0.80132">
        <ele>112.9</ele>
        <time>2012-12-29T13:43:39Z</time>
      </trkpt>
      <trkpt lat="46.5382" lon="-0.80133">
        <ele>112.5</ele>
        <time>2012-12-29T13:43:41Z</time>
      </trkpt>
      <trkpt lat="46.53833" lon="-0.80135">
        <ele>111.9</ele>
        <time>2012-12-29T13:43:45Z</time>
      </trkpt>
      <trkpt lat="46.53847" lon="-0.80135">
        <ele>111.6</ele>
        <time>2012-12-29T13:43:49Z</time>
      </trkpt>
      <trkpt lat="46.53851" lon="-0.80134">
        <ele>111.5</ele>
        <time>2012-12-29T13:43:50Z</time>
      </trkpt>
      <trkpt lat="46.53859" lon="-0.80135">
        <ele>110.9</ele>
        <time>2012-12-29T13:43:52Z</time>
      </trkpt>
      <trkpt lat="46.53862" lon="-0.80136">
        <ele>110.5</ele>
        <time>2012-12-29T13:43:53Z</time>
      </trkpt>
      <trkpt lat="46.53878" lon="-0.80137">
        <ele>110.2</ele>
        <time>2012-12-29T13:43:58Z</time>
      </trkpt>
      <trkpt lat="46.53883" lon="-0.80137">
        <ele>110.3</ele>
        <time>2012-12-29T13:44:00Z</time>
      </trkpt>
      <trkpt lat="46.53896" lon="-0.80138">
        <ele>110.2</ele>
        <time>2012-12-29T13:44:05Z</time>
      </trkpt>
      <trkpt lat="46.53904" lon="-0.80138">
        <ele>110</ele>
        <time>2012-12-29T13:44:08Z</time>
      </trkpt>
      <trkpt lat="46.53909" lon="-0.80139">
        <ele>109.9</ele>
        <time>2012-12-29T13:44:10Z</time>
      </trkpt>
      <trkpt lat="46.53917" lon="-0.80139">
        <ele>110.9</ele>
        <time>2012-12-29T13:44:13Z</time>
      </trkpt>
      <trkpt lat="46.53923" lon="-0.8014">
        <ele>111.1</ele>
        <time>2012-12-29T13:44:15Z</time>
      </trkpt>
      <trkpt lat="46.53931" lon="-0.8014">
        <ele>111.1</ele>
        <time>2012-12-29T13:44:17Z</time>
      </trkpt>
      <trkpt lat="46.53938" lon="-0.80141">
        <ele>111</ele>
        <time>2012-12-29T13:44:19Z</time>
      </trkpt>
      <trkpt lat="46.53951" lon="-0.80142">
        <ele>110</ele>
        <time>2012-12-29T13:44:22Z</time>
      </trkpt>
      <trkpt lat="46.53955" lon="-0.80143">
        <ele>109.7</ele>
        <time>2012-12-29T13:44:23Z</time>
      </trkpt>
      <trkpt lat="46.53963" lon="-0.80143">
        <ele>109.3</ele>
        <time>2012-12-29T13:44:25Z</time>
      </trkpt>
      <trkpt lat="46.53972" lon="-0.80144">
        <ele>109.3</ele>
        <time>2012-12-29T13:44:27Z</time>
      </trkpt>
      <trkpt lat="46.53976" lon="-0.80144">
        <ele>109.5</ele>
        <time>2012-12-29T13:44:28Z</time>
      </trkpt>
      <trkpt lat="46.53985" lon="-0.80145">
        <ele>109.3</ele>
        <time>2012-12-29T13:44:30Z</time>
      </trkpt>
      <trkpt lat="46.53994" lon="-0.80145">
        <ele>109</ele>
        <time>2012-12-29T13:44:32Z</time>
      </trkpt>
      <trkpt lat="46.54003" lon="-0.80144">
        <ele>108.1</ele>
        <time>2012-12-29T13:44:34Z</time>
      </trkpt>
      <trkpt lat="46.54012" lon="-0.80143">
        <ele>107.5</ele>
        <time>2012-12-29T13:44:36Z</time>
      </trkpt>
      <trkpt lat="46.54019" lon="-0.80144">
        <ele>107.1</ele>
        <time>2012-12-29T13:44:38Z</time>
      </trkpt>
      <trkpt lat="46.54025" lon="-0.80142">
        <ele>106.1</ele>
        <time>2012-12-29T13:44:41Z</time>
      </trkpt>
      <trkpt lat="46.54039" lon="-0.80143">
        <ele>106.9</ele>
        <time>2012-12-29T13:44:49Z</time>
      </trkpt>
      <trkpt lat="46.54043" lon="-0.80143">
        <ele>107.7</ele>
        <time>2012-12-29T13:44:51Z</time>
      </trkpt>
      <trkpt lat="46.54051" lon="-0.80143">
        <ele>108</ele>
        <time>2012-12-29T13:44:55Z</time>
      </trkpt>
      <trkpt lat="46.54058" lon="-0.80144">
        <ele>108.3</ele>
        <time>2012-12-29T13:44:59Z</time>
      </trkpt>
      <trkpt lat="46.54066" lon="-0.80146">
        <ele>108.8</ele>
        <time>2012-12-29T13:45:03Z</time>
      </trkpt>
      <trkpt lat="46.54074" lon="-0.80146">
        <ele>108.9</ele>
        <time>2012-12-29T13:45:07Z</time>
      </trkpt>
      <trkpt lat="46.54082" lon="-0.80147">
        <ele>109.2</ele>
        <time>2012-12-29T13:45:11Z</time>
      </trkpt>
      <trkpt lat="46.54087" lon="-0.80146">
        <ele>109.2</ele>
        <time>2012-12-29T13:45:13Z</time>
      </trkpt>
      <trkpt lat="46.54092" lon="-0.80147">
        <ele>109.1</ele>
        <time>2012-12-29T13:45:15Z</time>
      </trkpt>
      <trkpt lat="46.54099" lon="-0.80148">
        <ele>109.3</ele>
        <time>2012-12-29T13:45:18Z</time>
      </trkpt>
      <trkpt lat="46.54103" lon="-0.80149">
        <ele>109.7</ele>
        <time>2012-12-29T13:45:20Z</time>
      </trkpt>
      <trkpt lat="46.54108" lon="-0.80151">
        <ele>110.4</ele>
        <time>2012-12-29T13:45:22Z</time>
      </trkpt>
      <trkpt lat="46.54121" lon="-0.80151">
        <ele>111.1</ele>
        <time>2012-12-29T13:45:28Z</time>
      </trkpt>
      <trkpt lat="46.54126" lon="-0.80152">
        <ele>111.5</ele>
        <time>2012-12-29T13:45:30Z</time>
      </trkpt>
      <trkpt lat="46.54132" lon="-0.80151">
        <ele>111.2</ele>
        <time>2012-12-29T13:45:33Z</time>
      </trkpt>
      <trkpt lat="46.5414" lon="-0.80152">
        <ele>110.9</ele>
        <time>2012-12-29T13:45:37Z</time>
      </trkpt>
      <trkpt lat="46.54142" lon="-0.80152">
        <ele>110.9</ele>
        <time>2012-12-29T13:45:38Z</time>
      </trkpt>
      <trkpt lat="46.54147" lon="-0.80153">
        <ele>110.4</ele>
        <time>2012-12-29T13:45:40Z</time>
      </trkpt>
      <trkpt lat="46.54152" lon="-0.80153">
        <ele>109.8</ele>
        <time>2012-12-29T13:45:42Z</time>
      </trkpt>
      <trkpt lat="46.54158" lon="-0.80153">
        <ele>109.6</ele>
        <time>2012-12-29T13:45:44Z</time>
      </trkpt>
      <trkpt lat="46.54164" lon="-0.80153">
        <ele>110</ele>
        <time>2012-12-29T13:45:47Z</time>
      </trkpt>
      <trkpt lat="46.5417" lon="-0.80151">
        <ele>110.6</ele>
        <time>2012-12-29T13:45:49Z</time>
      </trkpt>
      <trkpt lat="46.54175" lon="-0.80145">
        <ele>110.6</ele>
        <time>2012-12-29T13:45:51Z</time>
      </trkpt>
      <trkpt lat="46.54182" lon="-0.80131">
        <ele>110.1</ele>
        <time>2012-12-29T13:45:58Z</time>
      </trkpt>
      <trkpt lat="46.54188" lon="-0.80113">
        <ele>110.2</ele>
        <time>2012-12-29T13:46:06Z</time>
      </trkpt>
      <trkpt lat="46.54191" lon="-0.80102">
        <ele>111.4</ele>
        <time>2012-12-29T13:46:11Z</time>
      </trkpt>
      <trkpt lat="46.54192" lon="-0.80092">
        <ele>111.5</ele>
        <time>2012-12-29T13:46:17Z</time>
      </trkpt>
      <trkpt lat="46.54194" lon="-0.80083">
        <ele>111.6</ele>
        <time>2012-12-29T13:46:20Z</time>
      </trkpt>
      <trkpt lat="46.54194" lon="-0.80075">
        <ele>111.7</ele>
        <time>2012-12-29T13:46:22Z</time>
      </trkpt>
      <trkpt lat="46.54194" lon="-0.80067">
        <ele>111.8</ele>
        <time>2012-12-29T13:46:24Z</time>
      </trkpt>
      <trkpt lat="46.54194" lon="-0.80063">
        <ele>112</ele>
        <time>2012-12-29T13:46:25Z</time>
      </trkpt>
      <trkpt lat="46.54195" lon="-0.80054">
        <ele>112.4</ele>
        <time>2012-12-29T13:46:27Z</time>
      </trkpt>
      <trkpt lat="46.54195" lon="-0.80045">
        <ele>113.1</ele>
        <time>2012-12-29T13:46:29Z</time>
      </trkpt>
      <trkpt lat="46.54196" lon="-0.80037">
        <ele>113.5</ele>
        <time>2012-12-29T13:46:31Z</time>
      </trkpt>
      <trkpt lat="46.54197" lon="-0.80029">
        <ele>113.7</ele>
        <time>2012-12-29T13:46:33Z</time>
      </trkpt>
      <trkpt lat="46.54199" lon="-0.80011">
        <ele>114.1</ele>
        <time>2012-12-29T13:46:37Z</time>
      </trkpt>
      <trkpt lat="46.54199" lon="-0.80003">
        <ele>113.5</ele>
        <time>2012-12-29T13:46:39Z</time>
      </trkpt>
      <trkpt lat="46.54201" lon="-0.79994">
        <ele>113.2</ele>
        <time>2012-12-29T13:46:41Z</time>
      </trkpt>
      <trkpt lat="46.54201" lon="-0.7998">
        <ele>112.8</ele>
        <time>2012-12-29T13:46:44Z</time>
      </trkpt>
      <trkpt lat="46.54202" lon="-0.79962">
        <ele>113</ele>
        <time>2012-12-29T13:46:48Z</time>
      </trkpt>
      <trkpt lat="46.54202" lon="-0.79953">
        <ele>113.1</ele>
        <time>2012-12-29T13:46:50Z</time>
      </trkpt>
      <trkpt lat="46.54202" lon="-0.79949">
        <ele>113.2</ele>
        <time>2012-12-29T13:46:51Z</time>
      </trkpt>
      <trkpt lat="46.54203" lon="-0.7993">
        <ele>112.4</ele>
        <time>2012-12-29T13:46:55Z</time>
      </trkpt>
      <trkpt lat="46.54203" lon="-0.79921">
        <ele>112.7</ele>
        <time>2012-12-29T13:46:57Z</time>
      </trkpt>
      <trkpt lat="46.54203" lon="-0.79917">
        <ele>113</ele>
        <time>2012-12-29T13:46:58Z</time>
      </trkpt>
      <trkpt lat="46.54204" lon="-0.79899">
        <ele>113.3</ele>
        <time>2012-12-29T13:47:02Z</time>
      </trkpt>
      <trkpt lat="46.54203" lon="-0.79886">
        <ele>113.4</ele>
        <time>2012-12-29T13:47:05Z</time>
      </trkpt>
      <trkpt lat="46.54203" lon="-0.79877">
        <ele>113</ele>
        <time>2012-12-29T13:47:07Z</time>
      </trkpt>
      <trkpt lat="46.54204" lon="-0.79868">
        <ele>112.7</ele>
        <time>2012-12-29T13:47:09Z</time>
      </trkpt>
      <trkpt lat="46.54204" lon="-0.79854">
        <ele>112.8</ele>
        <time>2012-12-29T13:47:12Z</time>
      </trkpt>
      <trkpt lat="46.54204" lon="-0.7984">
        <ele>114</ele>
        <time>2012-12-29T13:47:15Z</time>
      </trkpt>
      <trkpt lat="46.54205" lon="-0.79831">
        <ele>114.2</ele>
        <time>2012-12-29T13:47:17Z</time>
      </trkpt>
      <trkpt lat="46.54205" lon="-0.79823">
        <ele>114.5</ele>
        <time>2012-12-29T13:47:19Z</time>
      </trkpt>
      <trkpt lat="46.54205" lon="-0.79815">
        <ele>114.8</ele>
        <time>2012-12-29T13:47:21Z</time>
      </trkpt>
      <trkpt lat="46.54205" lon="-0.79807">
        <ele>114</ele>
        <time>2012-12-29T13:47:23Z</time>
      </trkpt>
      <trkpt lat="46.54204" lon="-0.798">
        <ele>113.9</ele>
        <time>2012-12-29T13:47:25Z</time>
      </trkpt>
      <trkpt lat="46.54205" lon="-0.79793">
        <ele>114</ele>
        <time>2012-12-29T13:47:27Z</time>
      </trkpt>
      <trkpt lat="46.54206" lon="-0.79789">
        <ele>114.1</ele>
        <time>2012-12-29T13:47:28Z</time>
      </trkpt>
      <trkpt lat="46.54206" lon="-0.7978">
        <ele>113.9</ele>
        <time>2012-12-29T13:47:30Z</time>
      </trkpt>
      <trkpt lat="46.54206" lon="-0.79772">
        <ele>113.6</ele>
        <time>2012-12-29T13:47:32Z</time>
      </trkpt>
      <trkpt lat="46.54206" lon="-0.79765">
        <ele>113.4</ele>
        <time>2012-12-29T13:47:34Z</time>
      </trkpt>
      <trkpt lat="46.54205" lon="-0.79758">
        <ele>113.1</ele>
        <time>2012-12-29T13:47:36Z</time>
      </trkpt>
      <trkpt lat="46.54199" lon="-0.79752">
        <ele>113.1</ele>
        <time>2012-12-29T13:47:40Z</time>
      </trkpt>
      <trkpt lat="46.5419" lon="-0.79751">
        <ele>113.3</ele>
        <time>2012-12-29T13:47:44Z</time>
      </trkpt>
      <trkpt lat="46.54182" lon="-0.79752">
        <ele>113</ele>
        <time>2012-12-29T13:47:47Z</time>
      </trkpt>
      <trkpt lat="46.54169" lon="-0.79749">
        <ele>113.6</ele>
        <time>2012-12-29T13:47:52Z</time>
      </trkpt>
      <trkpt lat="46.54164" lon="-0.79749">
        <ele>113.8</ele>
        <time>2012-12-29T13:47:54Z</time>
      </trkpt>
      <trkpt lat="46.54163" lon="-0.79747">
        <ele>113</ele>
        <time>2012-12-29T13:48:05Z</time>
      </trkpt>
      <trkpt lat="46.54175" lon="-0.79748">
        <ele>112.6</ele>
        <time>2012-12-29T13:48:10Z</time>
      </trkpt>
      <trkpt lat="46.54179" lon="-0.79749">
        <ele>113</ele>
        <time>2012-12-29T13:48:12Z</time>
      </trkpt>
      <trkpt lat="46.54186" lon="-0.79748">
        <ele>112</ele>
        <time>2012-12-29T13:48:19Z</time>
      </trkpt>
      <trkpt lat="46.54189" lon="-0.79749">
        <ele>112.5</ele>
        <time>2012-12-29T13:48:21Z</time>
      </trkpt>
      <trkpt lat="46.54184" lon="-0.79748">
        <ele>111.4</ele>
        <time>2012-12-29T13:48:28Z</time>
      </trkpt>
      <trkpt lat="46.54173" lon="-0.79747">
        <ele>111.8</ele>
        <time>2012-12-29T13:48:32Z</time>
      </trkpt>
      <trkpt lat="46.54169" lon="-0.79747">
        <ele>112</ele>
        <time>2012-12-29T13:48:33Z</time>
      </trkpt>
      <trkpt lat="46.54162" lon="-0.79746">
        <ele>112.3</ele>
        <time>2012-12-29T13:48:35Z</time>
      </trkpt>
      <trkpt lat="46.54155" lon="-0.79745">
        <ele>112.3</ele>
        <time>2012-12-29T13:48:37Z</time>
      </trkpt>
      <trkpt lat="46.54151" lon="-0.79745">
        <ele>112.3</ele>
        <time>2012-12-29T13:48:38Z</time>
      </trkpt>
      <trkpt lat="46.54138" lon="-0.79744">
        <ele>111.7</ele>
        <time>2012-12-29T13:48:41Z</time>
      </trkpt>
      <trkpt lat="46.5412" lon="-0.79743">
        <ele>111.3</ele>
        <time>2012-12-29T13:48:45Z</time>
      </trkpt>
      <trkpt lat="46.54107" lon="-0.79743">
        <ele>111.7</ele>
        <time>2012-12-29T13:48:48Z</time>
      </trkpt>
      <trkpt lat="46.54093" lon="-0.79742">
        <ele>112.3</ele>
        <time>2012-12-29T13:48:51Z</time>
      </trkpt>
      <trkpt lat="46.54084" lon="-0.79741">
        <ele>111.9</ele>
        <time>2012-12-29T13:48:53Z</time>
      </trkpt>
      <trkpt lat="46.54066" lon="-0.7974">
        <ele>111.9</ele>
        <time>2012-12-29T13:48:57Z</time>
      </trkpt>
      <trkpt lat="46.54057" lon="-0.79739">
        <ele>112.2</ele>
        <time>2012-12-29T13:48:59Z</time>
      </trkpt>
      <trkpt lat="46.54042" lon="-0.79738">
        <ele>112.6</ele>
        <time>2012-12-29T13:49:02Z</time>
      </trkpt>
      <trkpt lat="46.54037" lon="-0.79737">
        <ele>112.7</ele>
        <time>2012-12-29T13:49:03Z</time>
      </trkpt>
      <trkpt lat="46.54032" lon="-0.79737">
        <ele>112.8</ele>
        <time>2012-12-29T13:49:04Z</time>
      </trkpt>
      <trkpt lat="46.54021" lon="-0.79737">
        <ele>113</ele>
        <time>2012-12-29T13:49:06Z</time>
      </trkpt>
      <trkpt lat="46.54005" lon="-0.79736">
        <ele>113.8</ele>
        <time>2012-12-29T13:49:09Z</time>
      </trkpt>
      <trkpt lat="46.54" lon="-0.79735">
        <ele>114.1</ele>
        <time>2012-12-29T13:49:10Z</time>
      </trkpt>
      <trkpt lat="46.5399" lon="-0.79735">
        <ele>114</ele>
        <time>2012-12-29T13:49:12Z</time>
      </trkpt>
      <trkpt lat="46.53984" lon="-0.79734">
        <ele>114</ele>
        <time>2012-12-29T13:49:13Z</time>
      </trkpt>
      <trkpt lat="46.53974" lon="-0.79734">
        <ele>114.7</ele>
        <time>2012-12-29T13:49:15Z</time>
      </trkpt>
      <trkpt lat="46.53954" lon="-0.79733">
        <ele>115.4</ele>
        <time>2012-12-29T13:49:19Z</time>
      </trkpt>
      <trkpt lat="46.53949" lon="-0.79733">
        <ele>115.6</ele>
        <time>2012-12-29T13:49:20Z</time>
      </trkpt>
      <trkpt lat="46.53944" lon="-0.79732">
        <ele>115.9</ele>
        <time>2012-12-29T13:49:21Z</time>
      </trkpt>
      <trkpt lat="46.53924" lon="-0.7973">
        <ele>115.8</ele>
        <time>2012-12-29T13:49:25Z</time>
      </trkpt>
      <trkpt lat="46.53909" lon="-0.79729">
        <ele>116.1</ele>
        <time>2012-12-29T13:49:28Z</time>
      </trkpt>
      <trkpt lat="46.539" lon="-0.79728">
        <ele>116.3</ele>
        <time>2012-12-29T13:49:30Z</time>
      </trkpt>
      <trkpt lat="46.53886" lon="-0.79728">
        <ele>116.6</ele>
        <time>2012-12-29T13:49:33Z</time>
      </trkpt>
      <trkpt lat="46.53878" lon="-0.79727">
        <ele>116.9</ele>
        <time>2012-12-29T13:49:35Z</time>
      </trkpt>
      <trkpt lat="46.53874" lon="-0.7972">
        <ele>116.8</ele>
        <time>2012-12-29T13:49:37Z</time>
      </trkpt>
      <trkpt lat="46.53873" lon="-0.79709">
        <ele>116.6</ele>
        <time>2012-12-29T13:49:39Z</time>
      </trkpt>
      <trkpt lat="46.53875" lon="-0.797">
        <ele>117.3</ele>
        <time>2012-12-29T13:49:41Z</time>
      </trkpt>
      <trkpt lat="46.53875" lon="-0.79694">
        <ele>117.5</ele>
        <time>2012-12-29T13:49:42Z</time>
      </trkpt>
      <trkpt lat="46.53876" lon="-0.79682">
        <ele>117</ele>
        <time>2012-12-29T13:49:44Z</time>
      </trkpt>
      <trkpt lat="46.53877" lon="-0.79669">
        <ele>116.6</ele>
        <time>2012-12-29T13:49:46Z</time>
      </trkpt>
      <trkpt lat="46.53877" lon="-0.79654">
        <ele>116.2</ele>
        <time>2012-12-29T13:49:48Z</time>
      </trkpt>
      <trkpt lat="46.53877" lon="-0.79638">
        <ele>116.9</ele>
        <time>2012-12-29T13:49:50Z</time>
      </trkpt>
      <trkpt lat="46.53877" lon="-0.7963">
        <ele>117.1</ele>
        <time>2012-12-29T13:49:51Z</time>
      </trkpt>
      <trkpt lat="46.53877" lon="-0.79613">
        <ele>116.5</ele>
        <time>2012-12-29T13:49:53Z</time>
      </trkpt>
      <trkpt lat="46.53877" lon="-0.79605">
        <ele>116.3</ele>
        <time>2012-12-29T13:49:54Z</time>
      </trkpt>
      <trkpt lat="46.53877" lon="-0.79587">
        <ele>116.4</ele>
        <time>2012-12-29T13:49:56Z</time>
      </trkpt>
      <trkpt lat="46.53877" lon="-0.79561">
        <ele>116.5</ele>
        <time>2012-12-29T13:49:59Z</time>
      </trkpt>
      <trkpt lat="46.53878" lon="-0.79534">
        <ele>116</ele>
        <time>2012-12-29T13:50:02Z</time>
      </trkpt>
      <trkpt lat="46.53878" lon="-0.79525">
        <ele>116</ele>
        <time>2012-12-29T13:50:03Z</time>
      </trkpt>
      <trkpt lat="46.53878" lon="-0.79508">
        <ele>115.7</ele>
        <time>2012-12-29T13:50:05Z</time>
      </trkpt>
      <trkpt lat="46.53879" lon="-0.79473">
        <ele>114.9</ele>
        <time>2012-12-29T13:50:09Z</time>
      </trkpt>
      <trkpt lat="46.5388" lon="-0.79456">
        <ele>114.9</ele>
        <time>2012-12-29T13:50:11Z</time>
      </trkpt>
      <trkpt lat="46.5388" lon="-0.79439">
        <ele>115.2</ele>
        <time>2012-12-29T13:50:13Z</time>
      </trkpt>
      <trkpt lat="46.5388" lon="-0.79431">
        <ele>115.3</ele>
        <time>2012-12-29T13:50:14Z</time>
      </trkpt>
      <trkpt lat="46.5388" lon="-0.79422">
        <ele>115.1</ele>
        <time>2012-12-29T13:50:15Z</time>
      </trkpt>
      <trkpt lat="46.53881" lon="-0.7939">
        <ele>114.4</ele>
        <time>2012-12-29T13:50:19Z</time>
      </trkpt>
      <trkpt lat="46.53882" lon="-0.79383">
        <ele>114.3</ele>
        <time>2012-12-29T13:50:20Z</time>
      </trkpt>
      <trkpt lat="46.53882" lon="-0.79369">
        <ele>114.5</ele>
        <time>2012-12-29T13:50:22Z</time>
      </trkpt>
      <trkpt lat="46.53882" lon="-0.79361">
        <ele>114.5</ele>
        <time>2012-12-29T13:50:23Z</time>
      </trkpt>
      <trkpt lat="46.53882" lon="-0.79347">
        <ele>114.7</ele>
        <time>2012-12-29T13:50:25Z</time>
      </trkpt>
      <trkpt lat="46.53883" lon="-0.79332">
        <ele>114.7</ele>
        <time>2012-12-29T13:50:27Z</time>
      </trkpt>
      <trkpt lat="46.53882" lon="-0.79326">
        <ele>114.7</ele>
        <time>2012-12-29T13:50:28Z</time>
      </trkpt>
      <trkpt lat="46.53884" lon="-0.793">
        <ele>114.8</ele>
        <time>2012-12-29T13:50:32Z</time>
      </trkpt>
      <trkpt lat="46.53883" lon="-0.79287">
        <ele>115</ele>
        <time>2012-12-29T13:50:34Z</time>
      </trkpt>
      <trkpt lat="46.53884" lon="-0.79274">
        <ele>115.2</ele>
        <time>2012-12-29T13:50:36Z</time>
      </trkpt>
      <trkpt lat="46.53885" lon="-0.79261">
        <ele>115.8</ele>
        <time>2012-12-29T13:50:38Z</time>
      </trkpt>
      <trkpt lat="46.53885" lon="-0.79243">
        <ele>116</ele>
        <time>2012-12-29T13:50:41Z</time>
      </trkpt>
      <trkpt lat="46.53886" lon="-0.79236">
        <ele>116</ele>
        <time>2012-12-29T13:50:42Z</time>
      </trkpt>
      <trkpt lat="46.53887" lon="-0.79223">
        <ele>116.1</ele>
        <time>2012-12-29T13:50:44Z</time>
      </trkpt>
      <trkpt lat="46.53888" lon="-0.79208">
        <ele>116.1</ele>
        <time>2012-12-29T13:50:46Z</time>
      </trkpt>
      <trkpt lat="46.53888" lon="-0.79196">
        <ele>116.4</ele>
        <time>2012-12-29T13:50:48Z</time>
      </trkpt>
      <trkpt lat="46.53888" lon="-0.79191">
        <ele>116.5</ele>
        <time>2012-12-29T13:50:49Z</time>
      </trkpt>
      <trkpt lat="46.53889" lon="-0.79169">
        <ele>115.6</ele>
        <time>2012-12-29T13:50:53Z</time>
      </trkpt>
      <trkpt lat="46.53889" lon="-0.7916">
        <ele>115.1</ele>
        <time>2012-12-29T13:50:55Z</time>
      </trkpt>
      <trkpt lat="46.53889" lon="-0.7915">
        <ele>115.8</ele>
        <time>2012-12-29T13:50:57Z</time>
      </trkpt>
      <trkpt lat="46.53888" lon="-0.79142">
        <ele>115.7</ele>
        <time>2012-12-29T13:50:59Z</time>
      </trkpt>
      <trkpt lat="46.5389" lon="-0.79135">
        <ele>115.4</ele>
        <time>2012-12-29T13:51:01Z</time>
      </trkpt>
      <trkpt lat="46.53892" lon="-0.79128">
        <ele>114.9</ele>
        <time>2012-12-29T13:51:03Z</time>
      </trkpt>
      <trkpt lat="46.53894" lon="-0.79123">
        <ele>114.3</ele>
        <time>2012-12-29T13:51:05Z</time>
      </trkpt>
      <trkpt lat="46.53899" lon="-0.79113">
        <ele>114.6</ele>
        <time>2012-12-29T13:51:09Z</time>
      </trkpt>
      <trkpt lat="46.53903" lon="-0.79103">
        <ele>115</ele>
        <time>2012-12-29T13:51:22Z</time>
      </trkpt>
      <trkpt lat="46.53907" lon="-0.79096">
        <ele>115.8</ele>
        <time>2012-12-29T13:51:25Z</time>
      </trkpt>
      <trkpt lat="46.53911" lon="-0.79088">
        <ele>115.7</ele>
        <time>2012-12-29T13:51:27Z</time>
      </trkpt>
      <trkpt lat="46.53917" lon="-0.7908">
        <ele>115.6</ele>
        <time>2012-12-29T13:51:29Z</time>
      </trkpt>
      <trkpt lat="46.53923" lon="-0.79071">
        <ele>115.3</ele>
        <time>2012-12-29T13:51:31Z</time>
      </trkpt>
      <trkpt lat="46.53927" lon="-0.79066">
        <ele>115.2</ele>
        <time>2012-12-29T13:51:32Z</time>
      </trkpt>
      <trkpt lat="46.53931" lon="-0.79062">
        <ele>115.1</ele>
        <time>2012-12-29T13:51:33Z</time>
      </trkpt>
      <trkpt lat="46.53936" lon="-0.79058">
        <ele>115.1</ele>
        <time>2012-12-29T13:51:34Z</time>
      </trkpt>
      <trkpt lat="46.53941" lon="-0.79053">
        <ele>115.2</ele>
        <time>2012-12-29T13:51:35Z</time>
      </trkpt>
      <trkpt lat="46.53946" lon="-0.79047">
        <ele>115.2</ele>
        <time>2012-12-29T13:51:36Z</time>
      </trkpt>
      <trkpt lat="46.53954" lon="-0.79034">
        <ele>115</ele>
        <time>2012-12-29T13:51:38Z</time>
      </trkpt>
      <trkpt lat="46.53957" lon="-0.79027">
        <ele>114.9</ele>
        <time>2012-12-29T13:51:39Z</time>
      </trkpt>
      <trkpt lat="46.53966" lon="-0.79004">
        <ele>114.1</ele>
        <time>2012-12-29T13:51:42Z</time>
      </trkpt>
      <trkpt lat="46.53979" lon="-0.78973">
        <ele>113.5</ele>
        <time>2012-12-29T13:51:46Z</time>
      </trkpt>
      <trkpt lat="46.53982" lon="-0.78965">
        <ele>113.7</ele>
        <time>2012-12-29T13:51:47Z</time>
      </trkpt>
      <trkpt lat="46.53984" lon="-0.78957">
        <ele>113.9</ele>
        <time>2012-12-29T13:51:48Z</time>
      </trkpt>
      <trkpt lat="46.53985" lon="-0.78948">
        <ele>114</ele>
        <time>2012-12-29T13:51:49Z</time>
      </trkpt>
      <trkpt lat="46.53986" lon="-0.78939">
        <ele>114.1</ele>
        <time>2012-12-29T13:51:50Z</time>
      </trkpt>
      <trkpt lat="46.53988" lon="-0.78931">
        <ele>114.2</ele>
        <time>2012-12-29T13:51:51Z</time>
      </trkpt>
      <trkpt lat="46.53993" lon="-0.78915">
        <ele>114.4</ele>
        <time>2012-12-29T13:51:53Z</time>
      </trkpt>
      <trkpt lat="46.53996" lon="-0.78909">
        <ele>114</ele>
        <time>2012-12-29T13:51:54Z</time>
      </trkpt>
      <trkpt lat="46.54002" lon="-0.78894">
        <ele>113.4</ele>
        <time>2012-12-29T13:51:56Z</time>
      </trkpt>
      <trkpt lat="46.54006" lon="-0.78878">
        <ele>113.8</ele>
        <time>2012-12-29T13:51:58Z</time>
      </trkpt>
      <trkpt lat="46.54008" lon="-0.7887">
        <ele>114</ele>
        <time>2012-12-29T13:51:59Z</time>
      </trkpt>
      <trkpt lat="46.54012" lon="-0.78854">
        <ele>113.3</ele>
        <time>2012-12-29T13:52:01Z</time>
      </trkpt>
      <trkpt lat="46.54015" lon="-0.78848">
        <ele>113</ele>
        <time>2012-12-29T13:52:02Z</time>
      </trkpt>
      <trkpt lat="46.54018" lon="-0.78836">
        <ele>112.8</ele>
        <time>2012-12-29T13:52:04Z</time>
      </trkpt>
      <trkpt lat="46.5402" lon="-0.78826">
        <ele>112.7</ele>
        <time>2012-12-29T13:52:06Z</time>
      </trkpt>
      <trkpt lat="46.5402" lon="-0.78817">
        <ele>112.7</ele>
        <time>2012-12-29T13:52:08Z</time>
      </trkpt>
      <trkpt lat="46.5402" lon="-0.78809">
        <ele>112.2</ele>
        <time>2012-12-29T13:52:10Z</time>
      </trkpt>
      <trkpt lat="46.5402" lon="-0.78801">
        <ele>111.5</ele>
        <time>2012-12-29T13:52:12Z</time>
      </trkpt>
      <trkpt lat="46.54021" lon="-0.78791">
        <ele>112</ele>
        <time>2012-12-29T13:52:14Z</time>
      </trkpt>
      <trkpt lat="46.54024" lon="-0.78777">
        <ele>111.6</ele>
        <time>2012-12-29T13:52:17Z</time>
      </trkpt>
      <trkpt lat="46.54026" lon="-0.78768">
        <ele>111.5</ele>
        <time>2012-12-29T13:52:19Z</time>
      </trkpt>
      <trkpt lat="46.54033" lon="-0.78749">
        <ele>111.9</ele>
        <time>2012-12-29T13:52:23Z</time>
      </trkpt>
      <trkpt lat="46.54041" lon="-0.78733">
        <ele>111.8</ele>
        <time>2012-12-29T13:52:26Z</time>
      </trkpt>
      <trkpt lat="46.54046" lon="-0.78722">
        <ele>111.7</ele>
        <time>2012-12-29T13:52:28Z</time>
      </trkpt>
      <trkpt lat="46.54053" lon="-0.78704">
        <ele>112.5</ele>
        <time>2012-12-29T13:52:31Z</time>
      </trkpt>
      <trkpt lat="46.54056" lon="-0.78697">
        <ele>111.9</ele>
        <time>2012-12-29T13:52:32Z</time>
      </trkpt>
      <trkpt lat="46.54058" lon="-0.7869">
        <ele>111.4</ele>
        <time>2012-12-29T13:52:33Z</time>
      </trkpt>
      <trkpt lat="46.54061" lon="-0.78676">
        <ele>111.1</ele>
        <time>2012-12-29T13:52:35Z</time>
      </trkpt>
      <trkpt lat="46.54063" lon="-0.78669">
        <ele>111.1</ele>
        <time>2012-12-29T13:52:36Z</time>
      </trkpt>
      <trkpt lat="46.5407" lon="-0.78647">
        <ele>110.9</ele>
        <time>2012-12-29T13:52:39Z</time>
      </trkpt>
      <trkpt lat="46.54071" lon="-0.78639">
        <ele>110.8</ele>
        <time>2012-12-29T13:52:40Z</time>
      </trkpt>
      <trkpt lat="46.54077" lon="-0.78616">
        <ele>110.7</ele>
        <time>2012-12-29T13:52:43Z</time>
      </trkpt>
      <trkpt lat="46.5408" lon="-0.78608">
        <ele>110.7</ele>
        <time>2012-12-29T13:52:44Z</time>
      </trkpt>
      <trkpt lat="46.54085" lon="-0.78584">
        <ele>110.3</ele>
        <time>2012-12-29T13:52:47Z</time>
      </trkpt>
      <trkpt lat="46.54087" lon="-0.78576">
        <ele>110.1</ele>
        <time>2012-12-29T13:52:48Z</time>
      </trkpt>
      <trkpt lat="46.5409" lon="-0.78568">
        <ele>109.9</ele>
        <time>2012-12-29T13:52:49Z</time>
      </trkpt>
      <trkpt lat="46.54093" lon="-0.78561">
        <ele>109.8</ele>
        <time>2012-12-29T13:52:50Z</time>
      </trkpt>
      <trkpt lat="46.54097" lon="-0.78545">
        <ele>109.4</ele>
        <time>2012-12-29T13:52:52Z</time>
      </trkpt>
      <trkpt lat="46.541" lon="-0.78528">
        <ele>109.3</ele>
        <time>2012-12-29T13:52:54Z</time>
      </trkpt>
      <trkpt lat="46.541" lon="-0.7852">
        <ele>109.3</ele>
        <time>2012-12-29T13:52:55Z</time>
      </trkpt>
      <trkpt lat="46.541" lon="-0.78511">
        <ele>109.3</ele>
        <time>2012-12-29T13:52:56Z</time>
      </trkpt>
      <trkpt lat="46.54101" lon="-0.78503">
        <ele>109</ele>
        <time>2012-12-29T13:52:57Z</time>
      </trkpt>
      <trkpt lat="46.54102" lon="-0.78494">
        <ele>108.8</ele>
        <time>2012-12-29T13:52:58Z</time>
      </trkpt>
      <trkpt lat="46.54104" lon="-0.78486">
        <ele>108.6</ele>
        <time>2012-12-29T13:52:59Z</time>
      </trkpt>
      <trkpt lat="46.54106" lon="-0.78471">
        <ele>108.1</ele>
        <time>2012-12-29T13:53:01Z</time>
      </trkpt>
      <trkpt lat="46.54107" lon="-0.78464">
        <ele>107.7</ele>
        <time>2012-12-29T13:53:02Z</time>
      </trkpt>
      <trkpt lat="46.54107" lon="-0.78456">
        <ele>107.5</ele>
        <time>2012-12-29T13:53:03Z</time>
      </trkpt>
      <trkpt lat="46.54107" lon="-0.7844">
        <ele>107.4</ele>
        <time>2012-12-29T13:53:05Z</time>
      </trkpt>
      <trkpt lat="46.54107" lon="-0.78418">
        <ele>106.4</ele>
        <time>2012-12-29T13:53:08Z</time>
      </trkpt>
      <trkpt lat="46.54107" lon="-0.78411">
        <ele>106.1</ele>
        <time>2012-12-29T13:53:09Z</time>
      </trkpt>
      <trkpt lat="46.54107" lon="-0.78405">
        <ele>106.2</ele>
        <time>2012-12-29T13:53:10Z</time>
      </trkpt>
      <trkpt lat="46.54108" lon="-0.78387">
        <ele>101.7</ele>
        <time>2012-12-29T13:53:34Z</time>
      </trkpt>
      <trkpt lat="46.54108" lon="-0.78378">
        <ele>102.1</ele>
        <time>2012-12-29T13:53:37Z</time>
      </trkpt>
      <trkpt lat="46.54107" lon="-0.7837">
        <ele>102.3</ele>
        <time>2012-12-29T13:53:39Z</time>
      </trkpt>
      <trkpt lat="46.54106" lon="-0.78362">
        <ele>102.2</ele>
        <time>2012-12-29T13:53:41Z</time>
      </trkpt>
      <trkpt lat="46.54108" lon="-0.78353">
        <ele>101.8</ele>
        <time>2012-12-29T13:53:43Z</time>
      </trkpt>
      <trkpt lat="46.54114" lon="-0.78343">
        <ele>101.2</ele>
        <time>2012-12-29T13:53:46Z</time>
      </trkpt>
      <trkpt lat="46.54116" lon="-0.78332">
        <ele>100.6</ele>
        <time>2012-12-29T13:53:51Z</time>
      </trkpt>
      <trkpt lat="46.54116" lon="-0.78325">
        <ele>101.3</ele>
        <time>2012-12-29T13:53:56Z</time>
      </trkpt>
      <trkpt lat="46.54123" lon="-0.78346">
        <ele>100.4</ele>
        <time>2012-12-29T13:54:14Z</time>
      </trkpt>
      <trkpt lat="46.54124" lon="-0.78352">
        <ele>100.1</ele>
        <time>2012-12-29T13:54:16Z</time>
      </trkpt>
      <trkpt lat="46.54128" lon="-0.78357">
        <ele>100.3</ele>
        <time>2012-12-29T13:54:18Z</time>
      </trkpt>
      <trkpt lat="46.54134" lon="-0.78361">
        <ele>99.9</ele>
        <time>2012-12-29T13:54:20Z</time>
      </trkpt>
      <trkpt lat="46.54137" lon="-0.78361">
        <ele>99.5</ele>
        <time>2012-12-29T13:54:21Z</time>
      </trkpt>
      <trkpt lat="46.54142" lon="-0.78358">
        <ele>99</ele>
        <time>2012-12-29T13:54:23Z</time>
      </trkpt>
      <trkpt lat="46.54149" lon="-0.78353">
        <ele>99.1</ele>
        <time>2012-12-29T13:54:25Z</time>
      </trkpt>
      <trkpt lat="46.54155" lon="-0.78348">
        <ele>98.6</ele>
        <time>2012-12-29T13:54:27Z</time>
      </trkpt>
      <trkpt lat="46.54161" lon="-0.78338">
        <ele>97.9</ele>
        <time>2012-12-29T13:54:29Z</time>
      </trkpt>
      <trkpt lat="46.54164" lon="-0.78331">
        <ele>97.3</ele>
        <time>2012-12-29T13:54:30Z</time>
      </trkpt>
      <trkpt lat="46.54168" lon="-0.78325">
        <ele>96.8</ele>
        <time>2012-12-29T13:54:31Z</time>
      </trkpt>
      <trkpt lat="46.54172" lon="-0.78319">
        <ele>96.4</ele>
        <time>2012-12-29T13:54:32Z</time>
      </trkpt>
      <trkpt lat="46.54177" lon="-0.78314">
        <ele>95.9</ele>
        <time>2012-12-29T13:54:33Z</time>
      </trkpt>
      <trkpt lat="46.54183" lon="-0.78311">
        <ele>95.5</ele>
        <time>2012-12-29T13:54:34Z</time>
      </trkpt>
      <trkpt lat="46.54189" lon="-0.78309">
        <ele>95.2</ele>
        <time>2012-12-29T13:54:35Z</time>
      </trkpt>
      <trkpt lat="46.54195" lon="-0.78307">
        <ele>94.3</ele>
        <time>2012-12-29T13:54:36Z</time>
      </trkpt>
      <trkpt lat="46.542" lon="-0.78306">
        <ele>93.6</ele>
        <time>2012-12-29T13:54:37Z</time>
      </trkpt>
      <trkpt lat="46.54206" lon="-0.78308">
        <ele>93.1</ele>
        <time>2012-12-29T13:54:38Z</time>
      </trkpt>
      <trkpt lat="46.54212" lon="-0.7831">
        <ele>92.7</ele>
        <time>2012-12-29T13:54:39Z</time>
      </trkpt>
      <trkpt lat="46.54218" lon="-0.78315">
        <ele>91.7</ele>
        <time>2012-12-29T13:54:40Z</time>
      </trkpt>
      <trkpt lat="46.54223" lon="-0.7832">
        <ele>90.9</ele>
        <time>2012-12-29T13:54:41Z</time>
      </trkpt>
      <trkpt lat="46.54233" lon="-0.78333">
        <ele>89.5</ele>
        <time>2012-12-29T13:54:43Z</time>
      </trkpt>
      <trkpt lat="46.54238" lon="-0.78339">
        <ele>88.9</ele>
        <time>2012-12-29T13:54:44Z</time>
      </trkpt>
      <trkpt lat="46.54245" lon="-0.78345">
        <ele>88.5</ele>
        <time>2012-12-29T13:54:45Z</time>
      </trkpt>
      <trkpt lat="46.54251" lon="-0.78349">
        <ele>87.7</ele>
        <time>2012-12-29T13:54:46Z</time>
      </trkpt>
      <trkpt lat="46.54258" lon="-0.7835">
        <ele>87</ele>
        <time>2012-12-29T13:54:47Z</time>
      </trkpt>
      <trkpt lat="46.54264" lon="-0.78349">
        <ele>86.6</ele>
        <time>2012-12-29T13:54:48Z</time>
      </trkpt>
      <trkpt lat="46.54269" lon="-0.78339">
        <ele>84.8</ele>
        <time>2012-12-29T13:54:50Z</time>
      </trkpt>
      <trkpt lat="46.54269" lon="-0.78332">
        <ele>84.2</ele>
        <time>2012-12-29T13:54:51Z</time>
      </trkpt>
      <trkpt lat="46.54267" lon="-0.78324">
        <ele>83.3</ele>
        <time>2012-12-29T13:54:52Z</time>
      </trkpt>
      <trkpt lat="46.54264" lon="-0.78315">
        <ele>82.6</ele>
        <time>2012-12-29T13:54:53Z</time>
      </trkpt>
      <trkpt lat="46.54262" lon="-0.78308">
        <ele>82.1</ele>
        <time>2012-12-29T13:54:54Z</time>
      </trkpt>
      <trkpt lat="46.54261" lon="-0.78295">
        <ele>80.7</ele>
        <time>2012-12-29T13:54:56Z</time>
      </trkpt>
      <trkpt lat="46.54261" lon="-0.78288">
        <ele>80.2</ele>
        <time>2012-12-29T13:54:57Z</time>
      </trkpt>
      <trkpt lat="46.54263" lon="-0.78281">
        <ele>79.8</ele>
        <time>2012-12-29T13:54:58Z</time>
      </trkpt>
      <trkpt lat="46.54268" lon="-0.7827">
        <ele>78.2</ele>
        <time>2012-12-29T13:55:00Z</time>
      </trkpt>
      <trkpt lat="46.54274" lon="-0.78259">
        <ele>77.2</ele>
        <time>2012-12-29T13:55:02Z</time>
      </trkpt>
      <trkpt lat="46.54277" lon="-0.78253">
        <ele>76.8</ele>
        <time>2012-12-29T13:55:03Z</time>
      </trkpt>
      <trkpt lat="46.54279" lon="-0.78246">
        <ele>76.6</ele>
        <time>2012-12-29T13:55:04Z</time>
      </trkpt>
      <trkpt lat="46.54284" lon="-0.78231">
        <ele>75.4</ele>
        <time>2012-12-29T13:55:06Z</time>
      </trkpt>
      <trkpt lat="46.54286" lon="-0.78222">
        <ele>75</ele>
        <time>2012-12-29T13:55:07Z</time>
      </trkpt>
      <trkpt lat="46.54287" lon="-0.78214">
        <ele>74.6</ele>
        <time>2012-12-29T13:55:08Z</time>
      </trkpt>
      <trkpt lat="46.54288" lon="-0.78204">
        <ele>74.3</ele>
        <time>2012-12-29T13:55:09Z</time>
      </trkpt>
      <trkpt lat="46.54287" lon="-0.78194">
        <ele>74</ele>
        <time>2012-12-29T13:55:10Z</time>
      </trkpt>
      <trkpt lat="46.54286" lon="-0.78184">
        <ele>73.9</ele>
        <time>2012-12-29T13:55:11Z</time>
      </trkpt>
      <trkpt lat="46.54285" lon="-0.78173">
        <ele>73.2</ele>
        <time>2012-12-29T13:55:12Z</time>
      </trkpt>
      <trkpt lat="46.54283" lon="-0.78163">
        <ele>72.7</ele>
        <time>2012-12-29T13:55:13Z</time>
      </trkpt>
      <trkpt lat="46.54279" lon="-0.78143">
        <ele>71.7</ele>
        <time>2012-12-29T13:55:15Z</time>
      </trkpt>
      <trkpt lat="46.54279" lon="-0.78134">
        <ele>71.3</ele>
        <time>2012-12-29T13:55:16Z</time>
      </trkpt>
      <trkpt lat="46.5428" lon="-0.78126">
        <ele>70.9</ele>
        <time>2012-12-29T13:55:17Z</time>
      </trkpt>
      <trkpt lat="46.54282" lon="-0.78118">
        <ele>70.6</ele>
        <time>2012-12-29T13:55:18Z</time>
      </trkpt>
      <trkpt lat="46.54287" lon="-0.78113">
        <ele>70.3</ele>
        <time>2012-12-29T13:55:19Z</time>
      </trkpt>
      <trkpt lat="46.54292" lon="-0.78111">
        <ele>70.1</ele>
        <time>2012-12-29T13:55:20Z</time>
      </trkpt>
      <trkpt lat="46.54297" lon="-0.7811">
        <ele>69.3</ele>
        <time>2012-12-29T13:55:21Z</time>
      </trkpt>
      <trkpt lat="46.54302" lon="-0.78111">
        <ele>68.8</ele>
        <time>2012-12-29T13:55:22Z</time>
      </trkpt>
      <trkpt lat="46.54316" lon="-0.78116">
        <ele>67.9</ele>
        <time>2012-12-29T13:55:25Z</time>
      </trkpt>
      <trkpt lat="46.54324" lon="-0.78119">
        <ele>67.3</ele>
        <time>2012-12-29T13:55:27Z</time>
      </trkpt>
      <trkpt lat="46.54329" lon="-0.7812">
        <ele>66.9</ele>
        <time>2012-12-29T13:55:28Z</time>
      </trkpt>
      <trkpt lat="46.54338" lon="-0.7812">
        <ele>66.5</ele>
        <time>2012-12-29T13:55:30Z</time>
      </trkpt>
      <trkpt lat="46.54351" lon="-0.7812">
        <ele>66.3</ele>
        <time>2012-12-29T13:55:33Z</time>
      </trkpt>
      <trkpt lat="46.54359" lon="-0.78119">
        <ele>66.3</ele>
        <time>2012-12-29T13:55:35Z</time>
      </trkpt>
      <trkpt lat="46.54366" lon="-0.78119">
        <ele>65.9</ele>
        <time>2012-12-29T13:55:37Z</time>
      </trkpt>
      <trkpt lat="46.54373" lon="-0.7812">
        <ele>65.4</ele>
        <time>2012-12-29T13:55:39Z</time>
      </trkpt>
      <trkpt lat="46.54379" lon="-0.7812">
        <ele>66.3</ele>
        <time>2012-12-29T13:55:41Z</time>
      </trkpt>
      <trkpt lat="46.54385" lon="-0.78119">
        <ele>66.6</ele>
        <time>2012-12-29T13:55:43Z</time>
      </trkpt>
      <trkpt lat="46.5439" lon="-0.7812">
        <ele>66.6</ele>
        <time>2012-12-29T13:55:45Z</time>
      </trkpt>
      <trkpt lat="46.54402" lon="-0.78119">
        <ele>66.6</ele>
        <time>2012-12-29T13:55:50Z</time>
      </trkpt>
      <trkpt lat="46.54406" lon="-0.78119">
        <ele>66.2</ele>
        <time>2012-12-29T13:55:52Z</time>
      </trkpt>
      <trkpt lat="46.54413" lon="-0.78123">
        <ele>66.4</ele>
        <time>2012-12-29T13:55:57Z</time>
      </trkpt>
      <trkpt lat="46.54409" lon="-0.78127">
        <ele>62.7</ele>
        <time>2012-12-29T13:57:07Z</time>
      </trkpt>
      <trkpt lat="46.54405" lon="-0.78129">
        <ele>62.6</ele>
        <time>2012-12-29T13:58:31Z</time>
      </trkpt>
      <trkpt lat="46.54409" lon="-0.78135">
        <ele>61.7</ele>
        <time>2012-12-29T14:00:33Z</time>
      </trkpt>
      <trkpt lat="46.54411" lon="-0.78145">
        <ele>61.8</ele>
        <time>2012-12-29T14:00:35Z</time>
      </trkpt>
      <trkpt lat="46.54414" lon="-0.78151">
        <ele>61.8</ele>
        <time>2012-12-29T14:00:36Z</time>
      </trkpt>
      <trkpt lat="46.54419" lon="-0.78162">
        <ele>61.7</ele>
        <time>2012-12-29T14:00:38Z</time>
      </trkpt>
      <trkpt lat="46.54422" lon="-0.78167">
        <ele>61.6</ele>
        <time>2012-12-29T14:00:39Z</time>
      </trkpt>
      <trkpt lat="46.54425" lon="-0.78172">
        <ele>61.2</ele>
        <time>2012-12-29T14:00:40Z</time>
      </trkpt>
      <trkpt lat="46.54429" lon="-0.78176">
        <ele>60.9</ele>
        <time>2012-12-29T14:00:41Z</time>
      </trkpt>
      <trkpt lat="46.54441" lon="-0.78194">
        <ele>61</ele>
        <time>2012-12-29T14:00:45Z</time>
      </trkpt>
      <trkpt lat="46.54448" lon="-0.782">
        <ele>61.3</ele>
        <time>2012-12-29T14:00:47Z</time>
      </trkpt>
      <trkpt lat="46.54452" lon="-0.78203">
        <ele>61.5</ele>
        <time>2012-12-29T14:00:48Z</time>
      </trkpt>
      <trkpt lat="46.5446" lon="-0.78207">
        <ele>61.5</ele>
        <time>2012-12-29T14:00:50Z</time>
      </trkpt>
      <trkpt lat="46.54468" lon="-0.7821">
        <ele>61.4</ele>
        <time>2012-12-29T14:00:52Z</time>
      </trkpt>
      <trkpt lat="46.54473" lon="-0.78211">
        <ele>61.4</ele>
        <time>2012-12-29T14:00:53Z</time>
      </trkpt>
      <trkpt lat="46.5448" lon="-0.78211">
        <ele>61.4</ele>
        <time>2012-12-29T14:00:55Z</time>
      </trkpt>
      <trkpt lat="46.54487" lon="-0.78209">
        <ele>60.7</ele>
        <time>2012-12-29T14:00:57Z</time>
      </trkpt>
      <trkpt lat="46.54501" lon="-0.78204">
        <ele>61.2</ele>
        <time>2012-12-29T14:01:01Z</time>
      </trkpt>
      <trkpt lat="46.54509" lon="-0.78201">
        <ele>61.3</ele>
        <time>2012-12-29T14:01:03Z</time>
      </trkpt>
      <trkpt lat="46.54516" lon="-0.78197">
        <ele>61.4</ele>
        <time>2012-12-29T14:01:05Z</time>
      </trkpt>
      <trkpt lat="46.54523" lon="-0.78194">
        <ele>61.5</ele>
        <time>2012-12-29T14:01:07Z</time>
      </trkpt>
      <trkpt lat="46.54537" lon="-0.78185">
        <ele>61.9</ele>
        <time>2012-12-29T14:01:11Z</time>
      </trkpt>
      <trkpt lat="46.54544" lon="-0.78181">
        <ele>61.6</ele>
        <time>2012-12-29T14:01:13Z</time>
      </trkpt>
      <trkpt lat="46.5455" lon="-0.78178">
        <ele>61.4</ele>
        <time>2012-12-29T14:01:15Z</time>
      </trkpt>
      <trkpt lat="46.54556" lon="-0.78175">
        <ele>61.4</ele>
        <time>2012-12-29T14:01:17Z</time>
      </trkpt>
      <trkpt lat="46.54568" lon="-0.78172">
        <ele>59.8</ele>
        <time>2012-12-29T14:01:27Z</time>
      </trkpt>
      <trkpt lat="46.54573" lon="-0.78172">
        <ele>58.2</ele>
        <time>2012-12-29T14:01:37Z</time>
      </trkpt>
      <trkpt lat="46.5459" lon="-0.78154">
        <ele>60.4</ele>
        <time>2012-12-29T14:06:45Z</time>
      </trkpt>
      <trkpt lat="46.54595" lon="-0.78156">
        <ele>61.3</ele>
        <time>2012-12-29T14:07:01Z</time>
      </trkpt>
      <trkpt lat="46.54601" lon="-0.78154">
        <ele>61.2</ele>
        <time>2012-12-29T14:07:04Z</time>
      </trkpt>
      <trkpt lat="46.54605" lon="-0.78151">
        <ele>60.9</ele>
        <time>2012-12-29T14:07:07Z</time>
      </trkpt>
      <trkpt lat="46.54607" lon="-0.78145">
        <ele>60.7</ele>
        <time>2012-12-29T14:07:11Z</time>
      </trkpt>
      <trkpt lat="46.54611" lon="-0.78137">
        <ele>59.9</ele>
        <time>2012-12-29T14:07:17Z</time>
      </trkpt>
      <trkpt lat="46.54615" lon="-0.78129">
        <ele>61.4</ele>
        <time>2012-12-29T14:07:22Z</time>
      </trkpt>
      <trkpt lat="46.54614" lon="-0.78123">
        <ele>62.1</ele>
        <time>2012-12-29T14:07:32Z</time>
      </trkpt>
      <trkpt lat="46.5461" lon="-0.78113">
        <ele>62.1</ele>
        <time>2012-12-29T14:07:42Z</time>
      </trkpt>
      <trkpt lat="46.54608" lon="-0.78101">
        <ele>64.2</ele>
        <time>2012-12-29T14:07:52Z</time>
      </trkpt>
      <trkpt lat="46.54606" lon="-0.78089">
        <ele>65.7</ele>
        <time>2012-12-29T14:08:01Z</time>
      </trkpt>
      <trkpt lat="46.54603" lon="-0.78084">
        <ele>65.7</ele>
        <time>2012-12-29T14:08:07Z</time>
      </trkpt>
      <trkpt lat="46.54599" lon="-0.78075">
        <ele>67.1</ele>
        <time>2012-12-29T14:08:17Z</time>
      </trkpt>
      <trkpt lat="46.5459" lon="-0.78057">
        <ele>69</ele>
        <time>2012-12-29T14:08:34Z</time>
      </trkpt>
      <trkpt lat="46.54588" lon="-0.78051">
        <ele>70.7</ele>
        <time>2012-12-29T14:08:41Z</time>
      </trkpt>
      <trkpt lat="46.54586" lon="-0.7804">
        <ele>71</ele>
        <time>2012-12-29T14:08:53Z</time>
      </trkpt>
      <trkpt lat="46.54582" lon="-0.78033">
        <ele>72</ele>
        <time>2012-12-29T14:08:57Z</time>
      </trkpt>
      <trkpt lat="46.54577" lon="-0.78022">
        <ele>71.4</ele>
        <time>2012-12-29T14:09:03Z</time>
      </trkpt>
      <trkpt lat="46.54577" lon="-0.78015">
        <ele>71.1</ele>
        <time>2012-12-29T14:09:08Z</time>
      </trkpt>
      <trkpt lat="46.54569" lon="-0.78003">
        <ele>72.6</ele>
        <time>2012-12-29T14:09:18Z</time>
      </trkpt>
      <trkpt lat="46.54566" lon="-0.77992">
        <ele>73</ele>
        <time>2012-12-29T14:09:24Z</time>
      </trkpt>
      <trkpt lat="46.54565" lon="-0.77987">
        <ele>73.1</ele>
        <time>2012-12-29T14:09:27Z</time>
      </trkpt>
      <trkpt lat="46.54564" lon="-0.77977">
        <ele>73.6</ele>
        <time>2012-12-29T14:09:32Z</time>
      </trkpt>
      <trkpt lat="46.54561" lon="-0.77967">
        <ele>73.9</ele>
        <time>2012-12-29T14:09:36Z</time>
      </trkpt>
      <trkpt lat="46.54559" lon="-0.77956">
        <ele>74.3</ele>
        <time>2012-12-29T14:09:41Z</time>
      </trkpt>
      <trkpt lat="46.54559" lon="-0.77944">
        <ele>74.5</ele>
        <time>2012-12-29T14:09:47Z</time>
      </trkpt>
      <trkpt lat="46.5456" lon="-0.77934">
        <ele>74.9</ele>
        <time>2012-12-29T14:09:52Z</time>
      </trkpt>
      <trkpt lat="46.54561" lon="-0.77923">
        <ele>74.9</ele>
        <time>2012-12-29T14:09:57Z</time>
      </trkpt>
      <trkpt lat="46.54562" lon="-0.77912">
        <ele>75.3</ele>
        <time>2012-12-29T14:10:01Z</time>
      </trkpt>
      <trkpt lat="46.54563" lon="-0.779">
        <ele>75.3</ele>
        <time>2012-12-29T14:10:08Z</time>
      </trkpt>
      <trkpt lat="46.54563" lon="-0.77888">
        <ele>76</ele>
        <time>2012-12-29T14:10:37Z</time>
      </trkpt>
      <trkpt lat="46.54564" lon="-0.77877">
        <ele>75.5</ele>
        <time>2012-12-29T14:11:11Z</time>
      </trkpt>
      <trkpt lat="46.54568" lon="-0.77869">
        <ele>75.7</ele>
        <time>2012-12-29T14:11:15Z</time>
      </trkpt>
      <trkpt lat="46.5457" lon="-0.7786">
        <ele>75.7</ele>
        <time>2012-12-29T14:11:19Z</time>
      </trkpt>
      <trkpt lat="46.54574" lon="-0.77852">
        <ele>74.6</ele>
        <time>2012-12-29T14:11:23Z</time>
      </trkpt>
      <trkpt lat="46.54576" lon="-0.77846">
        <ele>74.9</ele>
        <time>2012-12-29T14:11:25Z</time>
      </trkpt>
      <trkpt lat="46.54576" lon="-0.7784">
        <ele>75.5</ele>
        <time>2012-12-29T14:11:27Z</time>
      </trkpt>
      <trkpt lat="46.54581" lon="-0.77824">
        <ele>76.6</ele>
        <time>2012-12-29T14:11:32Z</time>
      </trkpt>
      <trkpt lat="46.54584" lon="-0.77815">
        <ele>76.8</ele>
        <time>2012-12-29T14:11:35Z</time>
      </trkpt>
      <trkpt lat="46.54589" lon="-0.778">
        <ele>77.4</ele>
        <time>2012-12-29T14:11:40Z</time>
      </trkpt>
      <trkpt lat="46.54594" lon="-0.77791">
        <ele>77.7</ele>
        <time>2012-12-29T14:11:43Z</time>
      </trkpt>
      <trkpt lat="46.54596" lon="-0.77786">
        <ele>78.4</ele>
        <time>2012-12-29T14:11:45Z</time>
      </trkpt>
      <trkpt lat="46.54599" lon="-0.77781">
        <ele>78.5</ele>
        <time>2012-12-29T14:11:47Z</time>
      </trkpt>
      <trkpt lat="46.54606" lon="-0.77773">
        <ele>78.4</ele>
        <time>2012-12-29T14:11:51Z</time>
      </trkpt>
      <trkpt lat="46.54611" lon="-0.77765">
        <ele>78.4</ele>
        <time>2012-12-29T14:11:55Z</time>
      </trkpt>
      <trkpt lat="46.54616" lon="-0.77755">
        <ele>78.6</ele>
        <time>2012-12-29T14:11:59Z</time>
      </trkpt>
      <trkpt lat="46.5462" lon="-0.77744">
        <ele>78.4</ele>
        <time>2012-12-29T14:12:03Z</time>
      </trkpt>
      <trkpt lat="46.54623" lon="-0.77732">
        <ele>78.9</ele>
        <time>2012-12-29T14:12:07Z</time>
      </trkpt>
      <trkpt lat="46.54625" lon="-0.77721">
        <ele>78.9</ele>
        <time>2012-12-29T14:12:11Z</time>
      </trkpt>
      <trkpt lat="46.54624" lon="-0.77714">
        <ele>78.2</ele>
        <time>2012-12-29T14:12:14Z</time>
      </trkpt>
      <trkpt lat="46.54625" lon="-0.77706">
        <ele>78.6</ele>
        <time>2012-12-29T14:12:17Z</time>
      </trkpt>
      <trkpt lat="46.54628" lon="-0.77696">
        <ele>78.7</ele>
        <time>2012-12-29T14:12:21Z</time>
      </trkpt>
      <trkpt lat="46.54629" lon="-0.7769">
        <ele>78.6</ele>
        <time>2012-12-29T14:12:23Z</time>
      </trkpt>
      <trkpt lat="46.54633" lon="-0.77679">
        <ele>78</ele>
        <time>2012-12-29T14:12:27Z</time>
      </trkpt>
      <trkpt lat="46.54636" lon="-0.77668">
        <ele>78.9</ele>
        <time>2012-12-29T14:12:31Z</time>
      </trkpt>
      <trkpt lat="46.54637" lon="-0.77661">
        <ele>79.1</ele>
        <time>2012-12-29T14:12:33Z</time>
      </trkpt>
      <trkpt lat="46.5464" lon="-0.77649">
        <ele>79.5</ele>
        <time>2012-12-29T14:12:37Z</time>
      </trkpt>
      <trkpt lat="46.54641" lon="-0.77642">
        <ele>80.3</ele>
        <time>2012-12-29T14:12:39Z</time>
      </trkpt>
      <trkpt lat="46.54643" lon="-0.77636">
        <ele>80.7</ele>
        <time>2012-12-29T14:12:41Z</time>
      </trkpt>
      <trkpt lat="46.54645" lon="-0.77624">
        <ele>80</ele>
        <time>2012-12-29T14:12:45Z</time>
      </trkpt>
      <trkpt lat="46.54649" lon="-0.77614">
        <ele>80</ele>
        <time>2012-12-29T14:12:49Z</time>
      </trkpt>
      <trkpt lat="46.54651" lon="-0.77604">
        <ele>80.6</ele>
        <time>2012-12-29T14:12:53Z</time>
      </trkpt>
      <trkpt lat="46.54653" lon="-0.77593">
        <ele>81.5</ele>
        <time>2012-12-29T14:12:57Z</time>
      </trkpt>
      <trkpt lat="46.54654" lon="-0.77588">
        <ele>81.7</ele>
        <time>2012-12-29T14:12:59Z</time>
      </trkpt>
      <trkpt lat="46.54654" lon="-0.77578">
        <ele>81.9</ele>
        <time>2012-12-29T14:13:03Z</time>
      </trkpt>
      <trkpt lat="46.54657" lon="-0.77558">
        <ele>82</ele>
        <time>2012-12-29T14:13:13Z</time>
      </trkpt>
      <trkpt lat="46.54657" lon="-0.7755">
        <ele>81.8</ele>
        <time>2012-12-29T14:13:17Z</time>
      </trkpt>
      <trkpt lat="46.54658" lon="-0.7754">
        <ele>82.9</ele>
        <time>2012-12-29T14:13:22Z</time>
      </trkpt>
      <trkpt lat="46.54659" lon="-0.77534">
        <ele>82.7</ele>
        <time>2012-12-29T14:13:25Z</time>
      </trkpt>
      <trkpt lat="46.54659" lon="-0.77523">
        <ele>83.2</ele>
        <time>2012-12-29T14:13:31Z</time>
      </trkpt>
      <trkpt lat="46.54657" lon="-0.77513">
        <ele>83.7</ele>
        <time>2012-12-29T14:13:35Z</time>
      </trkpt>
      <trkpt lat="46.54656" lon="-0.77504">
        <ele>83.7</ele>
        <time>2012-12-29T14:13:39Z</time>
      </trkpt>
      <trkpt lat="46.54655" lon="-0.77499">
        <ele>83.5</ele>
        <time>2012-12-29T14:13:41Z</time>
      </trkpt>
      <trkpt lat="46.5465" lon="-0.77482">
        <ele>82.9</ele>
        <time>2012-12-29T14:13:49Z</time>
      </trkpt>
      <trkpt lat="46.54649" lon="-0.77477">
        <ele>82.6</ele>
        <time>2012-12-29T14:13:51Z</time>
      </trkpt>
      <trkpt lat="46.54647" lon="-0.77467">
        <ele>83.1</ele>
        <time>2012-12-29T14:13:56Z</time>
      </trkpt>
      <trkpt lat="46.54642" lon="-0.77449">
        <ele>82.4</ele>
        <time>2012-12-29T14:14:04Z</time>
      </trkpt>
      <trkpt lat="46.54638" lon="-0.77434">
        <ele>81.4</ele>
        <time>2012-12-29T14:14:10Z</time>
      </trkpt>
      <trkpt lat="46.54636" lon="-0.77423">
        <ele>82.4</ele>
        <time>2012-12-29T14:14:15Z</time>
      </trkpt>
      <trkpt lat="46.54635" lon="-0.77416">
        <ele>82.6</ele>
        <time>2012-12-29T14:14:22Z</time>
      </trkpt>
      <trkpt lat="46.54634" lon="-0.77404">
        <ele>86.3</ele>
        <time>2012-12-29T14:15:35Z</time>
      </trkpt>
      <trkpt lat="46.54634" lon="-0.77393">
        <ele>87.2</ele>
        <time>2012-12-29T14:15:47Z</time>
      </trkpt>
      <trkpt lat="46.54635" lon="-0.77387">
        <ele>87.5</ele>
        <time>2012-12-29T14:15:49Z</time>
      </trkpt>
      <trkpt lat="46.54635" lon="-0.77377">
        <ele>87</ele>
        <time>2012-12-29T14:15:52Z</time>
      </trkpt>
      <trkpt lat="46.54635" lon="-0.77373">
        <ele>86.9</ele>
        <time>2012-12-29T14:15:53Z</time>
      </trkpt>
      <trkpt lat="46.54632" lon="-0.77363">
        <ele>86.6</ele>
        <time>2012-12-29T14:15:56Z</time>
      </trkpt>
      <trkpt lat="46.5463" lon="-0.77347">
        <ele>86.3</ele>
        <time>2012-12-29T14:16:00Z</time>
      </trkpt>
      <trkpt lat="46.54629" lon="-0.77339">
        <ele>86.3</ele>
        <time>2012-12-29T14:16:02Z</time>
      </trkpt>
      <trkpt lat="46.54628" lon="-0.77332">
        <ele>85.6</ele>
        <time>2012-12-29T14:16:04Z</time>
      </trkpt>
      <trkpt lat="46.54624" lon="-0.77324">
        <ele>85.2</ele>
        <time>2012-12-29T14:16:07Z</time>
      </trkpt>
      <trkpt lat="46.54622" lon="-0.7732">
        <ele>85.1</ele>
        <time>2012-12-29T14:16:09Z</time>
      </trkpt>
      <trkpt lat="46.54617" lon="-0.77309">
        <ele>86</ele>
        <time>2012-12-29T14:16:36Z</time>
      </trkpt>
      <trkpt lat="46.54614" lon="-0.77305">
        <ele>86.4</ele>
        <time>2012-12-29T14:18:08Z</time>
      </trkpt>
      <trkpt lat="46.54616" lon="-0.77299">
        <ele>83</ele>
        <time>2012-12-29T14:19:46Z</time>
      </trkpt>
      <trkpt lat="46.54614" lon="-0.7729">
        <ele>82.9</ele>
        <time>2012-12-29T14:19:51Z</time>
      </trkpt>
      <trkpt lat="46.54611" lon="-0.77281">
        <ele>83.7</ele>
        <time>2012-12-29T14:19:55Z</time>
      </trkpt>
      <trkpt lat="46.54608" lon="-0.77277">
        <ele>83.6</ele>
        <time>2012-12-29T14:19:57Z</time>
      </trkpt>
      <trkpt lat="46.54604" lon="-0.77267">
        <ele>84.4</ele>
        <time>2012-12-29T14:20:02Z</time>
      </trkpt>
      <trkpt lat="46.54603" lon="-0.77261">
        <ele>84.6</ele>
        <time>2012-12-29T14:20:05Z</time>
      </trkpt>
      <trkpt lat="46.54599" lon="-0.77252">
        <ele>84.8</ele>
        <time>2012-12-29T14:20:09Z</time>
      </trkpt>
      <trkpt lat="46.54596" lon="-0.77249">
        <ele>85.2</ele>
        <time>2012-12-29T14:20:11Z</time>
      </trkpt>
      <trkpt lat="46.54591" lon="-0.77241">
        <ele>84.3</ele>
        <time>2012-12-29T14:20:15Z</time>
      </trkpt>
      <trkpt lat="46.54589" lon="-0.77235">
        <ele>82.8</ele>
        <time>2012-12-29T14:20:25Z</time>
      </trkpt>
      <trkpt lat="46.54596" lon="-0.7723">
        <ele>81.7</ele>
        <time>2012-12-29T14:20:32Z</time>
      </trkpt>
      <trkpt lat="46.54604" lon="-0.77218">
        <ele>81.2</ele>
        <time>2012-12-29T14:20:38Z</time>
      </trkpt>
      <trkpt lat="46.54609" lon="-0.77214">
        <ele>80.9</ele>
        <time>2012-12-29T14:20:40Z</time>
      </trkpt>
      <trkpt lat="46.54616" lon="-0.77209">
        <ele>80.6</ele>
        <time>2012-12-29T14:20:42Z</time>
      </trkpt>
      <trkpt lat="46.5464" lon="-0.772">
        <ele>80.1</ele>
        <time>2012-12-29T14:20:46Z</time>
      </trkpt>
      <trkpt lat="46.54646" lon="-0.77197">
        <ele>79.7</ele>
        <time>2012-12-29T14:20:47Z</time>
      </trkpt>
      <trkpt lat="46.54653" lon="-0.77194">
        <ele>79.3</ele>
        <time>2012-12-29T14:20:48Z</time>
      </trkpt>
      <trkpt lat="46.54661" lon="-0.77193">
        <ele>79.1</ele>
        <time>2012-12-29T14:20:49Z</time>
      </trkpt>
      <trkpt lat="46.54684" lon="-0.77189">
        <ele>79.2</ele>
        <time>2012-12-29T14:20:52Z</time>
      </trkpt>
      <trkpt lat="46.5469" lon="-0.77187">
        <ele>79</ele>
        <time>2012-12-29T14:20:53Z</time>
      </trkpt>
      <trkpt lat="46.54702" lon="-0.77185">
        <ele>78.6</ele>
        <time>2012-12-29T14:20:55Z</time>
      </trkpt>
      <trkpt lat="46.54709" lon="-0.77183">
        <ele>78.3</ele>
        <time>2012-12-29T14:20:56Z</time>
      </trkpt>
      <trkpt lat="46.54719" lon="-0.7718">
        <ele>77.9</ele>
        <time>2012-12-29T14:20:58Z</time>
      </trkpt>
      <trkpt lat="46.54725" lon="-0.77178">
        <ele>77.8</ele>
        <time>2012-12-29T14:20:59Z</time>
      </trkpt>
      <trkpt lat="46.54734" lon="-0.77177">
        <ele>76.5</ele>
        <time>2012-12-29T14:21:01Z</time>
      </trkpt>
      <trkpt lat="46.54743" lon="-0.77176">
        <ele>75.5</ele>
        <time>2012-12-29T14:21:03Z</time>
      </trkpt>
      <trkpt lat="46.54747" lon="-0.77175">
        <ele>75.1</ele>
        <time>2012-12-29T14:21:04Z</time>
      </trkpt>
      <trkpt lat="46.54752" lon="-0.77176">
        <ele>74.8</ele>
        <time>2012-12-29T14:21:05Z</time>
      </trkpt>
      <trkpt lat="46.54761" lon="-0.77179">
        <ele>74.1</ele>
        <time>2012-12-29T14:21:07Z</time>
      </trkpt>
      <trkpt lat="46.54768" lon="-0.77182">
        <ele>73.1</ele>
        <time>2012-12-29T14:21:09Z</time>
      </trkpt>
      <trkpt lat="46.54775" lon="-0.77184">
        <ele>72.2</ele>
        <time>2012-12-29T14:21:11Z</time>
      </trkpt>
      <trkpt lat="46.54782" lon="-0.77184">
        <ele>70.7</ele>
        <time>2012-12-29T14:21:13Z</time>
      </trkpt>
      <trkpt lat="46.54789" lon="-0.77186">
        <ele>69.9</ele>
        <time>2012-12-29T14:21:15Z</time>
      </trkpt>
      <trkpt lat="46.54795" lon="-0.77188">
        <ele>69.2</ele>
        <time>2012-12-29T14:21:17Z</time>
      </trkpt>
      <trkpt lat="46.54802" lon="-0.7719">
        <ele>68.8</ele>
        <time>2012-12-29T14:21:20Z</time>
      </trkpt>
      <trkpt lat="46.54811" lon="-0.77192">
        <ele>69.2</ele>
        <time>2012-12-29T14:21:23Z</time>
      </trkpt>
      <trkpt lat="46.54816" lon="-0.77195">
        <ele>69.3</ele>
        <time>2012-12-29T14:21:25Z</time>
      </trkpt>
      <trkpt lat="46.5483" lon="-0.77203">
        <ele>70.4</ele>
        <time>2012-12-29T14:21:30Z</time>
      </trkpt>
      <trkpt lat="46.54835" lon="-0.77205">
        <ele>70.4</ele>
        <time>2012-12-29T14:21:32Z</time>
      </trkpt>
      <trkpt lat="46.54843" lon="-0.77205">
        <ele>69.8</ele>
        <time>2012-12-29T14:21:35Z</time>
      </trkpt>
      <trkpt lat="46.54848" lon="-0.77205">
        <ele>69.1</ele>
        <time>2012-12-29T14:21:37Z</time>
      </trkpt>
      <trkpt lat="46.54853" lon="-0.77206">
        <ele>69.4</ele>
        <time>2012-12-29T14:21:39Z</time>
      </trkpt>
      <trkpt lat="46.54862" lon="-0.77207">
        <ele>69.6</ele>
        <time>2012-12-29T14:21:43Z</time>
      </trkpt>
      <trkpt lat="46.54867" lon="-0.77206">
        <ele>69.8</ele>
        <time>2012-12-29T14:21:45Z</time>
      </trkpt>
      <trkpt lat="46.54874" lon="-0.77206">
        <ele>69.9</ele>
        <time>2012-12-29T14:21:48Z</time>
      </trkpt>
      <trkpt lat="46.54882" lon="-0.77204">
        <ele>70.8</ele>
        <time>2012-12-29T14:21:52Z</time>
      </trkpt>
      <trkpt lat="46.54897" lon="-0.77198">
        <ele>71.6</ele>
        <time>2012-12-29T14:22:00Z</time>
      </trkpt>
      <trkpt lat="46.549" lon="-0.77197">
        <ele>71.6</ele>
        <time>2012-12-29T14:22:02Z</time>
      </trkpt>
      <trkpt lat="46.54908" lon="-0.77193">
        <ele>73.9</ele>
        <time>2012-12-29T14:22:06Z</time>
      </trkpt>
      <trkpt lat="46.54916" lon="-0.77188">
        <ele>74</ele>
        <time>2012-12-29T14:22:10Z</time>
      </trkpt>
      <trkpt lat="46.54919" lon="-0.77186">
        <ele>74.2</ele>
        <time>2012-12-29T14:22:12Z</time>
      </trkpt>
      <trkpt lat="46.54925" lon="-0.77181">
        <ele>73.9</ele>
        <time>2012-12-29T14:22:16Z</time>
      </trkpt>
      <trkpt lat="46.54938" lon="-0.77171">
        <ele>76.2</ele>
        <time>2012-12-29T14:22:28Z</time>
      </trkpt>
      <trkpt lat="46.54942" lon="-0.77169">
        <ele>75.6</ele>
        <time>2012-12-29T14:22:38Z</time>
      </trkpt>
      <trkpt lat="46.54946" lon="-0.77166">
        <ele>74.2</ele>
        <time>2012-12-29T14:22:53Z</time>
      </trkpt>
      <trkpt lat="46.54952" lon="-0.77159">
        <ele>76.4</ele>
        <time>2012-12-29T14:23:48Z</time>
      </trkpt>
      <trkpt lat="46.54965" lon="-0.77152">
        <ele>76.8</ele>
        <time>2012-12-29T14:23:54Z</time>
      </trkpt>
      <trkpt lat="46.54969" lon="-0.77149">
        <ele>76.4</ele>
        <time>2012-12-29T14:23:56Z</time>
      </trkpt>
      <trkpt lat="46.54973" lon="-0.77146">
        <ele>76.3</ele>
        <time>2012-12-29T14:23:58Z</time>
      </trkpt>
      <trkpt lat="46.54977" lon="-0.77142">
        <ele>76.4</ele>
        <time>2012-12-29T14:24:00Z</time>
      </trkpt>
      <trkpt lat="46.54982" lon="-0.7714">
        <ele>77.3</ele>
        <time>2012-12-29T14:24:02Z</time>
      </trkpt>
      <trkpt lat="46.54989" lon="-0.77137">
        <ele>77.5</ele>
        <time>2012-12-29T14:24:05Z</time>
      </trkpt>
      <trkpt lat="46.55003" lon="-0.77135">
        <ele>77.1</ele>
        <time>2012-12-29T14:24:10Z</time>
      </trkpt>
      <trkpt lat="46.55009" lon="-0.77134">
        <ele>77.4</ele>
        <time>2012-12-29T14:24:12Z</time>
      </trkpt>
      <trkpt lat="46.55021" lon="-0.77131">
        <ele>77.2</ele>
        <time>2012-12-29T14:24:16Z</time>
      </trkpt>
      <trkpt lat="46.55027" lon="-0.77129">
        <ele>77.2</ele>
        <time>2012-12-29T14:24:18Z</time>
      </trkpt>
      <trkpt lat="46.55033" lon="-0.77126">
        <ele>77.4</ele>
        <time>2012-12-29T14:24:20Z</time>
      </trkpt>
      <trkpt lat="46.55038" lon="-0.77123">
        <ele>77.6</ele>
        <time>2012-12-29T14:24:22Z</time>
      </trkpt>
      <trkpt lat="46.55044" lon="-0.77119">
        <ele>78.2</ele>
        <time>2012-12-29T14:24:24Z</time>
      </trkpt>
      <trkpt lat="46.55049" lon="-0.77116">
        <ele>78.9</ele>
        <time>2012-12-29T14:24:26Z</time>
      </trkpt>
      <trkpt lat="46.55055" lon="-0.77112">
        <ele>79</ele>
        <time>2012-12-29T14:24:28Z</time>
      </trkpt>
      <trkpt lat="46.5506" lon="-0.7711">
        <ele>78.8</ele>
        <time>2012-12-29T14:24:30Z</time>
      </trkpt>
      <trkpt lat="46.55069" lon="-0.77107">
        <ele>78.8</ele>
        <time>2012-12-29T14:24:33Z</time>
      </trkpt>
      <trkpt lat="46.55075" lon="-0.77107">
        <ele>79.3</ele>
        <time>2012-12-29T14:24:35Z</time>
      </trkpt>
      <trkpt lat="46.55081" lon="-0.77109">
        <ele>79.8</ele>
        <time>2012-12-29T14:24:37Z</time>
      </trkpt>
      <trkpt lat="46.55087" lon="-0.77109">
        <ele>80.2</ele>
        <time>2012-12-29T14:24:39Z</time>
      </trkpt>
      <trkpt lat="46.55091" lon="-0.77109">
        <ele>81.2</ele>
        <time>2012-12-29T14:24:41Z</time>
      </trkpt>
      <trkpt lat="46.55091" lon="-0.77098">
        <ele>79.5</ele>
        <time>2012-12-29T14:24:49Z</time>
      </trkpt>
      <trkpt lat="46.55093" lon="-0.77103">
        <ele>79.4</ele>
        <time>2012-12-29T14:25:03Z</time>
      </trkpt>
      <trkpt lat="46.55097" lon="-0.77108">
        <ele>79.5</ele>
        <time>2012-12-29T14:25:05Z</time>
      </trkpt>
      <trkpt lat="46.55103" lon="-0.77111">
        <ele>79.4</ele>
        <time>2012-12-29T14:25:07Z</time>
      </trkpt>
      <trkpt lat="46.5511" lon="-0.77114">
        <ele>79.3</ele>
        <time>2012-12-29T14:25:09Z</time>
      </trkpt>
      <trkpt lat="46.55117" lon="-0.77115">
        <ele>79.2</ele>
        <time>2012-12-29T14:25:11Z</time>
      </trkpt>
      <trkpt lat="46.55122" lon="-0.77115">
        <ele>79.2</ele>
        <time>2012-12-29T14:25:12Z</time>
      </trkpt>
      <trkpt lat="46.55137" lon="-0.77113">
        <ele>78.8</ele>
        <time>2012-12-29T14:25:15Z</time>
      </trkpt>
      <trkpt lat="46.55146" lon="-0.77111">
        <ele>78.4</ele>
        <time>2012-12-29T14:25:17Z</time>
      </trkpt>
      <trkpt lat="46.55151" lon="-0.77108">
        <ele>78.7</ele>
        <time>2012-12-29T14:25:18Z</time>
      </trkpt>
      <trkpt lat="46.55159" lon="-0.77107">
        <ele>79</ele>
        <time>2012-12-29T14:25:20Z</time>
      </trkpt>
      <trkpt lat="46.55168" lon="-0.77108">
        <ele>79.3</ele>
        <time>2012-12-29T14:25:22Z</time>
      </trkpt>
      <trkpt lat="46.55177" lon="-0.77108">
        <ele>79.4</ele>
        <time>2012-12-29T14:25:24Z</time>
      </trkpt>
      <trkpt lat="46.55185" lon="-0.77107">
        <ele>79.7</ele>
        <time>2012-12-29T14:25:26Z</time>
      </trkpt>
      <trkpt lat="46.55192" lon="-0.77105">
        <ele>79.5</ele>
        <time>2012-12-29T14:25:28Z</time>
      </trkpt>
      <trkpt lat="46.552" lon="-0.77101">
        <ele>79</ele>
        <time>2012-12-29T14:25:30Z</time>
      </trkpt>
      <trkpt lat="46.55204" lon="-0.771">
        <ele>79.3</ele>
        <time>2012-12-29T14:25:31Z</time>
      </trkpt>
      <trkpt lat="46.55212" lon="-0.77098">
        <ele>79.7</ele>
        <time>2012-12-29T14:25:33Z</time>
      </trkpt>
      <trkpt lat="46.55219" lon="-0.77097">
        <ele>79.5</ele>
        <time>2012-12-29T14:25:35Z</time>
      </trkpt>
      <trkpt lat="46.55227" lon="-0.77097">
        <ele>79.4</ele>
        <time>2012-12-29T14:25:37Z</time>
      </trkpt>
      <trkpt lat="46.55234" lon="-0.77096">
        <ele>79.3</ele>
        <time>2012-12-29T14:25:39Z</time>
      </trkpt>
      <trkpt lat="46.5524" lon="-0.77097">
        <ele>79.5</ele>
        <time>2012-12-29T14:25:41Z</time>
      </trkpt>
      <trkpt lat="46.55248" lon="-0.77099">
        <ele>79.7</ele>
        <time>2012-12-29T14:25:44Z</time>
      </trkpt>
      <trkpt lat="46.55255" lon="-0.77098">
        <ele>79.8</ele>
        <time>2012-12-29T14:25:46Z</time>
      </trkpt>
      <trkpt lat="46.55263" lon="-0.77097">
        <ele>80.4</ele>
        <time>2012-12-29T14:25:48Z</time>
      </trkpt>
      <trkpt lat="46.55279" lon="-0.77087">
        <ele>79.9</ele>
        <time>2012-12-29T14:25:52Z</time>
      </trkpt>
      <trkpt lat="46.55287" lon="-0.77084">
        <ele>79.5</ele>
        <time>2012-12-29T14:25:54Z</time>
      </trkpt>
      <trkpt lat="46.55295" lon="-0.77082">
        <ele>78.9</ele>
        <time>2012-12-29T14:25:56Z</time>
      </trkpt>
      <trkpt lat="46.553" lon="-0.77082">
        <ele>78.5</ele>
        <time>2012-12-29T14:25:57Z</time>
      </trkpt>
      <trkpt lat="46.55308" lon="-0.7708">
        <ele>78.1</ele>
        <time>2012-12-29T14:25:59Z</time>
      </trkpt>
      <trkpt lat="46.55325" lon="-0.7708">
        <ele>77.7</ele>
        <time>2012-12-29T14:26:03Z</time>
      </trkpt>
      <trkpt lat="46.55334" lon="-0.77078">
        <ele>77.8</ele>
        <time>2012-12-29T14:26:05Z</time>
      </trkpt>
      <trkpt lat="46.55352" lon="-0.7708">
        <ele>77.1</ele>
        <time>2012-12-29T14:26:09Z</time>
      </trkpt>
      <trkpt lat="46.5536" lon="-0.77077">
        <ele>76.5</ele>
        <time>2012-12-29T14:26:11Z</time>
      </trkpt>
      <trkpt lat="46.55366" lon="-0.77072">
        <ele>76.7</ele>
        <time>2012-12-29T14:26:13Z</time>
      </trkpt>
      <trkpt lat="46.55371" lon="-0.77069">
        <ele>76.9</ele>
        <time>2012-12-29T14:26:15Z</time>
      </trkpt>
      <trkpt lat="46.55378" lon="-0.77065">
        <ele>76.5</ele>
        <time>2012-12-29T14:26:19Z</time>
      </trkpt>
      <trkpt lat="46.55381" lon="-0.77065">
        <ele>77.2</ele>
        <time>2012-12-29T14:26:36Z</time>
      </trkpt>
      <trkpt lat="46.55387" lon="-0.77062">
        <ele>77</ele>
        <time>2012-12-29T14:26:39Z</time>
      </trkpt>
      <trkpt lat="46.55392" lon="-0.7706">
        <ele>76.9</ele>
        <time>2012-12-29T14:26:41Z</time>
      </trkpt>
      <trkpt lat="46.55399" lon="-0.77062">
        <ele>76.8</ele>
        <time>2012-12-29T14:26:43Z</time>
      </trkpt>
      <trkpt lat="46.55406" lon="-0.77064">
        <ele>76.5</ele>
        <time>2012-12-29T14:26:45Z</time>
      </trkpt>
      <trkpt lat="46.55415" lon="-0.77064">
        <ele>76.1</ele>
        <time>2012-12-29T14:26:47Z</time>
      </trkpt>
      <trkpt lat="46.55423" lon="-0.77062">
        <ele>75.6</ele>
        <time>2012-12-29T14:26:49Z</time>
      </trkpt>
      <trkpt lat="46.55428" lon="-0.77063">
        <ele>75.5</ele>
        <time>2012-12-29T14:26:50Z</time>
      </trkpt>
      <trkpt lat="46.55432" lon="-0.77064">
        <ele>75.4</ele>
        <time>2012-12-29T14:26:51Z</time>
      </trkpt>
      <trkpt lat="46.55443" lon="-0.77064">
        <ele>75.2</ele>
        <time>2012-12-29T14:26:53Z</time>
      </trkpt>
      <trkpt lat="46.55448" lon="-0.77064">
        <ele>75.1</ele>
        <time>2012-12-29T14:26:54Z</time>
      </trkpt>
      <trkpt lat="46.5546" lon="-0.77064">
        <ele>74.9</ele>
        <time>2012-12-29T14:26:56Z</time>
      </trkpt>
      <trkpt lat="46.55466" lon="-0.77063">
        <ele>74.8</ele>
        <time>2012-12-29T14:26:57Z</time>
      </trkpt>
      <trkpt lat="46.55477" lon="-0.7706">
        <ele>74.6</ele>
        <time>2012-12-29T14:26:59Z</time>
      </trkpt>
      <trkpt lat="46.55488" lon="-0.77056">
        <ele>73.7</ele>
        <time>2012-12-29T14:27:01Z</time>
      </trkpt>
      <trkpt lat="46.55499" lon="-0.77054">
        <ele>73.3</ele>
        <time>2012-12-29T14:27:03Z</time>
      </trkpt>
      <trkpt lat="46.55503" lon="-0.77052">
        <ele>73.2</ele>
        <time>2012-12-29T14:27:04Z</time>
      </trkpt>
      <trkpt lat="46.55512" lon="-0.77049">
        <ele>73.1</ele>
        <time>2012-12-29T14:27:06Z</time>
      </trkpt>
      <trkpt lat="46.55522" lon="-0.77047">
        <ele>72.9</ele>
        <time>2012-12-29T14:27:08Z</time>
      </trkpt>
      <trkpt lat="46.55526" lon="-0.77046">
        <ele>72.8</ele>
        <time>2012-12-29T14:27:09Z</time>
      </trkpt>
      <trkpt lat="46.55533" lon="-0.77045">
        <ele>72.6</ele>
        <time>2012-12-29T14:27:11Z</time>
      </trkpt>
      <trkpt lat="46.55537" lon="-0.77042">
        <ele>71.8</ele>
        <time>2012-12-29T14:27:13Z</time>
      </trkpt>
      <trkpt lat="46.5554" lon="-0.77033">
        <ele>70.5</ele>
        <time>2012-12-29T14:27:24Z</time>
      </trkpt>
      <trkpt lat="46.55544" lon="-0.77024">
        <ele>70.1</ele>
        <time>2012-12-29T14:27:28Z</time>
      </trkpt>
      <trkpt lat="46.5555" lon="-0.77016">
        <ele>69.4</ele>
        <time>2012-12-29T14:27:32Z</time>
      </trkpt>
      <trkpt lat="46.55557" lon="-0.77015">
        <ele>68.4</ele>
        <time>2012-12-29T14:27:43Z</time>
      </trkpt>
      <trkpt lat="46.55563" lon="-0.77015">
        <ele>68.6</ele>
        <time>2012-12-29T14:27:45Z</time>
      </trkpt>
      <trkpt lat="46.55569" lon="-0.77016">
        <ele>68.5</ele>
        <time>2012-12-29T14:27:47Z</time>
      </trkpt>
      <trkpt lat="46.55587" lon="-0.77015">
        <ele>67.1</ele>
        <time>2012-12-29T14:27:51Z</time>
      </trkpt>
      <trkpt lat="46.55605" lon="-0.77012">
        <ele>66.2</ele>
        <time>2012-12-29T14:27:55Z</time>
      </trkpt>
      <trkpt lat="46.55613" lon="-0.77013">
        <ele>65.8</ele>
        <time>2012-12-29T14:27:57Z</time>
      </trkpt>
      <trkpt lat="46.55617" lon="-0.77014">
        <ele>65.7</ele>
        <time>2012-12-29T14:27:58Z</time>
      </trkpt>
      <trkpt lat="46.55624" lon="-0.77015">
        <ele>65.5</ele>
        <time>2012-12-29T14:28:00Z</time>
      </trkpt>
      <trkpt lat="46.55634" lon="-0.77019">
        <ele>65.9</ele>
        <time>2012-12-29T14:28:03Z</time>
      </trkpt>
      <trkpt lat="46.55641" lon="-0.77023">
        <ele>66.5</ele>
        <time>2012-12-29T14:28:05Z</time>
      </trkpt>
      <trkpt lat="46.55647" lon="-0.77026">
        <ele>66.5</ele>
        <time>2012-12-29T14:28:07Z</time>
      </trkpt>
      <trkpt lat="46.55653" lon="-0.7703">
        <ele>66.2</ele>
        <time>2012-12-29T14:28:09Z</time>
      </trkpt>
      <trkpt lat="46.55656" lon="-0.77032">
        <ele>66.3</ele>
        <time>2012-12-29T14:28:10Z</time>
      </trkpt>
      <trkpt lat="46.55662" lon="-0.77035">
        <ele>66.5</ele>
        <time>2012-12-29T14:28:12Z</time>
      </trkpt>
      <trkpt lat="46.55674" lon="-0.77042">
        <ele>67.9</ele>
        <time>2012-12-29T14:28:16Z</time>
      </trkpt>
      <trkpt lat="46.5568" lon="-0.77045">
        <ele>68.3</ele>
        <time>2012-12-29T14:28:18Z</time>
      </trkpt>
      <trkpt lat="46.55686" lon="-0.77049">
        <ele>69</ele>
        <time>2012-12-29T14:28:20Z</time>
      </trkpt>
      <trkpt lat="46.55692" lon="-0.77052">
        <ele>69.8</ele>
        <time>2012-12-29T14:28:22Z</time>
      </trkpt>
      <trkpt lat="46.55697" lon="-0.77056">
        <ele>69.2</ele>
        <time>2012-12-29T14:28:24Z</time>
      </trkpt>
      <trkpt lat="46.55709" lon="-0.77061">
        <ele>69.4</ele>
        <time>2012-12-29T14:28:28Z</time>
      </trkpt>
      <trkpt lat="46.55715" lon="-0.77065">
        <ele>69.5</ele>
        <time>2012-12-29T14:28:30Z</time>
      </trkpt>
      <trkpt lat="46.55718" lon="-0.77067">
        <ele>69.5</ele>
        <time>2012-12-29T14:28:31Z</time>
      </trkpt>
      <trkpt lat="46.55731" lon="-0.77074">
        <ele>70.2</ele>
        <time>2012-12-29T14:28:35Z</time>
      </trkpt>
      <trkpt lat="46.55738" lon="-0.77078">
        <ele>70.5</ele>
        <time>2012-12-29T14:28:37Z</time>
      </trkpt>
      <trkpt lat="46.55741" lon="-0.77079">
        <ele>70.6</ele>
        <time>2012-12-29T14:28:38Z</time>
      </trkpt>
      <trkpt lat="46.55755" lon="-0.77086">
        <ele>70.3</ele>
        <time>2012-12-29T14:28:42Z</time>
      </trkpt>
      <trkpt lat="46.55762" lon="-0.7709">
        <ele>69.9</ele>
        <time>2012-12-29T14:28:44Z</time>
      </trkpt>
      <trkpt lat="46.55773" lon="-0.77094">
        <ele>69.8</ele>
        <time>2012-12-29T14:28:47Z</time>
      </trkpt>
      <trkpt lat="46.55781" lon="-0.77096">
        <ele>69.8</ele>
        <time>2012-12-29T14:28:49Z</time>
      </trkpt>
      <trkpt lat="46.55788" lon="-0.77098">
        <ele>69.9</ele>
        <time>2012-12-29T14:28:51Z</time>
      </trkpt>
      <trkpt lat="46.55796" lon="-0.771">
        <ele>69.5</ele>
        <time>2012-12-29T14:28:53Z</time>
      </trkpt>
      <trkpt lat="46.558" lon="-0.77101">
        <ele>69.4</ele>
        <time>2012-12-29T14:28:54Z</time>
      </trkpt>
      <trkpt lat="46.55807" lon="-0.77102">
        <ele>70</ele>
        <time>2012-12-29T14:28:56Z</time>
      </trkpt>
      <trkpt lat="46.55811" lon="-0.77103">
        <ele>70.2</ele>
        <time>2012-12-29T14:28:57Z</time>
      </trkpt>
      <trkpt lat="46.55818" lon="-0.77105">
        <ele>70.3</ele>
        <time>2012-12-29T14:28:59Z</time>
      </trkpt>
      <trkpt lat="46.55826" lon="-0.77106">
        <ele>70.3</ele>
        <time>2012-12-29T14:29:01Z</time>
      </trkpt>
      <trkpt lat="46.55833" lon="-0.77107">
        <ele>71.3</ele>
        <time>2012-12-29T14:29:03Z</time>
      </trkpt>
      <trkpt lat="46.5584" lon="-0.77103">
        <ele>71.3</ele>
        <time>2012-12-29T14:29:05Z</time>
      </trkpt>
      <trkpt lat="46.55847" lon="-0.77098">
        <ele>70.9</ele>
        <time>2012-12-29T14:29:07Z</time>
      </trkpt>
      <trkpt lat="46.55851" lon="-0.7709">
        <ele>71.7</ele>
        <time>2012-12-29T14:29:09Z</time>
      </trkpt>
      <trkpt lat="46.55859" lon="-0.77072">
        <ele>71.8</ele>
        <time>2012-12-29T14:29:13Z</time>
      </trkpt>
      <trkpt lat="46.55863" lon="-0.77063">
        <ele>72</ele>
        <time>2012-12-29T14:29:15Z</time>
      </trkpt>
      <trkpt lat="46.5587" lon="-0.77045">
        <ele>72.5</ele>
        <time>2012-12-29T14:29:19Z</time>
      </trkpt>
      <trkpt lat="46.55872" lon="-0.7704">
        <ele>72.7</ele>
        <time>2012-12-29T14:29:20Z</time>
      </trkpt>
      <trkpt lat="46.55876" lon="-0.77031">
        <ele>72.4</ele>
        <time>2012-12-29T14:29:22Z</time>
      </trkpt>
      <trkpt lat="46.55879" lon="-0.77022">
        <ele>72.3</ele>
        <time>2012-12-29T14:29:24Z</time>
      </trkpt>
      <trkpt lat="46.55881" lon="-0.77017">
        <ele>72.3</ele>
        <time>2012-12-29T14:29:25Z</time>
      </trkpt>
      <trkpt lat="46.55889" lon="-0.76997">
        <ele>72.6</ele>
        <time>2012-12-29T14:29:29Z</time>
      </trkpt>
      <trkpt lat="46.55891" lon="-0.76992">
        <ele>73</ele>
        <time>2012-12-29T14:29:30Z</time>
      </trkpt>
      <trkpt lat="46.55895" lon="-0.76982">
        <ele>73.5</ele>
        <time>2012-12-29T14:29:32Z</time>
      </trkpt>
      <trkpt lat="46.55897" lon="-0.76977">
        <ele>73.7</ele>
        <time>2012-12-29T14:29:33Z</time>
      </trkpt>
      <trkpt lat="46.55901" lon="-0.76967">
        <ele>73.1</ele>
        <time>2012-12-29T14:29:35Z</time>
      </trkpt>
      <trkpt lat="46.55902" lon="-0.76963">
        <ele>72.9</ele>
        <time>2012-12-29T14:29:36Z</time>
      </trkpt>
      <trkpt lat="46.55906" lon="-0.76952">
        <ele>73.6</ele>
        <time>2012-12-29T14:29:38Z</time>
      </trkpt>
      <trkpt lat="46.5591" lon="-0.76942">
        <ele>73.9</ele>
        <time>2012-12-29T14:29:40Z</time>
      </trkpt>
      <trkpt lat="46.55913" lon="-0.76932">
        <ele>73.9</ele>
        <time>2012-12-29T14:29:42Z</time>
      </trkpt>
      <trkpt lat="46.55915" lon="-0.76927">
        <ele>73.9</ele>
        <time>2012-12-29T14:29:43Z</time>
      </trkpt>
      <trkpt lat="46.55922" lon="-0.76908">
        <ele>74.8</ele>
        <time>2012-12-29T14:29:47Z</time>
      </trkpt>
      <trkpt lat="46.55925" lon="-0.76898">
        <ele>75.1</ele>
        <time>2012-12-29T14:29:49Z</time>
      </trkpt>
      <trkpt lat="46.55929" lon="-0.76877">
        <ele>75.3</ele>
        <time>2012-12-29T14:29:53Z</time>
      </trkpt>
      <trkpt lat="46.55931" lon="-0.76866">
        <ele>75.7</ele>
        <time>2012-12-29T14:29:55Z</time>
      </trkpt>
      <trkpt lat="46.55934" lon="-0.76849">
        <ele>76.9</ele>
        <time>2012-12-29T14:29:58Z</time>
      </trkpt>
      <trkpt lat="46.55939" lon="-0.76826">
        <ele>76.4</ele>
        <time>2012-12-29T14:30:02Z</time>
      </trkpt>
      <trkpt lat="46.5594" lon="-0.76814">
        <ele>76.1</ele>
        <time>2012-12-29T14:30:04Z</time>
      </trkpt>
      <trkpt lat="46.55941" lon="-0.76808">
        <ele>76.3</ele>
        <time>2012-12-29T14:30:05Z</time>
      </trkpt>
      <trkpt lat="46.55946" lon="-0.76783">
        <ele>77.3</ele>
        <time>2012-12-29T14:30:09Z</time>
      </trkpt>
      <trkpt lat="46.55947" lon="-0.76777">
        <ele>77.8</ele>
        <time>2012-12-29T14:30:10Z</time>
      </trkpt>
      <trkpt lat="46.55949" lon="-0.76764">
        <ele>78.1</ele>
        <time>2012-12-29T14:30:12Z</time>
      </trkpt>
      <trkpt lat="46.5595" lon="-0.76745">
        <ele>78</ele>
        <time>2012-12-29T14:30:15Z</time>
      </trkpt>
      <trkpt lat="46.55951" lon="-0.76732">
        <ele>78</ele>
        <time>2012-12-29T14:30:17Z</time>
      </trkpt>
      <trkpt lat="46.55952" lon="-0.76725">
        <ele>78.6</ele>
        <time>2012-12-29T14:30:18Z</time>
      </trkpt>
      <trkpt lat="46.55953" lon="-0.76718">
        <ele>79</ele>
        <time>2012-12-29T14:30:19Z</time>
      </trkpt>
      <trkpt lat="46.55953" lon="-0.76705">
        <ele>79</ele>
        <time>2012-12-29T14:30:21Z</time>
      </trkpt>
      <trkpt lat="46.55953" lon="-0.76698">
        <ele>78.8</ele>
        <time>2012-12-29T14:30:22Z</time>
      </trkpt>
      <trkpt lat="46.55954" lon="-0.76686">
        <ele>78.5</ele>
        <time>2012-12-29T14:30:24Z</time>
      </trkpt>
      <trkpt lat="46.55955" lon="-0.76664">
        <ele>78.4</ele>
        <time>2012-12-29T14:30:28Z</time>
      </trkpt>
      <trkpt lat="46.55955" lon="-0.76652">
        <ele>78.3</ele>
        <time>2012-12-29T14:30:30Z</time>
      </trkpt>
      <trkpt lat="46.55954" lon="-0.76646">
        <ele>79</ele>
        <time>2012-12-29T14:30:31Z</time>
      </trkpt>
      <trkpt lat="46.55954" lon="-0.76635">
        <ele>80</ele>
        <time>2012-12-29T14:30:33Z</time>
      </trkpt>
      <trkpt lat="46.55954" lon="-0.76613">
        <ele>80</ele>
        <time>2012-12-29T14:30:37Z</time>
      </trkpt>
      <trkpt lat="46.55954" lon="-0.76595">
        <ele>79.3</ele>
        <time>2012-12-29T14:30:40Z</time>
      </trkpt>
      <trkpt lat="46.55953" lon="-0.76589">
        <ele>79.1</ele>
        <time>2012-12-29T14:30:41Z</time>
      </trkpt>
      <trkpt lat="46.55953" lon="-0.76571">
        <ele>78.9</ele>
        <time>2012-12-29T14:30:44Z</time>
      </trkpt>
      <trkpt lat="46.55954" lon="-0.76559">
        <ele>79</ele>
        <time>2012-12-29T14:30:46Z</time>
      </trkpt>
      <trkpt lat="46.55954" lon="-0.76548">
        <ele>78.8</ele>
        <time>2012-12-29T14:30:48Z</time>
      </trkpt>
      <trkpt lat="46.55955" lon="-0.76536">
        <ele>78.5</ele>
        <time>2012-12-29T14:30:50Z</time>
      </trkpt>
      <trkpt lat="46.55957" lon="-0.76519">
        <ele>78.5</ele>
        <time>2012-12-29T14:30:53Z</time>
      </trkpt>
      <trkpt lat="46.55958" lon="-0.76513">
        <ele>78.7</ele>
        <time>2012-12-29T14:30:54Z</time>
      </trkpt>
      <trkpt lat="46.5596" lon="-0.76501">
        <ele>79</ele>
        <time>2012-12-29T14:30:56Z</time>
      </trkpt>
      <trkpt lat="46.55963" lon="-0.76478">
        <ele>79.3</ele>
        <time>2012-12-29T14:31:00Z</time>
      </trkpt>
      <trkpt lat="46.55964" lon="-0.76472">
        <ele>79.2</ele>
        <time>2012-12-29T14:31:01Z</time>
      </trkpt>
      <trkpt lat="46.55965" lon="-0.7646">
        <ele>79.3</ele>
        <time>2012-12-29T14:31:03Z</time>
      </trkpt>
      <trkpt lat="46.55966" lon="-0.76447">
        <ele>79.4</ele>
        <time>2012-12-29T14:31:05Z</time>
      </trkpt>
      <trkpt lat="46.55966" lon="-0.76441">
        <ele>79.7</ele>
        <time>2012-12-29T14:31:06Z</time>
      </trkpt>
      <trkpt lat="46.55965" lon="-0.76429">
        <ele>80</ele>
        <time>2012-12-29T14:31:08Z</time>
      </trkpt>
      <trkpt lat="46.55964" lon="-0.76416">
        <ele>80</ele>
        <time>2012-12-29T14:31:10Z</time>
      </trkpt>
      <trkpt lat="46.55962" lon="-0.76404">
        <ele>80.3</ele>
        <time>2012-12-29T14:31:12Z</time>
      </trkpt>
      <trkpt lat="46.5596" lon="-0.76393">
        <ele>80.5</ele>
        <time>2012-12-29T14:31:14Z</time>
      </trkpt>
      <trkpt lat="46.55956" lon="-0.76382">
        <ele>80.8</ele>
        <time>2012-12-29T14:31:16Z</time>
      </trkpt>
      <trkpt lat="46.55953" lon="-0.76371">
        <ele>81.1</ele>
        <time>2012-12-29T14:31:18Z</time>
      </trkpt>
      <trkpt lat="46.55946" lon="-0.76348">
        <ele>81.1</ele>
        <time>2012-12-29T14:31:22Z</time>
      </trkpt>
      <trkpt lat="46.55943" lon="-0.76337">
        <ele>81.1</ele>
        <time>2012-12-29T14:31:24Z</time>
      </trkpt>
      <trkpt lat="46.55941" lon="-0.76331">
        <ele>81.3</ele>
        <time>2012-12-29T14:31:25Z</time>
      </trkpt>
      <trkpt lat="46.55939" lon="-0.76319">
        <ele>81.5</ele>
        <time>2012-12-29T14:31:27Z</time>
      </trkpt>
      <trkpt lat="46.55938" lon="-0.76307">
        <ele>82.2</ele>
        <time>2012-12-29T14:31:29Z</time>
      </trkpt>
      <trkpt lat="46.55938" lon="-0.763">
        <ele>82.4</ele>
        <time>2012-12-29T14:31:30Z</time>
      </trkpt>
      <trkpt lat="46.55937" lon="-0.76289">
        <ele>82.8</ele>
        <time>2012-12-29T14:31:32Z</time>
      </trkpt>
      <trkpt lat="46.55938" lon="-0.76276">
        <ele>83.1</ele>
        <time>2012-12-29T14:31:34Z</time>
      </trkpt>
      <trkpt lat="46.55938" lon="-0.76264">
        <ele>83.4</ele>
        <time>2012-12-29T14:31:36Z</time>
      </trkpt>
      <trkpt lat="46.5594" lon="-0.76252">
        <ele>83.6</ele>
        <time>2012-12-29T14:31:38Z</time>
      </trkpt>
      <trkpt lat="46.55943" lon="-0.76234">
        <ele>84</ele>
        <time>2012-12-29T14:31:41Z</time>
      </trkpt>
      <trkpt lat="46.55944" lon="-0.76228">
        <ele>84.3</ele>
        <time>2012-12-29T14:31:42Z</time>
      </trkpt>
      <trkpt lat="46.55947" lon="-0.76216">
        <ele>84.4</ele>
        <time>2012-12-29T14:31:44Z</time>
      </trkpt>
      <trkpt lat="46.55953" lon="-0.76199">
        <ele>84.4</ele>
        <time>2012-12-29T14:31:47Z</time>
      </trkpt>
      <trkpt lat="46.55955" lon="-0.76193">
        <ele>84.9</ele>
        <time>2012-12-29T14:31:48Z</time>
      </trkpt>
      <trkpt lat="46.5596" lon="-0.76182">
        <ele>85.5</ele>
        <time>2012-12-29T14:31:50Z</time>
      </trkpt>
      <trkpt lat="46.55969" lon="-0.76159">
        <ele>85.2</ele>
        <time>2012-12-29T14:31:54Z</time>
      </trkpt>
      <trkpt lat="46.55978" lon="-0.76137">
        <ele>84.6</ele>
        <time>2012-12-29T14:31:58Z</time>
      </trkpt>
      <trkpt lat="46.5598" lon="-0.76131">
        <ele>84.3</ele>
        <time>2012-12-29T14:31:59Z</time>
      </trkpt>
      <trkpt lat="46.55984" lon="-0.76121">
        <ele>85</ele>
        <time>2012-12-29T14:32:01Z</time>
      </trkpt>
      <trkpt lat="46.55988" lon="-0.7611">
        <ele>85.9</ele>
        <time>2012-12-29T14:32:03Z</time>
      </trkpt>
      <trkpt lat="46.55995" lon="-0.76089">
        <ele>86.9</ele>
        <time>2012-12-29T14:32:07Z</time>
      </trkpt>
      <trkpt lat="46.56002" lon="-0.7607">
        <ele>86.3</ele>
        <time>2012-12-29T14:32:11Z</time>
      </trkpt>
      <trkpt lat="46.56005" lon="-0.76062">
        <ele>85.9</ele>
        <time>2012-12-29T14:32:13Z</time>
      </trkpt>
      <trkpt lat="46.56006" lon="-0.76057">
        <ele>85.6</ele>
        <time>2012-12-29T14:32:14Z</time>
      </trkpt>
      <trkpt lat="46.56013" lon="-0.76038">
        <ele>86.4</ele>
        <time>2012-12-29T14:32:18Z</time>
      </trkpt>
      <trkpt lat="46.56016" lon="-0.76029">
        <ele>86.7</ele>
        <time>2012-12-29T14:32:20Z</time>
      </trkpt>
      <trkpt lat="46.5602" lon="-0.7602">
        <ele>86.9</ele>
        <time>2012-12-29T14:32:22Z</time>
      </trkpt>
      <trkpt lat="46.56023" lon="-0.76011">
        <ele>87.6</ele>
        <time>2012-12-29T14:32:24Z</time>
      </trkpt>
      <trkpt lat="46.5603" lon="-0.75991">
        <ele>88.1</ele>
        <time>2012-12-29T14:32:28Z</time>
      </trkpt>
      <trkpt lat="46.56037" lon="-0.75971">
        <ele>88.1</ele>
        <time>2012-12-29T14:32:32Z</time>
      </trkpt>
      <trkpt lat="46.56041" lon="-0.75961">
        <ele>88.2</ele>
        <time>2012-12-29T14:32:34Z</time>
      </trkpt>
      <trkpt lat="46.56042" lon="-0.75956">
        <ele>88.5</ele>
        <time>2012-12-29T14:32:35Z</time>
      </trkpt>
      <trkpt lat="46.56046" lon="-0.75946">
        <ele>89</ele>
        <time>2012-12-29T14:32:37Z</time>
      </trkpt>
      <trkpt lat="46.56049" lon="-0.75936">
        <ele>88.8</ele>
        <time>2012-12-29T14:32:39Z</time>
      </trkpt>
      <trkpt lat="46.56051" lon="-0.75931">
        <ele>88.6</ele>
        <time>2012-12-29T14:32:40Z</time>
      </trkpt>
      <trkpt lat="46.56056" lon="-0.75916">
        <ele>89.2</ele>
        <time>2012-12-29T14:32:43Z</time>
      </trkpt>
      <trkpt lat="46.5606" lon="-0.75906">
        <ele>89.4</ele>
        <time>2012-12-29T14:32:45Z</time>
      </trkpt>
      <trkpt lat="46.56062" lon="-0.75901">
        <ele>89.3</ele>
        <time>2012-12-29T14:32:46Z</time>
      </trkpt>
      <trkpt lat="46.56068" lon="-0.75881">
        <ele>89.4</ele>
        <time>2012-12-29T14:32:50Z</time>
      </trkpt>
      <trkpt lat="46.56076" lon="-0.75862">
        <ele>89.6</ele>
        <time>2012-12-29T14:32:54Z</time>
      </trkpt>
      <trkpt lat="46.56078" lon="-0.75858">
        <ele>89.5</ele>
        <time>2012-12-29T14:32:55Z</time>
      </trkpt>
      <trkpt lat="46.56083" lon="-0.75852">
        <ele>89.3</ele>
        <time>2012-12-29T14:32:57Z</time>
      </trkpt>
      <trkpt lat="46.56089" lon="-0.75848">
        <ele>89.6</ele>
        <time>2012-12-29T14:32:59Z</time>
      </trkpt>
      <trkpt lat="46.56096" lon="-0.75846">
        <ele>90.2</ele>
        <time>2012-12-29T14:33:01Z</time>
      </trkpt>
      <trkpt lat="46.5611" lon="-0.75843">
        <ele>90.3</ele>
        <time>2012-12-29T14:33:05Z</time>
      </trkpt>
      <trkpt lat="46.56114" lon="-0.75842">
        <ele>90.1</ele>
        <time>2012-12-29T14:33:06Z</time>
      </trkpt>
      <trkpt lat="46.56121" lon="-0.7584">
        <ele>90.7</ele>
        <time>2012-12-29T14:33:08Z</time>
      </trkpt>
      <trkpt lat="46.56128" lon="-0.75837">
        <ele>90.8</ele>
        <time>2012-12-29T14:33:10Z</time>
      </trkpt>
      <trkpt lat="46.56138" lon="-0.75831">
        <ele>90.7</ele>
        <time>2012-12-29T14:33:13Z</time>
      </trkpt>
      <trkpt lat="46.56152" lon="-0.75822">
        <ele>90.4</ele>
        <time>2012-12-29T14:33:17Z</time>
      </trkpt>
      <trkpt lat="46.56165" lon="-0.75811">
        <ele>90.3</ele>
        <time>2012-12-29T14:33:21Z</time>
      </trkpt>
      <trkpt lat="46.56168" lon="-0.75808">
        <ele>90.5</ele>
        <time>2012-12-29T14:33:22Z</time>
      </trkpt>
      <trkpt lat="46.56174" lon="-0.75802">
        <ele>90.4</ele>
        <time>2012-12-29T14:33:24Z</time>
      </trkpt>
      <trkpt lat="46.56187" lon="-0.75792">
        <ele>90.3</ele>
        <time>2012-12-29T14:33:28Z</time>
      </trkpt>
      <trkpt lat="46.56194" lon="-0.75788">
        <ele>90.5</ele>
        <time>2012-12-29T14:33:30Z</time>
      </trkpt>
      <trkpt lat="46.562" lon="-0.75783">
        <ele>90.7</ele>
        <time>2012-12-29T14:33:32Z</time>
      </trkpt>
      <trkpt lat="46.56213" lon="-0.75774">
        <ele>91.4</ele>
        <time>2012-12-29T14:33:36Z</time>
      </trkpt>
      <trkpt lat="46.56219" lon="-0.7577">
        <ele>91.5</ele>
        <time>2012-12-29T14:33:38Z</time>
      </trkpt>
      <trkpt lat="46.56224" lon="-0.75766">
        <ele>90.9</ele>
        <time>2012-12-29T14:33:40Z</time>
      </trkpt>
      <trkpt lat="46.56229" lon="-0.75763">
        <ele>90.9</ele>
        <time>2012-12-29T14:33:42Z</time>
      </trkpt>
      <trkpt lat="46.56234" lon="-0.75762">
        <ele>91.1</ele>
        <time>2012-12-29T14:33:44Z</time>
      </trkpt>
      <trkpt lat="46.5624" lon="-0.75766">
        <ele>91.3</ele>
        <time>2012-12-29T14:33:46Z</time>
      </trkpt>
      <trkpt lat="46.56246" lon="-0.75771">
        <ele>91.4</ele>
        <time>2012-12-29T14:33:48Z</time>
      </trkpt>
      <trkpt lat="46.56252" lon="-0.75778">
        <ele>92</ele>
        <time>2012-12-29T14:33:50Z</time>
      </trkpt>
      <trkpt lat="46.56259" lon="-0.75783">
        <ele>92.2</ele>
        <time>2012-12-29T14:33:52Z</time>
      </trkpt>
      <trkpt lat="46.56272" lon="-0.75795">
        <ele>92.5</ele>
        <time>2012-12-29T14:33:56Z</time>
      </trkpt>
      <trkpt lat="46.56276" lon="-0.75797">
        <ele>92.5</ele>
        <time>2012-12-29T14:33:57Z</time>
      </trkpt>
      <trkpt lat="46.56283" lon="-0.75803">
        <ele>92.7</ele>
        <time>2012-12-29T14:33:59Z</time>
      </trkpt>
      <trkpt lat="46.5629" lon="-0.75808">
        <ele>92.8</ele>
        <time>2012-12-29T14:34:01Z</time>
      </trkpt>
      <trkpt lat="46.56298" lon="-0.75813">
        <ele>93.1</ele>
        <time>2012-12-29T14:34:03Z</time>
      </trkpt>
      <trkpt lat="46.5631" lon="-0.75821">
        <ele>93.1</ele>
        <time>2012-12-29T14:34:06Z</time>
      </trkpt>
      <trkpt lat="46.56325" lon="-0.75832">
        <ele>93.3</ele>
        <time>2012-12-29T14:34:10Z</time>
      </trkpt>
      <trkpt lat="46.56339" lon="-0.75842">
        <ele>92.6</ele>
        <time>2012-12-29T14:34:14Z</time>
      </trkpt>
      <trkpt lat="46.56346" lon="-0.75847">
        <ele>92.3</ele>
        <time>2012-12-29T14:34:16Z</time>
      </trkpt>
      <trkpt lat="46.56361" lon="-0.75857">
        <ele>91.6</ele>
        <time>2012-12-29T14:34:20Z</time>
      </trkpt>
      <trkpt lat="46.56376" lon="-0.75867">
        <ele>92</ele>
        <time>2012-12-29T14:34:24Z</time>
      </trkpt>
      <trkpt lat="46.56383" lon="-0.75873">
        <ele>92.1</ele>
        <time>2012-12-29T14:34:26Z</time>
      </trkpt>
      <trkpt lat="46.56399" lon="-0.75883">
        <ele>92.4</ele>
        <time>2012-12-29T14:34:30Z</time>
      </trkpt>
      <trkpt lat="46.56406" lon="-0.75889">
        <ele>92.4</ele>
        <time>2012-12-29T14:34:32Z</time>
      </trkpt>
      <trkpt lat="46.56409" lon="-0.75892">
        <ele>92.4</ele>
        <time>2012-12-29T14:34:33Z</time>
      </trkpt>
      <trkpt lat="46.56426" lon="-0.75903">
        <ele>92.2</ele>
        <time>2012-12-29T14:34:37Z</time>
      </trkpt>
      <trkpt lat="46.56431" lon="-0.75906">
        <ele>92.5</ele>
        <time>2012-12-29T14:34:38Z</time>
      </trkpt>
      <trkpt lat="46.5644" lon="-0.75913">
        <ele>92.4</ele>
        <time>2012-12-29T14:34:40Z</time>
      </trkpt>
      <trkpt lat="46.56454" lon="-0.75921">
        <ele>92.4</ele>
        <time>2012-12-29T14:34:43Z</time>
      </trkpt>
      <trkpt lat="46.56472" lon="-0.75934">
        <ele>93</ele>
        <time>2012-12-29T14:34:47Z</time>
      </trkpt>
      <trkpt lat="46.56481" lon="-0.7594">
        <ele>93.1</ele>
        <time>2012-12-29T14:34:49Z</time>
      </trkpt>
      <trkpt lat="46.56491" lon="-0.75947">
        <ele>93.2</ele>
        <time>2012-12-29T14:34:51Z</time>
      </trkpt>
      <trkpt lat="46.56501" lon="-0.75954">
        <ele>93.5</ele>
        <time>2012-12-29T14:34:53Z</time>
      </trkpt>
      <trkpt lat="46.56512" lon="-0.75962">
        <ele>93.8</ele>
        <time>2012-12-29T14:34:55Z</time>
      </trkpt>
      <trkpt lat="46.56517" lon="-0.75965">
        <ele>93.5</ele>
        <time>2012-12-29T14:34:56Z</time>
      </trkpt>
      <trkpt lat="46.5654" lon="-0.75981">
        <ele>92.5</ele>
        <time>2012-12-29T14:35:00Z</time>
      </trkpt>
      <trkpt lat="46.56563" lon="-0.75997">
        <ele>92.1</ele>
        <time>2012-12-29T14:35:04Z</time>
      </trkpt>
      <trkpt lat="46.56581" lon="-0.76009">
        <ele>92.5</ele>
        <time>2012-12-29T14:35:07Z</time>
      </trkpt>
      <trkpt lat="46.566" lon="-0.76022">
        <ele>92.4</ele>
        <time>2012-12-29T14:35:10Z</time>
      </trkpt>
      <trkpt lat="46.56613" lon="-0.76031">
        <ele>92.3</ele>
        <time>2012-12-29T14:35:12Z</time>
      </trkpt>
      <trkpt lat="46.56638" lon="-0.7605">
        <ele>91.6</ele>
        <time>2012-12-29T14:35:16Z</time>
      </trkpt>
      <trkpt lat="46.56651" lon="-0.76059">
        <ele>91.4</ele>
        <time>2012-12-29T14:35:18Z</time>
      </trkpt>
      <trkpt lat="46.56676" lon="-0.76076">
        <ele>91.5</ele>
        <time>2012-12-29T14:35:22Z</time>
      </trkpt>
      <trkpt lat="46.56682" lon="-0.7608">
        <ele>91.5</ele>
        <time>2012-12-29T14:35:23Z</time>
      </trkpt>
      <trkpt lat="46.56705" lon="-0.76096">
        <ele>91.1</ele>
        <time>2012-12-29T14:35:27Z</time>
      </trkpt>
      <trkpt lat="46.56711" lon="-0.761">
        <ele>91.2</ele>
        <time>2012-12-29T14:35:28Z</time>
      </trkpt>
      <trkpt lat="46.56722" lon="-0.76107">
        <ele>91.3</ele>
        <time>2012-12-29T14:35:30Z</time>
      </trkpt>
      <trkpt lat="46.56728" lon="-0.76111">
        <ele>91.5</ele>
        <time>2012-12-29T14:35:31Z</time>
      </trkpt>
      <trkpt lat="46.5675" lon="-0.76123">
        <ele>91.3</ele>
        <time>2012-12-29T14:35:35Z</time>
      </trkpt>
      <trkpt lat="46.56755" lon="-0.76126">
        <ele>91.2</ele>
        <time>2012-12-29T14:35:36Z</time>
      </trkpt>
      <trkpt lat="46.56766" lon="-0.7613">
        <ele>90.9</ele>
        <time>2012-12-29T14:35:38Z</time>
      </trkpt>
      <trkpt lat="46.56782" lon="-0.76136">
        <ele>90.5</ele>
        <time>2012-12-29T14:35:41Z</time>
      </trkpt>
      <trkpt lat="46.56792" lon="-0.76139">
        <ele>90.2</ele>
        <time>2012-12-29T14:35:43Z</time>
      </trkpt>
      <trkpt lat="46.56806" lon="-0.76145">
        <ele>90.4</ele>
        <time>2012-12-29T14:35:46Z</time>
      </trkpt>
      <trkpt lat="46.56823" lon="-0.76152">
        <ele>90.3</ele>
        <time>2012-12-29T14:35:50Z</time>
      </trkpt>
      <trkpt lat="46.56832" lon="-0.76155">
        <ele>89.9</ele>
        <time>2012-12-29T14:35:52Z</time>
      </trkpt>
      <trkpt lat="46.56849" lon="-0.7616">
        <ele>88.3</ele>
        <time>2012-12-29T14:35:56Z</time>
      </trkpt>
      <trkpt lat="46.56865" lon="-0.76166">
        <ele>89.1</ele>
        <time>2012-12-29T14:36:00Z</time>
      </trkpt>
      <trkpt lat="46.56869" lon="-0.76167">
        <ele>89.2</ele>
        <time>2012-12-29T14:36:01Z</time>
      </trkpt>
      <trkpt lat="46.5688" lon="-0.76171">
        <ele>89.2</ele>
        <time>2012-12-29T14:36:04Z</time>
      </trkpt>
      <trkpt lat="46.56891" lon="-0.76173">
        <ele>89.1</ele>
        <time>2012-12-29T14:36:07Z</time>
      </trkpt>
      <trkpt lat="46.56898" lon="-0.76173">
        <ele>89.1</ele>
        <time>2012-12-29T14:36:09Z</time>
      </trkpt>
      <trkpt lat="46.56904" lon="-0.76173">
        <ele>89.2</ele>
        <time>2012-12-29T14:36:11Z</time>
      </trkpt>
      <trkpt lat="46.56913" lon="-0.7617">
        <ele>88.7</ele>
        <time>2012-12-29T14:36:14Z</time>
      </trkpt>
      <trkpt lat="46.56918" lon="-0.76171">
        <ele>88.9</ele>
        <time>2012-12-29T14:36:16Z</time>
      </trkpt>
      <trkpt lat="46.5692" lon="-0.76173">
        <ele>89.1</ele>
        <time>2012-12-29T14:36:17Z</time>
      </trkpt>
      <trkpt lat="46.56923" lon="-0.76179">
        <ele>89.1</ele>
        <time>2012-12-29T14:36:19Z</time>
      </trkpt>
      <trkpt lat="46.56923" lon="-0.76186">
        <ele>89</ele>
        <time>2012-12-29T14:36:21Z</time>
      </trkpt>
      <trkpt lat="46.56922" lon="-0.7619">
        <ele>88.8</ele>
        <time>2012-12-29T14:36:22Z</time>
      </trkpt>
      <trkpt lat="46.56919" lon="-0.76195">
        <ele>88.5</ele>
        <time>2012-12-29T14:36:24Z</time>
      </trkpt>
      <trkpt lat="46.56911" lon="-0.762">
        <ele>88.8</ele>
        <time>2012-12-29T14:36:27Z</time>
      </trkpt>
      <trkpt lat="46.56906" lon="-0.76205">
        <ele>88.9</ele>
        <time>2012-12-29T14:36:29Z</time>
      </trkpt>
      <trkpt lat="46.56901" lon="-0.76212">
        <ele>88.9</ele>
        <time>2012-12-29T14:36:31Z</time>
      </trkpt>
      <trkpt lat="46.56893" lon="-0.76223">
        <ele>89.2</ele>
        <time>2012-12-29T14:36:34Z</time>
      </trkpt>
      <trkpt lat="46.56891" lon="-0.76227">
        <ele>89</ele>
        <time>2012-12-29T14:36:35Z</time>
      </trkpt>
      <trkpt lat="46.56887" lon="-0.76236">
        <ele>88.7</ele>
        <time>2012-12-29T14:36:37Z</time>
      </trkpt>
      <trkpt lat="46.56883" lon="-0.76245">
        <ele>88.9</ele>
        <time>2012-12-29T14:36:39Z</time>
      </trkpt>
      <trkpt lat="46.56884" lon="-0.76256">
        <ele>88.6</ele>
        <time>2012-12-29T14:36:41Z</time>
      </trkpt>
      <trkpt lat="46.56888" lon="-0.76265">
        <ele>88.2</ele>
        <time>2012-12-29T14:36:43Z</time>
      </trkpt>
      <trkpt lat="46.56892" lon="-0.76276">
        <ele>88.2</ele>
        <time>2012-12-29T14:36:45Z</time>
      </trkpt>
      <trkpt lat="46.56897" lon="-0.76286">
        <ele>88.2</ele>
        <time>2012-12-29T14:36:47Z</time>
      </trkpt>
      <trkpt lat="46.56903" lon="-0.76296">
        <ele>87.7</ele>
        <time>2012-12-29T14:36:49Z</time>
      </trkpt>
      <trkpt lat="46.56908" lon="-0.76307">
        <ele>87.8</ele>
        <time>2012-12-29T14:36:51Z</time>
      </trkpt>
      <trkpt lat="46.56915" lon="-0.76322">
        <ele>88</ele>
        <time>2012-12-29T14:36:54Z</time>
      </trkpt>
      <trkpt lat="46.56926" lon="-0.76343">
        <ele>88.2</ele>
        <time>2012-12-29T14:36:58Z</time>
      </trkpt>
      <trkpt lat="46.56933" lon="-0.76354">
        <ele>88.5</ele>
        <time>2012-12-29T14:37:00Z</time>
      </trkpt>
      <trkpt lat="46.56937" lon="-0.7636">
        <ele>88.6</ele>
        <time>2012-12-29T14:37:01Z</time>
      </trkpt>
      <trkpt lat="46.5694" lon="-0.76367">
        <ele>88.8</ele>
        <time>2012-12-29T14:37:02Z</time>
      </trkpt>
      <trkpt lat="46.56948" lon="-0.7638">
        <ele>88.6</ele>
        <time>2012-12-29T14:37:04Z</time>
      </trkpt>
      <trkpt lat="46.56955" lon="-0.76394">
        <ele>88.4</ele>
        <time>2012-12-29T14:37:06Z</time>
      </trkpt>
      <trkpt lat="46.56959" lon="-0.76401">
        <ele>88.3</ele>
        <time>2012-12-29T14:37:07Z</time>
      </trkpt>
      <trkpt lat="46.56968" lon="-0.76415">
        <ele>88.1</ele>
        <time>2012-12-29T14:37:09Z</time>
      </trkpt>
      <trkpt lat="46.56974" lon="-0.76422">
        <ele>88.2</ele>
        <time>2012-12-29T14:37:10Z</time>
      </trkpt>
      <trkpt lat="46.5698" lon="-0.76428">
        <ele>88.3</ele>
        <time>2012-12-29T14:37:11Z</time>
      </trkpt>
      <trkpt lat="46.56992" lon="-0.76439">
        <ele>88.2</ele>
        <time>2012-12-29T14:37:13Z</time>
      </trkpt>
      <trkpt lat="46.56998" lon="-0.76446">
        <ele>88.2</ele>
        <time>2012-12-29T14:37:14Z</time>
      </trkpt>
      <trkpt lat="46.5701" lon="-0.76459">
        <ele>87.5</ele>
        <time>2012-12-29T14:37:16Z</time>
      </trkpt>
      <trkpt lat="46.57027" lon="-0.76477">
        <ele>85.9</ele>
        <time>2012-12-29T14:37:20Z</time>
      </trkpt>
      <trkpt lat="46.5703" lon="-0.7648">
        <ele>85.4</ele>
        <time>2012-12-29T14:37:22Z</time>
      </trkpt>
      <trkpt lat="46.57035" lon="-0.76488">
        <ele>83.9</ele>
        <time>2012-12-29T14:37:26Z</time>
      </trkpt>
      <trkpt lat="46.57035" lon="-0.76494">
        <ele>83.6</ele>
        <time>2012-12-29T14:37:28Z</time>
      </trkpt>
      <trkpt lat="46.57032" lon="-0.76504">
        <ele>83.8</ele>
        <time>2012-12-29T14:37:32Z</time>
      </trkpt>
      <trkpt lat="46.57028" lon="-0.76514">
        <ele>82.6</ele>
        <time>2012-12-29T14:37:37Z</time>
      </trkpt>
      <trkpt lat="46.57024" lon="-0.76517">
        <ele>81.9</ele>
        <time>2012-12-29T14:37:49Z</time>
      </trkpt>
      <trkpt lat="46.57017" lon="-0.76524">
        <ele>82.1</ele>
        <time>2012-12-29T14:37:53Z</time>
      </trkpt>
      <trkpt lat="46.57011" lon="-0.7653">
        <ele>81.7</ele>
        <time>2012-12-29T14:37:56Z</time>
      </trkpt>
      <trkpt lat="46.57007" lon="-0.76534">
        <ele>81.9</ele>
        <time>2012-12-29T14:37:58Z</time>
      </trkpt>
      <trkpt lat="46.57" lon="-0.76541">
        <ele>82.3</ele>
        <time>2012-12-29T14:38:02Z</time>
      </trkpt>
      <trkpt lat="46.56996" lon="-0.76545">
        <ele>82.5</ele>
        <time>2012-12-29T14:38:04Z</time>
      </trkpt>
      <trkpt lat="46.56995" lon="-0.76544">
        <ele>82.4</ele>
        <time>2012-12-29T14:38:13Z</time>
      </trkpt>
      <trkpt lat="46.56999" lon="-0.76541">
        <ele>82.2</ele>
        <time>2012-12-29T14:38:15Z</time>
      </trkpt>
      <trkpt lat="46.57003" lon="-0.76537">
        <ele>82.3</ele>
        <time>2012-12-29T14:38:17Z</time>
      </trkpt>
      <trkpt lat="46.57008" lon="-0.76532">
        <ele>82.4</ele>
        <time>2012-12-29T14:38:19Z</time>
      </trkpt>
      <trkpt lat="46.57014" lon="-0.76524">
        <ele>81.5</ele>
        <time>2012-12-29T14:38:22Z</time>
      </trkpt>
      <trkpt lat="46.5702" lon="-0.7652">
        <ele>80.8</ele>
        <time>2012-12-29T14:38:24Z</time>
      </trkpt>
      <trkpt lat="46.57026" lon="-0.76517">
        <ele>80.3</ele>
        <time>2012-12-29T14:38:27Z</time>
      </trkpt>
      <trkpt lat="46.57032" lon="-0.76513">
        <ele>79.9</ele>
        <time>2012-12-29T14:38:31Z</time>
      </trkpt>
      <trkpt lat="46.57034" lon="-0.76507">
        <ele>80.3</ele>
        <time>2012-12-29T14:38:34Z</time>
      </trkpt>
      <trkpt lat="46.57035" lon="-0.765">
        <ele>80</ele>
        <time>2012-12-29T14:38:36Z</time>
      </trkpt>
      <trkpt lat="46.57039" lon="-0.76497">
        <ele>79.5</ele>
        <time>2012-12-29T14:38:38Z</time>
      </trkpt>
      <trkpt lat="46.57046" lon="-0.76498">
        <ele>79.6</ele>
        <time>2012-12-29T14:38:40Z</time>
      </trkpt>
      <trkpt lat="46.57051" lon="-0.76503">
        <ele>79.7</ele>
        <time>2012-12-29T14:38:42Z</time>
      </trkpt>
      <trkpt lat="46.57057" lon="-0.76509">
        <ele>78.8</ele>
        <time>2012-12-29T14:38:44Z</time>
      </trkpt>
      <trkpt lat="46.57062" lon="-0.76515">
        <ele>78.5</ele>
        <time>2012-12-29T14:38:46Z</time>
      </trkpt>
      <trkpt lat="46.57064" lon="-0.76518">
        <ele>78.4</ele>
        <time>2012-12-29T14:38:47Z</time>
      </trkpt>
      <trkpt lat="46.57069" lon="-0.76523">
        <ele>78.1</ele>
        <time>2012-12-29T14:38:49Z</time>
      </trkpt>
      <trkpt lat="46.5708" lon="-0.76534">
        <ele>77.4</ele>
        <time>2012-12-29T14:38:53Z</time>
      </trkpt>
      <trkpt lat="46.57087" lon="-0.7654">
        <ele>76.8</ele>
        <time>2012-12-29T14:38:55Z</time>
      </trkpt>
      <trkpt lat="46.57099" lon="-0.76546">
        <ele>75.9</ele>
        <time>2012-12-29T14:38:58Z</time>
      </trkpt>
      <trkpt lat="46.57107" lon="-0.76552">
        <ele>75.7</ele>
        <time>2012-12-29T14:39:00Z</time>
      </trkpt>
      <trkpt lat="46.57114" lon="-0.76558">
        <ele>74.9</ele>
        <time>2012-12-29T14:39:02Z</time>
      </trkpt>
      <trkpt lat="46.57122" lon="-0.76565">
        <ele>74</ele>
        <time>2012-12-29T14:39:04Z</time>
      </trkpt>
      <trkpt lat="46.57136" lon="-0.76577">
        <ele>72</ele>
        <time>2012-12-29T14:39:08Z</time>
      </trkpt>
      <trkpt lat="46.57143" lon="-0.76581">
        <ele>71.8</ele>
        <time>2012-12-29T14:39:10Z</time>
      </trkpt>
      <trkpt lat="46.57146" lon="-0.76584">
        <ele>71.6</ele>
        <time>2012-12-29T14:39:11Z</time>
      </trkpt>
      <trkpt lat="46.57154" lon="-0.7659">
        <ele>71.3</ele>
        <time>2012-12-29T14:39:13Z</time>
      </trkpt>
      <trkpt lat="46.57158" lon="-0.76594">
        <ele>70.6</ele>
        <time>2012-12-29T14:39:14Z</time>
      </trkpt>
      <trkpt lat="46.57163" lon="-0.76599">
        <ele>70.1</ele>
        <time>2012-12-29T14:39:15Z</time>
      </trkpt>
      <trkpt lat="46.57174" lon="-0.76616">
        <ele>68.7</ele>
        <time>2012-12-29T14:39:19Z</time>
      </trkpt>
      <trkpt lat="46.57176" lon="-0.76626">
        <ele>67.7</ele>
        <time>2012-12-29T14:39:21Z</time>
      </trkpt>
      <trkpt lat="46.57174" lon="-0.76634">
        <ele>66.7</ele>
        <time>2012-12-29T14:39:23Z</time>
      </trkpt>
      <trkpt lat="46.57171" lon="-0.76642">
        <ele>66.5</ele>
        <time>2012-12-29T14:39:25Z</time>
      </trkpt>
      <trkpt lat="46.57165" lon="-0.76653">
        <ele>66.9</ele>
        <time>2012-12-29T14:39:28Z</time>
      </trkpt>
      <trkpt lat="46.57161" lon="-0.76662">
        <ele>66.6</ele>
        <time>2012-12-29T14:39:31Z</time>
      </trkpt>
      <trkpt lat="46.57159" lon="-0.76667">
        <ele>64.3</ele>
        <time>2012-12-29T14:39:51Z</time>
      </trkpt>
      <trkpt lat="46.57153" lon="-0.76675">
        <ele>63.7</ele>
        <time>2012-12-29T14:39:56Z</time>
      </trkpt>
      <trkpt lat="46.57149" lon="-0.7668">
        <ele>63.6</ele>
        <time>2012-12-29T14:39:58Z</time>
      </trkpt>
      <trkpt lat="46.57145" lon="-0.76684">
        <ele>63.5</ele>
        <time>2012-12-29T14:40:00Z</time>
      </trkpt>
      <trkpt lat="46.57132" lon="-0.76694">
        <ele>62.2</ele>
        <time>2012-12-29T14:40:07Z</time>
      </trkpt>
      <trkpt lat="46.57127" lon="-0.76697">
        <ele>62.1</ele>
        <time>2012-12-29T14:40:09Z</time>
      </trkpt>
      <trkpt lat="46.57122" lon="-0.76699">
        <ele>62</ele>
        <time>2012-12-29T14:40:11Z</time>
      </trkpt>
      <trkpt lat="46.57116" lon="-0.76703">
        <ele>62.1</ele>
        <time>2012-12-29T14:40:14Z</time>
      </trkpt>
      <trkpt lat="46.57114" lon="-0.76707">
        <ele>62.5</ele>
        <time>2012-12-29T14:40:16Z</time>
      </trkpt>
      <trkpt lat="46.57117" lon="-0.76714">
        <ele>63.2</ele>
        <time>2012-12-29T14:40:19Z</time>
      </trkpt>
      <trkpt lat="46.57122" lon="-0.7672">
        <ele>63</ele>
        <time>2012-12-29T14:40:22Z</time>
      </trkpt>
      <trkpt lat="46.57131" lon="-0.76734">
        <ele>62.6</ele>
        <time>2012-12-29T14:40:28Z</time>
      </trkpt>
      <trkpt lat="46.57137" lon="-0.76741">
        <ele>62.3</ele>
        <time>2012-12-29T14:40:31Z</time>
      </trkpt>
      <trkpt lat="46.57143" lon="-0.76747">
        <ele>62.3</ele>
        <time>2012-12-29T14:40:34Z</time>
      </trkpt>
      <trkpt lat="46.57147" lon="-0.76752">
        <ele>62.6</ele>
        <time>2012-12-29T14:40:36Z</time>
      </trkpt>
      <trkpt lat="46.57158" lon="-0.76767">
        <ele>63.1</ele>
        <time>2012-12-29T14:40:42Z</time>
      </trkpt>
      <trkpt lat="46.57164" lon="-0.76777">
        <ele>62.8</ele>
        <time>2012-12-29T14:40:46Z</time>
      </trkpt>
      <trkpt lat="46.57167" lon="-0.76782">
        <ele>63.4</ele>
        <time>2012-12-29T14:40:48Z</time>
      </trkpt>
      <trkpt lat="46.57171" lon="-0.76792">
        <ele>63</ele>
        <time>2012-12-29T14:40:51Z</time>
      </trkpt>
      <trkpt lat="46.57173" lon="-0.76798">
        <ele>63</ele>
        <time>2012-12-29T14:40:53Z</time>
      </trkpt>
      <trkpt lat="46.57176" lon="-0.76812">
        <ele>63.3</ele>
        <time>2012-12-29T14:40:57Z</time>
      </trkpt>
      <trkpt lat="46.57179" lon="-0.76822">
        <ele>63.4</ele>
        <time>2012-12-29T14:41:00Z</time>
      </trkpt>
      <trkpt lat="46.57182" lon="-0.76829">
        <ele>63.5</ele>
        <time>2012-12-29T14:41:02Z</time>
      </trkpt>
      <trkpt lat="46.57185" lon="-0.76834">
        <ele>63.4</ele>
        <time>2012-12-29T14:41:04Z</time>
      </trkpt>
      <trkpt lat="46.57189" lon="-0.7684">
        <ele>63.5</ele>
        <time>2012-12-29T14:41:06Z</time>
      </trkpt>
      <trkpt lat="46.57192" lon="-0.76846">
        <ele>63.8</ele>
        <time>2012-12-29T14:41:08Z</time>
      </trkpt>
      <trkpt lat="46.57194" lon="-0.76849">
        <ele>64.2</ele>
        <time>2012-12-29T14:41:09Z</time>
      </trkpt>
      <trkpt lat="46.57199" lon="-0.76857">
        <ele>65</ele>
        <time>2012-12-29T14:41:12Z</time>
      </trkpt>
      <trkpt lat="46.57203" lon="-0.76862">
        <ele>64.7</ele>
        <time>2012-12-29T14:41:14Z</time>
      </trkpt>
      <trkpt lat="46.57209" lon="-0.76869">
        <ele>64.9</ele>
        <time>2012-12-29T14:41:17Z</time>
      </trkpt>
      <trkpt lat="46.57215" lon="-0.76875">
        <ele>65.4</ele>
        <time>2012-12-29T14:41:20Z</time>
      </trkpt>
      <trkpt lat="46.5722" lon="-0.76878">
        <ele>65.9</ele>
        <time>2012-12-29T14:41:22Z</time>
      </trkpt>
      <trkpt lat="46.57223" lon="-0.76882">
        <ele>66.5</ele>
        <time>2012-12-29T14:41:24Z</time>
      </trkpt>
      <trkpt lat="46.57229" lon="-0.7689">
        <ele>67.3</ele>
        <time>2012-12-29T14:41:28Z</time>
      </trkpt>
      <trkpt lat="46.5723" lon="-0.76896">
        <ele>67.4</ele>
        <time>2012-12-29T14:41:30Z</time>
      </trkpt>
      <trkpt lat="46.57231" lon="-0.76906">
        <ele>67.8</ele>
        <time>2012-12-29T14:41:33Z</time>
      </trkpt>
      <trkpt lat="46.57231" lon="-0.76919">
        <ele>67.8</ele>
        <time>2012-12-29T14:41:37Z</time>
      </trkpt>
      <trkpt lat="46.57228" lon="-0.76938">
        <ele>69.3</ele>
        <time>2012-12-29T14:41:43Z</time>
      </trkpt>
      <trkpt lat="46.57226" lon="-0.76944">
        <ele>69.6</ele>
        <time>2012-12-29T14:41:45Z</time>
      </trkpt>
      <trkpt lat="46.57223" lon="-0.76954">
        <ele>69.9</ele>
        <time>2012-12-29T14:41:48Z</time>
      </trkpt>
      <trkpt lat="46.57219" lon="-0.76963">
        <ele>69.5</ele>
        <time>2012-12-29T14:41:51Z</time>
      </trkpt>
      <trkpt lat="46.57215" lon="-0.76973">
        <ele>70</ele>
        <time>2012-12-29T14:41:55Z</time>
      </trkpt>
      <trkpt lat="46.57212" lon="-0.76977">
        <ele>70</ele>
        <time>2012-12-29T14:41:57Z</time>
      </trkpt>
      <trkpt lat="46.57206" lon="-0.76987">
        <ele>69.8</ele>
        <time>2012-12-29T14:42:01Z</time>
      </trkpt>
      <trkpt lat="46.57201" lon="-0.76995">
        <ele>70.2</ele>
        <time>2012-12-29T14:42:06Z</time>
      </trkpt>
      <trkpt lat="46.57199" lon="-0.77004">
        <ele>70.3</ele>
        <time>2012-12-29T14:42:09Z</time>
      </trkpt>
      <trkpt lat="46.57197" lon="-0.7701">
        <ele>71</ele>
        <time>2012-12-29T14:42:11Z</time>
      </trkpt>
      <trkpt lat="46.57192" lon="-0.77017">
        <ele>70.9</ele>
        <time>2012-12-29T14:42:14Z</time>
      </trkpt>
      <trkpt lat="46.57189" lon="-0.77026">
        <ele>71.3</ele>
        <time>2012-12-29T14:42:17Z</time>
      </trkpt>
      <trkpt lat="46.57186" lon="-0.7703">
        <ele>71.6</ele>
        <time>2012-12-29T14:42:19Z</time>
      </trkpt>
      <trkpt lat="46.5718" lon="-0.77035">
        <ele>71.7</ele>
        <time>2012-12-29T14:42:22Z</time>
      </trkpt>
      <trkpt lat="46.57175" lon="-0.77036">
        <ele>72</ele>
        <time>2012-12-29T14:42:24Z</time>
      </trkpt>
      <trkpt lat="46.57173" lon="-0.77037">
        <ele>72</ele>
        <time>2012-12-29T14:42:25Z</time>
      </trkpt>
      <trkpt lat="46.57169" lon="-0.77042">
        <ele>71.8</ele>
        <time>2012-12-29T14:42:27Z</time>
      </trkpt>
      <trkpt lat="46.5717" lon="-0.77053">
        <ele>78.9</ele>
        <time>2012-12-29T14:42:47Z</time>
      </trkpt>
    </trkseg>
  </trk>
</gpx>